<?xml version="1.0" encoding="UTF-8" standalone="no" ?>
<gpx xmlns="http://www.topografix.com/GPX/1/1" xmlns:xsi="http://www.w3.org/2001/XMLSchema-instance" xsi:schemaLocation="http://www.topografix.com/GPX/1/1 http://www.topografix.com/GPX/1/1/gpx.xsd" version="1.1" creator="VisuGPX - https://www.visugpx.com">
  <metadata>
    <name>83-libre-Sauveclare</name>
    <desc><![CDATA[83-libre-Sauveclare : Chapelle St jean
2021-04-18-Sauveclare]]></desc>
  </metadata>
  <trk>
    <name><![CDATA[2021-04-18-Sauveclare-ARR-ORB]]></name>
    <trkseg>
      <trkpt lat="43.49682" lon="6.3805">
        <ele>241.4</ele>
        <time>2021-04-18T06:27:07Z</time>
      </trkpt>
      <trkpt lat="43.49682" lon="6.3805">
        <ele>241.3</ele>
        <time>2021-04-18T06:27:08Z</time>
      </trkpt>
      <trkpt lat="43.49683" lon="6.38044">
        <ele>240.2</ele>
        <time>2021-04-18T06:27:31Z</time>
      </trkpt>
      <trkpt lat="43.49685" lon="6.3805">
        <ele>239.6</ele>
        <time>2021-04-18T06:28:49Z</time>
      </trkpt>
      <trkpt lat="43.49682" lon="6.38044">
        <ele>239.7</ele>
        <time>2021-04-18T06:29:15Z</time>
      </trkpt>
      <trkpt lat="43.49681" lon="6.38038">
        <ele>239.7</ele>
        <time>2021-04-18T06:29:19Z</time>
      </trkpt>
      <trkpt lat="43.49676" lon="6.38034">
        <ele>239.9</ele>
        <time>2021-04-18T06:29:24Z</time>
      </trkpt>
      <trkpt lat="43.49672" lon="6.3803">
        <ele>239.9</ele>
        <time>2021-04-18T06:29:28Z</time>
      </trkpt>
      <trkpt lat="43.49667" lon="6.3803">
        <ele>240</ele>
        <time>2021-04-18T06:29:33Z</time>
      </trkpt>
      <trkpt lat="43.49663" lon="6.38028">
        <ele>240</ele>
        <time>2021-04-18T06:29:38Z</time>
      </trkpt>
      <trkpt lat="43.49658" lon="6.38026">
        <ele>240.1</ele>
        <time>2021-04-18T06:29:45Z</time>
      </trkpt>
      <trkpt lat="43.49655" lon="6.3802">
        <ele>240.1</ele>
        <time>2021-04-18T06:29:50Z</time>
      </trkpt>
      <trkpt lat="43.49651" lon="6.38016">
        <ele>240.3</ele>
        <time>2021-04-18T06:29:56Z</time>
      </trkpt>
      <trkpt lat="43.49653" lon="6.3801">
        <ele>240.6</ele>
        <time>2021-04-18T06:30:14Z</time>
      </trkpt>
      <trkpt lat="43.49657" lon="6.38007">
        <ele>241.2</ele>
        <time>2021-04-18T06:30:23Z</time>
      </trkpt>
      <trkpt lat="43.49661" lon="6.38005">
        <ele>242.2</ele>
        <time>2021-04-18T06:30:31Z</time>
      </trkpt>
      <trkpt lat="43.49666" lon="6.38004">
        <ele>243.9</ele>
        <time>2021-04-18T06:30:46Z</time>
      </trkpt>
      <trkpt lat="43.49671" lon="6.38007">
        <ele>244.5</ele>
        <time>2021-04-18T06:30:52Z</time>
      </trkpt>
      <trkpt lat="43.49676" lon="6.38008">
        <ele>245</ele>
        <time>2021-04-18T06:30:57Z</time>
      </trkpt>
      <trkpt lat="43.49682" lon="6.3801">
        <ele>245.4</ele>
        <time>2021-04-18T06:31:02Z</time>
      </trkpt>
      <trkpt lat="43.49686" lon="6.38013">
        <ele>245.8</ele>
        <time>2021-04-18T06:31:06Z</time>
      </trkpt>
      <trkpt lat="43.49691" lon="6.38015">
        <ele>246.1</ele>
        <time>2021-04-18T06:31:11Z</time>
      </trkpt>
      <trkpt lat="43.49696" lon="6.38017">
        <ele>246.3</ele>
        <time>2021-04-18T06:31:15Z</time>
      </trkpt>
      <trkpt lat="43.497" lon="6.38019">
        <ele>246.5</ele>
        <time>2021-04-18T06:31:19Z</time>
      </trkpt>
      <trkpt lat="43.49705" lon="6.3802">
        <ele>246.6</ele>
        <time>2021-04-18T06:31:24Z</time>
      </trkpt>
      <trkpt lat="43.49711" lon="6.38021">
        <ele>246.8</ele>
        <time>2021-04-18T06:31:29Z</time>
      </trkpt>
      <trkpt lat="43.49715" lon="6.3802">
        <ele>247</ele>
        <time>2021-04-18T06:31:33Z</time>
      </trkpt>
      <trkpt lat="43.49721" lon="6.38019">
        <ele>247.4</ele>
        <time>2021-04-18T06:31:37Z</time>
      </trkpt>
      <trkpt lat="43.49726" lon="6.38018">
        <ele>248.2</ele>
        <time>2021-04-18T06:31:43Z</time>
      </trkpt>
      <trkpt lat="43.4973" lon="6.3802">
        <ele>248.7</ele>
        <time>2021-04-18T06:31:49Z</time>
      </trkpt>
      <trkpt lat="43.49735" lon="6.38023">
        <ele>249.4</ele>
        <time>2021-04-18T06:31:55Z</time>
      </trkpt>
      <trkpt lat="43.49739" lon="6.38028">
        <ele>250</ele>
        <time>2021-04-18T06:32:01Z</time>
      </trkpt>
      <trkpt lat="43.49742" lon="6.38033">
        <ele>250.6</ele>
        <time>2021-04-18T06:32:06Z</time>
      </trkpt>
      <trkpt lat="43.49744" lon="6.38039">
        <ele>251</ele>
        <time>2021-04-18T06:32:10Z</time>
      </trkpt>
      <trkpt lat="43.49746" lon="6.38046">
        <ele>251.6</ele>
        <time>2021-04-18T06:32:15Z</time>
      </trkpt>
      <trkpt lat="43.49749" lon="6.38052">
        <ele>252</ele>
        <time>2021-04-18T06:32:20Z</time>
      </trkpt>
      <trkpt lat="43.49752" lon="6.38058">
        <ele>252.3</ele>
        <time>2021-04-18T06:32:24Z</time>
      </trkpt>
      <trkpt lat="43.49754" lon="6.38063">
        <ele>252.5</ele>
        <time>2021-04-18T06:32:28Z</time>
      </trkpt>
      <trkpt lat="43.49757" lon="6.38069">
        <ele>252.7</ele>
        <time>2021-04-18T06:32:32Z</time>
      </trkpt>
      <trkpt lat="43.49759" lon="6.38074">
        <ele>253</ele>
        <time>2021-04-18T06:32:38Z</time>
      </trkpt>
      <trkpt lat="43.49762" lon="6.3808">
        <ele>253.2</ele>
        <time>2021-04-18T06:32:43Z</time>
      </trkpt>
      <trkpt lat="43.49765" lon="6.38086">
        <ele>253.4</ele>
        <time>2021-04-18T06:32:48Z</time>
      </trkpt>
      <trkpt lat="43.49769" lon="6.38091">
        <ele>253.7</ele>
        <time>2021-04-18T06:32:54Z</time>
      </trkpt>
      <trkpt lat="43.49772" lon="6.38095">
        <ele>254</ele>
        <time>2021-04-18T06:33:00Z</time>
      </trkpt>
      <trkpt lat="43.49777" lon="6.38099">
        <ele>254.5</ele>
        <time>2021-04-18T06:33:07Z</time>
      </trkpt>
      <trkpt lat="43.49781" lon="6.38103">
        <ele>254.9</ele>
        <time>2021-04-18T06:33:13Z</time>
      </trkpt>
      <trkpt lat="43.49786" lon="6.38106">
        <ele>255.1</ele>
        <time>2021-04-18T06:33:18Z</time>
      </trkpt>
      <trkpt lat="43.4979" lon="6.38109">
        <ele>255.4</ele>
        <time>2021-04-18T06:33:22Z</time>
      </trkpt>
      <trkpt lat="43.49795" lon="6.38111">
        <ele>255.6</ele>
        <time>2021-04-18T06:33:27Z</time>
      </trkpt>
      <trkpt lat="43.49801" lon="6.38113">
        <ele>255.7</ele>
        <time>2021-04-18T06:33:31Z</time>
      </trkpt>
      <trkpt lat="43.49806" lon="6.38114">
        <ele>255.8</ele>
        <time>2021-04-18T06:33:35Z</time>
      </trkpt>
      <trkpt lat="43.49811" lon="6.38116">
        <ele>255.9</ele>
        <time>2021-04-18T06:33:39Z</time>
      </trkpt>
      <trkpt lat="43.49816" lon="6.38118">
        <ele>256</ele>
        <time>2021-04-18T06:33:44Z</time>
      </trkpt>
      <trkpt lat="43.49821" lon="6.3812">
        <ele>256</ele>
        <time>2021-04-18T06:33:49Z</time>
      </trkpt>
      <trkpt lat="43.49826" lon="6.38122">
        <ele>256.1</ele>
        <time>2021-04-18T06:33:53Z</time>
      </trkpt>
      <trkpt lat="43.4983" lon="6.38124">
        <ele>256.1</ele>
        <time>2021-04-18T06:33:57Z</time>
      </trkpt>
      <trkpt lat="43.49835" lon="6.38125">
        <ele>256.2</ele>
        <time>2021-04-18T06:34:01Z</time>
      </trkpt>
      <trkpt lat="43.49839" lon="6.38129">
        <ele>256.4</ele>
        <time>2021-04-18T06:34:06Z</time>
      </trkpt>
      <trkpt lat="43.49844" lon="6.38132">
        <ele>256.6</ele>
        <time>2021-04-18T06:34:10Z</time>
      </trkpt>
      <trkpt lat="43.49849" lon="6.38134">
        <ele>256</ele>
        <time>2021-04-18T06:34:14Z</time>
      </trkpt>
      <trkpt lat="43.49853" lon="6.38137">
        <ele>257.1</ele>
        <time>2021-04-18T06:34:21Z</time>
      </trkpt>
      <trkpt lat="43.49856" lon="6.38142">
        <ele>257.2</ele>
        <time>2021-04-18T06:34:24Z</time>
      </trkpt>
      <trkpt lat="43.4986" lon="6.38147">
        <ele>257.4</ele>
        <time>2021-04-18T06:34:31Z</time>
      </trkpt>
      <trkpt lat="43.49862" lon="6.38152">
        <ele>257.5</ele>
        <time>2021-04-18T06:34:40Z</time>
      </trkpt>
      <trkpt lat="43.49863" lon="6.3816">
        <ele>257.6</ele>
        <time>2021-04-18T06:34:45Z</time>
      </trkpt>
      <trkpt lat="43.49867" lon="6.38164">
        <ele>257.7</ele>
        <time>2021-04-18T06:34:53Z</time>
      </trkpt>
      <trkpt lat="43.4987" lon="6.38171">
        <ele>257.7</ele>
        <time>2021-04-18T06:34:58Z</time>
      </trkpt>
      <trkpt lat="43.49874" lon="6.38176">
        <ele>257.8</ele>
        <time>2021-04-18T06:35:02Z</time>
      </trkpt>
      <trkpt lat="43.49878" lon="6.38179">
        <ele>257.9</ele>
        <time>2021-04-18T06:35:06Z</time>
      </trkpt>
      <trkpt lat="43.49883" lon="6.3818">
        <ele>258</ele>
        <time>2021-04-18T06:35:10Z</time>
      </trkpt>
      <trkpt lat="43.49887" lon="6.3818">
        <ele>258.1</ele>
        <time>2021-04-18T06:35:13Z</time>
      </trkpt>
      <trkpt lat="43.49892" lon="6.3818">
        <ele>258.3</ele>
        <time>2021-04-18T06:35:16Z</time>
      </trkpt>
      <trkpt lat="43.49897" lon="6.3818">
        <ele>258.5</ele>
        <time>2021-04-18T06:35:20Z</time>
      </trkpt>
      <trkpt lat="43.49901" lon="6.38178">
        <ele>259</ele>
        <time>2021-04-18T06:35:24Z</time>
      </trkpt>
      <trkpt lat="43.49906" lon="6.38177">
        <ele>259.3</ele>
        <time>2021-04-18T06:35:27Z</time>
      </trkpt>
      <trkpt lat="43.49911" lon="6.38175">
        <ele>259.7</ele>
        <time>2021-04-18T06:35:31Z</time>
      </trkpt>
      <trkpt lat="43.49915" lon="6.38169">
        <ele>260.2</ele>
        <time>2021-04-18T06:35:36Z</time>
      </trkpt>
      <trkpt lat="43.49918" lon="6.38164">
        <ele>260.6</ele>
        <time>2021-04-18T06:35:40Z</time>
      </trkpt>
      <trkpt lat="43.49919" lon="6.38158">
        <ele>261.1</ele>
        <time>2021-04-18T06:35:46Z</time>
      </trkpt>
      <trkpt lat="43.4992" lon="6.38151">
        <ele>261.9</ele>
        <time>2021-04-18T06:35:51Z</time>
      </trkpt>
      <trkpt lat="43.49921" lon="6.38145">
        <ele>262.8</ele>
        <time>2021-04-18T06:35:56Z</time>
      </trkpt>
      <trkpt lat="43.49921" lon="6.38138">
        <ele>263.6</ele>
        <time>2021-04-18T06:36:01Z</time>
      </trkpt>
      <trkpt lat="43.49921" lon="6.38131">
        <ele>264.5</ele>
        <time>2021-04-18T06:36:08Z</time>
      </trkpt>
      <trkpt lat="43.49922" lon="6.38124">
        <ele>265.4</ele>
        <time>2021-04-18T06:36:13Z</time>
      </trkpt>
      <trkpt lat="43.49922" lon="6.38116">
        <ele>266.5</ele>
        <time>2021-04-18T06:36:18Z</time>
      </trkpt>
      <trkpt lat="43.49922" lon="6.3811">
        <ele>267.5</ele>
        <time>2021-04-18T06:36:24Z</time>
      </trkpt>
      <trkpt lat="43.49925" lon="6.38103">
        <ele>269.6</ele>
        <time>2021-04-18T06:36:35Z</time>
      </trkpt>
      <trkpt lat="43.49927" lon="6.38097">
        <ele>271.1</ele>
        <time>2021-04-18T06:36:43Z</time>
      </trkpt>
      <trkpt lat="43.49929" lon="6.3809">
        <ele>272.4</ele>
        <time>2021-04-18T06:36:51Z</time>
      </trkpt>
      <trkpt lat="43.49931" lon="6.38085">
        <ele>273.9</ele>
        <time>2021-04-18T06:36:59Z</time>
      </trkpt>
      <trkpt lat="43.49931" lon="6.38078">
        <ele>276</ele>
        <time>2021-04-18T06:37:11Z</time>
      </trkpt>
      <trkpt lat="43.49933" lon="6.38072">
        <ele>277.1</ele>
        <time>2021-04-18T06:37:17Z</time>
      </trkpt>
      <trkpt lat="43.49934" lon="6.38066">
        <ele>278.9</ele>
        <time>2021-04-18T06:37:26Z</time>
      </trkpt>
      <trkpt lat="43.49936" lon="6.3806">
        <ele>279.7</ele>
        <time>2021-04-18T06:37:30Z</time>
      </trkpt>
      <trkpt lat="43.49938" lon="6.38054">
        <ele>280.9</ele>
        <time>2021-04-18T06:37:36Z</time>
      </trkpt>
      <trkpt lat="43.49939" lon="6.38048">
        <ele>281.8</ele>
        <time>2021-04-18T06:37:42Z</time>
      </trkpt>
      <trkpt lat="43.49941" lon="6.3804">
        <ele>282.8</ele>
        <time>2021-04-18T06:37:47Z</time>
      </trkpt>
      <trkpt lat="43.49942" lon="6.38034">
        <ele>283.4</ele>
        <time>2021-04-18T06:37:52Z</time>
      </trkpt>
      <trkpt lat="43.49947" lon="6.38032">
        <ele>284.9</ele>
        <time>2021-04-18T06:38:11Z</time>
      </trkpt>
      <trkpt lat="43.49951" lon="6.38029">
        <ele>285.2</ele>
        <time>2021-04-18T06:38:18Z</time>
      </trkpt>
      <trkpt lat="43.49955" lon="6.38027">
        <ele>285.4</ele>
        <time>2021-04-18T06:38:22Z</time>
      </trkpt>
      <trkpt lat="43.4996" lon="6.38025">
        <ele>285.5</ele>
        <time>2021-04-18T06:38:26Z</time>
      </trkpt>
      <trkpt lat="43.49965" lon="6.38023">
        <ele>285.7</ele>
        <time>2021-04-18T06:38:31Z</time>
      </trkpt>
      <trkpt lat="43.4997" lon="6.3802">
        <ele>285.5</ele>
        <time>2021-04-18T06:38:36Z</time>
      </trkpt>
      <trkpt lat="43.49974" lon="6.38017">
        <ele>285.4</ele>
        <time>2021-04-18T06:38:40Z</time>
      </trkpt>
      <trkpt lat="43.49979" lon="6.38014">
        <ele>285.3</ele>
        <time>2021-04-18T06:38:44Z</time>
      </trkpt>
      <trkpt lat="43.49984" lon="6.38011">
        <ele>285.1</ele>
        <time>2021-04-18T06:38:48Z</time>
      </trkpt>
      <trkpt lat="43.49988" lon="6.38008">
        <ele>285</ele>
        <time>2021-04-18T06:38:52Z</time>
      </trkpt>
      <trkpt lat="43.49993" lon="6.38003">
        <ele>284.8</ele>
        <time>2021-04-18T06:38:57Z</time>
      </trkpt>
      <trkpt lat="43.49997" lon="6.37999">
        <ele>284.6</ele>
        <time>2021-04-18T06:39:01Z</time>
      </trkpt>
      <trkpt lat="43.5" lon="6.37994">
        <ele>284.5</ele>
        <time>2021-04-18T06:39:05Z</time>
      </trkpt>
      <trkpt lat="43.50002" lon="6.37987">
        <ele>284.4</ele>
        <time>2021-04-18T06:39:10Z</time>
      </trkpt>
      <trkpt lat="43.50003" lon="6.37979">
        <ele>284.3</ele>
        <time>2021-04-18T06:39:15Z</time>
      </trkpt>
      <trkpt lat="43.50004" lon="6.37973">
        <ele>284.3</ele>
        <time>2021-04-18T06:39:18Z</time>
      </trkpt>
      <trkpt lat="43.50005" lon="6.37967">
        <ele>284.4</ele>
        <time>2021-04-18T06:39:22Z</time>
      </trkpt>
      <trkpt lat="43.50005" lon="6.37961">
        <ele>284.6</ele>
        <time>2021-04-18T06:39:26Z</time>
      </trkpt>
      <trkpt lat="43.50006" lon="6.37954">
        <ele>284.8</ele>
        <time>2021-04-18T06:39:29Z</time>
      </trkpt>
      <trkpt lat="43.50008" lon="6.37948">
        <ele>284.9</ele>
        <time>2021-04-18T06:39:32Z</time>
      </trkpt>
      <trkpt lat="43.50011" lon="6.37942">
        <ele>285</ele>
        <time>2021-04-18T06:39:35Z</time>
      </trkpt>
      <trkpt lat="43.50014" lon="6.37936">
        <ele>285.1</ele>
        <time>2021-04-18T06:39:38Z</time>
      </trkpt>
      <trkpt lat="43.50015" lon="6.37929">
        <ele>285.1</ele>
        <time>2021-04-18T06:39:42Z</time>
      </trkpt>
      <trkpt lat="43.50017" lon="6.37922">
        <ele>285.2</ele>
        <time>2021-04-18T06:39:46Z</time>
      </trkpt>
      <trkpt lat="43.50018" lon="6.37915">
        <ele>285.3</ele>
        <time>2021-04-18T06:39:52Z</time>
      </trkpt>
      <trkpt lat="43.50018" lon="6.37907">
        <ele>285.3</ele>
        <time>2021-04-18T06:39:57Z</time>
      </trkpt>
      <trkpt lat="43.50017" lon="6.37901">
        <ele>285.4</ele>
        <time>2021-04-18T06:40:01Z</time>
      </trkpt>
      <trkpt lat="43.50017" lon="6.37894">
        <ele>285.7</ele>
        <time>2021-04-18T06:40:06Z</time>
      </trkpt>
      <trkpt lat="43.50016" lon="6.37887">
        <ele>286</ele>
        <time>2021-04-18T06:40:10Z</time>
      </trkpt>
      <trkpt lat="43.50016" lon="6.37881">
        <ele>286.4</ele>
        <time>2021-04-18T06:40:14Z</time>
      </trkpt>
      <trkpt lat="43.50015" lon="6.37875">
        <ele>286.8</ele>
        <time>2021-04-18T06:40:19Z</time>
      </trkpt>
      <trkpt lat="43.50016" lon="6.37868">
        <ele>287.2</ele>
        <time>2021-04-18T06:40:24Z</time>
      </trkpt>
      <trkpt lat="43.50015" lon="6.37861">
        <ele>287.4</ele>
        <time>2021-04-18T06:40:28Z</time>
      </trkpt>
      <trkpt lat="43.50016" lon="6.37854">
        <ele>287.5</ele>
        <time>2021-04-18T06:40:32Z</time>
      </trkpt>
      <trkpt lat="43.50017" lon="6.37847">
        <ele>287.7</ele>
        <time>2021-04-18T06:40:36Z</time>
      </trkpt>
      <trkpt lat="43.50018" lon="6.37839">
        <ele>287.9</ele>
        <time>2021-04-18T06:40:40Z</time>
      </trkpt>
      <trkpt lat="43.50018" lon="6.37832">
        <ele>288.1</ele>
        <time>2021-04-18T06:40:45Z</time>
      </trkpt>
      <trkpt lat="43.50021" lon="6.37826">
        <ele>288.1</ele>
        <time>2021-04-18T06:40:48Z</time>
      </trkpt>
      <trkpt lat="43.50023" lon="6.37819">
        <ele>288.2</ele>
        <time>2021-04-18T06:40:52Z</time>
      </trkpt>
      <trkpt lat="43.50022" lon="6.37811">
        <ele>288.1</ele>
        <time>2021-04-18T06:40:56Z</time>
      </trkpt>
      <trkpt lat="43.50023" lon="6.37805">
        <ele>288</ele>
        <time>2021-04-18T06:40:59Z</time>
      </trkpt>
      <trkpt lat="43.50023" lon="6.37799">
        <ele>287.9</ele>
        <time>2021-04-18T06:41:05Z</time>
      </trkpt>
      <trkpt lat="43.50024" lon="6.37792">
        <ele>287.8</ele>
        <time>2021-04-18T06:41:09Z</time>
      </trkpt>
      <trkpt lat="43.50027" lon="6.37785">
        <ele>287.8</ele>
        <time>2021-04-18T06:41:13Z</time>
      </trkpt>
      <trkpt lat="43.50028" lon="6.37777">
        <ele>287.8</ele>
        <time>2021-04-18T06:41:16Z</time>
      </trkpt>
      <trkpt lat="43.50026" lon="6.37769">
        <ele>287.8</ele>
        <time>2021-04-18T06:41:20Z</time>
      </trkpt>
      <trkpt lat="43.50026" lon="6.37761">
        <ele>287.8</ele>
        <time>2021-04-18T06:41:24Z</time>
      </trkpt>
      <trkpt lat="43.50025" lon="6.37754">
        <ele>287.8</ele>
        <time>2021-04-18T06:41:27Z</time>
      </trkpt>
      <trkpt lat="43.50024" lon="6.37748">
        <ele>287.8</ele>
        <time>2021-04-18T06:41:31Z</time>
      </trkpt>
      <trkpt lat="43.50022" lon="6.37741">
        <ele>287.8</ele>
        <time>2021-04-18T06:41:36Z</time>
      </trkpt>
      <trkpt lat="43.50022" lon="6.37732">
        <ele>287.8</ele>
        <time>2021-04-18T06:41:40Z</time>
      </trkpt>
      <trkpt lat="43.5002" lon="6.37724">
        <ele>287.8</ele>
        <time>2021-04-18T06:41:45Z</time>
      </trkpt>
      <trkpt lat="43.50019" lon="6.37718">
        <ele>287.9</ele>
        <time>2021-04-18T06:41:48Z</time>
      </trkpt>
      <trkpt lat="43.50019" lon="6.37712">
        <ele>288</ele>
        <time>2021-04-18T06:41:52Z</time>
      </trkpt>
      <trkpt lat="43.50018" lon="6.37705">
        <ele>288.1</ele>
        <time>2021-04-18T06:41:56Z</time>
      </trkpt>
      <trkpt lat="43.50018" lon="6.37698">
        <ele>288.1</ele>
        <time>2021-04-18T06:42:00Z</time>
      </trkpt>
      <trkpt lat="43.50019" lon="6.37692">
        <ele>288.2</ele>
        <time>2021-04-18T06:42:03Z</time>
      </trkpt>
      <trkpt lat="43.50017" lon="6.37686">
        <ele>288.2</ele>
        <time>2021-04-18T06:42:06Z</time>
      </trkpt>
      <trkpt lat="43.50014" lon="6.37681">
        <ele>288.2</ele>
        <time>2021-04-18T06:42:09Z</time>
      </trkpt>
      <trkpt lat="43.50014" lon="6.37673">
        <ele>288.2</ele>
        <time>2021-04-18T06:42:14Z</time>
      </trkpt>
      <trkpt lat="43.50012" lon="6.37667">
        <ele>288.2</ele>
        <time>2021-04-18T06:42:17Z</time>
      </trkpt>
      <trkpt lat="43.50013" lon="6.3766">
        <ele>288.2</ele>
        <time>2021-04-18T06:42:20Z</time>
      </trkpt>
      <trkpt lat="43.50013" lon="6.37653">
        <ele>288.2</ele>
        <time>2021-04-18T06:42:23Z</time>
      </trkpt>
      <trkpt lat="43.50012" lon="6.37647">
        <ele>288.2</ele>
        <time>2021-04-18T06:42:28Z</time>
      </trkpt>
      <trkpt lat="43.50011" lon="6.3764">
        <ele>288.2</ele>
        <time>2021-04-18T06:42:31Z</time>
      </trkpt>
      <trkpt lat="43.50008" lon="6.37633">
        <ele>288.2</ele>
        <time>2021-04-18T06:42:34Z</time>
      </trkpt>
      <trkpt lat="43.50008" lon="6.37626">
        <ele>288.2</ele>
        <time>2021-04-18T06:42:40Z</time>
      </trkpt>
      <trkpt lat="43.5001" lon="6.37619">
        <ele>288.2</ele>
        <time>2021-04-18T06:42:44Z</time>
      </trkpt>
      <trkpt lat="43.50013" lon="6.37614">
        <ele>288.2</ele>
        <time>2021-04-18T06:42:47Z</time>
      </trkpt>
      <trkpt lat="43.50016" lon="6.37609">
        <ele>288.3</ele>
        <time>2021-04-18T06:42:51Z</time>
      </trkpt>
      <trkpt lat="43.50018" lon="6.37602">
        <ele>288.4</ele>
        <time>2021-04-18T06:42:57Z</time>
      </trkpt>
      <trkpt lat="43.5002" lon="6.37596">
        <ele>288.5</ele>
        <time>2021-04-18T06:43:01Z</time>
      </trkpt>
      <trkpt lat="43.5002" lon="6.37589">
        <ele>288.7</ele>
        <time>2021-04-18T06:43:05Z</time>
      </trkpt>
      <trkpt lat="43.50021" lon="6.37581">
        <ele>289</ele>
        <time>2021-04-18T06:43:09Z</time>
      </trkpt>
      <trkpt lat="43.50021" lon="6.37572">
        <ele>289.2</ele>
        <time>2021-04-18T06:43:13Z</time>
      </trkpt>
      <trkpt lat="43.50021" lon="6.37564">
        <ele>289.5</ele>
        <time>2021-04-18T06:43:17Z</time>
      </trkpt>
      <trkpt lat="43.50021" lon="6.37557">
        <ele>289.8</ele>
        <time>2021-04-18T06:43:20Z</time>
      </trkpt>
      <trkpt lat="43.5002" lon="6.3755">
        <ele>290.1</ele>
        <time>2021-04-18T06:43:24Z</time>
      </trkpt>
      <trkpt lat="43.5002" lon="6.37543">
        <ele>290.3</ele>
        <time>2021-04-18T06:43:27Z</time>
      </trkpt>
      <trkpt lat="43.5002" lon="6.37536">
        <ele>290.5</ele>
        <time>2021-04-18T06:43:30Z</time>
      </trkpt>
      <trkpt lat="43.50019" lon="6.37529">
        <ele>290.7</ele>
        <time>2021-04-18T06:43:34Z</time>
      </trkpt>
      <trkpt lat="43.50021" lon="6.37522">
        <ele>291.1</ele>
        <time>2021-04-18T06:43:39Z</time>
      </trkpt>
      <trkpt lat="43.50021" lon="6.37514">
        <ele>291.5</ele>
        <time>2021-04-18T06:43:43Z</time>
      </trkpt>
      <trkpt lat="43.5002" lon="6.37507">
        <ele>291.8</ele>
        <time>2021-04-18T06:43:46Z</time>
      </trkpt>
      <trkpt lat="43.50017" lon="6.37502">
        <ele>292</ele>
        <time>2021-04-18T06:43:49Z</time>
      </trkpt>
      <trkpt lat="43.50018" lon="6.37495">
        <ele>292.2</ele>
        <time>2021-04-18T06:43:53Z</time>
      </trkpt>
      <trkpt lat="43.5002" lon="6.37489">
        <ele>292.4</ele>
        <time>2021-04-18T06:43:56Z</time>
      </trkpt>
      <trkpt lat="43.5002" lon="6.37481">
        <ele>292.7</ele>
        <time>2021-04-18T06:44:03Z</time>
      </trkpt>
      <trkpt lat="43.50016" lon="6.37476">
        <ele>292.8</ele>
        <time>2021-04-18T06:44:07Z</time>
      </trkpt>
      <trkpt lat="43.50015" lon="6.37469">
        <ele>293</ele>
        <time>2021-04-18T06:44:11Z</time>
      </trkpt>
      <trkpt lat="43.50016" lon="6.37463">
        <ele>293.2</ele>
        <time>2021-04-18T06:44:14Z</time>
      </trkpt>
      <trkpt lat="43.50017" lon="6.37455">
        <ele>293.6</ele>
        <time>2021-04-18T06:44:19Z</time>
      </trkpt>
      <trkpt lat="43.5002" lon="6.37449">
        <ele>293.9</ele>
        <time>2021-04-18T06:44:22Z</time>
      </trkpt>
      <trkpt lat="43.50022" lon="6.37444">
        <ele>294.5</ele>
        <time>2021-04-18T06:44:28Z</time>
      </trkpt>
      <trkpt lat="43.50024" lon="6.37437">
        <ele>294.9</ele>
        <time>2021-04-18T06:44:33Z</time>
      </trkpt>
      <trkpt lat="43.50026" lon="6.37431">
        <ele>295.3</ele>
        <time>2021-04-18T06:44:38Z</time>
      </trkpt>
      <trkpt lat="43.50028" lon="6.37423">
        <ele>295.6</ele>
        <time>2021-04-18T06:44:43Z</time>
      </trkpt>
      <trkpt lat="43.50032" lon="6.37418">
        <ele>295.8</ele>
        <time>2021-04-18T06:44:47Z</time>
      </trkpt>
      <trkpt lat="43.50036" lon="6.37413">
        <ele>295.7</ele>
        <time>2021-04-18T06:44:53Z</time>
      </trkpt>
      <trkpt lat="43.5004" lon="6.37408">
        <ele>294.9</ele>
        <time>2021-04-18T06:45:00Z</time>
      </trkpt>
      <trkpt lat="43.50044" lon="6.37405">
        <ele>294.5</ele>
        <time>2021-04-18T06:45:04Z</time>
      </trkpt>
      <trkpt lat="43.50049" lon="6.37403">
        <ele>294.1</ele>
        <time>2021-04-18T06:45:08Z</time>
      </trkpt>
      <trkpt lat="43.50054" lon="6.37401">
        <ele>293.6</ele>
        <time>2021-04-18T06:45:12Z</time>
      </trkpt>
      <trkpt lat="43.50059" lon="6.37401">
        <ele>293.2</ele>
        <time>2021-04-18T06:45:15Z</time>
      </trkpt>
      <trkpt lat="43.50065" lon="6.374">
        <ele>292.8</ele>
        <time>2021-04-18T06:45:18Z</time>
      </trkpt>
      <trkpt lat="43.5007" lon="6.37398">
        <ele>292.2</ele>
        <time>2021-04-18T06:45:23Z</time>
      </trkpt>
      <trkpt lat="43.50075" lon="6.37397">
        <ele>291.7</ele>
        <time>2021-04-18T06:45:27Z</time>
      </trkpt>
      <trkpt lat="43.5008" lon="6.37397">
        <ele>291.3</ele>
        <time>2021-04-18T06:45:31Z</time>
      </trkpt>
      <trkpt lat="43.50084" lon="6.374">
        <ele>290.6</ele>
        <time>2021-04-18T06:45:38Z</time>
      </trkpt>
      <trkpt lat="43.50087" lon="6.37407">
        <ele>289.9</ele>
        <time>2021-04-18T06:45:48Z</time>
      </trkpt>
      <trkpt lat="43.50087" lon="6.37414">
        <ele>289.6</ele>
        <time>2021-04-18T06:45:53Z</time>
      </trkpt>
      <trkpt lat="43.50087" lon="6.3742">
        <ele>289.4</ele>
        <time>2021-04-18T06:45:57Z</time>
      </trkpt>
      <trkpt lat="43.50087" lon="6.37426">
        <ele>289.1</ele>
        <time>2021-04-18T06:46:02Z</time>
      </trkpt>
      <trkpt lat="43.50087" lon="6.37433">
        <ele>288.8</ele>
        <time>2021-04-18T06:46:06Z</time>
      </trkpt>
      <trkpt lat="43.50088" lon="6.3744">
        <ele>288.5</ele>
        <time>2021-04-18T06:46:11Z</time>
      </trkpt>
      <trkpt lat="43.50089" lon="6.37447">
        <ele>288</ele>
        <time>2021-04-18T06:46:16Z</time>
      </trkpt>
      <trkpt lat="43.50091" lon="6.37454">
        <ele>287.5</ele>
        <time>2021-04-18T06:46:20Z</time>
      </trkpt>
      <trkpt lat="43.50091" lon="6.3746">
        <ele>286.9</ele>
        <time>2021-04-18T06:46:24Z</time>
      </trkpt>
      <trkpt lat="43.50089" lon="6.37466">
        <ele>285.7</ele>
        <time>2021-04-18T06:46:32Z</time>
      </trkpt>
      <trkpt lat="43.50092" lon="6.37472">
        <ele>284.7</ele>
        <time>2021-04-18T06:46:39Z</time>
      </trkpt>
      <trkpt lat="43.50093" lon="6.37478">
        <ele>283.7</ele>
        <time>2021-04-18T06:46:45Z</time>
      </trkpt>
      <trkpt lat="43.50095" lon="6.37486">
        <ele>282.7</ele>
        <time>2021-04-18T06:46:50Z</time>
      </trkpt>
      <trkpt lat="43.50097" lon="6.37491">
        <ele>281.9</ele>
        <time>2021-04-18T06:46:54Z</time>
      </trkpt>
      <trkpt lat="43.501" lon="6.37496">
        <ele>280.8</ele>
        <time>2021-04-18T06:46:59Z</time>
      </trkpt>
      <trkpt lat="43.50102" lon="6.37502">
        <ele>279.8</ele>
        <time>2021-04-18T06:47:04Z</time>
      </trkpt>
      <trkpt lat="43.50104" lon="6.37508">
        <ele>279.2</ele>
        <time>2021-04-18T06:47:08Z</time>
      </trkpt>
      <trkpt lat="43.50107" lon="6.37513">
        <ele>278.7</ele>
        <time>2021-04-18T06:47:11Z</time>
      </trkpt>
      <trkpt lat="43.50109" lon="6.37519">
        <ele>277.9</ele>
        <time>2021-04-18T06:47:16Z</time>
      </trkpt>
      <trkpt lat="43.50111" lon="6.37525">
        <ele>277.2</ele>
        <time>2021-04-18T06:47:20Z</time>
      </trkpt>
      <trkpt lat="43.50114" lon="6.37531">
        <ele>276.8</ele>
        <time>2021-04-18T06:47:23Z</time>
      </trkpt>
      <trkpt lat="43.50115" lon="6.37539">
        <ele>276.3</ele>
        <time>2021-04-18T06:47:27Z</time>
      </trkpt>
      <trkpt lat="43.50117" lon="6.37546">
        <ele>275.7</ele>
        <time>2021-04-18T06:47:31Z</time>
      </trkpt>
      <trkpt lat="43.50118" lon="6.37553">
        <ele>275.1</ele>
        <time>2021-04-18T06:47:36Z</time>
      </trkpt>
      <trkpt lat="43.50122" lon="6.37558">
        <ele>274.7</ele>
        <time>2021-04-18T06:47:39Z</time>
      </trkpt>
      <trkpt lat="43.50124" lon="6.37563">
        <ele>274.3</ele>
        <time>2021-04-18T06:47:42Z</time>
      </trkpt>
      <trkpt lat="43.50128" lon="6.37567">
        <ele>272.7</ele>
        <time>2021-04-18T06:47:54Z</time>
      </trkpt>
      <trkpt lat="43.50132" lon="6.37571">
        <ele>272.4</ele>
        <time>2021-04-18T06:47:58Z</time>
      </trkpt>
      <trkpt lat="43.50133" lon="6.37578">
        <ele>272.3</ele>
        <time>2021-04-18T06:48:02Z</time>
      </trkpt>
      <trkpt lat="43.50137" lon="6.37584">
        <ele>272.1</ele>
        <time>2021-04-18T06:48:08Z</time>
      </trkpt>
      <trkpt lat="43.50141" lon="6.3759">
        <ele>272</ele>
        <time>2021-04-18T06:48:12Z</time>
      </trkpt>
      <trkpt lat="43.50145" lon="6.37595">
        <ele>271.9</ele>
        <time>2021-04-18T06:48:16Z</time>
      </trkpt>
      <trkpt lat="43.50147" lon="6.37601">
        <ele>271.7</ele>
        <time>2021-04-18T06:48:20Z</time>
      </trkpt>
      <trkpt lat="43.50149" lon="6.37608">
        <ele>271.5</ele>
        <time>2021-04-18T06:48:25Z</time>
      </trkpt>
      <trkpt lat="43.50153" lon="6.37615">
        <ele>271.3</ele>
        <time>2021-04-18T06:48:29Z</time>
      </trkpt>
      <trkpt lat="43.50156" lon="6.37621">
        <ele>271.1</ele>
        <time>2021-04-18T06:48:33Z</time>
      </trkpt>
      <trkpt lat="43.50159" lon="6.37626">
        <ele>271</ele>
        <time>2021-04-18T06:48:37Z</time>
      </trkpt>
      <trkpt lat="43.50163" lon="6.3763">
        <ele>270.8</ele>
        <time>2021-04-18T06:48:40Z</time>
      </trkpt>
      <trkpt lat="43.50167" lon="6.37633">
        <ele>270.6</ele>
        <time>2021-04-18T06:48:43Z</time>
      </trkpt>
      <trkpt lat="43.50171" lon="6.37637">
        <ele>270.5</ele>
        <time>2021-04-18T06:48:46Z</time>
      </trkpt>
      <trkpt lat="43.50174" lon="6.37642">
        <ele>270.2</ele>
        <time>2021-04-18T06:48:52Z</time>
      </trkpt>
      <trkpt lat="43.50178" lon="6.37646">
        <ele>269.8</ele>
        <time>2021-04-18T06:48:56Z</time>
      </trkpt>
      <trkpt lat="43.5018" lon="6.37652">
        <ele>269.6</ele>
        <time>2021-04-18T06:48:59Z</time>
      </trkpt>
      <trkpt lat="43.5018" lon="6.3766">
        <ele>269.4</ele>
        <time>2021-04-18T06:49:03Z</time>
      </trkpt>
      <trkpt lat="43.50181" lon="6.37667">
        <ele>269.2</ele>
        <time>2021-04-18T06:49:07Z</time>
      </trkpt>
      <trkpt lat="43.5018" lon="6.37674">
        <ele>268.9</ele>
        <time>2021-04-18T06:49:10Z</time>
      </trkpt>
      <trkpt lat="43.50178" lon="6.37681">
        <ele>268.6</ele>
        <time>2021-04-18T06:49:14Z</time>
      </trkpt>
      <trkpt lat="43.50176" lon="6.37688">
        <ele>267.8</ele>
        <time>2021-04-18T06:49:19Z</time>
      </trkpt>
      <trkpt lat="43.50175" lon="6.37695">
        <ele>267.3</ele>
        <time>2021-04-18T06:49:23Z</time>
      </trkpt>
      <trkpt lat="43.50177" lon="6.37704">
        <ele>266.7</ele>
        <time>2021-04-18T06:49:27Z</time>
      </trkpt>
      <trkpt lat="43.50179" lon="6.3771">
        <ele>265.8</ele>
        <time>2021-04-18T06:49:33Z</time>
      </trkpt>
      <trkpt lat="43.5018" lon="6.37719">
        <ele>265.2</ele>
        <time>2021-04-18T06:49:37Z</time>
      </trkpt>
      <trkpt lat="43.50181" lon="6.37726">
        <ele>264.6</ele>
        <time>2021-04-18T06:49:42Z</time>
      </trkpt>
      <trkpt lat="43.50183" lon="6.37732">
        <ele>264.1</ele>
        <time>2021-04-18T06:49:46Z</time>
      </trkpt>
      <trkpt lat="43.50184" lon="6.37738">
        <ele>263.7</ele>
        <time>2021-04-18T06:49:50Z</time>
      </trkpt>
      <trkpt lat="43.50183" lon="6.37746">
        <ele>263.4</ele>
        <time>2021-04-18T06:49:54Z</time>
      </trkpt>
      <trkpt lat="43.50185" lon="6.37752">
        <ele>263.2</ele>
        <time>2021-04-18T06:49:59Z</time>
      </trkpt>
      <trkpt lat="43.50188" lon="6.37758">
        <ele>263</ele>
        <time>2021-04-18T06:50:03Z</time>
      </trkpt>
      <trkpt lat="43.50192" lon="6.37762">
        <ele>262.7</ele>
        <time>2021-04-18T06:50:07Z</time>
      </trkpt>
      <trkpt lat="43.50193" lon="6.3777">
        <ele>262.5</ele>
        <time>2021-04-18T06:50:10Z</time>
      </trkpt>
      <trkpt lat="43.50196" lon="6.37777">
        <ele>262.3</ele>
        <time>2021-04-18T06:50:13Z</time>
      </trkpt>
      <trkpt lat="43.50198" lon="6.37783">
        <ele>262.2</ele>
        <time>2021-04-18T06:50:16Z</time>
      </trkpt>
      <trkpt lat="43.502" lon="6.37791">
        <ele>262</ele>
        <time>2021-04-18T06:50:20Z</time>
      </trkpt>
      <trkpt lat="43.50202" lon="6.37798">
        <ele>261.8</ele>
        <time>2021-04-18T06:50:24Z</time>
      </trkpt>
      <trkpt lat="43.50201" lon="6.37805">
        <ele>261.4</ele>
        <time>2021-04-18T06:50:29Z</time>
      </trkpt>
      <trkpt lat="43.50201" lon="6.37811">
        <ele>261.2</ele>
        <time>2021-04-18T06:50:33Z</time>
      </trkpt>
      <trkpt lat="43.50203" lon="6.37818">
        <ele>261</ele>
        <time>2021-04-18T06:50:38Z</time>
      </trkpt>
      <trkpt lat="43.50203" lon="6.37826">
        <ele>260.8</ele>
        <time>2021-04-18T06:50:42Z</time>
      </trkpt>
      <trkpt lat="43.50206" lon="6.37832">
        <ele>260.7</ele>
        <time>2021-04-18T06:50:46Z</time>
      </trkpt>
      <trkpt lat="43.50205" lon="6.37839">
        <ele>260.7</ele>
        <time>2021-04-18T06:50:49Z</time>
      </trkpt>
      <trkpt lat="43.50205" lon="6.37846">
        <ele>260.6</ele>
        <time>2021-04-18T06:50:54Z</time>
      </trkpt>
      <trkpt lat="43.50204" lon="6.37854">
        <ele>260.5</ele>
        <time>2021-04-18T06:50:58Z</time>
      </trkpt>
      <trkpt lat="43.50202" lon="6.37861">
        <ele>260.4</ele>
        <time>2021-04-18T06:51:01Z</time>
      </trkpt>
      <trkpt lat="43.50204" lon="6.37868">
        <ele>260.4</ele>
        <time>2021-04-18T06:51:07Z</time>
      </trkpt>
      <trkpt lat="43.50207" lon="6.37875">
        <ele>260.1</ele>
        <time>2021-04-18T06:51:11Z</time>
      </trkpt>
      <trkpt lat="43.50209" lon="6.37883">
        <ele>260</ele>
        <time>2021-04-18T06:51:14Z</time>
      </trkpt>
      <trkpt lat="43.50211" lon="6.37889">
        <ele>259.7</ele>
        <time>2021-04-18T06:51:18Z</time>
      </trkpt>
      <trkpt lat="43.50211" lon="6.37896">
        <ele>259.6</ele>
        <time>2021-04-18T06:51:22Z</time>
      </trkpt>
      <trkpt lat="43.50213" lon="6.37903">
        <ele>259.2</ele>
        <time>2021-04-18T06:51:30Z</time>
      </trkpt>
      <trkpt lat="43.50217" lon="6.37908">
        <ele>258.9</ele>
        <time>2021-04-18T06:51:35Z</time>
      </trkpt>
      <trkpt lat="43.50219" lon="6.37914">
        <ele>258.6</ele>
        <time>2021-04-18T06:51:42Z</time>
      </trkpt>
      <trkpt lat="43.50223" lon="6.37917">
        <ele>258.4</ele>
        <time>2021-04-18T06:51:48Z</time>
      </trkpt>
      <trkpt lat="43.50223" lon="6.37924">
        <ele>257.8</ele>
        <time>2021-04-18T06:51:59Z</time>
      </trkpt>
      <trkpt lat="43.50221" lon="6.37929">
        <ele>257.5</ele>
        <time>2021-04-18T06:52:17Z</time>
      </trkpt>
      <trkpt lat="43.50217" lon="6.37932">
        <ele>256.7</ele>
        <time>2021-04-18T06:52:53Z</time>
      </trkpt>
      <trkpt lat="43.50216" lon="6.37939">
        <ele>256.1</ele>
        <time>2021-04-18T06:53:02Z</time>
      </trkpt>
      <trkpt lat="43.5022" lon="6.37934">
        <ele>255.4</ele>
        <time>2021-04-18T06:53:23Z</time>
      </trkpt>
      <trkpt lat="43.50222" lon="6.37928">
        <ele>255.5</ele>
        <time>2021-04-18T06:53:28Z</time>
      </trkpt>
      <trkpt lat="43.50227" lon="6.37928">
        <ele>256.9</ele>
        <time>2021-04-18T06:53:59Z</time>
      </trkpt>
      <trkpt lat="43.5023" lon="6.37934">
        <ele>256.6</ele>
        <time>2021-04-18T06:54:04Z</time>
      </trkpt>
      <trkpt lat="43.50234" lon="6.37936">
        <ele>256.3</ele>
        <time>2021-04-18T06:54:09Z</time>
      </trkpt>
      <trkpt lat="43.50238" lon="6.37941">
        <ele>255.7</ele>
        <time>2021-04-18T06:54:15Z</time>
      </trkpt>
      <trkpt lat="43.50243" lon="6.37945">
        <ele>254.8</ele>
        <time>2021-04-18T06:54:21Z</time>
      </trkpt>
      <trkpt lat="43.50246" lon="6.3795">
        <ele>253.9</ele>
        <time>2021-04-18T06:54:29Z</time>
      </trkpt>
      <trkpt lat="43.50248" lon="6.37956">
        <ele>253.3</ele>
        <time>2021-04-18T06:54:36Z</time>
      </trkpt>
      <trkpt lat="43.50249" lon="6.37962">
        <ele>252.1</ele>
        <time>2021-04-18T06:54:48Z</time>
      </trkpt>
      <trkpt lat="43.5025" lon="6.37969">
        <ele>250.8</ele>
        <time>2021-04-18T06:55:00Z</time>
      </trkpt>
      <trkpt lat="43.50246" lon="6.37971">
        <ele>249.5</ele>
        <time>2021-04-18T06:55:10Z</time>
      </trkpt>
      <trkpt lat="43.50242" lon="6.37976">
        <ele>249.1</ele>
        <time>2021-04-18T06:55:13Z</time>
      </trkpt>
      <trkpt lat="43.5024" lon="6.37982">
        <ele>247.6</ele>
        <time>2021-04-18T06:55:23Z</time>
      </trkpt>
      <trkpt lat="43.50237" lon="6.37986">
        <ele>246.8</ele>
        <time>2021-04-18T06:55:30Z</time>
      </trkpt>
      <trkpt lat="43.50235" lon="6.37993">
        <ele>245.4</ele>
        <time>2021-04-18T06:55:40Z</time>
      </trkpt>
      <trkpt lat="43.50232" lon="6.37999">
        <ele>244.6</ele>
        <time>2021-04-18T06:55:47Z</time>
      </trkpt>
      <trkpt lat="43.5023" lon="6.38006">
        <ele>243.8</ele>
        <time>2021-04-18T06:55:54Z</time>
      </trkpt>
      <trkpt lat="43.50229" lon="6.38012">
        <ele>243.1</ele>
        <time>2021-04-18T06:56:01Z</time>
      </trkpt>
      <trkpt lat="43.50227" lon="6.38018">
        <ele>241.9</ele>
        <time>2021-04-18T06:56:09Z</time>
      </trkpt>
      <trkpt lat="43.50224" lon="6.38024">
        <ele>241</ele>
        <time>2021-04-18T06:56:15Z</time>
      </trkpt>
      <trkpt lat="43.50221" lon="6.38029">
        <ele>240.2</ele>
        <time>2021-04-18T06:56:20Z</time>
      </trkpt>
      <trkpt lat="43.50219" lon="6.38035">
        <ele>239</ele>
        <time>2021-04-18T06:56:28Z</time>
      </trkpt>
      <trkpt lat="43.50216" lon="6.3804">
        <ele>238.2</ele>
        <time>2021-04-18T06:56:34Z</time>
      </trkpt>
      <trkpt lat="43.50214" lon="6.38046">
        <ele>237.8</ele>
        <time>2021-04-18T06:56:38Z</time>
      </trkpt>
      <trkpt lat="43.50211" lon="6.38052">
        <ele>236.9</ele>
        <time>2021-04-18T06:56:46Z</time>
      </trkpt>
      <trkpt lat="43.50208" lon="6.38057">
        <ele>236.4</ele>
        <time>2021-04-18T06:56:52Z</time>
      </trkpt>
      <trkpt lat="43.50204" lon="6.38061">
        <ele>235.8</ele>
        <time>2021-04-18T06:57:01Z</time>
      </trkpt>
      <trkpt lat="43.50201" lon="6.38066">
        <ele>233.9</ele>
        <time>2021-04-18T06:57:17Z</time>
      </trkpt>
      <trkpt lat="43.50197" lon="6.38069">
        <ele>232.9</ele>
        <time>2021-04-18T06:57:26Z</time>
      </trkpt>
      <trkpt lat="43.50195" lon="6.38076">
        <ele>232.2</ele>
        <time>2021-04-18T06:57:33Z</time>
      </trkpt>
      <trkpt lat="43.50192" lon="6.38082">
        <ele>231.7</ele>
        <time>2021-04-18T06:57:37Z</time>
      </trkpt>
      <trkpt lat="43.5019" lon="6.38088">
        <ele>231.2</ele>
        <time>2021-04-18T06:57:42Z</time>
      </trkpt>
      <trkpt lat="43.50185" lon="6.38091">
        <ele>230.1</ele>
        <time>2021-04-18T06:57:49Z</time>
      </trkpt>
      <trkpt lat="43.50182" lon="6.38096">
        <ele>228.2</ele>
        <time>2021-04-18T06:58:02Z</time>
      </trkpt>
      <trkpt lat="43.50178" lon="6.381">
        <ele>227.7</ele>
        <time>2021-04-18T06:58:06Z</time>
      </trkpt>
      <trkpt lat="43.50174" lon="6.38105">
        <ele>227.2</ele>
        <time>2021-04-18T06:58:11Z</time>
      </trkpt>
      <trkpt lat="43.50171" lon="6.3811">
        <ele>226.9</ele>
        <time>2021-04-18T06:58:15Z</time>
      </trkpt>
      <trkpt lat="43.50172" lon="6.38116">
        <ele>225.9</ele>
        <time>2021-04-18T06:58:22Z</time>
      </trkpt>
      <trkpt lat="43.50173" lon="6.38122">
        <ele>225.4</ele>
        <time>2021-04-18T06:58:27Z</time>
      </trkpt>
      <trkpt lat="43.50173" lon="6.38129">
        <ele>224.7</ele>
        <time>2021-04-18T06:58:33Z</time>
      </trkpt>
      <trkpt lat="43.50175" lon="6.38136">
        <ele>224.2</ele>
        <time>2021-04-18T06:58:39Z</time>
      </trkpt>
      <trkpt lat="43.50177" lon="6.38141">
        <ele>223.9</ele>
        <time>2021-04-18T06:58:44Z</time>
      </trkpt>
      <trkpt lat="43.50176" lon="6.38148">
        <ele>223.6</ele>
        <time>2021-04-18T06:58:49Z</time>
      </trkpt>
      <trkpt lat="43.50175" lon="6.38154">
        <ele>223.1</ele>
        <time>2021-04-18T06:58:55Z</time>
      </trkpt>
      <trkpt lat="43.50173" lon="6.38161">
        <ele>222.7</ele>
        <time>2021-04-18T06:59:02Z</time>
      </trkpt>
      <trkpt lat="43.50174" lon="6.38167">
        <ele>222.4</ele>
        <time>2021-04-18T06:59:07Z</time>
      </trkpt>
      <trkpt lat="43.50173" lon="6.38174">
        <ele>222.1</ele>
        <time>2021-04-18T06:59:11Z</time>
      </trkpt>
      <trkpt lat="43.50173" lon="6.38181">
        <ele>221.7</ele>
        <time>2021-04-18T06:59:16Z</time>
      </trkpt>
      <trkpt lat="43.50172" lon="6.38187">
        <ele>221.3</ele>
        <time>2021-04-18T06:59:21Z</time>
      </trkpt>
      <trkpt lat="43.50168" lon="6.38191">
        <ele>221</ele>
        <time>2021-04-18T06:59:26Z</time>
      </trkpt>
      <trkpt lat="43.50168" lon="6.38198">
        <ele>220.5</ele>
        <time>2021-04-18T06:59:32Z</time>
      </trkpt>
      <trkpt lat="43.5017" lon="6.38204">
        <ele>220</ele>
        <time>2021-04-18T06:59:37Z</time>
      </trkpt>
      <trkpt lat="43.50169" lon="6.38212">
        <ele>219.4</ele>
        <time>2021-04-18T06:59:41Z</time>
      </trkpt>
      <trkpt lat="43.50169" lon="6.3822">
        <ele>219</ele>
        <time>2021-04-18T06:59:45Z</time>
      </trkpt>
      <trkpt lat="43.50171" lon="6.38226">
        <ele>218.6</ele>
        <time>2021-04-18T06:59:50Z</time>
      </trkpt>
      <trkpt lat="43.50171" lon="6.38234">
        <ele>218.2</ele>
        <time>2021-04-18T06:59:55Z</time>
      </trkpt>
      <trkpt lat="43.5017" lon="6.3824">
        <ele>217.7</ele>
        <time>2021-04-18T07:00:00Z</time>
      </trkpt>
      <trkpt lat="43.50168" lon="6.38247">
        <ele>217.4</ele>
        <time>2021-04-18T07:00:04Z</time>
      </trkpt>
      <trkpt lat="43.50166" lon="6.38254">
        <ele>217.1</ele>
        <time>2021-04-18T07:00:09Z</time>
      </trkpt>
      <trkpt lat="43.50164" lon="6.38261">
        <ele>216.7</ele>
        <time>2021-04-18T07:00:14Z</time>
      </trkpt>
      <trkpt lat="43.50164" lon="6.38267">
        <ele>216.3</ele>
        <time>2021-04-18T07:00:18Z</time>
      </trkpt>
      <trkpt lat="43.50166" lon="6.38274">
        <ele>216</ele>
        <time>2021-04-18T07:00:23Z</time>
      </trkpt>
      <trkpt lat="43.50167" lon="6.38282">
        <ele>215.7</ele>
        <time>2021-04-18T07:00:28Z</time>
      </trkpt>
      <trkpt lat="43.50168" lon="6.38289">
        <ele>215.4</ele>
        <time>2021-04-18T07:00:32Z</time>
      </trkpt>
      <trkpt lat="43.50169" lon="6.38296">
        <ele>215</ele>
        <time>2021-04-18T07:00:37Z</time>
      </trkpt>
      <trkpt lat="43.50169" lon="6.38304">
        <ele>214.6</ele>
        <time>2021-04-18T07:00:42Z</time>
      </trkpt>
      <trkpt lat="43.50172" lon="6.3831">
        <ele>213.9</ele>
        <time>2021-04-18T07:00:48Z</time>
      </trkpt>
      <trkpt lat="43.50176" lon="6.38313">
        <ele>213.3</ele>
        <time>2021-04-18T07:00:58Z</time>
      </trkpt>
      <trkpt lat="43.50175" lon="6.38306">
        <ele>213.1</ele>
        <time>2021-04-18T07:01:40Z</time>
      </trkpt>
      <trkpt lat="43.50175" lon="6.38313">
        <ele>212.9</ele>
        <time>2021-04-18T07:01:51Z</time>
      </trkpt>
      <trkpt lat="43.50173" lon="6.38319">
        <ele>212.5</ele>
        <time>2021-04-18T07:02:01Z</time>
      </trkpt>
      <trkpt lat="43.5017" lon="6.38325">
        <ele>212.3</ele>
        <time>2021-04-18T07:02:08Z</time>
      </trkpt>
      <trkpt lat="43.50172" lon="6.38331">
        <ele>211.4</ele>
        <time>2021-04-18T07:02:19Z</time>
      </trkpt>
      <trkpt lat="43.50171" lon="6.38337">
        <ele>211.2</ele>
        <time>2021-04-18T07:02:24Z</time>
      </trkpt>
      <trkpt lat="43.50171" lon="6.38344">
        <ele>211</ele>
        <time>2021-04-18T07:02:31Z</time>
      </trkpt>
      <trkpt lat="43.50174" lon="6.38349">
        <ele>210.9</ele>
        <time>2021-04-18T07:02:37Z</time>
      </trkpt>
      <trkpt lat="43.50174" lon="6.38357">
        <ele>210.9</ele>
        <time>2021-04-18T07:02:44Z</time>
      </trkpt>
      <trkpt lat="43.50173" lon="6.38363">
        <ele>210.8</ele>
        <time>2021-04-18T07:02:49Z</time>
      </trkpt>
      <trkpt lat="43.50172" lon="6.3837">
        <ele>210.7</ele>
        <time>2021-04-18T07:02:53Z</time>
      </trkpt>
      <trkpt lat="43.50174" lon="6.38378">
        <ele>210.5</ele>
        <time>2021-04-18T07:02:58Z</time>
      </trkpt>
      <trkpt lat="43.50173" lon="6.38385">
        <ele>210.4</ele>
        <time>2021-04-18T07:03:02Z</time>
      </trkpt>
      <trkpt lat="43.50171" lon="6.38391">
        <ele>210.3</ele>
        <time>2021-04-18T07:03:08Z</time>
      </trkpt>
      <trkpt lat="43.50171" lon="6.38398">
        <ele>210</ele>
        <time>2021-04-18T07:03:17Z</time>
      </trkpt>
      <trkpt lat="43.50168" lon="6.38404">
        <ele>209.6</ele>
        <time>2021-04-18T07:03:24Z</time>
      </trkpt>
      <trkpt lat="43.50169" lon="6.38411">
        <ele>209.3</ele>
        <time>2021-04-18T07:03:31Z</time>
      </trkpt>
      <trkpt lat="43.50171" lon="6.38417">
        <ele>208.8</ele>
        <time>2021-04-18T07:03:41Z</time>
      </trkpt>
      <trkpt lat="43.50172" lon="6.38424">
        <ele>208.6</ele>
        <time>2021-04-18T07:03:47Z</time>
      </trkpt>
      <trkpt lat="43.50172" lon="6.38431">
        <ele>208.2</ele>
        <time>2021-04-18T07:03:54Z</time>
      </trkpt>
      <trkpt lat="43.50171" lon="6.38437">
        <ele>207.9</ele>
        <time>2021-04-18T07:04:00Z</time>
      </trkpt>
      <trkpt lat="43.50168" lon="6.38443">
        <ele>207.9</ele>
        <time>2021-04-18T07:04:04Z</time>
      </trkpt>
      <trkpt lat="43.50169" lon="6.38449">
        <ele>207.8</ele>
        <time>2021-04-18T07:04:14Z</time>
      </trkpt>
      <trkpt lat="43.5017" lon="6.38456">
        <ele>207.7</ele>
        <time>2021-04-18T07:04:19Z</time>
      </trkpt>
      <trkpt lat="43.50172" lon="6.38462">
        <ele>207.7</ele>
        <time>2021-04-18T07:04:26Z</time>
      </trkpt>
      <trkpt lat="43.50176" lon="6.38467">
        <ele>207.6</ele>
        <time>2021-04-18T07:04:32Z</time>
      </trkpt>
      <trkpt lat="43.50177" lon="6.38474">
        <ele>207.6</ele>
        <time>2021-04-18T07:04:37Z</time>
      </trkpt>
      <trkpt lat="43.50176" lon="6.3848">
        <ele>207.6</ele>
        <time>2021-04-18T07:04:41Z</time>
      </trkpt>
      <trkpt lat="43.50173" lon="6.38488">
        <ele>207.5</ele>
        <time>2021-04-18T07:04:45Z</time>
      </trkpt>
      <trkpt lat="43.50172" lon="6.38494">
        <ele>207.5</ele>
        <time>2021-04-18T07:04:48Z</time>
      </trkpt>
      <trkpt lat="43.5017" lon="6.38501">
        <ele>207.4</ele>
        <time>2021-04-18T07:04:52Z</time>
      </trkpt>
      <trkpt lat="43.50168" lon="6.38508">
        <ele>207.3</ele>
        <time>2021-04-18T07:04:56Z</time>
      </trkpt>
      <trkpt lat="43.50165" lon="6.38515">
        <ele>207.2</ele>
        <time>2021-04-18T07:05:00Z</time>
      </trkpt>
      <trkpt lat="43.50163" lon="6.3852">
        <ele>207</ele>
        <time>2021-04-18T07:05:05Z</time>
      </trkpt>
      <trkpt lat="43.50168" lon="6.38522">
        <ele>206.2</ele>
        <time>2021-04-18T07:05:30Z</time>
      </trkpt>
      <trkpt lat="43.50172" lon="6.38517">
        <ele>205</ele>
        <time>2021-04-18T07:06:23Z</time>
      </trkpt>
      <trkpt lat="43.50175" lon="6.38513">
        <ele>204.7</ele>
        <time>2021-04-18T07:06:52Z</time>
      </trkpt>
      <trkpt lat="43.50171" lon="6.3851">
        <ele>204.7</ele>
        <time>2021-04-18T07:07:13Z</time>
      </trkpt>
      <trkpt lat="43.50168" lon="6.38514">
        <ele>204.8</ele>
        <time>2021-04-18T07:07:27Z</time>
      </trkpt>
      <trkpt lat="43.50168" lon="6.38522">
        <ele>204.7</ele>
        <time>2021-04-18T07:07:47Z</time>
      </trkpt>
      <trkpt lat="43.50165" lon="6.38528">
        <ele>204.7</ele>
        <time>2021-04-18T07:07:52Z</time>
      </trkpt>
      <trkpt lat="43.50164" lon="6.38535">
        <ele>204.7</ele>
        <time>2021-04-18T07:07:58Z</time>
      </trkpt>
      <trkpt lat="43.50161" lon="6.38539">
        <ele>204.5</ele>
        <time>2021-04-18T07:08:10Z</time>
      </trkpt>
      <trkpt lat="43.50158" lon="6.38545">
        <ele>204.9</ele>
        <time>2021-04-18T07:08:27Z</time>
      </trkpt>
      <trkpt lat="43.50159" lon="6.38553">
        <ele>205</ele>
        <time>2021-04-18T07:08:33Z</time>
      </trkpt>
      <trkpt lat="43.50162" lon="6.38558">
        <ele>204.8</ele>
        <time>2021-04-18T07:08:39Z</time>
      </trkpt>
      <trkpt lat="43.50164" lon="6.38563">
        <ele>204.2</ele>
        <time>2021-04-18T07:08:50Z</time>
      </trkpt>
      <trkpt lat="43.50162" lon="6.38569">
        <ele>203.7</ele>
        <time>2021-04-18T07:08:59Z</time>
      </trkpt>
      <trkpt lat="43.50159" lon="6.38573">
        <ele>203.6</ele>
        <time>2021-04-18T07:09:03Z</time>
      </trkpt>
      <trkpt lat="43.50157" lon="6.38579">
        <ele>203.5</ele>
        <time>2021-04-18T07:09:07Z</time>
      </trkpt>
      <trkpt lat="43.50156" lon="6.38585">
        <ele>203.3</ele>
        <time>2021-04-18T07:09:11Z</time>
      </trkpt>
      <trkpt lat="43.50157" lon="6.38593">
        <ele>203.1</ele>
        <time>2021-04-18T07:09:16Z</time>
      </trkpt>
      <trkpt lat="43.50156" lon="6.38599">
        <ele>202.9</ele>
        <time>2021-04-18T07:09:21Z</time>
      </trkpt>
      <trkpt lat="43.50156" lon="6.38608">
        <ele>202.7</ele>
        <time>2021-04-18T07:09:25Z</time>
      </trkpt>
      <trkpt lat="43.50156" lon="6.38615">
        <ele>202.6</ele>
        <time>2021-04-18T07:09:29Z</time>
      </trkpt>
      <trkpt lat="43.50155" lon="6.38623">
        <ele>202.5</ele>
        <time>2021-04-18T07:09:32Z</time>
      </trkpt>
      <trkpt lat="43.50154" lon="6.38629">
        <ele>202.4</ele>
        <time>2021-04-18T07:09:35Z</time>
      </trkpt>
      <trkpt lat="43.50152" lon="6.38636">
        <ele>202.1</ele>
        <time>2021-04-18T07:09:39Z</time>
      </trkpt>
      <trkpt lat="43.5015" lon="6.38642">
        <ele>201.9</ele>
        <time>2021-04-18T07:09:43Z</time>
      </trkpt>
      <trkpt lat="43.50149" lon="6.38648">
        <ele>201.7</ele>
        <time>2021-04-18T07:09:47Z</time>
      </trkpt>
      <trkpt lat="43.50147" lon="6.38656">
        <ele>201.5</ele>
        <time>2021-04-18T07:09:52Z</time>
      </trkpt>
      <trkpt lat="43.50145" lon="6.38661">
        <ele>201.3</ele>
        <time>2021-04-18T07:09:56Z</time>
      </trkpt>
      <trkpt lat="43.50143" lon="6.38668">
        <ele>201.1</ele>
        <time>2021-04-18T07:10:00Z</time>
      </trkpt>
      <trkpt lat="43.50142" lon="6.38675">
        <ele>200.8</ele>
        <time>2021-04-18T07:10:05Z</time>
      </trkpt>
      <trkpt lat="43.50141" lon="6.38682">
        <ele>200.6</ele>
        <time>2021-04-18T07:10:10Z</time>
      </trkpt>
      <trkpt lat="43.5014" lon="6.38688">
        <ele>200.5</ele>
        <time>2021-04-18T07:10:14Z</time>
      </trkpt>
      <trkpt lat="43.50139" lon="6.38695">
        <ele>200.3</ele>
        <time>2021-04-18T07:10:19Z</time>
      </trkpt>
      <trkpt lat="43.50138" lon="6.38701">
        <ele>200.1</ele>
        <time>2021-04-18T07:10:23Z</time>
      </trkpt>
      <trkpt lat="43.50137" lon="6.38708">
        <ele>199.9</ele>
        <time>2021-04-18T07:10:28Z</time>
      </trkpt>
      <trkpt lat="43.50134" lon="6.38713">
        <ele>199.6</ele>
        <time>2021-04-18T07:10:33Z</time>
      </trkpt>
      <trkpt lat="43.50136" lon="6.38707">
        <ele>198.9</ele>
        <time>2021-04-18T07:10:46Z</time>
      </trkpt>
      <trkpt lat="43.50139" lon="6.38713">
        <ele>198.6</ele>
        <time>2021-04-18T07:10:57Z</time>
      </trkpt>
      <trkpt lat="43.50137" lon="6.38719">
        <ele>198.5</ele>
        <time>2021-04-18T07:11:00Z</time>
      </trkpt>
      <trkpt lat="43.50135" lon="6.38724">
        <ele>198.4</ele>
        <time>2021-04-18T07:11:04Z</time>
      </trkpt>
      <trkpt lat="43.50132" lon="6.38731">
        <ele>198.2</ele>
        <time>2021-04-18T07:11:08Z</time>
      </trkpt>
      <trkpt lat="43.5013" lon="6.38738">
        <ele>198</ele>
        <time>2021-04-18T07:11:13Z</time>
      </trkpt>
      <trkpt lat="43.50128" lon="6.38744">
        <ele>197.9</ele>
        <time>2021-04-18T07:11:17Z</time>
      </trkpt>
      <trkpt lat="43.50126" lon="6.3875">
        <ele>197.4</ele>
        <time>2021-04-18T07:11:26Z</time>
      </trkpt>
      <trkpt lat="43.50129" lon="6.38755">
        <ele>196.9</ele>
        <time>2021-04-18T07:11:33Z</time>
      </trkpt>
      <trkpt lat="43.50127" lon="6.38761">
        <ele>196.4</ele>
        <time>2021-04-18T07:11:43Z</time>
      </trkpt>
      <trkpt lat="43.50129" lon="6.38768">
        <ele>196.2</ele>
        <time>2021-04-18T07:11:49Z</time>
      </trkpt>
      <trkpt lat="43.50133" lon="6.38773">
        <ele>196.1</ele>
        <time>2021-04-18T07:11:54Z</time>
      </trkpt>
      <trkpt lat="43.50136" lon="6.38777">
        <ele>195.9</ele>
        <time>2021-04-18T07:11:59Z</time>
      </trkpt>
      <trkpt lat="43.50139" lon="6.38782">
        <ele>195.9</ele>
        <time>2021-04-18T07:12:03Z</time>
      </trkpt>
      <trkpt lat="43.50143" lon="6.38786">
        <ele>195.8</ele>
        <time>2021-04-18T07:12:08Z</time>
      </trkpt>
      <trkpt lat="43.50146" lon="6.38791">
        <ele>195.7</ele>
        <time>2021-04-18T07:12:19Z</time>
      </trkpt>
      <trkpt lat="43.50151" lon="6.38794">
        <ele>195.7</ele>
        <time>2021-04-18T07:12:25Z</time>
      </trkpt>
      <trkpt lat="43.50155" lon="6.38798">
        <ele>195.7</ele>
        <time>2021-04-18T07:12:32Z</time>
      </trkpt>
      <trkpt lat="43.5016" lon="6.38801">
        <ele>195.7</ele>
        <time>2021-04-18T07:12:37Z</time>
      </trkpt>
      <trkpt lat="43.50165" lon="6.38803">
        <ele>195.7</ele>
        <time>2021-04-18T07:12:41Z</time>
      </trkpt>
      <trkpt lat="43.50169" lon="6.38806">
        <ele>195.8</ele>
        <time>2021-04-18T07:12:45Z</time>
      </trkpt>
      <trkpt lat="43.50173" lon="6.3881">
        <ele>196</ele>
        <time>2021-04-18T07:12:54Z</time>
      </trkpt>
      <trkpt lat="43.50178" lon="6.3881">
        <ele>196.3</ele>
        <time>2021-04-18T07:12:59Z</time>
      </trkpt>
      <trkpt lat="43.50183" lon="6.38812">
        <ele>196.6</ele>
        <time>2021-04-18T07:13:04Z</time>
      </trkpt>
      <trkpt lat="43.50188" lon="6.38813">
        <ele>196.8</ele>
        <time>2021-04-18T07:13:08Z</time>
      </trkpt>
      <trkpt lat="43.50193" lon="6.38815">
        <ele>196.9</ele>
        <time>2021-04-18T07:13:13Z</time>
      </trkpt>
      <trkpt lat="43.50197" lon="6.38817">
        <ele>197</ele>
        <time>2021-04-18T07:13:18Z</time>
      </trkpt>
      <trkpt lat="43.50202" lon="6.38818">
        <ele>197.2</ele>
        <time>2021-04-18T07:13:23Z</time>
      </trkpt>
      <trkpt lat="43.50206" lon="6.38823">
        <ele>197.3</ele>
        <time>2021-04-18T07:13:30Z</time>
      </trkpt>
      <trkpt lat="43.50211" lon="6.38826">
        <ele>197.3</ele>
        <time>2021-04-18T07:13:34Z</time>
      </trkpt>
      <trkpt lat="43.50214" lon="6.38831">
        <ele>197.5</ele>
        <time>2021-04-18T07:13:38Z</time>
      </trkpt>
      <trkpt lat="43.50216" lon="6.38837">
        <ele>197.5</ele>
        <time>2021-04-18T07:13:43Z</time>
      </trkpt>
      <trkpt lat="43.50217" lon="6.38843">
        <ele>197.2</ele>
        <time>2021-04-18T07:13:49Z</time>
      </trkpt>
      <trkpt lat="43.50217" lon="6.3885">
        <ele>196.7</ele>
        <time>2021-04-18T07:13:56Z</time>
      </trkpt>
      <trkpt lat="43.50215" lon="6.38858">
        <ele>196.6</ele>
        <time>2021-04-18T07:14:01Z</time>
      </trkpt>
      <trkpt lat="43.50216" lon="6.38866">
        <ele>196.4</ele>
        <time>2021-04-18T07:14:06Z</time>
      </trkpt>
      <trkpt lat="43.50214" lon="6.38871">
        <ele>196.3</ele>
        <time>2021-04-18T07:14:09Z</time>
      </trkpt>
      <trkpt lat="43.50211" lon="6.38879">
        <ele>196.2</ele>
        <time>2021-04-18T07:14:15Z</time>
      </trkpt>
      <trkpt lat="43.50212" lon="6.38887">
        <ele>196.1</ele>
        <time>2021-04-18T07:14:20Z</time>
      </trkpt>
      <trkpt lat="43.50209" lon="6.38892">
        <ele>196</ele>
        <time>2021-04-18T07:14:24Z</time>
      </trkpt>
      <trkpt lat="43.50208" lon="6.38899">
        <ele>195.9</ele>
        <time>2021-04-18T07:14:28Z</time>
      </trkpt>
      <trkpt lat="43.50205" lon="6.38907">
        <ele>195.8</ele>
        <time>2021-04-18T07:14:32Z</time>
      </trkpt>
      <trkpt lat="43.50204" lon="6.38913">
        <ele>195.7</ele>
        <time>2021-04-18T07:14:35Z</time>
      </trkpt>
      <trkpt lat="43.50202" lon="6.38919">
        <ele>195.6</ele>
        <time>2021-04-18T07:14:39Z</time>
      </trkpt>
      <trkpt lat="43.50201" lon="6.38926">
        <ele>195.3</ele>
        <time>2021-04-18T07:14:42Z</time>
      </trkpt>
      <trkpt lat="43.502" lon="6.38934">
        <ele>195.1</ele>
        <time>2021-04-18T07:14:46Z</time>
      </trkpt>
      <trkpt lat="43.50198" lon="6.3894">
        <ele>195</ele>
        <time>2021-04-18T07:14:49Z</time>
      </trkpt>
      <trkpt lat="43.50197" lon="6.38947">
        <ele>194.8</ele>
        <time>2021-04-18T07:14:54Z</time>
      </trkpt>
      <trkpt lat="43.50196" lon="6.38954">
        <ele>194.7</ele>
        <time>2021-04-18T07:14:58Z</time>
      </trkpt>
      <trkpt lat="43.50196" lon="6.38961">
        <ele>194.6</ele>
        <time>2021-04-18T07:15:04Z</time>
      </trkpt>
      <trkpt lat="43.50194" lon="6.38968">
        <ele>194.6</ele>
        <time>2021-04-18T07:15:08Z</time>
      </trkpt>
      <trkpt lat="43.50193" lon="6.38974">
        <ele>194.6</ele>
        <time>2021-04-18T07:15:11Z</time>
      </trkpt>
      <trkpt lat="43.50192" lon="6.38982">
        <ele>194.6</ele>
        <time>2021-04-18T07:15:15Z</time>
      </trkpt>
      <trkpt lat="43.50191" lon="6.38988">
        <ele>194.8</ele>
        <time>2021-04-18T07:15:19Z</time>
      </trkpt>
      <trkpt lat="43.50189" lon="6.38994">
        <ele>194.7</ele>
        <time>2021-04-18T07:15:23Z</time>
      </trkpt>
      <trkpt lat="43.50187" lon="6.39001">
        <ele>194.7</ele>
        <time>2021-04-18T07:15:27Z</time>
      </trkpt>
      <trkpt lat="43.50187" lon="6.39008">
        <ele>194.7</ele>
        <time>2021-04-18T07:15:31Z</time>
      </trkpt>
      <trkpt lat="43.50187" lon="6.39014">
        <ele>194.7</ele>
        <time>2021-04-18T07:15:35Z</time>
      </trkpt>
      <trkpt lat="43.50186" lon="6.3902">
        <ele>194.8</ele>
        <time>2021-04-18T07:15:39Z</time>
      </trkpt>
      <trkpt lat="43.50184" lon="6.39027">
        <ele>195</ele>
        <time>2021-04-18T07:15:43Z</time>
      </trkpt>
      <trkpt lat="43.50184" lon="6.39034">
        <ele>195.1</ele>
        <time>2021-04-18T07:15:47Z</time>
      </trkpt>
      <trkpt lat="43.50183" lon="6.3904">
        <ele>195.2</ele>
        <time>2021-04-18T07:15:51Z</time>
      </trkpt>
      <trkpt lat="43.50183" lon="6.39047">
        <ele>195.3</ele>
        <time>2021-04-18T07:15:55Z</time>
      </trkpt>
      <trkpt lat="43.50181" lon="6.39053">
        <ele>195.6</ele>
        <time>2021-04-18T07:16:01Z</time>
      </trkpt>
      <trkpt lat="43.50179" lon="6.3906">
        <ele>195.8</ele>
        <time>2021-04-18T07:16:06Z</time>
      </trkpt>
      <trkpt lat="43.5018" lon="6.39066">
        <ele>195.9</ele>
        <time>2021-04-18T07:16:10Z</time>
      </trkpt>
      <trkpt lat="43.50178" lon="6.39072">
        <ele>196.1</ele>
        <time>2021-04-18T07:16:14Z</time>
      </trkpt>
      <trkpt lat="43.50175" lon="6.39079">
        <ele>196.4</ele>
        <time>2021-04-18T07:16:18Z</time>
      </trkpt>
      <trkpt lat="43.50175" lon="6.39086">
        <ele>196.9</ele>
        <time>2021-04-18T07:16:22Z</time>
      </trkpt>
      <trkpt lat="43.50172" lon="6.39092">
        <ele>197.3</ele>
        <time>2021-04-18T07:16:26Z</time>
      </trkpt>
      <trkpt lat="43.50172" lon="6.39098">
        <ele>197.9</ele>
        <time>2021-04-18T07:16:30Z</time>
      </trkpt>
      <trkpt lat="43.5017" lon="6.39105">
        <ele>198.6</ele>
        <time>2021-04-18T07:16:35Z</time>
      </trkpt>
      <trkpt lat="43.50169" lon="6.39111">
        <ele>199</ele>
        <time>2021-04-18T07:16:39Z</time>
      </trkpt>
      <trkpt lat="43.50167" lon="6.39118">
        <ele>199.6</ele>
        <time>2021-04-18T07:16:43Z</time>
      </trkpt>
      <trkpt lat="43.50166" lon="6.39126">
        <ele>200.2</ele>
        <time>2021-04-18T07:16:48Z</time>
      </trkpt>
      <trkpt lat="43.50166" lon="6.39133">
        <ele>200.7</ele>
        <time>2021-04-18T07:16:52Z</time>
      </trkpt>
      <trkpt lat="43.50166" lon="6.39139">
        <ele>201</ele>
        <time>2021-04-18T07:16:56Z</time>
      </trkpt>
      <trkpt lat="43.50164" lon="6.39146">
        <ele>201.6</ele>
        <time>2021-04-18T07:17:04Z</time>
      </trkpt>
      <trkpt lat="43.50164" lon="6.39153">
        <ele>202</ele>
        <time>2021-04-18T07:17:10Z</time>
      </trkpt>
      <trkpt lat="43.50164" lon="6.3916">
        <ele>202.2</ele>
        <time>2021-04-18T07:17:15Z</time>
      </trkpt>
      <trkpt lat="43.50161" lon="6.39166">
        <ele>202.1</ele>
        <time>2021-04-18T07:17:18Z</time>
      </trkpt>
      <trkpt lat="43.5016" lon="6.39173">
        <ele>202</ele>
        <time>2021-04-18T07:17:21Z</time>
      </trkpt>
      <trkpt lat="43.50159" lon="6.39179">
        <ele>201.7</ele>
        <time>2021-04-18T07:17:26Z</time>
      </trkpt>
      <trkpt lat="43.50158" lon="6.39186">
        <ele>201.5</ele>
        <time>2021-04-18T07:17:30Z</time>
      </trkpt>
      <trkpt lat="43.50157" lon="6.39194">
        <ele>201.1</ele>
        <time>2021-04-18T07:17:34Z</time>
      </trkpt>
      <trkpt lat="43.50155" lon="6.392">
        <ele>200.7</ele>
        <time>2021-04-18T07:17:38Z</time>
      </trkpt>
      <trkpt lat="43.50154" lon="6.39206">
        <ele>200.2</ele>
        <time>2021-04-18T07:17:42Z</time>
      </trkpt>
      <trkpt lat="43.50152" lon="6.39215">
        <ele>199.8</ele>
        <time>2021-04-18T07:17:46Z</time>
      </trkpt>
      <trkpt lat="43.5015" lon="6.3922">
        <ele>199.6</ele>
        <time>2021-04-18T07:17:48Z</time>
      </trkpt>
      <trkpt lat="43.50149" lon="6.39227">
        <ele>199.3</ele>
        <time>2021-04-18T07:17:52Z</time>
      </trkpt>
      <trkpt lat="43.50149" lon="6.39233">
        <ele>199.1</ele>
        <time>2021-04-18T07:17:56Z</time>
      </trkpt>
      <trkpt lat="43.50148" lon="6.3924">
        <ele>198.8</ele>
        <time>2021-04-18T07:18:01Z</time>
      </trkpt>
      <trkpt lat="43.50148" lon="6.39248">
        <ele>198.6</ele>
        <time>2021-04-18T07:18:07Z</time>
      </trkpt>
      <trkpt lat="43.50146" lon="6.39255">
        <ele>198.5</ele>
        <time>2021-04-18T07:18:11Z</time>
      </trkpt>
      <trkpt lat="43.50145" lon="6.39261">
        <ele>198.4</ele>
        <time>2021-04-18T07:18:15Z</time>
      </trkpt>
      <trkpt lat="43.50143" lon="6.39269">
        <ele>198.4</ele>
        <time>2021-04-18T07:18:19Z</time>
      </trkpt>
      <trkpt lat="43.50141" lon="6.39275">
        <ele>198.4</ele>
        <time>2021-04-18T07:18:22Z</time>
      </trkpt>
      <trkpt lat="43.5014" lon="6.39282">
        <ele>198.3</ele>
        <time>2021-04-18T07:18:27Z</time>
      </trkpt>
      <trkpt lat="43.50137" lon="6.39289">
        <ele>198.3</ele>
        <time>2021-04-18T07:18:33Z</time>
      </trkpt>
      <trkpt lat="43.50134" lon="6.39294">
        <ele>198.4</ele>
        <time>2021-04-18T07:18:38Z</time>
      </trkpt>
      <trkpt lat="43.50132" lon="6.393">
        <ele>198.5</ele>
        <time>2021-04-18T07:18:42Z</time>
      </trkpt>
      <trkpt lat="43.50129" lon="6.39307">
        <ele>198.7</ele>
        <time>2021-04-18T07:18:48Z</time>
      </trkpt>
      <trkpt lat="43.50126" lon="6.39313">
        <ele>198.8</ele>
        <time>2021-04-18T07:18:51Z</time>
      </trkpt>
      <trkpt lat="43.50124" lon="6.39319">
        <ele>199</ele>
        <time>2021-04-18T07:18:55Z</time>
      </trkpt>
      <trkpt lat="43.50122" lon="6.39326">
        <ele>199.2</ele>
        <time>2021-04-18T07:19:00Z</time>
      </trkpt>
      <trkpt lat="43.5012" lon="6.39332">
        <ele>199.3</ele>
        <time>2021-04-18T07:19:04Z</time>
      </trkpt>
      <trkpt lat="43.50119" lon="6.39339">
        <ele>199.4</ele>
        <time>2021-04-18T07:19:08Z</time>
      </trkpt>
      <trkpt lat="43.50117" lon="6.39346">
        <ele>199.6</ele>
        <time>2021-04-18T07:19:12Z</time>
      </trkpt>
      <trkpt lat="43.50116" lon="6.39353">
        <ele>199.6</ele>
        <time>2021-04-18T07:19:17Z</time>
      </trkpt>
      <trkpt lat="43.50114" lon="6.3936">
        <ele>199.7</ele>
        <time>2021-04-18T07:19:21Z</time>
      </trkpt>
      <trkpt lat="43.50113" lon="6.39368">
        <ele>199.7</ele>
        <time>2021-04-18T07:19:24Z</time>
      </trkpt>
      <trkpt lat="43.50111" lon="6.39374">
        <ele>199.7</ele>
        <time>2021-04-18T07:19:28Z</time>
      </trkpt>
      <trkpt lat="43.50113" lon="6.3938">
        <ele>199.5</ele>
        <time>2021-04-18T07:19:33Z</time>
      </trkpt>
      <trkpt lat="43.50115" lon="6.39386">
        <ele>199.4</ele>
        <time>2021-04-18T07:19:37Z</time>
      </trkpt>
      <trkpt lat="43.50116" lon="6.39393">
        <ele>198.9</ele>
        <time>2021-04-18T07:19:41Z</time>
      </trkpt>
      <trkpt lat="43.50118" lon="6.39399">
        <ele>198.5</ele>
        <time>2021-04-18T07:19:45Z</time>
      </trkpt>
      <trkpt lat="43.5012" lon="6.39405">
        <ele>198.1</ele>
        <time>2021-04-18T07:19:49Z</time>
      </trkpt>
      <trkpt lat="43.50121" lon="6.39411">
        <ele>197.6</ele>
        <time>2021-04-18T07:19:53Z</time>
      </trkpt>
      <trkpt lat="43.50124" lon="6.39418">
        <ele>197.3</ele>
        <time>2021-04-18T07:19:57Z</time>
      </trkpt>
      <trkpt lat="43.50125" lon="6.39425">
        <ele>196.9</ele>
        <time>2021-04-18T07:20:00Z</time>
      </trkpt>
      <trkpt lat="43.50126" lon="6.39432">
        <ele>196.4</ele>
        <time>2021-04-18T07:20:03Z</time>
      </trkpt>
      <trkpt lat="43.50128" lon="6.39438">
        <ele>195.5</ele>
        <time>2021-04-18T07:20:08Z</time>
      </trkpt>
      <trkpt lat="43.5013" lon="6.39445">
        <ele>195</ele>
        <time>2021-04-18T07:20:12Z</time>
      </trkpt>
      <trkpt lat="43.50133" lon="6.3945">
        <ele>194.3</ele>
        <time>2021-04-18T07:20:16Z</time>
      </trkpt>
      <trkpt lat="43.50133" lon="6.39457">
        <ele>193.6</ele>
        <time>2021-04-18T07:20:21Z</time>
      </trkpt>
      <trkpt lat="43.50135" lon="6.39465">
        <ele>193.2</ele>
        <time>2021-04-18T07:20:25Z</time>
      </trkpt>
      <trkpt lat="43.50138" lon="6.39471">
        <ele>192.7</ele>
        <time>2021-04-18T07:20:29Z</time>
      </trkpt>
      <trkpt lat="43.50138" lon="6.39477">
        <ele>192.3</ele>
        <time>2021-04-18T07:20:32Z</time>
      </trkpt>
      <trkpt lat="43.50139" lon="6.39484">
        <ele>191.7</ele>
        <time>2021-04-18T07:20:36Z</time>
      </trkpt>
      <trkpt lat="43.50141" lon="6.39492">
        <ele>191.1</ele>
        <time>2021-04-18T07:20:40Z</time>
      </trkpt>
      <trkpt lat="43.50141" lon="6.39499">
        <ele>190.7</ele>
        <time>2021-04-18T07:20:44Z</time>
      </trkpt>
      <trkpt lat="43.50141" lon="6.39506">
        <ele>190.2</ele>
        <time>2021-04-18T07:20:48Z</time>
      </trkpt>
      <trkpt lat="43.50143" lon="6.39513">
        <ele>189.5</ele>
        <time>2021-04-18T07:20:54Z</time>
      </trkpt>
      <trkpt lat="43.50143" lon="6.3952">
        <ele>189.1</ele>
        <time>2021-04-18T07:20:58Z</time>
      </trkpt>
      <trkpt lat="43.50144" lon="6.39527">
        <ele>188.7</ele>
        <time>2021-04-18T07:21:02Z</time>
      </trkpt>
      <trkpt lat="43.50144" lon="6.39534">
        <ele>188.5</ele>
        <time>2021-04-18T07:21:05Z</time>
      </trkpt>
      <trkpt lat="43.50145" lon="6.3954">
        <ele>188.3</ele>
        <time>2021-04-18T07:21:08Z</time>
      </trkpt>
      <trkpt lat="43.50147" lon="6.39546">
        <ele>188.1</ele>
        <time>2021-04-18T07:21:13Z</time>
      </trkpt>
      <trkpt lat="43.50148" lon="6.39553">
        <ele>188</ele>
        <time>2021-04-18T07:21:16Z</time>
      </trkpt>
      <trkpt lat="43.50149" lon="6.39559">
        <ele>187.9</ele>
        <time>2021-04-18T07:21:20Z</time>
      </trkpt>
      <trkpt lat="43.5015" lon="6.39566">
        <ele>187.8</ele>
        <time>2021-04-18T07:21:24Z</time>
      </trkpt>
      <trkpt lat="43.5015" lon="6.39573">
        <ele>187.7</ele>
        <time>2021-04-18T07:21:28Z</time>
      </trkpt>
      <trkpt lat="43.5015" lon="6.39581">
        <ele>187.6</ele>
        <time>2021-04-18T07:21:32Z</time>
      </trkpt>
      <trkpt lat="43.5015" lon="6.39587">
        <ele>187.5</ele>
        <time>2021-04-18T07:21:36Z</time>
      </trkpt>
      <trkpt lat="43.50151" lon="6.39595">
        <ele>187.2</ele>
        <time>2021-04-18T07:21:41Z</time>
      </trkpt>
      <trkpt lat="43.50152" lon="6.39602">
        <ele>186.9</ele>
        <time>2021-04-18T07:21:47Z</time>
      </trkpt>
      <trkpt lat="43.50152" lon="6.3961">
        <ele>186.6</ele>
        <time>2021-04-18T07:21:52Z</time>
      </trkpt>
      <trkpt lat="43.50153" lon="6.39617">
        <ele>186.2</ele>
        <time>2021-04-18T07:21:56Z</time>
      </trkpt>
      <trkpt lat="43.50154" lon="6.39624">
        <ele>185.8</ele>
        <time>2021-04-18T07:22:00Z</time>
      </trkpt>
      <trkpt lat="43.50156" lon="6.39632">
        <ele>185.3</ele>
        <time>2021-04-18T07:22:05Z</time>
      </trkpt>
      <trkpt lat="43.50156" lon="6.39638">
        <ele>184.9</ele>
        <time>2021-04-18T07:22:09Z</time>
      </trkpt>
      <trkpt lat="43.50156" lon="6.39644">
        <ele>184.4</ele>
        <time>2021-04-18T07:22:13Z</time>
      </trkpt>
      <trkpt lat="43.50156" lon="6.39651">
        <ele>183.7</ele>
        <time>2021-04-18T07:22:18Z</time>
      </trkpt>
      <trkpt lat="43.50157" lon="6.39657">
        <ele>183.2</ele>
        <time>2021-04-18T07:22:21Z</time>
      </trkpt>
      <trkpt lat="43.50156" lon="6.39664">
        <ele>182.6</ele>
        <time>2021-04-18T07:22:26Z</time>
      </trkpt>
      <trkpt lat="43.50154" lon="6.3967">
        <ele>182</ele>
        <time>2021-04-18T07:22:31Z</time>
      </trkpt>
      <trkpt lat="43.50154" lon="6.39676">
        <ele>181.7</ele>
        <time>2021-04-18T07:22:34Z</time>
      </trkpt>
      <trkpt lat="43.50152" lon="6.39682">
        <ele>181.3</ele>
        <time>2021-04-18T07:22:38Z</time>
      </trkpt>
      <trkpt lat="43.50152" lon="6.39688">
        <ele>180.9</ele>
        <time>2021-04-18T07:22:41Z</time>
      </trkpt>
      <trkpt lat="43.50152" lon="6.39695">
        <ele>180.6</ele>
        <time>2021-04-18T07:22:44Z</time>
      </trkpt>
      <trkpt lat="43.50151" lon="6.39702">
        <ele>179.9</ele>
        <time>2021-04-18T07:22:50Z</time>
      </trkpt>
      <trkpt lat="43.50149" lon="6.39708">
        <ele>179.6</ele>
        <time>2021-04-18T07:22:53Z</time>
      </trkpt>
      <trkpt lat="43.50148" lon="6.39715">
        <ele>179.3</ele>
        <time>2021-04-18T07:22:57Z</time>
      </trkpt>
      <trkpt lat="43.50148" lon="6.39722">
        <ele>179</ele>
        <time>2021-04-18T07:23:00Z</time>
      </trkpt>
      <trkpt lat="43.50148" lon="6.39728">
        <ele>178.5</ele>
        <time>2021-04-18T07:23:05Z</time>
      </trkpt>
      <trkpt lat="43.50148" lon="6.39736">
        <ele>177.7</ele>
        <time>2021-04-18T07:23:11Z</time>
      </trkpt>
      <trkpt lat="43.50148" lon="6.39744">
        <ele>177.4</ele>
        <time>2021-04-18T07:23:15Z</time>
      </trkpt>
      <trkpt lat="43.50148" lon="6.39751">
        <ele>177.3</ele>
        <time>2021-04-18T07:23:18Z</time>
      </trkpt>
      <trkpt lat="43.50149" lon="6.39759">
        <ele>177</ele>
        <time>2021-04-18T07:23:22Z</time>
      </trkpt>
      <trkpt lat="43.50151" lon="6.39766">
        <ele>176.4</ele>
        <time>2021-04-18T07:23:28Z</time>
      </trkpt>
      <trkpt lat="43.5015" lon="6.39774">
        <ele>176.1</ele>
        <time>2021-04-18T07:23:32Z</time>
      </trkpt>
      <trkpt lat="43.5015" lon="6.39781">
        <ele>175.8</ele>
        <time>2021-04-18T07:23:35Z</time>
      </trkpt>
      <trkpt lat="43.5015" lon="6.39788">
        <ele>175.1</ele>
        <time>2021-04-18T07:23:40Z</time>
      </trkpt>
      <trkpt lat="43.50151" lon="6.39795">
        <ele>174.6</ele>
        <time>2021-04-18T07:23:44Z</time>
      </trkpt>
      <trkpt lat="43.50149" lon="6.39801">
        <ele>174.2</ele>
        <time>2021-04-18T07:23:47Z</time>
      </trkpt>
      <trkpt lat="43.50149" lon="6.39808">
        <ele>173.7</ele>
        <time>2021-04-18T07:23:51Z</time>
      </trkpt>
      <trkpt lat="43.50149" lon="6.39815">
        <ele>173.3</ele>
        <time>2021-04-18T07:23:55Z</time>
      </trkpt>
      <trkpt lat="43.5015" lon="6.39823">
        <ele>172.9</ele>
        <time>2021-04-18T07:23:59Z</time>
      </trkpt>
      <trkpt lat="43.50151" lon="6.39829">
        <ele>172.5</ele>
        <time>2021-04-18T07:24:03Z</time>
      </trkpt>
      <trkpt lat="43.50149" lon="6.39836">
        <ele>171.9</ele>
        <time>2021-04-18T07:24:08Z</time>
      </trkpt>
      <trkpt lat="43.50149" lon="6.39842">
        <ele>171.4</ele>
        <time>2021-04-18T07:24:12Z</time>
      </trkpt>
      <trkpt lat="43.50149" lon="6.39849">
        <ele>171.1</ele>
        <time>2021-04-18T07:24:15Z</time>
      </trkpt>
      <trkpt lat="43.50147" lon="6.39856">
        <ele>170.6</ele>
        <time>2021-04-18T07:24:20Z</time>
      </trkpt>
      <trkpt lat="43.50147" lon="6.39863">
        <ele>170</ele>
        <time>2021-04-18T07:24:25Z</time>
      </trkpt>
      <trkpt lat="43.50146" lon="6.39869">
        <ele>169.7</ele>
        <time>2021-04-18T07:24:28Z</time>
      </trkpt>
      <trkpt lat="43.50146" lon="6.39875">
        <ele>169.3</ele>
        <time>2021-04-18T07:24:33Z</time>
      </trkpt>
      <trkpt lat="43.50147" lon="6.39882">
        <ele>168.9</ele>
        <time>2021-04-18T07:24:37Z</time>
      </trkpt>
      <trkpt lat="43.50147" lon="6.39888">
        <ele>168.7</ele>
        <time>2021-04-18T07:24:40Z</time>
      </trkpt>
      <trkpt lat="43.50147" lon="6.39896">
        <ele>168.2</ele>
        <time>2021-04-18T07:24:46Z</time>
      </trkpt>
      <trkpt lat="43.50148" lon="6.39903">
        <ele>167.9</ele>
        <time>2021-04-18T07:24:50Z</time>
      </trkpt>
      <trkpt lat="43.50147" lon="6.39911">
        <ele>167.7</ele>
        <time>2021-04-18T07:24:53Z</time>
      </trkpt>
      <trkpt lat="43.50147" lon="6.39917">
        <ele>167.3</ele>
        <time>2021-04-18T07:24:58Z</time>
      </trkpt>
      <trkpt lat="43.50149" lon="6.39924">
        <ele>167</ele>
        <time>2021-04-18T07:25:02Z</time>
      </trkpt>
      <trkpt lat="43.50152" lon="6.3993">
        <ele>166.5</ele>
        <time>2021-04-18T07:25:06Z</time>
      </trkpt>
      <trkpt lat="43.50153" lon="6.39936">
        <ele>166.1</ele>
        <time>2021-04-18T07:25:10Z</time>
      </trkpt>
      <trkpt lat="43.50153" lon="6.39943">
        <ele>165.8</ele>
        <time>2021-04-18T07:25:13Z</time>
      </trkpt>
      <trkpt lat="43.50155" lon="6.39949">
        <ele>165.4</ele>
        <time>2021-04-18T07:25:18Z</time>
      </trkpt>
      <trkpt lat="43.50158" lon="6.39954">
        <ele>165</ele>
        <time>2021-04-18T07:25:24Z</time>
      </trkpt>
      <trkpt lat="43.50162" lon="6.39959">
        <ele>164.7</ele>
        <time>2021-04-18T07:25:28Z</time>
      </trkpt>
      <trkpt lat="43.50165" lon="6.39965">
        <ele>164.5</ele>
        <time>2021-04-18T07:25:31Z</time>
      </trkpt>
      <trkpt lat="43.50168" lon="6.39971">
        <ele>164.3</ele>
        <time>2021-04-18T07:25:35Z</time>
      </trkpt>
      <trkpt lat="43.50172" lon="6.39975">
        <ele>164.1</ele>
        <time>2021-04-18T07:25:40Z</time>
      </trkpt>
      <trkpt lat="43.50176" lon="6.39979">
        <ele>163.8</ele>
        <time>2021-04-18T07:25:44Z</time>
      </trkpt>
      <trkpt lat="43.5018" lon="6.39984">
        <ele>163.6</ele>
        <time>2021-04-18T07:25:48Z</time>
      </trkpt>
      <trkpt lat="43.50182" lon="6.3999">
        <ele>163.4</ele>
        <time>2021-04-18T07:25:53Z</time>
      </trkpt>
      <trkpt lat="43.50187" lon="6.39992">
        <ele>163.3</ele>
        <time>2021-04-18T07:25:57Z</time>
      </trkpt>
      <trkpt lat="43.50191" lon="6.39994">
        <ele>163.3</ele>
        <time>2021-04-18T07:26:02Z</time>
      </trkpt>
      <trkpt lat="43.50196" lon="6.39995">
        <ele>163.2</ele>
        <time>2021-04-18T07:26:06Z</time>
      </trkpt>
      <trkpt lat="43.50201" lon="6.39999">
        <ele>163.2</ele>
        <time>2021-04-18T07:26:12Z</time>
      </trkpt>
      <trkpt lat="43.50206" lon="6.40003">
        <ele>163.2</ele>
        <time>2021-04-18T07:26:16Z</time>
      </trkpt>
      <trkpt lat="43.50211" lon="6.40008">
        <ele>163.3</ele>
        <time>2021-04-18T07:26:21Z</time>
      </trkpt>
      <trkpt lat="43.50216" lon="6.40011">
        <ele>163.5</ele>
        <time>2021-04-18T07:26:26Z</time>
      </trkpt>
      <trkpt lat="43.50222" lon="6.40011">
        <ele>163.6</ele>
        <time>2021-04-18T07:26:29Z</time>
      </trkpt>
      <trkpt lat="43.50227" lon="6.40013">
        <ele>163.7</ele>
        <time>2021-04-18T07:26:32Z</time>
      </trkpt>
      <trkpt lat="43.50232" lon="6.40012">
        <ele>163.9</ele>
        <time>2021-04-18T07:26:38Z</time>
      </trkpt>
      <trkpt lat="43.50237" lon="6.40015">
        <ele>164</ele>
        <time>2021-04-18T07:26:42Z</time>
      </trkpt>
      <trkpt lat="43.50242" lon="6.40014">
        <ele>164</ele>
        <time>2021-04-18T07:26:47Z</time>
      </trkpt>
      <trkpt lat="43.50247" lon="6.40013">
        <ele>164</ele>
        <time>2021-04-18T07:26:51Z</time>
      </trkpt>
      <trkpt lat="43.50252" lon="6.4001">
        <ele>164</ele>
        <time>2021-04-18T07:26:54Z</time>
      </trkpt>
      <trkpt lat="43.50257" lon="6.40007">
        <ele>163.7</ele>
        <time>2021-04-18T07:26:59Z</time>
      </trkpt>
      <trkpt lat="43.50262" lon="6.40005">
        <ele>163.4</ele>
        <time>2021-04-18T07:27:02Z</time>
      </trkpt>
      <trkpt lat="43.50268" lon="6.40003">
        <ele>163.1</ele>
        <time>2021-04-18T07:27:05Z</time>
      </trkpt>
      <trkpt lat="43.50272" lon="6.40002">
        <ele>162.8</ele>
        <time>2021-04-18T07:27:08Z</time>
      </trkpt>
      <trkpt lat="43.50278" lon="6.40004">
        <ele>162.1</ele>
        <time>2021-04-18T07:27:13Z</time>
      </trkpt>
      <trkpt lat="43.50281" lon="6.40009">
        <ele>161.3</ele>
        <time>2021-04-18T07:27:20Z</time>
      </trkpt>
      <trkpt lat="43.50284" lon="6.40014">
        <ele>161</ele>
        <time>2021-04-18T07:27:24Z</time>
      </trkpt>
      <trkpt lat="43.50282" lon="6.40021">
        <ele>160.4</ele>
        <time>2021-04-18T07:27:31Z</time>
      </trkpt>
      <trkpt lat="43.50287" lon="6.4002">
        <ele>159.4</ele>
        <time>2021-04-18T07:27:45Z</time>
      </trkpt>
      <trkpt lat="43.50292" lon="6.4002">
        <ele>159.2</ele>
        <time>2021-04-18T07:27:50Z</time>
      </trkpt>
      <trkpt lat="43.50298" lon="6.40018">
        <ele>159</ele>
        <time>2021-04-18T07:27:58Z</time>
      </trkpt>
      <trkpt lat="43.50302" lon="6.40022">
        <ele>158.9</ele>
        <time>2021-04-18T07:28:02Z</time>
      </trkpt>
      <trkpt lat="43.50306" lon="6.40028">
        <ele>158.7</ele>
        <time>2021-04-18T07:28:05Z</time>
      </trkpt>
      <trkpt lat="43.50308" lon="6.40034">
        <ele>158.4</ele>
        <time>2021-04-18T07:28:10Z</time>
      </trkpt>
      <trkpt lat="43.50308" lon="6.40041">
        <ele>158.2</ele>
        <time>2021-04-18T07:28:14Z</time>
      </trkpt>
      <trkpt lat="43.50307" lon="6.40047">
        <ele>158.1</ele>
        <time>2021-04-18T07:28:18Z</time>
      </trkpt>
      <trkpt lat="43.50305" lon="6.40053">
        <ele>157.7</ele>
        <time>2021-04-18T07:28:25Z</time>
      </trkpt>
      <trkpt lat="43.50303" lon="6.40059">
        <ele>157.6</ele>
        <time>2021-04-18T07:28:29Z</time>
      </trkpt>
      <trkpt lat="43.503" lon="6.40064">
        <ele>157.3</ele>
        <time>2021-04-18T07:28:35Z</time>
      </trkpt>
      <trkpt lat="43.50296" lon="6.40068">
        <ele>157.1</ele>
        <time>2021-04-18T07:28:40Z</time>
      </trkpt>
      <trkpt lat="43.50294" lon="6.40074">
        <ele>157</ele>
        <time>2021-04-18T07:28:44Z</time>
      </trkpt>
      <trkpt lat="43.50291" lon="6.4008">
        <ele>157.1</ele>
        <time>2021-04-18T07:28:47Z</time>
      </trkpt>
      <trkpt lat="43.50286" lon="6.40084">
        <ele>157.1</ele>
        <time>2021-04-18T07:28:53Z</time>
      </trkpt>
      <trkpt lat="43.50284" lon="6.4009">
        <ele>157</ele>
        <time>2021-04-18T07:28:57Z</time>
      </trkpt>
      <trkpt lat="43.50282" lon="6.40096">
        <ele>156.7</ele>
        <time>2021-04-18T07:29:04Z</time>
      </trkpt>
      <trkpt lat="43.50279" lon="6.40101">
        <ele>156.6</ele>
        <time>2021-04-18T07:29:06Z</time>
      </trkpt>
      <trkpt lat="43.50277" lon="6.40107">
        <ele>156.4</ele>
        <time>2021-04-18T07:29:11Z</time>
      </trkpt>
      <trkpt lat="43.50278" lon="6.40113">
        <ele>156.1</ele>
        <time>2021-04-18T07:29:16Z</time>
      </trkpt>
      <trkpt lat="43.50281" lon="6.40119">
        <ele>155.8</ele>
        <time>2021-04-18T07:29:20Z</time>
      </trkpt>
      <trkpt lat="43.50283" lon="6.40125">
        <ele>155.6</ele>
        <time>2021-04-18T07:29:24Z</time>
      </trkpt>
      <trkpt lat="43.50285" lon="6.40131">
        <ele>155.4</ele>
        <time>2021-04-18T07:29:29Z</time>
      </trkpt>
      <trkpt lat="43.5029" lon="6.40134">
        <ele>155.3</ele>
        <time>2021-04-18T07:29:33Z</time>
      </trkpt>
      <trkpt lat="43.50293" lon="6.4014">
        <ele>155.2</ele>
        <time>2021-04-18T07:29:37Z</time>
      </trkpt>
      <trkpt lat="43.50298" lon="6.40142">
        <ele>155.1</ele>
        <time>2021-04-18T07:29:41Z</time>
      </trkpt>
      <trkpt lat="43.50301" lon="6.40147">
        <ele>155.1</ele>
        <time>2021-04-18T07:29:46Z</time>
      </trkpt>
      <trkpt lat="43.50302" lon="6.40141">
        <ele>154.9</ele>
        <time>2021-04-18T07:30:00Z</time>
      </trkpt>
      <trkpt lat="43.50303" lon="6.40134">
        <ele>154.9</ele>
        <time>2021-04-18T07:30:03Z</time>
      </trkpt>
      <trkpt lat="43.50308" lon="6.4013">
        <ele>154.9</ele>
        <time>2021-04-18T07:30:10Z</time>
      </trkpt>
      <trkpt lat="43.50313" lon="6.40125">
        <ele>154.8</ele>
        <time>2021-04-18T07:30:16Z</time>
      </trkpt>
      <trkpt lat="43.50318" lon="6.40122">
        <ele>154.8</ele>
        <time>2021-04-18T07:30:19Z</time>
      </trkpt>
      <trkpt lat="43.50324" lon="6.4012">
        <ele>154.8</ele>
        <time>2021-04-18T07:30:23Z</time>
      </trkpt>
      <trkpt lat="43.5032" lon="6.40124">
        <ele>154.8</ele>
        <time>2021-04-18T07:30:30Z</time>
      </trkpt>
      <trkpt lat="43.50315" lon="6.40128">
        <ele>154.8</ele>
        <time>2021-04-18T07:30:33Z</time>
      </trkpt>
      <trkpt lat="43.50311" lon="6.40131">
        <ele>154.9</ele>
        <time>2021-04-18T07:30:36Z</time>
      </trkpt>
      <trkpt lat="43.50305" lon="6.40132">
        <ele>155</ele>
        <time>2021-04-18T07:30:41Z</time>
      </trkpt>
      <trkpt lat="43.503" lon="6.40134">
        <ele>155</ele>
        <time>2021-04-18T07:30:47Z</time>
      </trkpt>
      <trkpt lat="43.50296" lon="6.40138">
        <ele>155.2</ele>
        <time>2021-04-18T07:30:58Z</time>
      </trkpt>
      <trkpt lat="43.50294" lon="6.40144">
        <ele>155.5</ele>
        <time>2021-04-18T07:31:06Z</time>
      </trkpt>
      <trkpt lat="43.50296" lon="6.4015">
        <ele>155.6</ele>
        <time>2021-04-18T07:31:24Z</time>
      </trkpt>
      <trkpt lat="43.50301" lon="6.40152">
        <ele>155.7</ele>
        <time>2021-04-18T07:31:32Z</time>
      </trkpt>
      <trkpt lat="43.50299" lon="6.40158">
        <ele>156</ele>
        <time>2021-04-18T07:31:59Z</time>
      </trkpt>
      <trkpt lat="43.503" lon="6.40164">
        <ele>156.3</ele>
        <time>2021-04-18T07:32:04Z</time>
      </trkpt>
      <trkpt lat="43.50302" lon="6.4017">
        <ele>156.5</ele>
        <time>2021-04-18T07:32:09Z</time>
      </trkpt>
      <trkpt lat="43.50304" lon="6.40175">
        <ele>157</ele>
        <time>2021-04-18T07:32:17Z</time>
      </trkpt>
      <trkpt lat="43.50304" lon="6.40182">
        <ele>157.5</ele>
        <time>2021-04-18T07:32:25Z</time>
      </trkpt>
      <trkpt lat="43.50304" lon="6.40189">
        <ele>158</ele>
        <time>2021-04-18T07:32:32Z</time>
      </trkpt>
      <trkpt lat="43.50305" lon="6.40195">
        <ele>158.6</ele>
        <time>2021-04-18T07:32:38Z</time>
      </trkpt>
      <trkpt lat="43.50305" lon="6.40202">
        <ele>159.2</ele>
        <time>2021-04-18T07:32:45Z</time>
      </trkpt>
      <trkpt lat="43.50305" lon="6.40208">
        <ele>160</ele>
        <time>2021-04-18T07:32:53Z</time>
      </trkpt>
      <trkpt lat="43.50307" lon="6.40214">
        <ele>160.6</ele>
        <time>2021-04-18T07:32:58Z</time>
      </trkpt>
      <trkpt lat="43.50307" lon="6.40222">
        <ele>161.5</ele>
        <time>2021-04-18T07:33:07Z</time>
      </trkpt>
      <trkpt lat="43.50308" lon="6.40228">
        <ele>162.3</ele>
        <time>2021-04-18T07:33:15Z</time>
      </trkpt>
      <trkpt lat="43.50307" lon="6.40235">
        <ele>163</ele>
        <time>2021-04-18T07:33:22Z</time>
      </trkpt>
      <trkpt lat="43.50305" lon="6.40241">
        <ele>163.8</ele>
        <time>2021-04-18T07:33:29Z</time>
      </trkpt>
      <trkpt lat="43.50303" lon="6.40249">
        <ele>164.3</ele>
        <time>2021-04-18T07:33:34Z</time>
      </trkpt>
      <trkpt lat="43.50301" lon="6.40254">
        <ele>164.7</ele>
        <time>2021-04-18T07:33:38Z</time>
      </trkpt>
      <trkpt lat="43.50301" lon="6.40261">
        <ele>165.1</ele>
        <time>2021-04-18T07:33:42Z</time>
      </trkpt>
      <trkpt lat="43.50302" lon="6.40268">
        <ele>165.5</ele>
        <time>2021-04-18T07:33:47Z</time>
      </trkpt>
      <trkpt lat="43.50302" lon="6.40274">
        <ele>165.9</ele>
        <time>2021-04-18T07:33:52Z</time>
      </trkpt>
      <trkpt lat="43.503" lon="6.40281">
        <ele>166.5</ele>
        <time>2021-04-18T07:33:59Z</time>
      </trkpt>
      <trkpt lat="43.50297" lon="6.40286">
        <ele>167</ele>
        <time>2021-04-18T07:34:04Z</time>
      </trkpt>
      <trkpt lat="43.50295" lon="6.40293">
        <ele>167.4</ele>
        <time>2021-04-18T07:34:09Z</time>
      </trkpt>
      <trkpt lat="43.50295" lon="6.403">
        <ele>167.9</ele>
        <time>2021-04-18T07:34:14Z</time>
      </trkpt>
      <trkpt lat="43.50293" lon="6.40306">
        <ele>168.4</ele>
        <time>2021-04-18T07:34:19Z</time>
      </trkpt>
      <trkpt lat="43.50291" lon="6.40313">
        <ele>168.9</ele>
        <time>2021-04-18T07:34:24Z</time>
      </trkpt>
      <trkpt lat="43.50295" lon="6.40319">
        <ele>169.5</ele>
        <time>2021-04-18T07:34:30Z</time>
      </trkpt>
      <trkpt lat="43.50298" lon="6.40324">
        <ele>170</ele>
        <time>2021-04-18T07:34:34Z</time>
      </trkpt>
      <trkpt lat="43.50301" lon="6.40329">
        <ele>170.6</ele>
        <time>2021-04-18T07:34:38Z</time>
      </trkpt>
      <trkpt lat="43.50302" lon="6.40336">
        <ele>171</ele>
        <time>2021-04-18T07:34:42Z</time>
      </trkpt>
      <trkpt lat="43.50304" lon="6.40342">
        <ele>171.4</ele>
        <time>2021-04-18T07:34:46Z</time>
      </trkpt>
      <trkpt lat="43.50306" lon="6.40348">
        <ele>172</ele>
        <time>2021-04-18T07:34:51Z</time>
      </trkpt>
      <trkpt lat="43.50307" lon="6.40354">
        <ele>172.5</ele>
        <time>2021-04-18T07:34:56Z</time>
      </trkpt>
      <trkpt lat="43.50308" lon="6.40362">
        <ele>173</ele>
        <time>2021-04-18T07:35:01Z</time>
      </trkpt>
      <trkpt lat="43.50308" lon="6.40369">
        <ele>173.4</ele>
        <time>2021-04-18T07:35:06Z</time>
      </trkpt>
      <trkpt lat="43.50307" lon="6.40375">
        <ele>174.1</ele>
        <time>2021-04-18T07:35:11Z</time>
      </trkpt>
      <trkpt lat="43.50308" lon="6.40381">
        <ele>175</ele>
        <time>2021-04-18T07:35:19Z</time>
      </trkpt>
      <trkpt lat="43.50308" lon="6.40388">
        <ele>175.9</ele>
        <time>2021-04-18T07:35:27Z</time>
      </trkpt>
      <trkpt lat="43.50306" lon="6.40394">
        <ele>176.3</ele>
        <time>2021-04-18T07:35:32Z</time>
      </trkpt>
      <trkpt lat="43.50306" lon="6.40402">
        <ele>177</ele>
        <time>2021-04-18T07:35:40Z</time>
      </trkpt>
      <trkpt lat="43.50306" lon="6.40408">
        <ele>177.6</ele>
        <time>2021-04-18T07:35:46Z</time>
      </trkpt>
      <trkpt lat="43.50308" lon="6.40414">
        <ele>178</ele>
        <time>2021-04-18T07:35:51Z</time>
      </trkpt>
      <trkpt lat="43.50312" lon="6.4042">
        <ele>178.5</ele>
        <time>2021-04-18T07:35:56Z</time>
      </trkpt>
      <trkpt lat="43.50317" lon="6.40424">
        <ele>178.9</ele>
        <time>2021-04-18T07:36:00Z</time>
      </trkpt>
      <trkpt lat="43.5032" lon="6.40429">
        <ele>179.3</ele>
        <time>2021-04-18T07:36:05Z</time>
      </trkpt>
      <trkpt lat="43.50322" lon="6.40435">
        <ele>179.6</ele>
        <time>2021-04-18T07:36:09Z</time>
      </trkpt>
      <trkpt lat="43.50322" lon="6.40442">
        <ele>180</ele>
        <time>2021-04-18T07:36:13Z</time>
      </trkpt>
      <trkpt lat="43.50322" lon="6.40449">
        <ele>180.4</ele>
        <time>2021-04-18T07:36:17Z</time>
      </trkpt>
      <trkpt lat="43.50321" lon="6.40457">
        <ele>180.9</ele>
        <time>2021-04-18T07:36:21Z</time>
      </trkpt>
      <trkpt lat="43.50322" lon="6.40464">
        <ele>181.4</ele>
        <time>2021-04-18T07:36:26Z</time>
      </trkpt>
      <trkpt lat="43.50322" lon="6.40472">
        <ele>181.8</ele>
        <time>2021-04-18T07:36:31Z</time>
      </trkpt>
      <trkpt lat="43.50324" lon="6.40477">
        <ele>182.1</ele>
        <time>2021-04-18T07:36:35Z</time>
      </trkpt>
      <trkpt lat="43.50325" lon="6.40483">
        <ele>182.5</ele>
        <time>2021-04-18T07:36:39Z</time>
      </trkpt>
      <trkpt lat="43.50328" lon="6.40488">
        <ele>182.8</ele>
        <time>2021-04-18T07:36:43Z</time>
      </trkpt>
      <trkpt lat="43.50331" lon="6.40493">
        <ele>183.3</ele>
        <time>2021-04-18T07:36:56Z</time>
      </trkpt>
      <trkpt lat="43.50335" lon="6.40496">
        <ele>183.5</ele>
        <time>2021-04-18T07:37:22Z</time>
      </trkpt>
      <trkpt lat="43.50337" lon="6.40502">
        <ele>183.5</ele>
        <time>2021-04-18T07:37:28Z</time>
      </trkpt>
      <trkpt lat="43.50336" lon="6.40509">
        <ele>183.4</ele>
        <time>2021-04-18T07:37:33Z</time>
      </trkpt>
      <trkpt lat="43.50335" lon="6.40515">
        <ele>183.3</ele>
        <time>2021-04-18T07:37:37Z</time>
      </trkpt>
      <trkpt lat="43.50333" lon="6.40521">
        <ele>183</ele>
        <time>2021-04-18T07:37:41Z</time>
      </trkpt>
      <trkpt lat="43.50333" lon="6.40529">
        <ele>182.6</ele>
        <time>2021-04-18T07:37:46Z</time>
      </trkpt>
      <trkpt lat="43.50331" lon="6.40535">
        <ele>182.4</ele>
        <time>2021-04-18T07:37:50Z</time>
      </trkpt>
      <trkpt lat="43.5033" lon="6.40542">
        <ele>182.1</ele>
        <time>2021-04-18T07:37:55Z</time>
      </trkpt>
      <trkpt lat="43.50328" lon="6.40548">
        <ele>181.9</ele>
        <time>2021-04-18T07:38:01Z</time>
      </trkpt>
      <trkpt lat="43.50328" lon="6.40555">
        <ele>181.7</ele>
        <time>2021-04-18T07:38:06Z</time>
      </trkpt>
      <trkpt lat="43.50327" lon="6.40562">
        <ele>181.6</ele>
        <time>2021-04-18T07:38:12Z</time>
      </trkpt>
      <trkpt lat="43.5033" lon="6.40566">
        <ele>181.5</ele>
        <time>2021-04-18T07:38:17Z</time>
      </trkpt>
      <trkpt lat="43.50335" lon="6.40569">
        <ele>181.4</ele>
        <time>2021-04-18T07:38:22Z</time>
      </trkpt>
      <trkpt lat="43.50339" lon="6.40571">
        <ele>181.4</ele>
        <time>2021-04-18T07:38:27Z</time>
      </trkpt>
      <trkpt lat="43.50344" lon="6.40572">
        <ele>181.3</ele>
        <time>2021-04-18T07:38:36Z</time>
      </trkpt>
      <trkpt lat="43.50349" lon="6.40572">
        <ele>181.3</ele>
        <time>2021-04-18T07:38:48Z</time>
      </trkpt>
      <trkpt lat="43.50354" lon="6.4057">
        <ele>181.3</ele>
        <time>2021-04-18T07:38:57Z</time>
      </trkpt>
      <trkpt lat="43.50359" lon="6.40571">
        <ele>181.4</ele>
        <time>2021-04-18T07:39:01Z</time>
      </trkpt>
      <trkpt lat="43.50364" lon="6.40568">
        <ele>181.7</ele>
        <time>2021-04-18T07:39:07Z</time>
      </trkpt>
      <trkpt lat="43.50369" lon="6.40566">
        <ele>181.9</ele>
        <time>2021-04-18T07:39:11Z</time>
      </trkpt>
      <trkpt lat="43.50374" lon="6.40569">
        <ele>182</ele>
        <time>2021-04-18T07:39:15Z</time>
      </trkpt>
      <trkpt lat="43.50379" lon="6.4057">
        <ele>182.1</ele>
        <time>2021-04-18T07:39:18Z</time>
      </trkpt>
      <trkpt lat="43.50383" lon="6.40573">
        <ele>182.2</ele>
        <time>2021-04-18T07:39:21Z</time>
      </trkpt>
      <trkpt lat="43.50388" lon="6.40574">
        <ele>182.3</ele>
        <time>2021-04-18T07:39:25Z</time>
      </trkpt>
      <trkpt lat="43.50393" lon="6.40576">
        <ele>182.6</ele>
        <time>2021-04-18T07:39:31Z</time>
      </trkpt>
      <trkpt lat="43.50397" lon="6.40578">
        <ele>182.7</ele>
        <time>2021-04-18T07:39:34Z</time>
      </trkpt>
      <trkpt lat="43.50401" lon="6.40583">
        <ele>182.8</ele>
        <time>2021-04-18T07:39:37Z</time>
      </trkpt>
      <trkpt lat="43.50407" lon="6.40585">
        <ele>182.9</ele>
        <time>2021-04-18T07:39:41Z</time>
      </trkpt>
      <trkpt lat="43.50413" lon="6.40589">
        <ele>183</ele>
        <time>2021-04-18T07:39:45Z</time>
      </trkpt>
      <trkpt lat="43.50418" lon="6.40589">
        <ele>183.1</ele>
        <time>2021-04-18T07:39:47Z</time>
      </trkpt>
      <trkpt lat="43.50423" lon="6.40589">
        <ele>183.2</ele>
        <time>2021-04-18T07:39:52Z</time>
      </trkpt>
      <trkpt lat="43.50427" lon="6.40592">
        <ele>183.4</ele>
        <time>2021-04-18T07:39:56Z</time>
      </trkpt>
      <trkpt lat="43.50434" lon="6.40593">
        <ele>183.6</ele>
        <time>2021-04-18T07:40:00Z</time>
      </trkpt>
      <trkpt lat="43.50438" lon="6.40596">
        <ele>183.7</ele>
        <time>2021-04-18T07:40:03Z</time>
      </trkpt>
      <trkpt lat="43.50443" lon="6.406">
        <ele>183.8</ele>
        <time>2021-04-18T07:40:06Z</time>
      </trkpt>
      <trkpt lat="43.50448" lon="6.40603">
        <ele>184</ele>
        <time>2021-04-18T07:40:09Z</time>
      </trkpt>
      <trkpt lat="43.50452" lon="6.40608">
        <ele>184.3</ele>
        <time>2021-04-18T07:40:14Z</time>
      </trkpt>
      <trkpt lat="43.50457" lon="6.40611">
        <ele>184.6</ele>
        <time>2021-04-18T07:40:17Z</time>
      </trkpt>
      <trkpt lat="43.50459" lon="6.40616">
        <ele>185</ele>
        <time>2021-04-18T07:40:22Z</time>
      </trkpt>
      <trkpt lat="43.50463" lon="6.40622">
        <ele>185.5</ele>
        <time>2021-04-18T07:40:28Z</time>
      </trkpt>
      <trkpt lat="43.50465" lon="6.40628">
        <ele>186.1</ele>
        <time>2021-04-18T07:40:34Z</time>
      </trkpt>
      <trkpt lat="43.50467" lon="6.40635">
        <ele>186.8</ele>
        <time>2021-04-18T07:40:40Z</time>
      </trkpt>
      <trkpt lat="43.50469" lon="6.40641">
        <ele>187.3</ele>
        <time>2021-04-18T07:40:44Z</time>
      </trkpt>
      <trkpt lat="43.5047" lon="6.40647">
        <ele>187.7</ele>
        <time>2021-04-18T07:40:48Z</time>
      </trkpt>
      <trkpt lat="43.50472" lon="6.40654">
        <ele>188.3</ele>
        <time>2021-04-18T07:40:53Z</time>
      </trkpt>
      <trkpt lat="43.50474" lon="6.40661">
        <ele>188.7</ele>
        <time>2021-04-18T07:40:58Z</time>
      </trkpt>
      <trkpt lat="43.50473" lon="6.40668">
        <ele>189</ele>
        <time>2021-04-18T07:41:02Z</time>
      </trkpt>
      <trkpt lat="43.50477" lon="6.40674">
        <ele>189.2</ele>
        <time>2021-04-18T07:41:06Z</time>
      </trkpt>
      <trkpt lat="43.50481" lon="6.40679">
        <ele>189.5</ele>
        <time>2021-04-18T07:41:11Z</time>
      </trkpt>
      <trkpt lat="43.50485" lon="6.40685">
        <ele>189.6</ele>
        <time>2021-04-18T07:41:15Z</time>
      </trkpt>
      <trkpt lat="43.50488" lon="6.40689">
        <ele>189.8</ele>
        <time>2021-04-18T07:41:19Z</time>
      </trkpt>
      <trkpt lat="43.50489" lon="6.40696">
        <ele>189.9</ele>
        <time>2021-04-18T07:41:23Z</time>
      </trkpt>
      <trkpt lat="43.50494" lon="6.40701">
        <ele>189.9</ele>
        <time>2021-04-18T07:41:27Z</time>
      </trkpt>
      <trkpt lat="43.50498" lon="6.40705">
        <ele>190</ele>
        <time>2021-04-18T07:41:31Z</time>
      </trkpt>
      <trkpt lat="43.50501" lon="6.40711">
        <ele>190.1</ele>
        <time>2021-04-18T07:41:35Z</time>
      </trkpt>
      <trkpt lat="43.50505" lon="6.40714">
        <ele>190.2</ele>
        <time>2021-04-18T07:41:39Z</time>
      </trkpt>
      <trkpt lat="43.50509" lon="6.40717">
        <ele>190.2</ele>
        <time>2021-04-18T07:41:44Z</time>
      </trkpt>
      <trkpt lat="43.50514" lon="6.40721">
        <ele>190.3</ele>
        <time>2021-04-18T07:41:50Z</time>
      </trkpt>
      <trkpt lat="43.50518" lon="6.40727">
        <ele>190.4</ele>
        <time>2021-04-18T07:41:54Z</time>
      </trkpt>
      <trkpt lat="43.50523" lon="6.4073">
        <ele>190.4</ele>
        <time>2021-04-18T07:41:58Z</time>
      </trkpt>
      <trkpt lat="43.50527" lon="6.40734">
        <ele>190.6</ele>
        <time>2021-04-18T07:42:03Z</time>
      </trkpt>
      <trkpt lat="43.50531" lon="6.40737">
        <ele>190.7</ele>
        <time>2021-04-18T07:42:07Z</time>
      </trkpt>
      <trkpt lat="43.50535" lon="6.40742">
        <ele>190.9</ele>
        <time>2021-04-18T07:42:12Z</time>
      </trkpt>
      <trkpt lat="43.50538" lon="6.40747">
        <ele>191.5</ele>
        <time>2021-04-18T07:42:26Z</time>
      </trkpt>
      <trkpt lat="43.50541" lon="6.40751">
        <ele>191.6</ele>
        <time>2021-04-18T07:42:30Z</time>
      </trkpt>
      <trkpt lat="43.50544" lon="6.40757">
        <ele>191.6</ele>
        <time>2021-04-18T07:42:35Z</time>
      </trkpt>
      <trkpt lat="43.50547" lon="6.40763">
        <ele>191.8</ele>
        <time>2021-04-18T07:42:40Z</time>
      </trkpt>
      <trkpt lat="43.50549" lon="6.40769">
        <ele>191.9</ele>
        <time>2021-04-18T07:42:44Z</time>
      </trkpt>
      <trkpt lat="43.5055" lon="6.40775">
        <ele>191.9</ele>
        <time>2021-04-18T07:42:49Z</time>
      </trkpt>
      <trkpt lat="43.5055" lon="6.40782">
        <ele>191.9</ele>
        <time>2021-04-18T07:42:52Z</time>
      </trkpt>
      <trkpt lat="43.50552" lon="6.40787">
        <ele>191.9</ele>
        <time>2021-04-18T07:42:57Z</time>
      </trkpt>
      <trkpt lat="43.50554" lon="6.40794">
        <ele>191.9</ele>
        <time>2021-04-18T07:43:01Z</time>
      </trkpt>
      <trkpt lat="43.50557" lon="6.408">
        <ele>191.9</ele>
        <time>2021-04-18T07:43:06Z</time>
      </trkpt>
      <trkpt lat="43.50561" lon="6.40805">
        <ele>191.8</ele>
        <time>2021-04-18T07:43:10Z</time>
      </trkpt>
      <trkpt lat="43.50564" lon="6.40812">
        <ele>191.8</ele>
        <time>2021-04-18T07:43:14Z</time>
      </trkpt>
      <trkpt lat="43.50564" lon="6.40819">
        <ele>191.8</ele>
        <time>2021-04-18T07:43:17Z</time>
      </trkpt>
      <trkpt lat="43.5057" lon="6.4082">
        <ele>191.8</ele>
        <time>2021-04-18T07:43:21Z</time>
      </trkpt>
      <trkpt lat="43.50573" lon="6.40824">
        <ele>191.8</ele>
        <time>2021-04-18T07:43:24Z</time>
      </trkpt>
      <trkpt lat="43.50576" lon="6.4083">
        <ele>191.8</ele>
        <time>2021-04-18T07:43:28Z</time>
      </trkpt>
      <trkpt lat="43.50579" lon="6.40836">
        <ele>191.9</ele>
        <time>2021-04-18T07:43:32Z</time>
      </trkpt>
      <trkpt lat="43.50582" lon="6.40841">
        <ele>192.1</ele>
        <time>2021-04-18T07:43:35Z</time>
      </trkpt>
      <trkpt lat="43.50583" lon="6.40848">
        <ele>192.3</ele>
        <time>2021-04-18T07:43:39Z</time>
      </trkpt>
      <trkpt lat="43.50583" lon="6.40855">
        <ele>192.5</ele>
        <time>2021-04-18T07:43:44Z</time>
      </trkpt>
      <trkpt lat="43.50584" lon="6.40862">
        <ele>192.8</ele>
        <time>2021-04-18T07:43:49Z</time>
      </trkpt>
      <trkpt lat="43.50585" lon="6.40869">
        <ele>193.1</ele>
        <time>2021-04-18T07:43:55Z</time>
      </trkpt>
      <trkpt lat="43.50585" lon="6.40875">
        <ele>193.5</ele>
        <time>2021-04-18T07:44:00Z</time>
      </trkpt>
      <trkpt lat="43.50588" lon="6.4088">
        <ele>194.2</ele>
        <time>2021-04-18T07:44:09Z</time>
      </trkpt>
      <trkpt lat="43.50585" lon="6.40886">
        <ele>194.5</ele>
        <time>2021-04-18T07:44:16Z</time>
      </trkpt>
      <trkpt lat="43.50585" lon="6.40892">
        <ele>195.1</ele>
        <time>2021-04-18T07:44:22Z</time>
      </trkpt>
      <trkpt lat="43.50584" lon="6.40899">
        <ele>195.4</ele>
        <time>2021-04-18T07:44:27Z</time>
      </trkpt>
      <trkpt lat="43.50585" lon="6.40907">
        <ele>195.9</ele>
        <time>2021-04-18T07:44:33Z</time>
      </trkpt>
      <trkpt lat="43.50585" lon="6.40914">
        <ele>196</ele>
        <time>2021-04-18T07:44:36Z</time>
      </trkpt>
      <trkpt lat="43.50582" lon="6.40918">
        <ele>196.2</ele>
        <time>2021-04-18T07:44:38Z</time>
      </trkpt>
      <trkpt lat="43.5058" lon="6.40924">
        <ele>196.4</ele>
        <time>2021-04-18T07:44:41Z</time>
      </trkpt>
      <trkpt lat="43.50583" lon="6.4093">
        <ele>196.7</ele>
        <time>2021-04-18T07:44:45Z</time>
      </trkpt>
      <trkpt lat="43.50584" lon="6.40937">
        <ele>196.9</ele>
        <time>2021-04-18T07:44:48Z</time>
      </trkpt>
      <trkpt lat="43.50584" lon="6.40943">
        <ele>197</ele>
        <time>2021-04-18T07:44:51Z</time>
      </trkpt>
      <trkpt lat="43.50582" lon="6.40951">
        <ele>197.1</ele>
        <time>2021-04-18T07:44:54Z</time>
      </trkpt>
      <trkpt lat="43.50579" lon="6.40956">
        <ele>197.2</ele>
        <time>2021-04-18T07:44:56Z</time>
      </trkpt>
      <trkpt lat="43.50579" lon="6.40963">
        <ele>197.3</ele>
        <time>2021-04-18T07:45:02Z</time>
      </trkpt>
      <trkpt lat="43.50579" lon="6.40969">
        <ele>197.4</ele>
        <time>2021-04-18T07:45:05Z</time>
      </trkpt>
      <trkpt lat="43.50579" lon="6.40976">
        <ele>197.4</ele>
        <time>2021-04-18T07:45:08Z</time>
      </trkpt>
      <trkpt lat="43.50578" lon="6.40983">
        <ele>197.4</ele>
        <time>2021-04-18T07:45:12Z</time>
      </trkpt>
      <trkpt lat="43.50577" lon="6.4099">
        <ele>197.7</ele>
        <time>2021-04-18T07:45:18Z</time>
      </trkpt>
      <trkpt lat="43.50577" lon="6.40997">
        <ele>197.8</ele>
        <time>2021-04-18T07:45:21Z</time>
      </trkpt>
      <trkpt lat="43.50575" lon="6.41004">
        <ele>197.9</ele>
        <time>2021-04-18T07:45:24Z</time>
      </trkpt>
      <trkpt lat="43.5057" lon="6.41007">
        <ele>198</ele>
        <time>2021-04-18T07:45:27Z</time>
      </trkpt>
      <trkpt lat="43.50566" lon="6.4101">
        <ele>198.1</ele>
        <time>2021-04-18T07:45:32Z</time>
      </trkpt>
      <trkpt lat="43.50566" lon="6.41017">
        <ele>198.4</ele>
        <time>2021-04-18T07:45:36Z</time>
      </trkpt>
      <trkpt lat="43.50564" lon="6.41023">
        <ele>198.7</ele>
        <time>2021-04-18T07:45:42Z</time>
      </trkpt>
      <trkpt lat="43.50563" lon="6.4103">
        <ele>198.9</ele>
        <time>2021-04-18T07:45:46Z</time>
      </trkpt>
      <trkpt lat="43.5056" lon="6.41036">
        <ele>199.3</ele>
        <time>2021-04-18T07:45:53Z</time>
      </trkpt>
      <trkpt lat="43.50559" lon="6.41043">
        <ele>199.7</ele>
        <time>2021-04-18T07:45:59Z</time>
      </trkpt>
      <trkpt lat="43.50559" lon="6.4105">
        <ele>200.1</ele>
        <time>2021-04-18T07:46:03Z</time>
      </trkpt>
      <trkpt lat="43.50556" lon="6.41056">
        <ele>200.6</ele>
        <time>2021-04-18T07:46:11Z</time>
      </trkpt>
      <trkpt lat="43.50556" lon="6.41064">
        <ele>201.1</ele>
        <time>2021-04-18T07:46:15Z</time>
      </trkpt>
      <trkpt lat="43.50555" lon="6.41071">
        <ele>201.6</ele>
        <time>2021-04-18T07:46:19Z</time>
      </trkpt>
      <trkpt lat="43.50556" lon="6.41077">
        <ele>202</ele>
        <time>2021-04-18T07:46:23Z</time>
      </trkpt>
      <trkpt lat="43.50556" lon="6.41084">
        <ele>202.4</ele>
        <time>2021-04-18T07:46:29Z</time>
      </trkpt>
      <trkpt lat="43.50556" lon="6.4109">
        <ele>202.7</ele>
        <time>2021-04-18T07:46:34Z</time>
      </trkpt>
      <trkpt lat="43.50555" lon="6.41096">
        <ele>203.1</ele>
        <time>2021-04-18T07:46:39Z</time>
      </trkpt>
      <trkpt lat="43.50554" lon="6.41103">
        <ele>203.4</ele>
        <time>2021-04-18T07:46:45Z</time>
      </trkpt>
      <trkpt lat="43.50553" lon="6.41111">
        <ele>203.6</ele>
        <time>2021-04-18T07:46:49Z</time>
      </trkpt>
      <trkpt lat="43.50554" lon="6.41118">
        <ele>203.9</ele>
        <time>2021-04-18T07:46:53Z</time>
      </trkpt>
      <trkpt lat="43.50554" lon="6.41125">
        <ele>204.3</ele>
        <time>2021-04-18T07:46:58Z</time>
      </trkpt>
      <trkpt lat="43.50551" lon="6.41131">
        <ele>204.6</ele>
        <time>2021-04-18T07:47:03Z</time>
      </trkpt>
      <trkpt lat="43.50546" lon="6.41135">
        <ele>204.8</ele>
        <time>2021-04-18T07:47:07Z</time>
      </trkpt>
      <trkpt lat="43.50546" lon="6.41142">
        <ele>204.9</ele>
        <time>2021-04-18T07:47:12Z</time>
      </trkpt>
      <trkpt lat="43.50545" lon="6.4115">
        <ele>205.1</ele>
        <time>2021-04-18T07:47:17Z</time>
      </trkpt>
      <trkpt lat="43.50545" lon="6.41157">
        <ele>205.2</ele>
        <time>2021-04-18T07:47:23Z</time>
      </trkpt>
      <trkpt lat="43.50543" lon="6.41163">
        <ele>205.4</ele>
        <time>2021-04-18T07:47:28Z</time>
      </trkpt>
      <trkpt lat="43.50539" lon="6.41167">
        <ele>205.8</ele>
        <time>2021-04-18T07:47:34Z</time>
      </trkpt>
      <trkpt lat="43.50536" lon="6.41172">
        <ele>206.1</ele>
        <time>2021-04-18T07:47:39Z</time>
      </trkpt>
      <trkpt lat="43.50533" lon="6.41178">
        <ele>206.4</ele>
        <time>2021-04-18T07:47:44Z</time>
      </trkpt>
      <trkpt lat="43.50531" lon="6.41184">
        <ele>207.1</ele>
        <time>2021-04-18T07:47:50Z</time>
      </trkpt>
      <trkpt lat="43.50529" lon="6.41191">
        <ele>207.5</ele>
        <time>2021-04-18T07:47:55Z</time>
      </trkpt>
      <trkpt lat="43.50526" lon="6.41196">
        <ele>207.9</ele>
        <time>2021-04-18T07:48:00Z</time>
      </trkpt>
      <trkpt lat="43.50521" lon="6.412">
        <ele>208.3</ele>
        <time>2021-04-18T07:48:05Z</time>
      </trkpt>
      <trkpt lat="43.50522" lon="6.41207">
        <ele>209.2</ele>
        <time>2021-04-18T07:48:13Z</time>
      </trkpt>
      <trkpt lat="43.5052" lon="6.41214">
        <ele>209.8</ele>
        <time>2021-04-18T07:48:19Z</time>
      </trkpt>
      <trkpt lat="43.50519" lon="6.41221">
        <ele>210.4</ele>
        <time>2021-04-18T07:48:27Z</time>
      </trkpt>
      <trkpt lat="43.50517" lon="6.41227">
        <ele>211.2</ele>
        <time>2021-04-18T07:48:34Z</time>
      </trkpt>
      <trkpt lat="43.50514" lon="6.41232">
        <ele>211.6</ele>
        <time>2021-04-18T07:48:38Z</time>
      </trkpt>
      <trkpt lat="43.5051" lon="6.41235">
        <ele>212</ele>
        <time>2021-04-18T07:48:42Z</time>
      </trkpt>
      <trkpt lat="43.50505" lon="6.41236">
        <ele>212.5</ele>
        <time>2021-04-18T07:48:46Z</time>
      </trkpt>
      <trkpt lat="43.50502" lon="6.4124">
        <ele>213.1</ele>
        <time>2021-04-18T07:48:53Z</time>
      </trkpt>
      <trkpt lat="43.50504" lon="6.41247">
        <ele>213.5</ele>
        <time>2021-04-18T07:48:59Z</time>
      </trkpt>
      <trkpt lat="43.50501" lon="6.41252">
        <ele>213.8</ele>
        <time>2021-04-18T07:49:04Z</time>
      </trkpt>
      <trkpt lat="43.50498" lon="6.41257">
        <ele>214</ele>
        <time>2021-04-18T07:49:10Z</time>
      </trkpt>
      <trkpt lat="43.50494" lon="6.41262">
        <ele>214.4</ele>
        <time>2021-04-18T07:49:15Z</time>
      </trkpt>
      <trkpt lat="43.50492" lon="6.41268">
        <ele>214.9</ele>
        <time>2021-04-18T07:49:21Z</time>
      </trkpt>
      <trkpt lat="43.50492" lon="6.41276">
        <ele>215.5</ele>
        <time>2021-04-18T07:49:29Z</time>
      </trkpt>
      <trkpt lat="43.50488" lon="6.41281">
        <ele>215.9</ele>
        <time>2021-04-18T07:49:34Z</time>
      </trkpt>
      <trkpt lat="43.50491" lon="6.41288">
        <ele>216.3</ele>
        <time>2021-04-18T07:49:39Z</time>
      </trkpt>
      <trkpt lat="43.50495" lon="6.41291">
        <ele>217</ele>
        <time>2021-04-18T07:49:45Z</time>
      </trkpt>
      <trkpt lat="43.50498" lon="6.41296">
        <ele>217.7</ele>
        <time>2021-04-18T07:49:55Z</time>
      </trkpt>
      <trkpt lat="43.50495" lon="6.41301">
        <ele>217.9</ele>
        <time>2021-04-18T07:50:00Z</time>
      </trkpt>
      <trkpt lat="43.5049" lon="6.41301">
        <ele>218.2</ele>
        <time>2021-04-18T07:50:11Z</time>
      </trkpt>
      <trkpt lat="43.50495" lon="6.41299">
        <ele>218.3</ele>
        <time>2021-04-18T07:50:16Z</time>
      </trkpt>
      <trkpt lat="43.5049" lon="6.41301">
        <ele>218.4</ele>
        <time>2021-04-18T07:50:35Z</time>
      </trkpt>
      <trkpt lat="43.50489" lon="6.41308">
        <ele>218.8</ele>
        <time>2021-04-18T07:51:37Z</time>
      </trkpt>
      <trkpt lat="43.50493" lon="6.41305">
        <ele>218.9</ele>
        <time>2021-04-18T07:51:57Z</time>
      </trkpt>
      <trkpt lat="43.50497" lon="6.41305">
        <ele>218.5</ele>
        <time>2021-04-18T07:52:24Z</time>
      </trkpt>
      <trkpt lat="43.50502" lon="6.41305">
        <ele>218.4</ele>
        <time>2021-04-18T07:52:28Z</time>
      </trkpt>
      <trkpt lat="43.50504" lon="6.41299">
        <ele>218.3</ele>
        <time>2021-04-18T07:52:39Z</time>
      </trkpt>
      <trkpt lat="43.50499" lon="6.413">
        <ele>217.7</ele>
        <time>2021-04-18T07:52:56Z</time>
      </trkpt>
      <trkpt lat="43.50495" lon="6.41305">
        <ele>217.4</ele>
        <time>2021-04-18T07:53:03Z</time>
      </trkpt>
      <trkpt lat="43.50492" lon="6.41309">
        <ele>217.3</ele>
        <time>2021-04-18T07:53:09Z</time>
      </trkpt>
      <trkpt lat="43.50487" lon="6.41311">
        <ele>217</ele>
        <time>2021-04-18T07:53:19Z</time>
      </trkpt>
      <trkpt lat="43.50491" lon="6.41308">
        <ele>216.6</ele>
        <time>2021-04-18T07:53:52Z</time>
      </trkpt>
      <trkpt lat="43.50495" lon="6.41305">
        <ele>216.5</ele>
        <time>2021-04-18T07:54:07Z</time>
      </trkpt>
      <trkpt lat="43.50493" lon="6.41311">
        <ele>216.4</ele>
        <time>2021-04-18T07:54:24Z</time>
      </trkpt>
      <trkpt lat="43.50491" lon="6.41317">
        <ele>216.5</ele>
        <time>2021-04-18T07:54:31Z</time>
      </trkpt>
      <trkpt lat="43.50488" lon="6.41321">
        <ele>216.8</ele>
        <time>2021-04-18T07:54:39Z</time>
      </trkpt>
      <trkpt lat="43.50489" lon="6.41328">
        <ele>217.3</ele>
        <time>2021-04-18T07:54:51Z</time>
      </trkpt>
      <trkpt lat="43.50485" lon="6.41334">
        <ele>217.5</ele>
        <time>2021-04-18T07:54:56Z</time>
      </trkpt>
      <trkpt lat="43.50485" lon="6.41341">
        <ele>217.9</ele>
        <time>2021-04-18T07:55:01Z</time>
      </trkpt>
      <trkpt lat="43.50487" lon="6.41347">
        <ele>218.5</ele>
        <time>2021-04-18T07:55:07Z</time>
      </trkpt>
      <trkpt lat="43.50487" lon="6.41354">
        <ele>219.4</ele>
        <time>2021-04-18T07:55:14Z</time>
      </trkpt>
      <trkpt lat="43.50483" lon="6.41358">
        <ele>220.1</ele>
        <time>2021-04-18T07:55:21Z</time>
      </trkpt>
      <trkpt lat="43.50478" lon="6.41361">
        <ele>220.8</ele>
        <time>2021-04-18T07:55:26Z</time>
      </trkpt>
      <trkpt lat="43.50474" lon="6.41363">
        <ele>221.1</ele>
        <time>2021-04-18T07:55:29Z</time>
      </trkpt>
      <trkpt lat="43.50468" lon="6.41363">
        <ele>221.7</ele>
        <time>2021-04-18T07:55:36Z</time>
      </trkpt>
      <trkpt lat="43.50464" lon="6.41368">
        <ele>222.2</ele>
        <time>2021-04-18T07:55:42Z</time>
      </trkpt>
      <trkpt lat="43.50462" lon="6.41374">
        <ele>223</ele>
        <time>2021-04-18T07:55:48Z</time>
      </trkpt>
      <trkpt lat="43.5046" lon="6.4138">
        <ele>223.6</ele>
        <time>2021-04-18T07:55:52Z</time>
      </trkpt>
      <trkpt lat="43.50458" lon="6.41385">
        <ele>224.4</ele>
        <time>2021-04-18T07:55:59Z</time>
      </trkpt>
      <trkpt lat="43.50454" lon="6.41389">
        <ele>225</ele>
        <time>2021-04-18T07:56:04Z</time>
      </trkpt>
      <trkpt lat="43.50451" lon="6.41395">
        <ele>225.8</ele>
        <time>2021-04-18T07:56:10Z</time>
      </trkpt>
      <trkpt lat="43.50448" lon="6.414">
        <ele>226.3</ele>
        <time>2021-04-18T07:56:14Z</time>
      </trkpt>
      <trkpt lat="43.50445" lon="6.41405">
        <ele>226.7</ele>
        <time>2021-04-18T07:56:18Z</time>
      </trkpt>
      <trkpt lat="43.50441" lon="6.41409">
        <ele>227.1</ele>
        <time>2021-04-18T07:56:22Z</time>
      </trkpt>
      <trkpt lat="43.50438" lon="6.41415">
        <ele>227.8</ele>
        <time>2021-04-18T07:56:28Z</time>
      </trkpt>
      <trkpt lat="43.50435" lon="6.4142">
        <ele>228.6</ele>
        <time>2021-04-18T07:56:34Z</time>
      </trkpt>
      <trkpt lat="43.5043" lon="6.41424">
        <ele>229.2</ele>
        <time>2021-04-18T07:56:39Z</time>
      </trkpt>
      <trkpt lat="43.50427" lon="6.41429">
        <ele>229.8</ele>
        <time>2021-04-18T07:56:44Z</time>
      </trkpt>
      <trkpt lat="43.50425" lon="6.41434">
        <ele>230.3</ele>
        <time>2021-04-18T07:56:48Z</time>
      </trkpt>
      <trkpt lat="43.50421" lon="6.41439">
        <ele>230.8</ele>
        <time>2021-04-18T07:56:53Z</time>
      </trkpt>
      <trkpt lat="43.50418" lon="6.41443">
        <ele>231.3</ele>
        <time>2021-04-18T07:56:57Z</time>
      </trkpt>
      <trkpt lat="43.50414" lon="6.41449">
        <ele>231.9</ele>
        <time>2021-04-18T07:57:03Z</time>
      </trkpt>
      <trkpt lat="43.5041" lon="6.41454">
        <ele>232.3</ele>
        <time>2021-04-18T07:57:07Z</time>
      </trkpt>
      <trkpt lat="43.50408" lon="6.4146">
        <ele>232.8</ele>
        <time>2021-04-18T07:57:11Z</time>
      </trkpt>
      <trkpt lat="43.50408" lon="6.41466">
        <ele>233.3</ele>
        <time>2021-04-18T07:57:15Z</time>
      </trkpt>
      <trkpt lat="43.50406" lon="6.41472">
        <ele>234</ele>
        <time>2021-04-18T07:57:20Z</time>
      </trkpt>
      <trkpt lat="43.50404" lon="6.41479">
        <ele>234.6</ele>
        <time>2021-04-18T07:57:26Z</time>
      </trkpt>
      <trkpt lat="43.50404" lon="6.41486">
        <ele>235.3</ele>
        <time>2021-04-18T07:57:32Z</time>
      </trkpt>
      <trkpt lat="43.504" lon="6.4149">
        <ele>236</ele>
        <time>2021-04-18T07:57:37Z</time>
      </trkpt>
      <trkpt lat="43.50397" lon="6.41497">
        <ele>236.7</ele>
        <time>2021-04-18T07:57:44Z</time>
      </trkpt>
      <trkpt lat="43.50395" lon="6.41504">
        <ele>237.1</ele>
        <time>2021-04-18T07:57:49Z</time>
      </trkpt>
      <trkpt lat="43.50393" lon="6.4151">
        <ele>237.5</ele>
        <time>2021-04-18T07:57:54Z</time>
      </trkpt>
      <trkpt lat="43.5039" lon="6.41516">
        <ele>237.9</ele>
        <time>2021-04-18T07:57:59Z</time>
      </trkpt>
      <trkpt lat="43.50386" lon="6.41521">
        <ele>238.3</ele>
        <time>2021-04-18T07:58:04Z</time>
      </trkpt>
      <trkpt lat="43.50385" lon="6.4153">
        <ele>238.6</ele>
        <time>2021-04-18T07:58:08Z</time>
      </trkpt>
      <trkpt lat="43.50385" lon="6.41537">
        <ele>239</ele>
        <time>2021-04-18T07:58:12Z</time>
      </trkpt>
      <trkpt lat="43.50382" lon="6.41543">
        <ele>239.4</ele>
        <time>2021-04-18T07:58:16Z</time>
      </trkpt>
      <trkpt lat="43.50379" lon="6.41548">
        <ele>239.7</ele>
        <time>2021-04-18T07:58:19Z</time>
      </trkpt>
      <trkpt lat="43.50378" lon="6.41555">
        <ele>240</ele>
        <time>2021-04-18T07:58:23Z</time>
      </trkpt>
      <trkpt lat="43.50377" lon="6.41563">
        <ele>240.3</ele>
        <time>2021-04-18T07:58:28Z</time>
      </trkpt>
      <trkpt lat="43.50375" lon="6.41568">
        <ele>240.6</ele>
        <time>2021-04-18T07:58:33Z</time>
      </trkpt>
      <trkpt lat="43.50373" lon="6.41575">
        <ele>240.9</ele>
        <time>2021-04-18T07:58:38Z</time>
      </trkpt>
      <trkpt lat="43.50373" lon="6.41581">
        <ele>241.2</ele>
        <time>2021-04-18T07:58:42Z</time>
      </trkpt>
      <trkpt lat="43.50373" lon="6.41589">
        <ele>241.4</ele>
        <time>2021-04-18T07:58:46Z</time>
      </trkpt>
      <trkpt lat="43.50371" lon="6.41595">
        <ele>241.7</ele>
        <time>2021-04-18T07:58:51Z</time>
      </trkpt>
      <trkpt lat="43.5037" lon="6.41602">
        <ele>241.8</ele>
        <time>2021-04-18T07:58:55Z</time>
      </trkpt>
      <trkpt lat="43.50371" lon="6.41608">
        <ele>242.1</ele>
        <time>2021-04-18T07:58:59Z</time>
      </trkpt>
      <trkpt lat="43.50369" lon="6.41615">
        <ele>242.4</ele>
        <time>2021-04-18T07:59:03Z</time>
      </trkpt>
      <trkpt lat="43.50368" lon="6.41622">
        <ele>242.8</ele>
        <time>2021-04-18T07:59:08Z</time>
      </trkpt>
      <trkpt lat="43.50368" lon="6.41629">
        <ele>243.1</ele>
        <time>2021-04-18T07:59:12Z</time>
      </trkpt>
      <trkpt lat="43.50366" lon="6.41636">
        <ele>243.5</ele>
        <time>2021-04-18T07:59:17Z</time>
      </trkpt>
      <trkpt lat="43.50366" lon="6.41642">
        <ele>243.9</ele>
        <time>2021-04-18T07:59:21Z</time>
      </trkpt>
      <trkpt lat="43.50365" lon="6.41649">
        <ele>244.2</ele>
        <time>2021-04-18T07:59:26Z</time>
      </trkpt>
      <trkpt lat="43.50364" lon="6.41655">
        <ele>244.7</ele>
        <time>2021-04-18T07:59:32Z</time>
      </trkpt>
      <trkpt lat="43.50363" lon="6.41662">
        <ele>245.2</ele>
        <time>2021-04-18T07:59:37Z</time>
      </trkpt>
      <trkpt lat="43.50362" lon="6.41669">
        <ele>245.9</ele>
        <time>2021-04-18T07:59:44Z</time>
      </trkpt>
      <trkpt lat="43.50364" lon="6.41676">
        <ele>246.6</ele>
        <time>2021-04-18T07:59:49Z</time>
      </trkpt>
      <trkpt lat="43.50366" lon="6.41682">
        <ele>247.1</ele>
        <time>2021-04-18T07:59:55Z</time>
      </trkpt>
      <trkpt lat="43.50369" lon="6.41688">
        <ele>248</ele>
        <time>2021-04-18T08:00:01Z</time>
      </trkpt>
      <trkpt lat="43.50373" lon="6.41691">
        <ele>248.6</ele>
        <time>2021-04-18T08:00:05Z</time>
      </trkpt>
      <trkpt lat="43.50377" lon="6.41696">
        <ele>249.1</ele>
        <time>2021-04-18T08:00:09Z</time>
      </trkpt>
      <trkpt lat="43.50381" lon="6.41701">
        <ele>249.6</ele>
        <time>2021-04-18T08:00:14Z</time>
      </trkpt>
      <trkpt lat="43.50385" lon="6.41704">
        <ele>250.2</ele>
        <time>2021-04-18T08:00:19Z</time>
      </trkpt>
      <trkpt lat="43.50389" lon="6.41708">
        <ele>250.8</ele>
        <time>2021-04-18T08:00:24Z</time>
      </trkpt>
      <trkpt lat="43.50393" lon="6.41711">
        <ele>251.3</ele>
        <time>2021-04-18T08:00:28Z</time>
      </trkpt>
      <trkpt lat="43.50397" lon="6.41714">
        <ele>251.9</ele>
        <time>2021-04-18T08:00:32Z</time>
      </trkpt>
      <trkpt lat="43.50401" lon="6.41717">
        <ele>252.6</ele>
        <time>2021-04-18T08:00:36Z</time>
      </trkpt>
      <trkpt lat="43.50405" lon="6.4172">
        <ele>253.3</ele>
        <time>2021-04-18T08:00:41Z</time>
      </trkpt>
      <trkpt lat="43.5041" lon="6.41724">
        <ele>254</ele>
        <time>2021-04-18T08:00:46Z</time>
      </trkpt>
      <trkpt lat="43.50415" lon="6.41728">
        <ele>254.6</ele>
        <time>2021-04-18T08:00:51Z</time>
      </trkpt>
      <trkpt lat="43.50419" lon="6.41732">
        <ele>255.1</ele>
        <time>2021-04-18T08:00:56Z</time>
      </trkpt>
      <trkpt lat="43.50423" lon="6.41736">
        <ele>255.6</ele>
        <time>2021-04-18T08:01:00Z</time>
      </trkpt>
      <trkpt lat="43.50428" lon="6.4174">
        <ele>256.5</ele>
        <time>2021-04-18T08:01:08Z</time>
      </trkpt>
      <trkpt lat="43.50432" lon="6.41743">
        <ele>256.9</ele>
        <time>2021-04-18T08:01:13Z</time>
      </trkpt>
      <trkpt lat="43.50436" lon="6.41746">
        <ele>257.1</ele>
        <time>2021-04-18T08:01:17Z</time>
      </trkpt>
      <trkpt lat="43.50441" lon="6.4175">
        <ele>257.4</ele>
        <time>2021-04-18T08:01:22Z</time>
      </trkpt>
      <trkpt lat="43.50445" lon="6.41753">
        <ele>257.6</ele>
        <time>2021-04-18T08:01:26Z</time>
      </trkpt>
      <trkpt lat="43.5045" lon="6.41757">
        <ele>258</ele>
        <time>2021-04-18T08:01:31Z</time>
      </trkpt>
      <trkpt lat="43.50453" lon="6.41762">
        <ele>258.3</ele>
        <time>2021-04-18T08:01:35Z</time>
      </trkpt>
      <trkpt lat="43.50459" lon="6.41764">
        <ele>258.6</ele>
        <time>2021-04-18T08:01:39Z</time>
      </trkpt>
      <trkpt lat="43.50463" lon="6.41766">
        <ele>258.8</ele>
        <time>2021-04-18T08:01:43Z</time>
      </trkpt>
      <trkpt lat="43.50469" lon="6.4177">
        <ele>259.2</ele>
        <time>2021-04-18T08:01:48Z</time>
      </trkpt>
      <trkpt lat="43.50473" lon="6.41773">
        <ele>259.4</ele>
        <time>2021-04-18T08:01:51Z</time>
      </trkpt>
      <trkpt lat="43.50477" lon="6.41777">
        <ele>259.5</ele>
        <time>2021-04-18T08:01:55Z</time>
      </trkpt>
      <trkpt lat="43.50482" lon="6.4178">
        <ele>259.6</ele>
        <time>2021-04-18T08:01:59Z</time>
      </trkpt>
      <trkpt lat="43.50486" lon="6.41783">
        <ele>259.5</ele>
        <time>2021-04-18T08:02:03Z</time>
      </trkpt>
      <trkpt lat="43.5049" lon="6.41787">
        <ele>259.2</ele>
        <time>2021-04-18T08:02:08Z</time>
      </trkpt>
      <trkpt lat="43.50495" lon="6.41791">
        <ele>258.9</ele>
        <time>2021-04-18T08:02:12Z</time>
      </trkpt>
      <trkpt lat="43.50498" lon="6.41794">
        <ele>258.3</ele>
        <time>2021-04-18T08:02:16Z</time>
      </trkpt>
      <trkpt lat="43.50502" lon="6.41799">
        <ele>257.7</ele>
        <time>2021-04-18T08:02:21Z</time>
      </trkpt>
      <trkpt lat="43.50506" lon="6.41804">
        <ele>257.3</ele>
        <time>2021-04-18T08:02:25Z</time>
      </trkpt>
      <trkpt lat="43.5051" lon="6.41806">
        <ele>256.9</ele>
        <time>2021-04-18T08:02:28Z</time>
      </trkpt>
      <trkpt lat="43.50514" lon="6.41811">
        <ele>256.4</ele>
        <time>2021-04-18T08:02:33Z</time>
      </trkpt>
      <trkpt lat="43.50516" lon="6.41817">
        <ele>255.9</ele>
        <time>2021-04-18T08:02:37Z</time>
      </trkpt>
      <trkpt lat="43.5052" lon="6.41822">
        <ele>255.3</ele>
        <time>2021-04-18T08:02:42Z</time>
      </trkpt>
      <trkpt lat="43.50524" lon="6.41827">
        <ele>254.8</ele>
        <time>2021-04-18T08:02:46Z</time>
      </trkpt>
      <trkpt lat="43.50528" lon="6.41832">
        <ele>254.5</ele>
        <time>2021-04-18T08:02:50Z</time>
      </trkpt>
      <trkpt lat="43.5053" lon="6.41838">
        <ele>254.2</ele>
        <time>2021-04-18T08:02:54Z</time>
      </trkpt>
      <trkpt lat="43.50533" lon="6.41844">
        <ele>253.9</ele>
        <time>2021-04-18T08:02:58Z</time>
      </trkpt>
      <trkpt lat="43.50535" lon="6.41851">
        <ele>253.7</ele>
        <time>2021-04-18T08:03:02Z</time>
      </trkpt>
      <trkpt lat="43.50537" lon="6.41857">
        <ele>253.6</ele>
        <time>2021-04-18T08:03:06Z</time>
      </trkpt>
      <trkpt lat="43.5054" lon="6.41864">
        <ele>253.4</ele>
        <time>2021-04-18T08:03:10Z</time>
      </trkpt>
      <trkpt lat="43.50542" lon="6.41871">
        <ele>253.2</ele>
        <time>2021-04-18T08:03:14Z</time>
      </trkpt>
      <trkpt lat="43.50544" lon="6.41877">
        <ele>253.1</ele>
        <time>2021-04-18T08:03:17Z</time>
      </trkpt>
      <trkpt lat="43.50545" lon="6.41884">
        <ele>253</ele>
        <time>2021-04-18T08:03:20Z</time>
      </trkpt>
      <trkpt lat="43.50546" lon="6.4189">
        <ele>253</ele>
        <time>2021-04-18T08:03:24Z</time>
      </trkpt>
      <trkpt lat="43.50547" lon="6.41896">
        <ele>253</ele>
        <time>2021-04-18T08:03:28Z</time>
      </trkpt>
      <trkpt lat="43.50548" lon="6.41903">
        <ele>252.9</ele>
        <time>2021-04-18T08:03:33Z</time>
      </trkpt>
      <trkpt lat="43.50549" lon="6.4191">
        <ele>253</ele>
        <time>2021-04-18T08:03:38Z</time>
      </trkpt>
      <trkpt lat="43.50553" lon="6.41914">
        <ele>253.1</ele>
        <time>2021-04-18T08:03:49Z</time>
      </trkpt>
      <trkpt lat="43.50557" lon="6.41916">
        <ele>253.2</ele>
        <time>2021-04-18T08:03:56Z</time>
      </trkpt>
      <trkpt lat="43.50562" lon="6.41916">
        <ele>253.4</ele>
        <time>2021-04-18T08:04:02Z</time>
      </trkpt>
      <trkpt lat="43.50567" lon="6.41914">
        <ele>253.7</ele>
        <time>2021-04-18T08:04:08Z</time>
      </trkpt>
      <trkpt lat="43.50571" lon="6.4191">
        <ele>254.3</ele>
        <time>2021-04-18T08:04:14Z</time>
      </trkpt>
      <trkpt lat="43.50575" lon="6.41905">
        <ele>255</ele>
        <time>2021-04-18T08:04:21Z</time>
      </trkpt>
      <trkpt lat="43.50578" lon="6.419">
        <ele>255.3</ele>
        <time>2021-04-18T08:04:25Z</time>
      </trkpt>
      <trkpt lat="43.50582" lon="6.41896">
        <ele>255.6</ele>
        <time>2021-04-18T08:04:29Z</time>
      </trkpt>
      <trkpt lat="43.50586" lon="6.41892">
        <ele>255.9</ele>
        <time>2021-04-18T08:04:34Z</time>
      </trkpt>
      <trkpt lat="43.5059" lon="6.41888">
        <ele>256.2</ele>
        <time>2021-04-18T08:04:40Z</time>
      </trkpt>
      <trkpt lat="43.50594" lon="6.41884">
        <ele>256.6</ele>
        <time>2021-04-18T08:04:45Z</time>
      </trkpt>
      <trkpt lat="43.50598" lon="6.41878">
        <ele>256.9</ele>
        <time>2021-04-18T08:04:50Z</time>
      </trkpt>
      <trkpt lat="43.50602" lon="6.41874">
        <ele>257.2</ele>
        <time>2021-04-18T08:04:55Z</time>
      </trkpt>
      <trkpt lat="43.50607" lon="6.41872">
        <ele>257.5</ele>
        <time>2021-04-18T08:05:01Z</time>
      </trkpt>
      <trkpt lat="43.50612" lon="6.4187">
        <ele>257.9</ele>
        <time>2021-04-18T08:05:06Z</time>
      </trkpt>
      <trkpt lat="43.50616" lon="6.41866">
        <ele>258.2</ele>
        <time>2021-04-18T08:05:12Z</time>
      </trkpt>
      <trkpt lat="43.5062" lon="6.41861">
        <ele>258.5</ele>
        <time>2021-04-18T08:05:17Z</time>
      </trkpt>
      <trkpt lat="43.50623" lon="6.41856">
        <ele>259</ele>
        <time>2021-04-18T08:05:24Z</time>
      </trkpt>
      <trkpt lat="43.50628" lon="6.41853">
        <ele>259.6</ele>
        <time>2021-04-18T08:05:31Z</time>
      </trkpt>
      <trkpt lat="43.50632" lon="6.4185">
        <ele>260.2</ele>
        <time>2021-04-18T08:05:35Z</time>
      </trkpt>
      <trkpt lat="43.50636" lon="6.41846">
        <ele>261.1</ele>
        <time>2021-04-18T08:05:42Z</time>
      </trkpt>
      <trkpt lat="43.5064" lon="6.41841">
        <ele>262</ele>
        <time>2021-04-18T08:05:48Z</time>
      </trkpt>
      <trkpt lat="43.50644" lon="6.41836">
        <ele>262.5</ele>
        <time>2021-04-18T08:05:54Z</time>
      </trkpt>
      <trkpt lat="43.50649" lon="6.41834">
        <ele>262.9</ele>
        <time>2021-04-18T08:05:59Z</time>
      </trkpt>
      <trkpt lat="43.50653" lon="6.41832">
        <ele>263.4</ele>
        <time>2021-04-18T08:06:08Z</time>
      </trkpt>
      <trkpt lat="43.50655" lon="6.41825">
        <ele>263.5</ele>
        <time>2021-04-18T08:06:14Z</time>
      </trkpt>
      <trkpt lat="43.5066" lon="6.41822">
        <ele>263.6</ele>
        <time>2021-04-18T08:06:19Z</time>
      </trkpt>
      <trkpt lat="43.50665" lon="6.4182">
        <ele>263.5</ele>
        <time>2021-04-18T08:06:24Z</time>
      </trkpt>
      <trkpt lat="43.5067" lon="6.41817">
        <ele>263.4</ele>
        <time>2021-04-18T08:06:29Z</time>
      </trkpt>
      <trkpt lat="43.50674" lon="6.41813">
        <ele>263.4</ele>
        <time>2021-04-18T08:06:33Z</time>
      </trkpt>
      <trkpt lat="43.50678" lon="6.41808">
        <ele>263.5</ele>
        <time>2021-04-18T08:06:37Z</time>
      </trkpt>
      <trkpt lat="43.50683" lon="6.41806">
        <ele>263.6</ele>
        <time>2021-04-18T08:06:41Z</time>
      </trkpt>
      <trkpt lat="43.50688" lon="6.41805">
        <ele>263.8</ele>
        <time>2021-04-18T08:06:45Z</time>
      </trkpt>
      <trkpt lat="43.50692" lon="6.41801">
        <ele>264.1</ele>
        <time>2021-04-18T08:06:49Z</time>
      </trkpt>
      <trkpt lat="43.50695" lon="6.41796">
        <ele>264.2</ele>
        <time>2021-04-18T08:06:52Z</time>
      </trkpt>
      <trkpt lat="43.50699" lon="6.4179">
        <ele>264.6</ele>
        <time>2021-04-18T08:06:57Z</time>
      </trkpt>
      <trkpt lat="43.50701" lon="6.41784">
        <ele>265.2</ele>
        <time>2021-04-18T08:07:05Z</time>
      </trkpt>
      <trkpt lat="43.50705" lon="6.41778">
        <ele>265.8</ele>
        <time>2021-04-18T08:07:10Z</time>
      </trkpt>
      <trkpt lat="43.50708" lon="6.41773">
        <ele>266.2</ele>
        <time>2021-04-18T08:07:15Z</time>
      </trkpt>
      <trkpt lat="43.50712" lon="6.41768">
        <ele>266.5</ele>
        <time>2021-04-18T08:07:19Z</time>
      </trkpt>
      <trkpt lat="43.50715" lon="6.41763">
        <ele>266.8</ele>
        <time>2021-04-18T08:07:24Z</time>
      </trkpt>
      <trkpt lat="43.50718" lon="6.41758">
        <ele>267.2</ele>
        <time>2021-04-18T08:07:30Z</time>
      </trkpt>
      <trkpt lat="43.50722" lon="6.41753">
        <ele>267.6</ele>
        <time>2021-04-18T08:07:34Z</time>
      </trkpt>
      <trkpt lat="43.50726" lon="6.41749">
        <ele>267.9</ele>
        <time>2021-04-18T08:07:38Z</time>
      </trkpt>
      <trkpt lat="43.50729" lon="6.41745">
        <ele>268.2</ele>
        <time>2021-04-18T08:07:42Z</time>
      </trkpt>
      <trkpt lat="43.50733" lon="6.41741">
        <ele>268.3</ele>
        <time>2021-04-18T08:07:45Z</time>
      </trkpt>
      <trkpt lat="43.50735" lon="6.41735">
        <ele>268.5</ele>
        <time>2021-04-18T08:07:49Z</time>
      </trkpt>
      <trkpt lat="43.50739" lon="6.4173">
        <ele>268.6</ele>
        <time>2021-04-18T08:07:53Z</time>
      </trkpt>
      <trkpt lat="43.50741" lon="6.41724">
        <ele>268.9</ele>
        <time>2021-04-18T08:07:58Z</time>
      </trkpt>
      <trkpt lat="43.50743" lon="6.41718">
        <ele>269.1</ele>
        <time>2021-04-18T08:08:04Z</time>
      </trkpt>
      <trkpt lat="43.50746" lon="6.41712">
        <ele>268.8</ele>
        <time>2021-04-18T08:08:10Z</time>
      </trkpt>
      <trkpt lat="43.50746" lon="6.41705">
        <ele>268.7</ele>
        <time>2021-04-18T08:08:12Z</time>
      </trkpt>
      <trkpt lat="43.50746" lon="6.41698">
        <ele>268.8</ele>
        <time>2021-04-18T08:08:16Z</time>
      </trkpt>
      <trkpt lat="43.50747" lon="6.41691">
        <ele>268.8</ele>
        <time>2021-04-18T08:08:20Z</time>
      </trkpt>
      <trkpt lat="43.50748" lon="6.41684">
        <ele>268.9</ele>
        <time>2021-04-18T08:08:24Z</time>
      </trkpt>
      <trkpt lat="43.5075" lon="6.41676">
        <ele>268.8</ele>
        <time>2021-04-18T08:08:28Z</time>
      </trkpt>
      <trkpt lat="43.50752" lon="6.41669">
        <ele>268.7</ele>
        <time>2021-04-18T08:08:33Z</time>
      </trkpt>
      <trkpt lat="43.50753" lon="6.41662">
        <ele>268.5</ele>
        <time>2021-04-18T08:08:39Z</time>
      </trkpt>
      <trkpt lat="43.50754" lon="6.41655">
        <ele>268.4</ele>
        <time>2021-04-18T08:08:42Z</time>
      </trkpt>
      <trkpt lat="43.50756" lon="6.4165">
        <ele>268.4</ele>
        <time>2021-04-18T08:08:45Z</time>
      </trkpt>
      <trkpt lat="43.50758" lon="6.41643">
        <ele>268.4</ele>
        <time>2021-04-18T08:08:49Z</time>
      </trkpt>
      <trkpt lat="43.50761" lon="6.41635">
        <ele>268.4</ele>
        <time>2021-04-18T08:08:54Z</time>
      </trkpt>
      <trkpt lat="43.50762" lon="6.41628">
        <ele>268.3</ele>
        <time>2021-04-18T08:08:59Z</time>
      </trkpt>
      <trkpt lat="43.50764" lon="6.41621">
        <ele>268.4</ele>
        <time>2021-04-18T08:09:04Z</time>
      </trkpt>
      <trkpt lat="43.50767" lon="6.41614">
        <ele>268.4</ele>
        <time>2021-04-18T08:09:09Z</time>
      </trkpt>
      <trkpt lat="43.50769" lon="6.41609">
        <ele>268.4</ele>
        <time>2021-04-18T08:09:12Z</time>
      </trkpt>
      <trkpt lat="43.50771" lon="6.41602">
        <ele>268.4</ele>
        <time>2021-04-18T08:09:17Z</time>
      </trkpt>
      <trkpt lat="43.50775" lon="6.41597">
        <ele>268.4</ele>
        <time>2021-04-18T08:09:20Z</time>
      </trkpt>
      <trkpt lat="43.50777" lon="6.41591">
        <ele>268.3</ele>
        <time>2021-04-18T08:09:23Z</time>
      </trkpt>
      <trkpt lat="43.5078" lon="6.41586">
        <ele>268.2</ele>
        <time>2021-04-18T08:09:27Z</time>
      </trkpt>
      <trkpt lat="43.50784" lon="6.41581">
        <ele>268.2</ele>
        <time>2021-04-18T08:09:31Z</time>
      </trkpt>
      <trkpt lat="43.50786" lon="6.41576">
        <ele>268.1</ele>
        <time>2021-04-18T08:09:35Z</time>
      </trkpt>
      <trkpt lat="43.5079" lon="6.41571">
        <ele>268.1</ele>
        <time>2021-04-18T08:09:38Z</time>
      </trkpt>
      <trkpt lat="43.50793" lon="6.41566">
        <ele>268.1</ele>
        <time>2021-04-18T08:09:42Z</time>
      </trkpt>
      <trkpt lat="43.50797" lon="6.41561">
        <ele>268.1</ele>
        <time>2021-04-18T08:09:45Z</time>
      </trkpt>
      <trkpt lat="43.508" lon="6.41556">
        <ele>268.1</ele>
        <time>2021-04-18T08:09:48Z</time>
      </trkpt>
      <trkpt lat="43.50804" lon="6.4155">
        <ele>268.2</ele>
        <time>2021-04-18T08:09:56Z</time>
      </trkpt>
      <trkpt lat="43.50806" lon="6.41544">
        <ele>268.2</ele>
        <time>2021-04-18T08:09:59Z</time>
      </trkpt>
      <trkpt lat="43.50806" lon="6.41537">
        <ele>268.3</ele>
        <time>2021-04-18T08:10:04Z</time>
      </trkpt>
      <trkpt lat="43.50808" lon="6.41529">
        <ele>268.5</ele>
        <time>2021-04-18T08:10:08Z</time>
      </trkpt>
      <trkpt lat="43.50809" lon="6.41522">
        <ele>268.7</ele>
        <time>2021-04-18T08:10:11Z</time>
      </trkpt>
      <trkpt lat="43.5081" lon="6.41516">
        <ele>268.9</ele>
        <time>2021-04-18T08:10:19Z</time>
      </trkpt>
      <trkpt lat="43.50814" lon="6.41512">
        <ele>269</ele>
        <time>2021-04-18T08:10:24Z</time>
      </trkpt>
      <trkpt lat="43.50817" lon="6.41505">
        <ele>269</ele>
        <time>2021-04-18T08:10:29Z</time>
      </trkpt>
      <trkpt lat="43.50819" lon="6.41499">
        <ele>269.1</ele>
        <time>2021-04-18T08:10:33Z</time>
      </trkpt>
      <trkpt lat="43.50821" lon="6.41493">
        <ele>269.1</ele>
        <time>2021-04-18T08:10:36Z</time>
      </trkpt>
      <trkpt lat="43.50823" lon="6.41485">
        <ele>269.1</ele>
        <time>2021-04-18T08:10:39Z</time>
      </trkpt>
      <trkpt lat="43.50825" lon="6.41479">
        <ele>269.1</ele>
        <time>2021-04-18T08:10:43Z</time>
      </trkpt>
      <trkpt lat="43.50828" lon="6.41474">
        <ele>269.2</ele>
        <time>2021-04-18T08:10:47Z</time>
      </trkpt>
      <trkpt lat="43.50832" lon="6.4147">
        <ele>269.2</ele>
        <time>2021-04-18T08:10:51Z</time>
      </trkpt>
      <trkpt lat="43.50835" lon="6.41466">
        <ele>269.2</ele>
        <time>2021-04-18T08:10:55Z</time>
      </trkpt>
      <trkpt lat="43.5084" lon="6.41461">
        <ele>269.3</ele>
        <time>2021-04-18T08:11:01Z</time>
      </trkpt>
      <trkpt lat="43.50844" lon="6.41455">
        <ele>269.6</ele>
        <time>2021-04-18T08:11:08Z</time>
      </trkpt>
      <trkpt lat="43.50846" lon="6.41448">
        <ele>269.9</ele>
        <time>2021-04-18T08:11:14Z</time>
      </trkpt>
      <trkpt lat="43.50849" lon="6.41442">
        <ele>270</ele>
        <time>2021-04-18T08:11:18Z</time>
      </trkpt>
      <trkpt lat="43.50853" lon="6.41436">
        <ele>270.1</ele>
        <time>2021-04-18T08:11:22Z</time>
      </trkpt>
      <trkpt lat="43.50857" lon="6.41432">
        <ele>270.3</ele>
        <time>2021-04-18T08:11:29Z</time>
      </trkpt>
      <trkpt lat="43.50859" lon="6.41426">
        <ele>270.7</ele>
        <time>2021-04-18T08:11:35Z</time>
      </trkpt>
      <trkpt lat="43.50863" lon="6.41422">
        <ele>271</ele>
        <time>2021-04-18T08:11:39Z</time>
      </trkpt>
      <trkpt lat="43.50865" lon="6.41416">
        <ele>271.4</ele>
        <time>2021-04-18T08:11:44Z</time>
      </trkpt>
      <trkpt lat="43.50868" lon="6.4141">
        <ele>271.7</ele>
        <time>2021-04-18T08:11:49Z</time>
      </trkpt>
      <trkpt lat="43.5087" lon="6.41404">
        <ele>272.1</ele>
        <time>2021-04-18T08:11:55Z</time>
      </trkpt>
      <trkpt lat="43.50872" lon="6.41398">
        <ele>272.4</ele>
        <time>2021-04-18T08:12:00Z</time>
      </trkpt>
      <trkpt lat="43.50875" lon="6.41393">
        <ele>272.9</ele>
        <time>2021-04-18T08:12:05Z</time>
      </trkpt>
      <trkpt lat="43.50879" lon="6.41388">
        <ele>273.5</ele>
        <time>2021-04-18T08:12:12Z</time>
      </trkpt>
      <trkpt lat="43.50882" lon="6.41383">
        <ele>273.7</ele>
        <time>2021-04-18T08:12:15Z</time>
      </trkpt>
      <trkpt lat="43.50886" lon="6.41377">
        <ele>274.2</ele>
        <time>2021-04-18T08:12:19Z</time>
      </trkpt>
      <trkpt lat="43.50889" lon="6.41371">
        <ele>274.7</ele>
        <time>2021-04-18T08:12:24Z</time>
      </trkpt>
      <trkpt lat="43.50892" lon="6.41366">
        <ele>275.1</ele>
        <time>2021-04-18T08:12:28Z</time>
      </trkpt>
      <trkpt lat="43.50895" lon="6.4136">
        <ele>275.4</ele>
        <time>2021-04-18T08:12:31Z</time>
      </trkpt>
      <trkpt lat="43.50899" lon="6.41355">
        <ele>275.8</ele>
        <time>2021-04-18T08:12:35Z</time>
      </trkpt>
      <trkpt lat="43.50904" lon="6.41349">
        <ele>276.2</ele>
        <time>2021-04-18T08:12:40Z</time>
      </trkpt>
      <trkpt lat="43.50907" lon="6.41344">
        <ele>276.4</ele>
        <time>2021-04-18T08:12:43Z</time>
      </trkpt>
      <trkpt lat="43.50911" lon="6.41338">
        <ele>276.8</ele>
        <time>2021-04-18T08:12:47Z</time>
      </trkpt>
      <trkpt lat="43.50914" lon="6.41333">
        <ele>277.4</ele>
        <time>2021-04-18T08:12:53Z</time>
      </trkpt>
      <trkpt lat="43.50919" lon="6.41329">
        <ele>278.1</ele>
        <time>2021-04-18T08:13:00Z</time>
      </trkpt>
      <trkpt lat="43.50923" lon="6.41323">
        <ele>278.4</ele>
        <time>2021-04-18T08:13:04Z</time>
      </trkpt>
      <trkpt lat="43.50925" lon="6.41317">
        <ele>278.7</ele>
        <time>2021-04-18T08:13:08Z</time>
      </trkpt>
      <trkpt lat="43.50929" lon="6.41313">
        <ele>279</ele>
        <time>2021-04-18T08:13:14Z</time>
      </trkpt>
      <trkpt lat="43.50933" lon="6.41309">
        <ele>279.4</ele>
        <time>2021-04-18T08:13:19Z</time>
      </trkpt>
      <trkpt lat="43.50936" lon="6.41305">
        <ele>279.9</ele>
        <time>2021-04-18T08:13:26Z</time>
      </trkpt>
      <trkpt lat="43.50941" lon="6.41303">
        <ele>280.2</ele>
        <time>2021-04-18T08:13:30Z</time>
      </trkpt>
      <trkpt lat="43.50942" lon="6.41296">
        <ele>280.6</ele>
        <time>2021-04-18T08:13:33Z</time>
      </trkpt>
      <trkpt lat="43.50945" lon="6.41292">
        <ele>280.9</ele>
        <time>2021-04-18T08:13:37Z</time>
      </trkpt>
      <trkpt lat="43.50949" lon="6.41287">
        <ele>281.3</ele>
        <time>2021-04-18T08:13:42Z</time>
      </trkpt>
      <trkpt lat="43.50953" lon="6.41282">
        <ele>281.4</ele>
        <time>2021-04-18T08:13:46Z</time>
      </trkpt>
      <trkpt lat="43.50956" lon="6.41277">
        <ele>281.6</ele>
        <time>2021-04-18T08:13:50Z</time>
      </trkpt>
      <trkpt lat="43.5096" lon="6.41273">
        <ele>281.7</ele>
        <time>2021-04-18T08:13:54Z</time>
      </trkpt>
      <trkpt lat="43.50964" lon="6.41268">
        <ele>281.7</ele>
        <time>2021-04-18T08:13:59Z</time>
      </trkpt>
      <trkpt lat="43.50969" lon="6.41264">
        <ele>281.7</ele>
        <time>2021-04-18T08:14:03Z</time>
      </trkpt>
      <trkpt lat="43.50973" lon="6.41261">
        <ele>281.7</ele>
        <time>2021-04-18T08:14:06Z</time>
      </trkpt>
      <trkpt lat="43.50978" lon="6.4126">
        <ele>281.7</ele>
        <time>2021-04-18T08:14:10Z</time>
      </trkpt>
      <trkpt lat="43.50983" lon="6.41257">
        <ele>281.6</ele>
        <time>2021-04-18T08:14:13Z</time>
      </trkpt>
      <trkpt lat="43.50987" lon="6.41254">
        <ele>281.5</ele>
        <time>2021-04-18T08:14:17Z</time>
      </trkpt>
      <trkpt lat="43.50992" lon="6.41251">
        <ele>281.4</ele>
        <time>2021-04-18T08:14:20Z</time>
      </trkpt>
      <trkpt lat="43.50997" lon="6.41249">
        <ele>281.1</ele>
        <time>2021-04-18T08:14:24Z</time>
      </trkpt>
      <trkpt lat="43.51002" lon="6.41246">
        <ele>281</ele>
        <time>2021-04-18T08:14:28Z</time>
      </trkpt>
      <trkpt lat="43.51007" lon="6.41242">
        <ele>280.9</ele>
        <time>2021-04-18T08:14:31Z</time>
      </trkpt>
      <trkpt lat="43.51012" lon="6.41238">
        <ele>280.8</ele>
        <time>2021-04-18T08:14:34Z</time>
      </trkpt>
      <trkpt lat="43.51017" lon="6.41233">
        <ele>280.5</ele>
        <time>2021-04-18T08:14:37Z</time>
      </trkpt>
      <trkpt lat="43.5102" lon="6.41227">
        <ele>280.3</ele>
        <time>2021-04-18T08:14:42Z</time>
      </trkpt>
      <trkpt lat="43.51024" lon="6.41222">
        <ele>280.1</ele>
        <time>2021-04-18T08:14:45Z</time>
      </trkpt>
      <trkpt lat="43.51026" lon="6.41216">
        <ele>280</ele>
        <time>2021-04-18T08:14:50Z</time>
      </trkpt>
      <trkpt lat="43.51032" lon="6.41213">
        <ele>279.9</ele>
        <time>2021-04-18T08:14:53Z</time>
      </trkpt>
      <trkpt lat="43.51037" lon="6.41211">
        <ele>279.7</ele>
        <time>2021-04-18T08:14:59Z</time>
      </trkpt>
      <trkpt lat="43.51042" lon="6.41208">
        <ele>279.5</ele>
        <time>2021-04-18T08:15:03Z</time>
      </trkpt>
      <trkpt lat="43.51046" lon="6.41206">
        <ele>279.3</ele>
        <time>2021-04-18T08:15:07Z</time>
      </trkpt>
      <trkpt lat="43.51046" lon="6.41199">
        <ele>278.6</ele>
        <time>2021-04-18T08:15:22Z</time>
      </trkpt>
      <trkpt lat="43.51051" lon="6.41197">
        <ele>278.3</ele>
        <time>2021-04-18T08:15:27Z</time>
      </trkpt>
      <trkpt lat="43.51055" lon="6.41196">
        <ele>278</ele>
        <time>2021-04-18T08:15:31Z</time>
      </trkpt>
      <trkpt lat="43.5106" lon="6.41194">
        <ele>277.5</ele>
        <time>2021-04-18T08:15:35Z</time>
      </trkpt>
      <trkpt lat="43.51065" lon="6.41193">
        <ele>277.2</ele>
        <time>2021-04-18T08:15:39Z</time>
      </trkpt>
      <trkpt lat="43.5107" lon="6.41194">
        <ele>276.8</ele>
        <time>2021-04-18T08:15:44Z</time>
      </trkpt>
      <trkpt lat="43.51075" lon="6.41192">
        <ele>276.6</ele>
        <time>2021-04-18T08:15:48Z</time>
      </trkpt>
      <trkpt lat="43.5108" lon="6.41188">
        <ele>276.3</ele>
        <time>2021-04-18T08:15:52Z</time>
      </trkpt>
      <trkpt lat="43.51084" lon="6.41184">
        <ele>275.9</ele>
        <time>2021-04-18T08:15:56Z</time>
      </trkpt>
      <trkpt lat="43.51088" lon="6.4118">
        <ele>275.7</ele>
        <time>2021-04-18T08:15:59Z</time>
      </trkpt>
      <trkpt lat="43.51091" lon="6.41175">
        <ele>275.4</ele>
        <time>2021-04-18T08:16:03Z</time>
      </trkpt>
      <trkpt lat="43.51095" lon="6.41169">
        <ele>275</ele>
        <time>2021-04-18T08:16:09Z</time>
      </trkpt>
      <trkpt lat="43.51098" lon="6.41165">
        <ele>274.7</ele>
        <time>2021-04-18T08:16:15Z</time>
      </trkpt>
      <trkpt lat="43.51103" lon="6.41161">
        <ele>274.3</ele>
        <time>2021-04-18T08:16:19Z</time>
      </trkpt>
      <trkpt lat="43.51107" lon="6.41157">
        <ele>274.1</ele>
        <time>2021-04-18T08:16:22Z</time>
      </trkpt>
      <trkpt lat="43.51111" lon="6.41152">
        <ele>273.8</ele>
        <time>2021-04-18T08:16:27Z</time>
      </trkpt>
      <trkpt lat="43.51115" lon="6.41147">
        <ele>273.3</ele>
        <time>2021-04-18T08:16:32Z</time>
      </trkpt>
      <trkpt lat="43.5112" lon="6.41143">
        <ele>273</ele>
        <time>2021-04-18T08:16:37Z</time>
      </trkpt>
      <trkpt lat="43.51124" lon="6.41139">
        <ele>272.8</ele>
        <time>2021-04-18T08:16:41Z</time>
      </trkpt>
      <trkpt lat="43.51127" lon="6.41134">
        <ele>272.6</ele>
        <time>2021-04-18T08:16:45Z</time>
      </trkpt>
      <trkpt lat="43.5113" lon="6.41129">
        <ele>272.4</ele>
        <time>2021-04-18T08:16:49Z</time>
      </trkpt>
      <trkpt lat="43.51134" lon="6.41125">
        <ele>272</ele>
        <time>2021-04-18T08:16:53Z</time>
      </trkpt>
      <trkpt lat="43.51136" lon="6.41119">
        <ele>271.6</ele>
        <time>2021-04-18T08:16:57Z</time>
      </trkpt>
      <trkpt lat="43.5114" lon="6.41116">
        <ele>271.3</ele>
        <time>2021-04-18T08:17:01Z</time>
      </trkpt>
      <trkpt lat="43.51145" lon="6.41118">
        <ele>271.1</ele>
        <time>2021-04-18T08:17:05Z</time>
      </trkpt>
      <trkpt lat="43.51149" lon="6.41121">
        <ele>270.9</ele>
        <time>2021-04-18T08:17:10Z</time>
      </trkpt>
      <trkpt lat="43.51152" lon="6.41126">
        <ele>270.7</ele>
        <time>2021-04-18T08:17:15Z</time>
      </trkpt>
      <trkpt lat="43.51156" lon="6.4113">
        <ele>270.3</ele>
        <time>2021-04-18T08:17:21Z</time>
      </trkpt>
      <trkpt lat="43.51161" lon="6.41132">
        <ele>270.2</ele>
        <time>2021-04-18T08:17:24Z</time>
      </trkpt>
      <trkpt lat="43.51165" lon="6.41134">
        <ele>270</ele>
        <time>2021-04-18T08:17:29Z</time>
      </trkpt>
      <trkpt lat="43.51171" lon="6.41135">
        <ele>269.8</ele>
        <time>2021-04-18T08:17:34Z</time>
      </trkpt>
      <trkpt lat="43.51175" lon="6.41137">
        <ele>269.8</ele>
        <time>2021-04-18T08:17:37Z</time>
      </trkpt>
      <trkpt lat="43.5118" lon="6.41137">
        <ele>269.6</ele>
        <time>2021-04-18T08:17:43Z</time>
      </trkpt>
      <trkpt lat="43.51185" lon="6.41133">
        <ele>269.6</ele>
        <time>2021-04-18T08:17:47Z</time>
      </trkpt>
      <trkpt lat="43.5119" lon="6.41134">
        <ele>269.5</ele>
        <time>2021-04-18T08:17:51Z</time>
      </trkpt>
      <trkpt lat="43.51195" lon="6.41134">
        <ele>269.5</ele>
        <time>2021-04-18T08:17:56Z</time>
      </trkpt>
      <trkpt lat="43.51199" lon="6.41132">
        <ele>269.5</ele>
        <time>2021-04-18T08:18:00Z</time>
      </trkpt>
      <trkpt lat="43.51203" lon="6.4113">
        <ele>269.5</ele>
        <time>2021-04-18T08:18:04Z</time>
      </trkpt>
      <trkpt lat="43.51209" lon="6.41128">
        <ele>269.4</ele>
        <time>2021-04-18T08:18:10Z</time>
      </trkpt>
      <trkpt lat="43.51213" lon="6.41125">
        <ele>269.4</ele>
        <time>2021-04-18T08:18:13Z</time>
      </trkpt>
      <trkpt lat="43.51218" lon="6.41124">
        <ele>269.5</ele>
        <time>2021-04-18T08:18:16Z</time>
      </trkpt>
      <trkpt lat="43.51223" lon="6.41123">
        <ele>269.6</ele>
        <time>2021-04-18T08:18:21Z</time>
      </trkpt>
      <trkpt lat="43.51229" lon="6.41122">
        <ele>269.9</ele>
        <time>2021-04-18T08:18:27Z</time>
      </trkpt>
      <trkpt lat="43.51233" lon="6.41119">
        <ele>270</ele>
        <time>2021-04-18T08:18:32Z</time>
      </trkpt>
      <trkpt lat="43.51237" lon="6.41116">
        <ele>270.2</ele>
        <time>2021-04-18T08:18:36Z</time>
      </trkpt>
      <trkpt lat="43.51242" lon="6.41112">
        <ele>270.5</ele>
        <time>2021-04-18T08:18:40Z</time>
      </trkpt>
      <trkpt lat="43.51246" lon="6.41109">
        <ele>270.7</ele>
        <time>2021-04-18T08:18:45Z</time>
      </trkpt>
      <trkpt lat="43.51252" lon="6.41107">
        <ele>270.8</ele>
        <time>2021-04-18T08:18:49Z</time>
      </trkpt>
      <trkpt lat="43.51257" lon="6.41107">
        <ele>271</ele>
        <time>2021-04-18T08:18:53Z</time>
      </trkpt>
      <trkpt lat="43.51262" lon="6.41105">
        <ele>271.2</ele>
        <time>2021-04-18T08:18:57Z</time>
      </trkpt>
      <trkpt lat="43.51266" lon="6.41101">
        <ele>271.3</ele>
        <time>2021-04-18T08:19:01Z</time>
      </trkpt>
      <trkpt lat="43.51271" lon="6.41101">
        <ele>271.5</ele>
        <time>2021-04-18T08:19:05Z</time>
      </trkpt>
      <trkpt lat="43.51276" lon="6.411">
        <ele>271.6</ele>
        <time>2021-04-18T08:19:10Z</time>
      </trkpt>
      <trkpt lat="43.51281" lon="6.41097">
        <ele>271.8</ele>
        <time>2021-04-18T08:19:15Z</time>
      </trkpt>
      <trkpt lat="43.51285" lon="6.41096">
        <ele>271.8</ele>
        <time>2021-04-18T08:19:18Z</time>
      </trkpt>
      <trkpt lat="43.51291" lon="6.41093">
        <ele>271.9</ele>
        <time>2021-04-18T08:19:23Z</time>
      </trkpt>
      <trkpt lat="43.51295" lon="6.4109">
        <ele>271.9</ele>
        <time>2021-04-18T08:19:27Z</time>
      </trkpt>
      <trkpt lat="43.51301" lon="6.41088">
        <ele>272</ele>
        <time>2021-04-18T08:19:32Z</time>
      </trkpt>
      <trkpt lat="43.51306" lon="6.41087">
        <ele>272</ele>
        <time>2021-04-18T08:19:36Z</time>
      </trkpt>
      <trkpt lat="43.51311" lon="6.41088">
        <ele>272</ele>
        <time>2021-04-18T08:19:40Z</time>
      </trkpt>
      <trkpt lat="43.51316" lon="6.41092">
        <ele>272</ele>
        <time>2021-04-18T08:19:44Z</time>
      </trkpt>
      <trkpt lat="43.5132" lon="6.41091">
        <ele>272</ele>
        <time>2021-04-18T08:19:48Z</time>
      </trkpt>
      <trkpt lat="43.51324" lon="6.41087">
        <ele>272.1</ele>
        <time>2021-04-18T08:19:51Z</time>
      </trkpt>
      <trkpt lat="43.5133" lon="6.41085">
        <ele>272.1</ele>
        <time>2021-04-18T08:19:55Z</time>
      </trkpt>
      <trkpt lat="43.51334" lon="6.41083">
        <ele>272</ele>
        <time>2021-04-18T08:19:59Z</time>
      </trkpt>
      <trkpt lat="43.51339" lon="6.4108">
        <ele>271.8</ele>
        <time>2021-04-18T08:20:04Z</time>
      </trkpt>
      <trkpt lat="43.51343" lon="6.41083">
        <ele>271.6</ele>
        <time>2021-04-18T08:20:08Z</time>
      </trkpt>
      <trkpt lat="43.51349" lon="6.41085">
        <ele>271.5</ele>
        <time>2021-04-18T08:20:12Z</time>
      </trkpt>
      <trkpt lat="43.51354" lon="6.41085">
        <ele>271.2</ele>
        <time>2021-04-18T08:20:18Z</time>
      </trkpt>
      <trkpt lat="43.51357" lon="6.4109">
        <ele>271</ele>
        <time>2021-04-18T08:20:23Z</time>
      </trkpt>
      <trkpt lat="43.51362" lon="6.41094">
        <ele>270.9</ele>
        <time>2021-04-18T08:20:26Z</time>
      </trkpt>
      <trkpt lat="43.51367" lon="6.41098">
        <ele>270.8</ele>
        <time>2021-04-18T08:20:30Z</time>
      </trkpt>
      <trkpt lat="43.51372" lon="6.41101">
        <ele>270.7</ele>
        <time>2021-04-18T08:20:34Z</time>
      </trkpt>
      <trkpt lat="43.51376" lon="6.41105">
        <ele>270.7</ele>
        <time>2021-04-18T08:20:37Z</time>
      </trkpt>
      <trkpt lat="43.5138" lon="6.41109">
        <ele>270.6</ele>
        <time>2021-04-18T08:20:41Z</time>
      </trkpt>
      <trkpt lat="43.51385" lon="6.41113">
        <ele>270.5</ele>
        <time>2021-04-18T08:20:45Z</time>
      </trkpt>
      <trkpt lat="43.5139" lon="6.41116">
        <ele>270.4</ele>
        <time>2021-04-18T08:20:49Z</time>
      </trkpt>
      <trkpt lat="43.51395" lon="6.41121">
        <ele>270.1</ele>
        <time>2021-04-18T08:20:53Z</time>
      </trkpt>
      <trkpt lat="43.514" lon="6.41124">
        <ele>269.9</ele>
        <time>2021-04-18T08:20:57Z</time>
      </trkpt>
      <trkpt lat="43.51403" lon="6.41129">
        <ele>269.7</ele>
        <time>2021-04-18T08:21:01Z</time>
      </trkpt>
      <trkpt lat="43.51408" lon="6.41134">
        <ele>269.5</ele>
        <time>2021-04-18T08:21:05Z</time>
      </trkpt>
      <trkpt lat="43.51412" lon="6.41138">
        <ele>269.3</ele>
        <time>2021-04-18T08:21:09Z</time>
      </trkpt>
      <trkpt lat="43.51415" lon="6.41142">
        <ele>269</ele>
        <time>2021-04-18T08:21:13Z</time>
      </trkpt>
      <trkpt lat="43.51419" lon="6.41147">
        <ele>268.7</ele>
        <time>2021-04-18T08:21:17Z</time>
      </trkpt>
      <trkpt lat="43.51422" lon="6.41153">
        <ele>268.4</ele>
        <time>2021-04-18T08:21:22Z</time>
      </trkpt>
      <trkpt lat="43.51425" lon="6.41158">
        <ele>268</ele>
        <time>2021-04-18T08:21:26Z</time>
      </trkpt>
      <trkpt lat="43.5143" lon="6.41162">
        <ele>267.6</ele>
        <time>2021-04-18T08:21:30Z</time>
      </trkpt>
      <trkpt lat="43.51433" lon="6.41167">
        <ele>267</ele>
        <time>2021-04-18T08:21:34Z</time>
      </trkpt>
      <trkpt lat="43.51437" lon="6.41171">
        <ele>266.5</ele>
        <time>2021-04-18T08:21:38Z</time>
      </trkpt>
      <trkpt lat="43.51441" lon="6.41176">
        <ele>265.8</ele>
        <time>2021-04-18T08:21:44Z</time>
      </trkpt>
      <trkpt lat="43.51444" lon="6.41182">
        <ele>265.5</ele>
        <time>2021-04-18T08:21:48Z</time>
      </trkpt>
      <trkpt lat="43.51449" lon="6.41189">
        <ele>265.3</ele>
        <time>2021-04-18T08:21:51Z</time>
      </trkpt>
      <trkpt lat="43.51453" lon="6.41193">
        <ele>265</ele>
        <time>2021-04-18T08:21:56Z</time>
      </trkpt>
      <trkpt lat="43.51456" lon="6.41198">
        <ele>264.9</ele>
        <time>2021-04-18T08:22:01Z</time>
      </trkpt>
      <trkpt lat="43.51458" lon="6.41204">
        <ele>264.8</ele>
        <time>2021-04-18T08:22:06Z</time>
      </trkpt>
      <trkpt lat="43.51462" lon="6.41209">
        <ele>264.8</ele>
        <time>2021-04-18T08:22:17Z</time>
      </trkpt>
      <trkpt lat="43.51462" lon="6.41202">
        <ele>265.3</ele>
        <time>2021-04-18T08:22:52Z</time>
      </trkpt>
      <trkpt lat="43.51467" lon="6.41206">
        <ele>263.7</ele>
        <time>2021-04-18T08:23:17Z</time>
      </trkpt>
      <trkpt lat="43.51472" lon="6.41207">
        <ele>263.3</ele>
        <time>2021-04-18T08:23:22Z</time>
      </trkpt>
      <trkpt lat="43.51477" lon="6.41208">
        <ele>263</ele>
        <time>2021-04-18T08:23:26Z</time>
      </trkpt>
      <trkpt lat="43.51481" lon="6.41211">
        <ele>262.7</ele>
        <time>2021-04-18T08:23:32Z</time>
      </trkpt>
      <trkpt lat="43.51486" lon="6.4121">
        <ele>262.5</ele>
        <time>2021-04-18T08:23:37Z</time>
      </trkpt>
      <trkpt lat="43.51492" lon="6.41209">
        <ele>262.8</ele>
        <time>2021-04-18T08:23:42Z</time>
      </trkpt>
      <trkpt lat="43.51497" lon="6.41211">
        <ele>263.2</ele>
        <time>2021-04-18T08:23:47Z</time>
      </trkpt>
      <trkpt lat="43.51501" lon="6.41209">
        <ele>263.6</ele>
        <time>2021-04-18T08:23:51Z</time>
      </trkpt>
      <trkpt lat="43.51505" lon="6.41205">
        <ele>263.9</ele>
        <time>2021-04-18T08:23:55Z</time>
      </trkpt>
      <trkpt lat="43.51506" lon="6.41198">
        <ele>264.1</ele>
        <time>2021-04-18T08:24:00Z</time>
      </trkpt>
      <trkpt lat="43.51508" lon="6.41191">
        <ele>264.1</ele>
        <time>2021-04-18T08:24:03Z</time>
      </trkpt>
      <trkpt lat="43.51509" lon="6.41184">
        <ele>264</ele>
        <time>2021-04-18T08:24:09Z</time>
      </trkpt>
      <trkpt lat="43.5151" lon="6.41179">
        <ele>263.9</ele>
        <time>2021-04-18T08:24:14Z</time>
      </trkpt>
      <trkpt lat="43.51513" lon="6.41172">
        <ele>263.6</ele>
        <time>2021-04-18T08:24:20Z</time>
      </trkpt>
      <trkpt lat="43.51515" lon="6.41166">
        <ele>263.4</ele>
        <time>2021-04-18T08:24:24Z</time>
      </trkpt>
      <trkpt lat="43.5152" lon="6.41162">
        <ele>263.1</ele>
        <time>2021-04-18T08:24:29Z</time>
      </trkpt>
      <trkpt lat="43.51523" lon="6.41158">
        <ele>262.8</ele>
        <time>2021-04-18T08:24:33Z</time>
      </trkpt>
      <trkpt lat="43.51528" lon="6.41154">
        <ele>262.5</ele>
        <time>2021-04-18T08:24:37Z</time>
      </trkpt>
      <trkpt lat="43.51533" lon="6.41153">
        <ele>262.4</ele>
        <time>2021-04-18T08:24:41Z</time>
      </trkpt>
      <trkpt lat="43.51535" lon="6.41146">
        <ele>262.3</ele>
        <time>2021-04-18T08:24:46Z</time>
      </trkpt>
      <trkpt lat="43.51539" lon="6.4114">
        <ele>262.2</ele>
        <time>2021-04-18T08:24:49Z</time>
      </trkpt>
      <trkpt lat="43.51543" lon="6.41134">
        <ele>262</ele>
        <time>2021-04-18T08:24:52Z</time>
      </trkpt>
      <trkpt lat="43.51547" lon="6.4113">
        <ele>261.9</ele>
        <time>2021-04-18T08:24:55Z</time>
      </trkpt>
      <trkpt lat="43.51551" lon="6.41126">
        <ele>261.9</ele>
        <time>2021-04-18T08:24:57Z</time>
      </trkpt>
      <trkpt lat="43.51555" lon="6.41122">
        <ele>261.8</ele>
        <time>2021-04-18T08:25:00Z</time>
      </trkpt>
      <trkpt lat="43.51558" lon="6.41117">
        <ele>261.6</ele>
        <time>2021-04-18T08:25:05Z</time>
      </trkpt>
      <trkpt lat="43.51563" lon="6.41111">
        <ele>261.5</ele>
        <time>2021-04-18T08:25:09Z</time>
      </trkpt>
      <trkpt lat="43.51567" lon="6.41106">
        <ele>261.2</ele>
        <time>2021-04-18T08:25:12Z</time>
      </trkpt>
      <trkpt lat="43.51569" lon="6.41099">
        <ele>260.7</ele>
        <time>2021-04-18T08:25:20Z</time>
      </trkpt>
      <trkpt lat="43.51573" lon="6.41095">
        <ele>260.5</ele>
        <time>2021-04-18T08:25:24Z</time>
      </trkpt>
      <trkpt lat="43.51578" lon="6.41091">
        <ele>260.4</ele>
        <time>2021-04-18T08:25:27Z</time>
      </trkpt>
      <trkpt lat="43.51583" lon="6.41089">
        <ele>260.4</ele>
        <time>2021-04-18T08:25:30Z</time>
      </trkpt>
      <trkpt lat="43.51586" lon="6.41084">
        <ele>260.5</ele>
        <time>2021-04-18T08:25:35Z</time>
      </trkpt>
      <trkpt lat="43.5159" lon="6.41079">
        <ele>260.5</ele>
        <time>2021-04-18T08:25:39Z</time>
      </trkpt>
      <trkpt lat="43.51595" lon="6.41075">
        <ele>260.6</ele>
        <time>2021-04-18T08:25:43Z</time>
      </trkpt>
      <trkpt lat="43.51601" lon="6.41071">
        <ele>260.6</ele>
        <time>2021-04-18T08:25:46Z</time>
      </trkpt>
      <trkpt lat="43.51605" lon="6.41068">
        <ele>260.5</ele>
        <time>2021-04-18T08:25:49Z</time>
      </trkpt>
      <trkpt lat="43.51608" lon="6.41063">
        <ele>260.4</ele>
        <time>2021-04-18T08:25:54Z</time>
      </trkpt>
      <trkpt lat="43.51611" lon="6.41058">
        <ele>260.3</ele>
        <time>2021-04-18T08:25:56Z</time>
      </trkpt>
      <trkpt lat="43.51616" lon="6.41053">
        <ele>260.3</ele>
        <time>2021-04-18T08:25:59Z</time>
      </trkpt>
      <trkpt lat="43.5162" lon="6.41048">
        <ele>260.2</ele>
        <time>2021-04-18T08:26:05Z</time>
      </trkpt>
      <trkpt lat="43.51623" lon="6.41043">
        <ele>260.1</ele>
        <time>2021-04-18T08:26:09Z</time>
      </trkpt>
      <trkpt lat="43.51627" lon="6.41041">
        <ele>259.9</ele>
        <time>2021-04-18T08:26:12Z</time>
      </trkpt>
      <trkpt lat="43.51632" lon="6.41039">
        <ele>259.6</ele>
        <time>2021-04-18T08:26:17Z</time>
      </trkpt>
      <trkpt lat="43.51637" lon="6.41037">
        <ele>259.5</ele>
        <time>2021-04-18T08:26:21Z</time>
      </trkpt>
      <trkpt lat="43.51642" lon="6.41034">
        <ele>259.2</ele>
        <time>2021-04-18T08:26:28Z</time>
      </trkpt>
      <trkpt lat="43.51647" lon="6.41032">
        <ele>259.1</ele>
        <time>2021-04-18T08:26:32Z</time>
      </trkpt>
      <trkpt lat="43.51652" lon="6.41031">
        <ele>259</ele>
        <time>2021-04-18T08:26:35Z</time>
      </trkpt>
      <trkpt lat="43.51657" lon="6.41028">
        <ele>258.7</ele>
        <time>2021-04-18T08:26:41Z</time>
      </trkpt>
      <trkpt lat="43.51661" lon="6.41025">
        <ele>258.6</ele>
        <time>2021-04-18T08:26:44Z</time>
      </trkpt>
      <trkpt lat="43.51665" lon="6.41021">
        <ele>258.3</ele>
        <time>2021-04-18T08:26:49Z</time>
      </trkpt>
      <trkpt lat="43.51669" lon="6.41018">
        <ele>258.1</ele>
        <time>2021-04-18T08:26:53Z</time>
      </trkpt>
      <trkpt lat="43.51674" lon="6.41016">
        <ele>257.9</ele>
        <time>2021-04-18T08:26:56Z</time>
      </trkpt>
      <trkpt lat="43.51678" lon="6.41013">
        <ele>257.5</ele>
        <time>2021-04-18T08:27:03Z</time>
      </trkpt>
      <trkpt lat="43.51684" lon="6.41011">
        <ele>257.3</ele>
        <time>2021-04-18T08:27:08Z</time>
      </trkpt>
      <trkpt lat="43.51688" lon="6.41007">
        <ele>257.1</ele>
        <time>2021-04-18T08:27:11Z</time>
      </trkpt>
      <trkpt lat="43.51693" lon="6.41006">
        <ele>256.7</ele>
        <time>2021-04-18T08:27:16Z</time>
      </trkpt>
      <trkpt lat="43.51697" lon="6.41001">
        <ele>256.2</ele>
        <time>2021-04-18T08:27:22Z</time>
      </trkpt>
      <trkpt lat="43.517" lon="6.40995">
        <ele>255.9</ele>
        <time>2021-04-18T08:27:25Z</time>
      </trkpt>
      <trkpt lat="43.51702" lon="6.4099">
        <ele>255</ele>
        <time>2021-04-18T08:27:33Z</time>
      </trkpt>
      <trkpt lat="43.51705" lon="6.40985">
        <ele>254.6</ele>
        <time>2021-04-18T08:27:37Z</time>
      </trkpt>
      <trkpt lat="43.51709" lon="6.4098">
        <ele>254.2</ele>
        <time>2021-04-18T08:27:42Z</time>
      </trkpt>
      <trkpt lat="43.51714" lon="6.40975">
        <ele>253.9</ele>
        <time>2021-04-18T08:27:45Z</time>
      </trkpt>
      <trkpt lat="43.51718" lon="6.40974">
        <ele>253.6</ele>
        <time>2021-04-18T08:27:48Z</time>
      </trkpt>
      <trkpt lat="43.51722" lon="6.40969">
        <ele>253.1</ele>
        <time>2021-04-18T08:27:53Z</time>
      </trkpt>
      <trkpt lat="43.51727" lon="6.40967">
        <ele>252.7</ele>
        <time>2021-04-18T08:27:56Z</time>
      </trkpt>
      <trkpt lat="43.51732" lon="6.40965">
        <ele>252.2</ele>
        <time>2021-04-18T08:28:01Z</time>
      </trkpt>
      <trkpt lat="43.51736" lon="6.40961">
        <ele>251.9</ele>
        <time>2021-04-18T08:28:06Z</time>
      </trkpt>
      <trkpt lat="43.51738" lon="6.40954">
        <ele>251.6</ele>
        <time>2021-04-18T08:28:10Z</time>
      </trkpt>
      <trkpt lat="43.51741" lon="6.40949">
        <ele>251.4</ele>
        <time>2021-04-18T08:28:14Z</time>
      </trkpt>
      <trkpt lat="43.51745" lon="6.40945">
        <ele>251.2</ele>
        <time>2021-04-18T08:28:18Z</time>
      </trkpt>
      <trkpt lat="43.5175" lon="6.40942">
        <ele>251</ele>
        <time>2021-04-18T08:28:22Z</time>
      </trkpt>
      <trkpt lat="43.51754" lon="6.40938">
        <ele>250.7</ele>
        <time>2021-04-18T08:28:27Z</time>
      </trkpt>
      <trkpt lat="43.51757" lon="6.40933">
        <ele>250.2</ele>
        <time>2021-04-18T08:28:31Z</time>
      </trkpt>
      <trkpt lat="43.5176" lon="6.40929">
        <ele>249.8</ele>
        <time>2021-04-18T08:28:35Z</time>
      </trkpt>
      <trkpt lat="43.51763" lon="6.40924">
        <ele>249.4</ele>
        <time>2021-04-18T08:28:39Z</time>
      </trkpt>
      <trkpt lat="43.51767" lon="6.4092">
        <ele>249.2</ele>
        <time>2021-04-18T08:28:42Z</time>
      </trkpt>
      <trkpt lat="43.51771" lon="6.40916">
        <ele>248.8</ele>
        <time>2021-04-18T08:28:47Z</time>
      </trkpt>
      <trkpt lat="43.51776" lon="6.40912">
        <ele>248.6</ele>
        <time>2021-04-18T08:28:51Z</time>
      </trkpt>
      <trkpt lat="43.51781" lon="6.4091">
        <ele>248.2</ele>
        <time>2021-04-18T08:28:56Z</time>
      </trkpt>
      <trkpt lat="43.51786" lon="6.40905">
        <ele>247.9</ele>
        <time>2021-04-18T08:29:00Z</time>
      </trkpt>
      <trkpt lat="43.5179" lon="6.40903">
        <ele>247.6</ele>
        <time>2021-04-18T08:29:04Z</time>
      </trkpt>
      <trkpt lat="43.51796" lon="6.40902">
        <ele>247</ele>
        <time>2021-04-18T08:29:09Z</time>
      </trkpt>
      <trkpt lat="43.51801" lon="6.40902">
        <ele>246.6</ele>
        <time>2021-04-18T08:29:13Z</time>
      </trkpt>
      <trkpt lat="43.51806" lon="6.409">
        <ele>246.1</ele>
        <time>2021-04-18T08:29:18Z</time>
      </trkpt>
      <trkpt lat="43.51811" lon="6.409">
        <ele>245.8</ele>
        <time>2021-04-18T08:29:22Z</time>
      </trkpt>
      <trkpt lat="43.51817" lon="6.40899">
        <ele>245.5</ele>
        <time>2021-04-18T08:29:27Z</time>
      </trkpt>
      <trkpt lat="43.51822" lon="6.409">
        <ele>245</ele>
        <time>2021-04-18T08:29:32Z</time>
      </trkpt>
      <trkpt lat="43.51827" lon="6.40896">
        <ele>244.6</ele>
        <time>2021-04-18T08:29:37Z</time>
      </trkpt>
      <trkpt lat="43.51832" lon="6.40893">
        <ele>244.4</ele>
        <time>2021-04-18T08:29:40Z</time>
      </trkpt>
      <trkpt lat="43.51836" lon="6.4089">
        <ele>244.2</ele>
        <time>2021-04-18T08:29:44Z</time>
      </trkpt>
      <trkpt lat="43.5184" lon="6.40887">
        <ele>244</ele>
        <time>2021-04-18T08:29:48Z</time>
      </trkpt>
      <trkpt lat="43.51845" lon="6.40886">
        <ele>243.9</ele>
        <time>2021-04-18T08:29:52Z</time>
      </trkpt>
      <trkpt lat="43.5185" lon="6.40889">
        <ele>243.8</ele>
        <time>2021-04-18T08:29:55Z</time>
      </trkpt>
      <trkpt lat="43.51855" lon="6.40887">
        <ele>243.8</ele>
        <time>2021-04-18T08:30:00Z</time>
      </trkpt>
      <trkpt lat="43.51859" lon="6.40883">
        <ele>243.7</ele>
        <time>2021-04-18T08:30:03Z</time>
      </trkpt>
      <trkpt lat="43.51864" lon="6.40882">
        <ele>243.7</ele>
        <time>2021-04-18T08:30:06Z</time>
      </trkpt>
      <trkpt lat="43.51869" lon="6.40884">
        <ele>243.6</ele>
        <time>2021-04-18T08:30:12Z</time>
      </trkpt>
      <trkpt lat="43.51874" lon="6.40885">
        <ele>243.5</ele>
        <time>2021-04-18T08:30:16Z</time>
      </trkpt>
      <trkpt lat="43.5188" lon="6.40886">
        <ele>243.3</ele>
        <time>2021-04-18T08:30:21Z</time>
      </trkpt>
      <trkpt lat="43.51885" lon="6.4089">
        <ele>242.8</ele>
        <time>2021-04-18T08:30:28Z</time>
      </trkpt>
      <trkpt lat="43.5189" lon="6.40892">
        <ele>242.5</ele>
        <time>2021-04-18T08:30:31Z</time>
      </trkpt>
      <trkpt lat="43.51895" lon="6.40894">
        <ele>242.2</ele>
        <time>2021-04-18T08:30:38Z</time>
      </trkpt>
      <trkpt lat="43.519" lon="6.40892">
        <ele>241.6</ele>
        <time>2021-04-18T08:30:43Z</time>
      </trkpt>
      <trkpt lat="43.51905" lon="6.4089">
        <ele>241.1</ele>
        <time>2021-04-18T08:30:47Z</time>
      </trkpt>
      <trkpt lat="43.51911" lon="6.40888">
        <ele>240.6</ele>
        <time>2021-04-18T08:30:53Z</time>
      </trkpt>
      <trkpt lat="43.51917" lon="6.40888">
        <ele>240</ele>
        <time>2021-04-18T08:30:58Z</time>
      </trkpt>
      <trkpt lat="43.51922" lon="6.40887">
        <ele>239.6</ele>
        <time>2021-04-18T08:31:02Z</time>
      </trkpt>
      <trkpt lat="43.51927" lon="6.40885">
        <ele>239.1</ele>
        <time>2021-04-18T08:31:08Z</time>
      </trkpt>
      <trkpt lat="43.51932" lon="6.40883">
        <ele>238.7</ele>
        <time>2021-04-18T08:31:12Z</time>
      </trkpt>
      <trkpt lat="43.51937" lon="6.4088">
        <ele>238.2</ele>
        <time>2021-04-18T08:31:17Z</time>
      </trkpt>
      <trkpt lat="43.51942" lon="6.4088">
        <ele>238</ele>
        <time>2021-04-18T08:31:20Z</time>
      </trkpt>
      <trkpt lat="43.51947" lon="6.4088">
        <ele>237.6</ele>
        <time>2021-04-18T08:31:25Z</time>
      </trkpt>
      <trkpt lat="43.51951" lon="6.40878">
        <ele>237.3</ele>
        <time>2021-04-18T08:31:29Z</time>
      </trkpt>
      <trkpt lat="43.51957" lon="6.40879">
        <ele>236.6</ele>
        <time>2021-04-18T08:31:36Z</time>
      </trkpt>
      <trkpt lat="43.51962" lon="6.40881">
        <ele>236</ele>
        <time>2021-04-18T08:31:42Z</time>
      </trkpt>
      <trkpt lat="43.51966" lon="6.40882">
        <ele>235.7</ele>
        <time>2021-04-18T08:31:46Z</time>
      </trkpt>
      <trkpt lat="43.5197" lon="6.40885">
        <ele>235.2</ele>
        <time>2021-04-18T08:31:52Z</time>
      </trkpt>
      <trkpt lat="43.51975" lon="6.40888">
        <ele>234.5</ele>
        <time>2021-04-18T08:31:57Z</time>
      </trkpt>
      <trkpt lat="43.51979" lon="6.40892">
        <ele>234.1</ele>
        <time>2021-04-18T08:32:02Z</time>
      </trkpt>
      <trkpt lat="43.51982" lon="6.40897">
        <ele>233.6</ele>
        <time>2021-04-18T08:32:07Z</time>
      </trkpt>
      <trkpt lat="43.51986" lon="6.409">
        <ele>233.2</ele>
        <time>2021-04-18T08:32:12Z</time>
      </trkpt>
      <trkpt lat="43.5199" lon="6.40903">
        <ele>232.9</ele>
        <time>2021-04-18T08:32:18Z</time>
      </trkpt>
      <trkpt lat="43.51994" lon="6.40908">
        <ele>232.5</ele>
        <time>2021-04-18T08:32:22Z</time>
      </trkpt>
      <trkpt lat="43.51999" lon="6.40909">
        <ele>232.2</ele>
        <time>2021-04-18T08:32:27Z</time>
      </trkpt>
      <trkpt lat="43.52004" lon="6.40911">
        <ele>231.8</ele>
        <time>2021-04-18T08:32:33Z</time>
      </trkpt>
      <trkpt lat="43.52009" lon="6.40913">
        <ele>231.4</ele>
        <time>2021-04-18T08:32:39Z</time>
      </trkpt>
      <trkpt lat="43.52013" lon="6.40917">
        <ele>231.1</ele>
        <time>2021-04-18T08:32:44Z</time>
      </trkpt>
      <trkpt lat="43.52017" lon="6.40921">
        <ele>230.6</ele>
        <time>2021-04-18T08:32:50Z</time>
      </trkpt>
      <trkpt lat="43.52022" lon="6.40922">
        <ele>230.1</ele>
        <time>2021-04-18T08:32:55Z</time>
      </trkpt>
      <trkpt lat="43.52027" lon="6.40925">
        <ele>229.7</ele>
        <time>2021-04-18T08:32:59Z</time>
      </trkpt>
      <trkpt lat="43.52033" lon="6.40929">
        <ele>229</ele>
        <time>2021-04-18T08:33:04Z</time>
      </trkpt>
      <trkpt lat="43.52037" lon="6.40936">
        <ele>229.1</ele>
        <time>2021-04-18T08:33:08Z</time>
      </trkpt>
      <trkpt lat="43.5204" lon="6.40941">
        <ele>228.8</ele>
        <time>2021-04-18T08:33:14Z</time>
      </trkpt>
      <trkpt lat="43.52041" lon="6.40949">
        <ele>228.6</ele>
        <time>2021-04-18T08:33:18Z</time>
      </trkpt>
      <trkpt lat="43.52042" lon="6.40955">
        <ele>228.5</ele>
        <time>2021-04-18T08:33:21Z</time>
      </trkpt>
      <trkpt lat="43.52043" lon="6.40964">
        <ele>228.4</ele>
        <time>2021-04-18T08:33:24Z</time>
      </trkpt>
      <trkpt lat="43.52043" lon="6.40972">
        <ele>228.1</ele>
        <time>2021-04-18T08:33:30Z</time>
      </trkpt>
      <trkpt lat="43.52046" lon="6.40977">
        <ele>228</ele>
        <time>2021-04-18T08:33:33Z</time>
      </trkpt>
      <trkpt lat="43.52049" lon="6.40983">
        <ele>227.9</ele>
        <time>2021-04-18T08:33:35Z</time>
      </trkpt>
      <trkpt lat="43.52053" lon="6.40988">
        <ele>227.8</ele>
        <time>2021-04-18T08:33:37Z</time>
      </trkpt>
      <trkpt lat="43.52056" lon="6.40992">
        <ele>227.3</ele>
        <time>2021-04-18T08:33:44Z</time>
      </trkpt>
      <trkpt lat="43.52057" lon="6.40999">
        <ele>227</ele>
        <time>2021-04-18T08:33:49Z</time>
      </trkpt>
      <trkpt lat="43.52058" lon="6.41006">
        <ele>226</ele>
        <time>2021-04-18T08:33:56Z</time>
      </trkpt>
      <trkpt lat="43.52059" lon="6.41013">
        <ele>226.1</ele>
        <time>2021-04-18T08:34:04Z</time>
      </trkpt>
      <trkpt lat="43.52057" lon="6.41018">
        <ele>225.8</ele>
        <time>2021-04-18T08:34:10Z</time>
      </trkpt>
      <trkpt lat="43.52062" lon="6.41021">
        <ele>225.4</ele>
        <time>2021-04-18T08:34:17Z</time>
      </trkpt>
      <trkpt lat="43.52065" lon="6.41017">
        <ele>225.1</ele>
        <time>2021-04-18T08:34:22Z</time>
      </trkpt>
      <trkpt lat="43.52068" lon="6.41011">
        <ele>224.8</ele>
        <time>2021-04-18T08:34:28Z</time>
      </trkpt>
      <trkpt lat="43.52072" lon="6.41005">
        <ele>224.6</ele>
        <time>2021-04-18T08:34:31Z</time>
      </trkpt>
      <trkpt lat="43.52076" lon="6.41">
        <ele>224.4</ele>
        <time>2021-04-18T08:34:37Z</time>
      </trkpt>
      <trkpt lat="43.52078" lon="6.40994">
        <ele>224</ele>
        <time>2021-04-18T08:34:42Z</time>
      </trkpt>
      <trkpt lat="43.52083" lon="6.40989">
        <ele>223.6</ele>
        <time>2021-04-18T08:34:47Z</time>
      </trkpt>
      <trkpt lat="43.52088" lon="6.40988">
        <ele>223</ele>
        <time>2021-04-18T08:34:52Z</time>
      </trkpt>
      <trkpt lat="43.52092" lon="6.40985">
        <ele>222.7</ele>
        <time>2021-04-18T08:34:55Z</time>
      </trkpt>
      <trkpt lat="43.52096" lon="6.40984">
        <ele>222.2</ele>
        <time>2021-04-18T08:35:01Z</time>
      </trkpt>
      <trkpt lat="43.52101" lon="6.40984">
        <ele>222</ele>
        <time>2021-04-18T08:35:04Z</time>
      </trkpt>
      <trkpt lat="43.52106" lon="6.40982">
        <ele>221.4</ele>
        <time>2021-04-18T08:35:13Z</time>
      </trkpt>
      <trkpt lat="43.52111" lon="6.40976">
        <ele>220</ele>
        <time>2021-04-18T08:35:19Z</time>
      </trkpt>
      <trkpt lat="43.52116" lon="6.40971">
        <ele>220</ele>
        <time>2021-04-18T08:35:23Z</time>
      </trkpt>
      <trkpt lat="43.52123" lon="6.40965">
        <ele>219</ele>
        <time>2021-04-18T08:35:31Z</time>
      </trkpt>
      <trkpt lat="43.52129" lon="6.40966">
        <ele>219</ele>
        <time>2021-04-18T08:35:35Z</time>
      </trkpt>
      <trkpt lat="43.52134" lon="6.40967">
        <ele>219</ele>
        <time>2021-04-18T08:35:39Z</time>
      </trkpt>
      <trkpt lat="43.52139" lon="6.40966">
        <ele>219</ele>
        <time>2021-04-18T08:35:43Z</time>
      </trkpt>
      <trkpt lat="43.52145" lon="6.40965">
        <ele>219</ele>
        <time>2021-04-18T08:35:51Z</time>
      </trkpt>
      <trkpt lat="43.52152" lon="6.40968">
        <ele>219</ele>
        <time>2021-04-18T08:35:59Z</time>
      </trkpt>
      <trkpt lat="43.5216" lon="6.40969">
        <ele>219</ele>
        <time>2021-04-18T08:36:07Z</time>
      </trkpt>
      <trkpt lat="43.52166" lon="6.40959">
        <ele>219</ele>
        <time>2021-04-18T08:36:15Z</time>
      </trkpt>
      <trkpt lat="43.52166" lon="6.40951">
        <ele>219</ele>
        <time>2021-04-18T08:36:19Z</time>
      </trkpt>
      <trkpt lat="43.52171" lon="6.40947">
        <ele>219.5</ele>
        <time>2021-04-18T08:36:26Z</time>
      </trkpt>
      <trkpt lat="43.52174" lon="6.40944">
        <ele>219.3</ele>
        <time>2021-04-18T08:36:31Z</time>
      </trkpt>
      <trkpt lat="43.52178" lon="6.40941">
        <ele>219</ele>
        <time>2021-04-18T08:36:36Z</time>
      </trkpt>
      <trkpt lat="43.52183" lon="6.40942">
        <ele>218.5</ele>
        <time>2021-04-18T08:36:42Z</time>
      </trkpt>
      <trkpt lat="43.52188" lon="6.40941">
        <ele>217</ele>
        <time>2021-04-18T08:36:54Z</time>
      </trkpt>
      <trkpt lat="43.52191" lon="6.40947">
        <ele>217</ele>
        <time>2021-04-18T08:37:00Z</time>
      </trkpt>
      <trkpt lat="43.52187" lon="6.40948">
        <ele>217</ele>
        <time>2021-04-18T08:37:08Z</time>
      </trkpt>
      <trkpt lat="43.52191" lon="6.40945">
        <ele>217</ele>
        <time>2021-04-18T08:37:37Z</time>
      </trkpt>
      <trkpt lat="43.52195" lon="6.40943">
        <ele>217</ele>
        <time>2021-04-18T08:37:43Z</time>
      </trkpt>
      <trkpt lat="43.52198" lon="6.40937">
        <ele>217.7</ele>
        <time>2021-04-18T08:37:49Z</time>
      </trkpt>
      <trkpt lat="43.52195" lon="6.40942">
        <ele>217.7</ele>
        <time>2021-04-18T08:37:55Z</time>
      </trkpt>
      <trkpt lat="43.52199" lon="6.40938">
        <ele>215</ele>
        <time>2021-04-18T08:38:17Z</time>
      </trkpt>
      <trkpt lat="43.52193" lon="6.40933">
        <ele>215</ele>
        <time>2021-04-18T08:38:40Z</time>
      </trkpt>
      <trkpt lat="43.52189" lon="6.40928">
        <ele>215.3</ele>
        <time>2021-04-18T08:38:47Z</time>
      </trkpt>
      <trkpt lat="43.5219" lon="6.40922">
        <ele>216.6</ele>
        <time>2021-04-18T08:39:15Z</time>
      </trkpt>
      <trkpt lat="43.52186" lon="6.40917">
        <ele>217</ele>
        <time>2021-04-18T08:39:27Z</time>
      </trkpt>
      <trkpt lat="43.52184" lon="6.40924">
        <ele>217</ele>
        <time>2021-04-18T08:39:35Z</time>
      </trkpt>
      <trkpt lat="43.52184" lon="6.40932">
        <ele>217</ele>
        <time>2021-04-18T08:39:47Z</time>
      </trkpt>
      <trkpt lat="43.52179" lon="6.40935">
        <ele>216</ele>
        <time>2021-04-18T08:39:58Z</time>
      </trkpt>
      <trkpt lat="43.52184" lon="6.40937">
        <ele>214</ele>
        <time>2021-04-18T08:40:33Z</time>
      </trkpt>
      <trkpt lat="43.52188" lon="6.40931">
        <ele>215</ele>
        <time>2021-04-18T08:40:49Z</time>
      </trkpt>
      <trkpt lat="43.52192" lon="6.40929">
        <ele>217</ele>
        <time>2021-04-18T08:41:01Z</time>
      </trkpt>
      <trkpt lat="43.52197" lon="6.40935">
        <ele>217</ele>
        <time>2021-04-18T08:41:18Z</time>
      </trkpt>
      <trkpt lat="43.52204" lon="6.4093">
        <ele>218</ele>
        <time>2021-04-18T08:41:32Z</time>
      </trkpt>
      <trkpt lat="43.52208" lon="6.40925">
        <ele>219</ele>
        <time>2021-04-18T08:41:49Z</time>
      </trkpt>
      <trkpt lat="43.52202" lon="6.40938">
        <ele>219</ele>
        <time>2021-04-18T08:42:35Z</time>
      </trkpt>
      <trkpt lat="43.52208" lon="6.40911">
        <ele>220</ele>
        <time>2021-04-18T08:43:19Z</time>
      </trkpt>
      <trkpt lat="43.52204" lon="6.40914">
        <ele>220</ele>
        <time>2021-04-18T08:43:35Z</time>
      </trkpt>
      <trkpt lat="43.52207" lon="6.40909">
        <ele>220</ele>
        <time>2021-04-18T08:43:43Z</time>
      </trkpt>
      <trkpt lat="43.52206" lon="6.40916">
        <ele>220</ele>
        <time>2021-04-18T08:43:59Z</time>
      </trkpt>
      <trkpt lat="43.52205" lon="6.4091">
        <ele>220</ele>
        <time>2021-04-18T08:44:57Z</time>
      </trkpt>
      <trkpt lat="43.5221" lon="6.40909">
        <ele>220</ele>
        <time>2021-04-18T08:45:15Z</time>
      </trkpt>
      <trkpt lat="43.52211" lon="6.40915">
        <ele>220.7</ele>
        <time>2021-04-18T08:45:34Z</time>
      </trkpt>
      <trkpt lat="43.52207" lon="6.40919">
        <ele>220.8</ele>
        <time>2021-04-18T08:45:54Z</time>
      </trkpt>
      <trkpt lat="43.52204" lon="6.40925">
        <ele>220</ele>
        <time>2021-04-18T08:46:04Z</time>
      </trkpt>
      <trkpt lat="43.52204" lon="6.40931">
        <ele>219.9</ele>
        <time>2021-04-18T08:46:14Z</time>
      </trkpt>
      <trkpt lat="43.52209" lon="6.40931">
        <ele>218.1</ele>
        <time>2021-04-18T08:46:34Z</time>
      </trkpt>
      <trkpt lat="43.52205" lon="6.40935">
        <ele>218.8</ele>
        <time>2021-04-18T08:46:57Z</time>
      </trkpt>
      <trkpt lat="43.52207" lon="6.40928">
        <ele>219.2</ele>
        <time>2021-04-18T08:47:10Z</time>
      </trkpt>
      <trkpt lat="43.5221" lon="6.40923">
        <ele>219.3</ele>
        <time>2021-04-18T08:47:17Z</time>
      </trkpt>
      <trkpt lat="43.52214" lon="6.40918">
        <ele>219</ele>
        <time>2021-04-18T08:47:36Z</time>
      </trkpt>
      <trkpt lat="43.5221" lon="6.40921">
        <ele>220</ele>
        <time>2021-04-18T08:47:45Z</time>
      </trkpt>
      <trkpt lat="43.52212" lon="6.40916">
        <ele>220</ele>
        <time>2021-04-18T08:48:07Z</time>
      </trkpt>
      <trkpt lat="43.52211" lon="6.40909">
        <ele>221.5</ele>
        <time>2021-04-18T08:48:26Z</time>
      </trkpt>
      <trkpt lat="43.52214" lon="6.40904">
        <ele>222.2</ele>
        <time>2021-04-18T08:48:41Z</time>
      </trkpt>
      <trkpt lat="43.52219" lon="6.40904">
        <ele>222.4</ele>
        <time>2021-04-18T08:48:46Z</time>
      </trkpt>
      <trkpt lat="43.52223" lon="6.40906">
        <ele>222.9</ele>
        <time>2021-04-18T08:48:57Z</time>
      </trkpt>
      <trkpt lat="43.52228" lon="6.4091">
        <ele>223.6</ele>
        <time>2021-04-18T08:49:07Z</time>
      </trkpt>
      <trkpt lat="43.52232" lon="6.40908">
        <ele>224</ele>
        <time>2021-04-18T08:49:13Z</time>
      </trkpt>
      <trkpt lat="43.52236" lon="6.40904">
        <ele>224.3</ele>
        <time>2021-04-18T08:49:16Z</time>
      </trkpt>
      <trkpt lat="43.5224" lon="6.40898">
        <ele>224.7</ele>
        <time>2021-04-18T08:49:20Z</time>
      </trkpt>
      <trkpt lat="43.52243" lon="6.40893">
        <ele>225.2</ele>
        <time>2021-04-18T08:49:25Z</time>
      </trkpt>
      <trkpt lat="43.52247" lon="6.40887">
        <ele>225.6</ele>
        <time>2021-04-18T08:49:30Z</time>
      </trkpt>
      <trkpt lat="43.52251" lon="6.40883">
        <ele>226.1</ele>
        <time>2021-04-18T08:49:36Z</time>
      </trkpt>
      <trkpt lat="43.52256" lon="6.40879">
        <ele>226.7</ele>
        <time>2021-04-18T08:49:44Z</time>
      </trkpt>
      <trkpt lat="43.5226" lon="6.40875">
        <ele>226.9</ele>
        <time>2021-04-18T08:49:48Z</time>
      </trkpt>
      <trkpt lat="43.52265" lon="6.40873">
        <ele>227.3</ele>
        <time>2021-04-18T08:49:52Z</time>
      </trkpt>
      <trkpt lat="43.52269" lon="6.40868">
        <ele>227.8</ele>
        <time>2021-04-18T08:49:58Z</time>
      </trkpt>
      <trkpt lat="43.52273" lon="6.40864">
        <ele>228.1</ele>
        <time>2021-04-18T08:50:02Z</time>
      </trkpt>
      <trkpt lat="43.52278" lon="6.40861">
        <ele>228.3</ele>
        <time>2021-04-18T08:50:06Z</time>
      </trkpt>
      <trkpt lat="43.52283" lon="6.4086">
        <ele>228.5</ele>
        <time>2021-04-18T08:50:10Z</time>
      </trkpt>
      <trkpt lat="43.52287" lon="6.40857">
        <ele>228.7</ele>
        <time>2021-04-18T08:50:14Z</time>
      </trkpt>
      <trkpt lat="43.52291" lon="6.40855">
        <ele>229</ele>
        <time>2021-04-18T08:50:19Z</time>
      </trkpt>
      <trkpt lat="43.52297" lon="6.40852">
        <ele>229.3</ele>
        <time>2021-04-18T08:50:23Z</time>
      </trkpt>
      <trkpt lat="43.52301" lon="6.40849">
        <ele>229.5</ele>
        <time>2021-04-18T08:50:28Z</time>
      </trkpt>
      <trkpt lat="43.52306" lon="6.40845">
        <ele>229.7</ele>
        <time>2021-04-18T08:50:33Z</time>
      </trkpt>
      <trkpt lat="43.5231" lon="6.40841">
        <ele>229.8</ele>
        <time>2021-04-18T08:50:37Z</time>
      </trkpt>
      <trkpt lat="43.52314" lon="6.40836">
        <ele>229.8</ele>
        <time>2021-04-18T08:50:41Z</time>
      </trkpt>
      <trkpt lat="43.52318" lon="6.40834">
        <ele>229.6</ele>
        <time>2021-04-18T08:50:47Z</time>
      </trkpt>
      <trkpt lat="43.52323" lon="6.4083">
        <ele>229.6</ele>
        <time>2021-04-18T08:50:52Z</time>
      </trkpt>
      <trkpt lat="43.52327" lon="6.40828">
        <ele>229.7</ele>
        <time>2021-04-18T08:50:56Z</time>
      </trkpt>
      <trkpt lat="43.52331" lon="6.40825">
        <ele>229.9</ele>
        <time>2021-04-18T08:51:00Z</time>
      </trkpt>
      <trkpt lat="43.52337" lon="6.40822">
        <ele>230.1</ele>
        <time>2021-04-18T08:51:05Z</time>
      </trkpt>
      <trkpt lat="43.52341" lon="6.40819">
        <ele>230.3</ele>
        <time>2021-04-18T08:51:09Z</time>
      </trkpt>
      <trkpt lat="43.52345" lon="6.40816">
        <ele>230.6</ele>
        <time>2021-04-18T08:51:13Z</time>
      </trkpt>
      <trkpt lat="43.5235" lon="6.40813">
        <ele>231</ele>
        <time>2021-04-18T08:51:18Z</time>
      </trkpt>
      <trkpt lat="43.52355" lon="6.4081">
        <ele>231.4</ele>
        <time>2021-04-18T08:51:23Z</time>
      </trkpt>
      <trkpt lat="43.52359" lon="6.40807">
        <ele>231.8</ele>
        <time>2021-04-18T08:51:28Z</time>
      </trkpt>
      <trkpt lat="43.52364" lon="6.40805">
        <ele>232.6</ele>
        <time>2021-04-18T08:51:34Z</time>
      </trkpt>
      <trkpt lat="43.52368" lon="6.40801">
        <ele>233.2</ele>
        <time>2021-04-18T08:51:39Z</time>
      </trkpt>
      <trkpt lat="43.52373" lon="6.40799">
        <ele>234.2</ele>
        <time>2021-04-18T08:51:46Z</time>
      </trkpt>
      <trkpt lat="43.52376" lon="6.40795">
        <ele>235</ele>
        <time>2021-04-18T08:51:52Z</time>
      </trkpt>
      <trkpt lat="43.5238" lon="6.40791">
        <ele>235.8</ele>
        <time>2021-04-18T08:51:57Z</time>
      </trkpt>
      <trkpt lat="43.52384" lon="6.40787">
        <ele>236.4</ele>
        <time>2021-04-18T08:52:01Z</time>
      </trkpt>
      <trkpt lat="43.52388" lon="6.40783">
        <ele>237.4</ele>
        <time>2021-04-18T08:52:07Z</time>
      </trkpt>
      <trkpt lat="43.52391" lon="6.40778">
        <ele>238.1</ele>
        <time>2021-04-18T08:52:12Z</time>
      </trkpt>
      <trkpt lat="43.52394" lon="6.40773">
        <ele>238.7</ele>
        <time>2021-04-18T08:52:16Z</time>
      </trkpt>
      <trkpt lat="43.52397" lon="6.40768">
        <ele>239.3</ele>
        <time>2021-04-18T08:52:20Z</time>
      </trkpt>
      <trkpt lat="43.524" lon="6.40761">
        <ele>240</ele>
        <time>2021-04-18T08:52:25Z</time>
      </trkpt>
      <trkpt lat="43.52401" lon="6.40754">
        <ele>240.4</ele>
        <time>2021-04-18T08:52:29Z</time>
      </trkpt>
      <trkpt lat="43.52401" lon="6.40746">
        <ele>240.8</ele>
        <time>2021-04-18T08:52:34Z</time>
      </trkpt>
      <trkpt lat="43.52399" lon="6.4074">
        <ele>242.1</ele>
        <time>2021-04-18T08:52:46Z</time>
      </trkpt>
      <trkpt lat="43.52394" lon="6.4074">
        <ele>242.6</ele>
        <time>2021-04-18T08:52:54Z</time>
      </trkpt>
      <trkpt lat="43.52389" lon="6.40743">
        <ele>242.8</ele>
        <time>2021-04-18T08:52:59Z</time>
      </trkpt>
      <trkpt lat="43.52383" lon="6.40743">
        <ele>242.9</ele>
        <time>2021-04-18T08:53:03Z</time>
      </trkpt>
      <trkpt lat="43.52379" lon="6.40745">
        <ele>243</ele>
        <time>2021-04-18T08:53:08Z</time>
      </trkpt>
      <trkpt lat="43.52375" lon="6.4075">
        <ele>243</ele>
        <time>2021-04-18T08:53:13Z</time>
      </trkpt>
      <trkpt lat="43.52371" lon="6.40754">
        <ele>243.1</ele>
        <time>2021-04-18T08:53:17Z</time>
      </trkpt>
      <trkpt lat="43.52366" lon="6.40758">
        <ele>243.1</ele>
        <time>2021-04-18T08:53:21Z</time>
      </trkpt>
      <trkpt lat="43.52361" lon="6.40759">
        <ele>243</ele>
        <time>2021-04-18T08:53:24Z</time>
      </trkpt>
      <trkpt lat="43.52356" lon="6.40762">
        <ele>243</ele>
        <time>2021-04-18T08:53:29Z</time>
      </trkpt>
      <trkpt lat="43.52352" lon="6.40764">
        <ele>243.1</ele>
        <time>2021-04-18T08:53:34Z</time>
      </trkpt>
      <trkpt lat="43.52347" lon="6.40766">
        <ele>243.2</ele>
        <time>2021-04-18T08:53:39Z</time>
      </trkpt>
      <trkpt lat="43.52342" lon="6.40768">
        <ele>243.1</ele>
        <time>2021-04-18T08:53:44Z</time>
      </trkpt>
      <trkpt lat="43.52337" lon="6.4077">
        <ele>242.9</ele>
        <time>2021-04-18T08:53:51Z</time>
      </trkpt>
      <trkpt lat="43.52332" lon="6.40772">
        <ele>242.9</ele>
        <time>2021-04-18T08:53:55Z</time>
      </trkpt>
      <trkpt lat="43.52327" lon="6.40773">
        <ele>242.9</ele>
        <time>2021-04-18T08:53:59Z</time>
      </trkpt>
      <trkpt lat="43.52323" lon="6.40778">
        <ele>242.9</ele>
        <time>2021-04-18T08:54:03Z</time>
      </trkpt>
      <trkpt lat="43.52318" lon="6.4078">
        <ele>242.9</ele>
        <time>2021-04-18T08:54:08Z</time>
      </trkpt>
      <trkpt lat="43.52313" lon="6.40782">
        <ele>242.9</ele>
        <time>2021-04-18T08:54:12Z</time>
      </trkpt>
      <trkpt lat="43.52308" lon="6.40785">
        <ele>242.9</ele>
        <time>2021-04-18T08:54:17Z</time>
      </trkpt>
      <trkpt lat="43.52304" lon="6.40787">
        <ele>242.9</ele>
        <time>2021-04-18T08:54:21Z</time>
      </trkpt>
      <trkpt lat="43.52299" lon="6.40789">
        <ele>242.9</ele>
        <time>2021-04-18T08:54:26Z</time>
      </trkpt>
      <trkpt lat="43.52295" lon="6.40792">
        <ele>242.9</ele>
        <time>2021-04-18T08:54:30Z</time>
      </trkpt>
      <trkpt lat="43.5229" lon="6.40796">
        <ele>243.1</ele>
        <time>2021-04-18T08:54:34Z</time>
      </trkpt>
      <trkpt lat="43.52285" lon="6.40799">
        <ele>243</ele>
        <time>2021-04-18T08:54:38Z</time>
      </trkpt>
      <trkpt lat="43.5228" lon="6.40801">
        <ele>242.9</ele>
        <time>2021-04-18T08:54:43Z</time>
      </trkpt>
      <trkpt lat="43.52274" lon="6.40803">
        <ele>243</ele>
        <time>2021-04-18T08:54:47Z</time>
      </trkpt>
      <trkpt lat="43.5227" lon="6.40805">
        <ele>242.9</ele>
        <time>2021-04-18T08:54:53Z</time>
      </trkpt>
      <trkpt lat="43.52265" lon="6.4081">
        <ele>242.9</ele>
        <time>2021-04-18T08:54:57Z</time>
      </trkpt>
      <trkpt lat="43.5226" lon="6.40812">
        <ele>242.8</ele>
        <time>2021-04-18T08:55:00Z</time>
      </trkpt>
      <trkpt lat="43.52256" lon="6.40816">
        <ele>242.7</ele>
        <time>2021-04-18T08:55:06Z</time>
      </trkpt>
      <trkpt lat="43.52251" lon="6.4082">
        <ele>242.6</ele>
        <time>2021-04-18T08:55:10Z</time>
      </trkpt>
      <trkpt lat="43.52246" lon="6.40823">
        <ele>242.6</ele>
        <time>2021-04-18T08:55:15Z</time>
      </trkpt>
      <trkpt lat="43.5224" lon="6.40824">
        <ele>242.6</ele>
        <time>2021-04-18T08:55:18Z</time>
      </trkpt>
      <trkpt lat="43.52235" lon="6.40822">
        <ele>242.6</ele>
        <time>2021-04-18T08:55:22Z</time>
      </trkpt>
      <trkpt lat="43.52231" lon="6.40825">
        <ele>242.5</ele>
        <time>2021-04-18T08:55:27Z</time>
      </trkpt>
      <trkpt lat="43.52226" lon="6.40829">
        <ele>242.5</ele>
        <time>2021-04-18T08:55:31Z</time>
      </trkpt>
      <trkpt lat="43.52221" lon="6.40831">
        <ele>242.4</ele>
        <time>2021-04-18T08:55:34Z</time>
      </trkpt>
      <trkpt lat="43.52217" lon="6.40835">
        <ele>242.4</ele>
        <time>2021-04-18T08:55:39Z</time>
      </trkpt>
      <trkpt lat="43.52211" lon="6.40837">
        <ele>242.4</ele>
        <time>2021-04-18T08:55:43Z</time>
      </trkpt>
      <trkpt lat="43.52206" lon="6.40837">
        <ele>242.4</ele>
        <time>2021-04-18T08:55:48Z</time>
      </trkpt>
      <trkpt lat="43.52201" lon="6.40839">
        <ele>242.4</ele>
        <time>2021-04-18T08:55:52Z</time>
      </trkpt>
      <trkpt lat="43.52195" lon="6.40839">
        <ele>242.3</ele>
        <time>2021-04-18T08:55:55Z</time>
      </trkpt>
      <trkpt lat="43.5219" lon="6.4084">
        <ele>242.3</ele>
        <time>2021-04-18T08:55:59Z</time>
      </trkpt>
      <trkpt lat="43.52185" lon="6.40841">
        <ele>242.3</ele>
        <time>2021-04-18T08:56:03Z</time>
      </trkpt>
      <trkpt lat="43.5218" lon="6.40841">
        <ele>242.2</ele>
        <time>2021-04-18T08:56:07Z</time>
      </trkpt>
      <trkpt lat="43.52175" lon="6.40843">
        <ele>242.1</ele>
        <time>2021-04-18T08:56:11Z</time>
      </trkpt>
      <trkpt lat="43.5217" lon="6.40843">
        <ele>242.1</ele>
        <time>2021-04-18T08:56:15Z</time>
      </trkpt>
      <trkpt lat="43.52166" lon="6.40844">
        <ele>242.1</ele>
        <time>2021-04-18T08:56:19Z</time>
      </trkpt>
      <trkpt lat="43.52161" lon="6.40844">
        <ele>242</ele>
        <time>2021-04-18T08:56:24Z</time>
      </trkpt>
      <trkpt lat="43.52156" lon="6.40843">
        <ele>242</ele>
        <time>2021-04-18T08:56:28Z</time>
      </trkpt>
      <trkpt lat="43.52151" lon="6.40844">
        <ele>242</ele>
        <time>2021-04-18T08:56:33Z</time>
      </trkpt>
      <trkpt lat="43.52147" lon="6.40848">
        <ele>242</ele>
        <time>2021-04-18T08:56:36Z</time>
      </trkpt>
      <trkpt lat="43.52142" lon="6.40849">
        <ele>242</ele>
        <time>2021-04-18T08:56:40Z</time>
      </trkpt>
      <trkpt lat="43.52137" lon="6.40848">
        <ele>242</ele>
        <time>2021-04-18T08:56:45Z</time>
      </trkpt>
      <trkpt lat="43.52131" lon="6.40849">
        <ele>242.2</ele>
        <time>2021-04-18T08:56:49Z</time>
      </trkpt>
      <trkpt lat="43.52126" lon="6.40848">
        <ele>242.3</ele>
        <time>2021-04-18T08:56:54Z</time>
      </trkpt>
      <trkpt lat="43.52121" lon="6.40851">
        <ele>242.4</ele>
        <time>2021-04-18T08:56:59Z</time>
      </trkpt>
      <trkpt lat="43.52114" lon="6.40852">
        <ele>242.4</ele>
        <time>2021-04-18T08:57:02Z</time>
      </trkpt>
      <trkpt lat="43.5211" lon="6.4085">
        <ele>242.4</ele>
        <time>2021-04-18T08:57:06Z</time>
      </trkpt>
      <trkpt lat="43.52107" lon="6.40844">
        <ele>242.4</ele>
        <time>2021-04-18T08:57:10Z</time>
      </trkpt>
      <trkpt lat="43.52103" lon="6.40841">
        <ele>242.4</ele>
        <time>2021-04-18T08:57:14Z</time>
      </trkpt>
      <trkpt lat="43.52099" lon="6.40838">
        <ele>242.4</ele>
        <time>2021-04-18T08:57:17Z</time>
      </trkpt>
      <trkpt lat="43.52095" lon="6.40835">
        <ele>242.4</ele>
        <time>2021-04-18T08:57:20Z</time>
      </trkpt>
      <trkpt lat="43.52091" lon="6.40831">
        <ele>242.3</ele>
        <time>2021-04-18T08:57:24Z</time>
      </trkpt>
      <trkpt lat="43.52086" lon="6.4083">
        <ele>242.2</ele>
        <time>2021-04-18T08:57:27Z</time>
      </trkpt>
      <trkpt lat="43.52081" lon="6.40827">
        <ele>242.1</ele>
        <time>2021-04-18T08:57:31Z</time>
      </trkpt>
      <trkpt lat="43.52078" lon="6.40821">
        <ele>242</ele>
        <time>2021-04-18T08:57:34Z</time>
      </trkpt>
      <trkpt lat="43.52075" lon="6.40815">
        <ele>241.9</ele>
        <time>2021-04-18T08:57:38Z</time>
      </trkpt>
      <trkpt lat="43.52072" lon="6.4081">
        <ele>241.9</ele>
        <time>2021-04-18T08:57:41Z</time>
      </trkpt>
      <trkpt lat="43.52068" lon="6.40805">
        <ele>241.9</ele>
        <time>2021-04-18T08:57:44Z</time>
      </trkpt>
      <trkpt lat="43.52066" lon="6.408">
        <ele>241.8</ele>
        <time>2021-04-18T08:57:47Z</time>
      </trkpt>
      <trkpt lat="43.52062" lon="6.40795">
        <ele>241.8</ele>
        <time>2021-04-18T08:57:52Z</time>
      </trkpt>
      <trkpt lat="43.52058" lon="6.4079">
        <ele>241.8</ele>
        <time>2021-04-18T08:57:57Z</time>
      </trkpt>
      <trkpt lat="43.52053" lon="6.40786">
        <ele>241.8</ele>
        <time>2021-04-18T08:58:01Z</time>
      </trkpt>
      <trkpt lat="43.52048" lon="6.40781">
        <ele>241.7</ele>
        <time>2021-04-18T08:58:05Z</time>
      </trkpt>
      <trkpt lat="43.52045" lon="6.40776">
        <ele>241.7</ele>
        <time>2021-04-18T08:58:09Z</time>
      </trkpt>
      <trkpt lat="43.52041" lon="6.40773">
        <ele>241.7</ele>
        <time>2021-04-18T08:58:13Z</time>
      </trkpt>
      <trkpt lat="43.52036" lon="6.40771">
        <ele>241.7</ele>
        <time>2021-04-18T08:58:16Z</time>
      </trkpt>
      <trkpt lat="43.52033" lon="6.40766">
        <ele>241.6</ele>
        <time>2021-04-18T08:58:20Z</time>
      </trkpt>
      <trkpt lat="43.52028" lon="6.40763">
        <ele>241.6</ele>
        <time>2021-04-18T08:58:24Z</time>
      </trkpt>
      <trkpt lat="43.52023" lon="6.40762">
        <ele>241.6</ele>
        <time>2021-04-18T08:58:28Z</time>
      </trkpt>
      <trkpt lat="43.52019" lon="6.40758">
        <ele>241.6</ele>
        <time>2021-04-18T08:58:32Z</time>
      </trkpt>
      <trkpt lat="43.52013" lon="6.40756">
        <ele>241.5</ele>
        <time>2021-04-18T08:58:36Z</time>
      </trkpt>
      <trkpt lat="43.52009" lon="6.40755">
        <ele>241.5</ele>
        <time>2021-04-18T08:58:39Z</time>
      </trkpt>
      <trkpt lat="43.52004" lon="6.4075">
        <ele>241.5</ele>
        <time>2021-04-18T08:58:43Z</time>
      </trkpt>
      <trkpt lat="43.51999" lon="6.40747">
        <ele>241.5</ele>
        <time>2021-04-18T08:58:47Z</time>
      </trkpt>
      <trkpt lat="43.51996" lon="6.40742">
        <ele>241.5</ele>
        <time>2021-04-18T08:58:51Z</time>
      </trkpt>
      <trkpt lat="43.51993" lon="6.40736">
        <ele>241.4</ele>
        <time>2021-04-18T08:58:55Z</time>
      </trkpt>
      <trkpt lat="43.51988" lon="6.40735">
        <ele>241.2</ele>
        <time>2021-04-18T08:58:59Z</time>
      </trkpt>
      <trkpt lat="43.51984" lon="6.40731">
        <ele>241.2</ele>
        <time>2021-04-18T08:59:03Z</time>
      </trkpt>
      <trkpt lat="43.51979" lon="6.40727">
        <ele>241.1</ele>
        <time>2021-04-18T08:59:07Z</time>
      </trkpt>
      <trkpt lat="43.51973" lon="6.40728">
        <ele>240.9</ele>
        <time>2021-04-18T08:59:11Z</time>
      </trkpt>
      <trkpt lat="43.51968" lon="6.40726">
        <ele>240.9</ele>
        <time>2021-04-18T08:59:15Z</time>
      </trkpt>
      <trkpt lat="43.51964" lon="6.40724">
        <ele>240.9</ele>
        <time>2021-04-18T08:59:19Z</time>
      </trkpt>
      <trkpt lat="43.5196" lon="6.4072">
        <ele>240.9</ele>
        <time>2021-04-18T08:59:23Z</time>
      </trkpt>
      <trkpt lat="43.51955" lon="6.40715">
        <ele>240.9</ele>
        <time>2021-04-18T08:59:27Z</time>
      </trkpt>
      <trkpt lat="43.5195" lon="6.40713">
        <ele>240.9</ele>
        <time>2021-04-18T08:59:31Z</time>
      </trkpt>
      <trkpt lat="43.51946" lon="6.40709">
        <ele>241</ele>
        <time>2021-04-18T08:59:35Z</time>
      </trkpt>
      <trkpt lat="43.51941" lon="6.40706">
        <ele>241</ele>
        <time>2021-04-18T08:59:40Z</time>
      </trkpt>
      <trkpt lat="43.51936" lon="6.40706">
        <ele>241</ele>
        <time>2021-04-18T08:59:43Z</time>
      </trkpt>
      <trkpt lat="43.51931" lon="6.40703">
        <ele>241</ele>
        <time>2021-04-18T08:59:46Z</time>
      </trkpt>
      <trkpt lat="43.51926" lon="6.40703">
        <ele>241</ele>
        <time>2021-04-18T08:59:49Z</time>
      </trkpt>
      <trkpt lat="43.51922" lon="6.407">
        <ele>241</ele>
        <time>2021-04-18T08:59:54Z</time>
      </trkpt>
      <trkpt lat="43.51917" lon="6.40698">
        <ele>241</ele>
        <time>2021-04-18T08:59:58Z</time>
      </trkpt>
      <trkpt lat="43.51913" lon="6.40697">
        <ele>241.1</ele>
        <time>2021-04-18T09:00:01Z</time>
      </trkpt>
      <trkpt lat="43.51907" lon="6.40696">
        <ele>241.1</ele>
        <time>2021-04-18T09:00:04Z</time>
      </trkpt>
      <trkpt lat="43.51902" lon="6.40698">
        <ele>241.1</ele>
        <time>2021-04-18T09:00:08Z</time>
      </trkpt>
      <trkpt lat="43.51897" lon="6.40698">
        <ele>241</ele>
        <time>2021-04-18T09:00:12Z</time>
      </trkpt>
      <trkpt lat="43.51892" lon="6.40698">
        <ele>241</ele>
        <time>2021-04-18T09:00:15Z</time>
      </trkpt>
      <trkpt lat="43.51886" lon="6.40697">
        <ele>240.9</ele>
        <time>2021-04-18T09:00:19Z</time>
      </trkpt>
      <trkpt lat="43.5188" lon="6.40697">
        <ele>240.9</ele>
        <time>2021-04-18T09:00:25Z</time>
      </trkpt>
      <trkpt lat="43.51875" lon="6.40695">
        <ele>240.8</ele>
        <time>2021-04-18T09:00:29Z</time>
      </trkpt>
      <trkpt lat="43.51871" lon="6.40694">
        <ele>240.8</ele>
        <time>2021-04-18T09:00:34Z</time>
      </trkpt>
      <trkpt lat="43.51866" lon="6.40695">
        <ele>240.5</ele>
        <time>2021-04-18T09:00:38Z</time>
      </trkpt>
      <trkpt lat="43.51861" lon="6.40695">
        <ele>240.5</ele>
        <time>2021-04-18T09:00:41Z</time>
      </trkpt>
      <trkpt lat="43.51857" lon="6.40693">
        <ele>240.5</ele>
        <time>2021-04-18T09:00:44Z</time>
      </trkpt>
      <trkpt lat="43.51852" lon="6.40692">
        <ele>240.5</ele>
        <time>2021-04-18T09:00:50Z</time>
      </trkpt>
      <trkpt lat="43.51846" lon="6.40692">
        <ele>240.5</ele>
        <time>2021-04-18T09:00:54Z</time>
      </trkpt>
      <trkpt lat="43.5184" lon="6.40692">
        <ele>240.5</ele>
        <time>2021-04-18T09:00:57Z</time>
      </trkpt>
      <trkpt lat="43.51836" lon="6.4069">
        <ele>240.5</ele>
        <time>2021-04-18T09:01:04Z</time>
      </trkpt>
      <trkpt lat="43.5183" lon="6.4069">
        <ele>240.5</ele>
        <time>2021-04-18T09:01:08Z</time>
      </trkpt>
      <trkpt lat="43.51827" lon="6.40693">
        <ele>240.5</ele>
        <time>2021-04-18T09:01:10Z</time>
      </trkpt>
      <trkpt lat="43.51822" lon="6.40693">
        <ele>240.4</ele>
        <time>2021-04-18T09:01:14Z</time>
      </trkpt>
      <trkpt lat="43.51816" lon="6.40693">
        <ele>240.4</ele>
        <time>2021-04-18T09:01:19Z</time>
      </trkpt>
      <trkpt lat="43.51812" lon="6.40692">
        <ele>240.4</ele>
        <time>2021-04-18T09:01:24Z</time>
      </trkpt>
      <trkpt lat="43.51808" lon="6.40689">
        <ele>240.4</ele>
        <time>2021-04-18T09:01:27Z</time>
      </trkpt>
      <trkpt lat="43.51803" lon="6.40689">
        <ele>240.4</ele>
        <time>2021-04-18T09:01:31Z</time>
      </trkpt>
      <trkpt lat="43.51798" lon="6.40688">
        <ele>240.4</ele>
        <time>2021-04-18T09:01:35Z</time>
      </trkpt>
      <trkpt lat="43.51793" lon="6.40689">
        <ele>240.4</ele>
        <time>2021-04-18T09:01:39Z</time>
      </trkpt>
      <trkpt lat="43.51787" lon="6.4069">
        <ele>240.3</ele>
        <time>2021-04-18T09:01:43Z</time>
      </trkpt>
      <trkpt lat="43.51783" lon="6.40691">
        <ele>240.2</ele>
        <time>2021-04-18T09:01:48Z</time>
      </trkpt>
      <trkpt lat="43.51778" lon="6.40691">
        <ele>240.2</ele>
        <time>2021-04-18T09:01:51Z</time>
      </trkpt>
      <trkpt lat="43.51773" lon="6.40691">
        <ele>240.1</ele>
        <time>2021-04-18T09:01:54Z</time>
      </trkpt>
      <trkpt lat="43.51768" lon="6.40692">
        <ele>240.1</ele>
        <time>2021-04-18T09:01:57Z</time>
      </trkpt>
      <trkpt lat="43.51763" lon="6.40692">
        <ele>240</ele>
        <time>2021-04-18T09:02:02Z</time>
      </trkpt>
      <trkpt lat="43.51758" lon="6.4069">
        <ele>239.9</ele>
        <time>2021-04-18T09:02:06Z</time>
      </trkpt>
      <trkpt lat="43.51752" lon="6.40689">
        <ele>239.9</ele>
        <time>2021-04-18T09:02:09Z</time>
      </trkpt>
      <trkpt lat="43.51747" lon="6.40688">
        <ele>239.8</ele>
        <time>2021-04-18T09:02:11Z</time>
      </trkpt>
      <trkpt lat="43.51743" lon="6.40686">
        <ele>239.8</ele>
        <time>2021-04-18T09:02:16Z</time>
      </trkpt>
      <trkpt lat="43.51738" lon="6.40683">
        <ele>239.8</ele>
        <time>2021-04-18T09:02:20Z</time>
      </trkpt>
      <trkpt lat="43.51733" lon="6.40681">
        <ele>239.7</ele>
        <time>2021-04-18T09:02:24Z</time>
      </trkpt>
      <trkpt lat="43.51728" lon="6.40681">
        <ele>239.7</ele>
        <time>2021-04-18T09:02:28Z</time>
      </trkpt>
      <trkpt lat="43.51724" lon="6.40679">
        <ele>239.6</ele>
        <time>2021-04-18T09:02:32Z</time>
      </trkpt>
      <trkpt lat="43.51719" lon="6.40677">
        <ele>239.4</ele>
        <time>2021-04-18T09:02:36Z</time>
      </trkpt>
      <trkpt lat="43.51715" lon="6.40678">
        <ele>239.3</ele>
        <time>2021-04-18T09:02:40Z</time>
      </trkpt>
      <trkpt lat="43.51709" lon="6.40676">
        <ele>239</ele>
        <time>2021-04-18T09:02:48Z</time>
      </trkpt>
      <trkpt lat="43.51704" lon="6.40674">
        <ele>239</ele>
        <time>2021-04-18T09:02:54Z</time>
      </trkpt>
      <trkpt lat="43.51699" lon="6.40674">
        <ele>238.9</ele>
        <time>2021-04-18T09:02:57Z</time>
      </trkpt>
      <trkpt lat="43.51694" lon="6.40673">
        <ele>238.9</ele>
        <time>2021-04-18T09:03:00Z</time>
      </trkpt>
      <trkpt lat="43.51689" lon="6.40672">
        <ele>238.7</ele>
        <time>2021-04-18T09:03:04Z</time>
      </trkpt>
      <trkpt lat="43.51685" lon="6.40671">
        <ele>238.6</ele>
        <time>2021-04-18T09:03:07Z</time>
      </trkpt>
      <trkpt lat="43.5168" lon="6.40669">
        <ele>238.5</ele>
        <time>2021-04-18T09:03:11Z</time>
      </trkpt>
      <trkpt lat="43.51676" lon="6.40665">
        <ele>238.3</ele>
        <time>2021-04-18T09:03:16Z</time>
      </trkpt>
      <trkpt lat="43.51675" lon="6.40658">
        <ele>238.2</ele>
        <time>2021-04-18T09:03:21Z</time>
      </trkpt>
      <trkpt lat="43.51669" lon="6.40662">
        <ele>237.9</ele>
        <time>2021-04-18T09:03:32Z</time>
      </trkpt>
      <trkpt lat="43.51665" lon="6.40667">
        <ele>237.6</ele>
        <time>2021-04-18T09:03:37Z</time>
      </trkpt>
      <trkpt lat="43.51662" lon="6.40672">
        <ele>237.6</ele>
        <time>2021-04-18T09:03:41Z</time>
      </trkpt>
      <trkpt lat="43.51661" lon="6.40678">
        <ele>237.7</ele>
        <time>2021-04-18T09:03:44Z</time>
      </trkpt>
      <trkpt lat="43.51603" lon="6.40596">
        <ele>237</ele>
        <time>2021-04-18T09:04:22Z</time>
      </trkpt>
      <trkpt lat="43.51585" lon="6.40577">
        <ele>237.8</ele>
        <time>2021-04-18T09:04:38Z</time>
      </trkpt>
      <trkpt lat="43.51578" lon="6.40579">
        <ele>237</ele>
        <time>2021-04-18T09:04:41Z</time>
      </trkpt>
      <trkpt lat="43.51573" lon="6.40579">
        <ele>237.7</ele>
        <time>2021-04-18T09:04:44Z</time>
      </trkpt>
      <trkpt lat="43.51569" lon="6.40577">
        <ele>237.6</ele>
        <time>2021-04-18T09:04:46Z</time>
      </trkpt>
      <trkpt lat="43.51564" lon="6.40574">
        <ele>237.5</ele>
        <time>2021-04-18T09:04:50Z</time>
      </trkpt>
      <trkpt lat="43.51567" lon="6.40568">
        <ele>237.5</ele>
        <time>2021-04-18T09:04:54Z</time>
      </trkpt>
      <trkpt lat="43.51568" lon="6.4056">
        <ele>237.7</ele>
        <time>2021-04-18T09:05:04Z</time>
      </trkpt>
      <trkpt lat="43.51569" lon="6.40552">
        <ele>237.8</ele>
        <time>2021-04-18T09:05:07Z</time>
      </trkpt>
      <trkpt lat="43.5157" lon="6.40546">
        <ele>237.9</ele>
        <time>2021-04-18T09:05:11Z</time>
      </trkpt>
      <trkpt lat="43.51568" lon="6.4054">
        <ele>237.9</ele>
        <time>2021-04-18T09:05:15Z</time>
      </trkpt>
      <trkpt lat="43.51569" lon="6.40532">
        <ele>237.9</ele>
        <time>2021-04-18T09:05:19Z</time>
      </trkpt>
      <trkpt lat="43.5157" lon="6.40525">
        <ele>237.9</ele>
        <time>2021-04-18T09:05:24Z</time>
      </trkpt>
      <trkpt lat="43.51569" lon="6.40518">
        <ele>238</ele>
        <time>2021-04-18T09:05:29Z</time>
      </trkpt>
      <trkpt lat="43.51568" lon="6.40511">
        <ele>238</ele>
        <time>2021-04-18T09:05:32Z</time>
      </trkpt>
      <trkpt lat="43.51567" lon="6.40504">
        <ele>238</ele>
        <time>2021-04-18T09:05:36Z</time>
      </trkpt>
      <trkpt lat="43.51568" lon="6.40495">
        <ele>238</ele>
        <time>2021-04-18T09:05:39Z</time>
      </trkpt>
      <trkpt lat="43.51571" lon="6.40489">
        <ele>238</ele>
        <time>2021-04-18T09:05:42Z</time>
      </trkpt>
      <trkpt lat="43.5157" lon="6.40482">
        <ele>237.8</ele>
        <time>2021-04-18T09:05:48Z</time>
      </trkpt>
      <trkpt lat="43.5157" lon="6.40475">
        <ele>237.7</ele>
        <time>2021-04-18T09:05:51Z</time>
      </trkpt>
      <trkpt lat="43.5157" lon="6.40469">
        <ele>237.7</ele>
        <time>2021-04-18T09:05:54Z</time>
      </trkpt>
      <trkpt lat="43.51568" lon="6.40461">
        <ele>237.7</ele>
        <time>2021-04-18T09:05:58Z</time>
      </trkpt>
      <trkpt lat="43.51566" lon="6.40454">
        <ele>237.8</ele>
        <time>2021-04-18T09:06:06Z</time>
      </trkpt>
      <trkpt lat="43.51564" lon="6.40448">
        <ele>237.9</ele>
        <time>2021-04-18T09:06:10Z</time>
      </trkpt>
      <trkpt lat="43.51561" lon="6.40443">
        <ele>237.9</ele>
        <time>2021-04-18T09:06:14Z</time>
      </trkpt>
      <trkpt lat="43.51561" lon="6.40436">
        <ele>238</ele>
        <time>2021-04-18T09:06:18Z</time>
      </trkpt>
      <trkpt lat="43.51559" lon="6.40431">
        <ele>238</ele>
        <time>2021-04-18T09:06:23Z</time>
      </trkpt>
      <trkpt lat="43.51557" lon="6.40425">
        <ele>238</ele>
        <time>2021-04-18T09:06:26Z</time>
      </trkpt>
      <trkpt lat="43.51558" lon="6.40418">
        <ele>238</ele>
        <time>2021-04-18T09:06:28Z</time>
      </trkpt>
      <trkpt lat="43.51559" lon="6.40411">
        <ele>237.9</ele>
        <time>2021-04-18T09:06:31Z</time>
      </trkpt>
      <trkpt lat="43.51558" lon="6.40404">
        <ele>237.8</ele>
        <time>2021-04-18T09:06:35Z</time>
      </trkpt>
      <trkpt lat="43.51554" lon="6.404">
        <ele>237.7</ele>
        <time>2021-04-18T09:06:40Z</time>
      </trkpt>
      <trkpt lat="43.51549" lon="6.40397">
        <ele>237.7</ele>
        <time>2021-04-18T09:06:43Z</time>
      </trkpt>
      <trkpt lat="43.51544" lon="6.40392">
        <ele>237.6</ele>
        <time>2021-04-18T09:06:46Z</time>
      </trkpt>
      <trkpt lat="43.5154" lon="6.40389">
        <ele>237.6</ele>
        <time>2021-04-18T09:06:48Z</time>
      </trkpt>
      <trkpt lat="43.51533" lon="6.40388">
        <ele>237.6</ele>
        <time>2021-04-18T09:06:50Z</time>
      </trkpt>
      <trkpt lat="43.51529" lon="6.40384">
        <ele>237.4</ele>
        <time>2021-04-18T09:06:56Z</time>
      </trkpt>
      <trkpt lat="43.51527" lon="6.40377">
        <ele>237.3</ele>
        <time>2021-04-18T09:07:00Z</time>
      </trkpt>
      <trkpt lat="43.51526" lon="6.4037">
        <ele>237.2</ele>
        <time>2021-04-18T09:07:03Z</time>
      </trkpt>
      <trkpt lat="43.51527" lon="6.40364">
        <ele>237.1</ele>
        <time>2021-04-18T09:07:05Z</time>
      </trkpt>
      <trkpt lat="43.51527" lon="6.40355">
        <ele>237.1</ele>
        <time>2021-04-18T09:07:08Z</time>
      </trkpt>
      <trkpt lat="43.51527" lon="6.40347">
        <ele>237</ele>
        <time>2021-04-18T09:07:12Z</time>
      </trkpt>
      <trkpt lat="43.51525" lon="6.40342">
        <ele>237</ele>
        <time>2021-04-18T09:07:18Z</time>
      </trkpt>
      <trkpt lat="43.51524" lon="6.40336">
        <ele>236.9</ele>
        <time>2021-04-18T09:07:21Z</time>
      </trkpt>
      <trkpt lat="43.51524" lon="6.40329">
        <ele>236.9</ele>
        <time>2021-04-18T09:07:23Z</time>
      </trkpt>
      <trkpt lat="43.51525" lon="6.40321">
        <ele>236.9</ele>
        <time>2021-04-18T09:07:26Z</time>
      </trkpt>
      <trkpt lat="43.51523" lon="6.40314">
        <ele>236.9</ele>
        <time>2021-04-18T09:07:30Z</time>
      </trkpt>
      <trkpt lat="43.51521" lon="6.40308">
        <ele>236.9</ele>
        <time>2021-04-18T09:07:33Z</time>
      </trkpt>
      <trkpt lat="43.51521" lon="6.403">
        <ele>236.9</ele>
        <time>2021-04-18T09:07:36Z</time>
      </trkpt>
      <trkpt lat="43.51522" lon="6.40294">
        <ele>236.9</ele>
        <time>2021-04-18T09:07:38Z</time>
      </trkpt>
      <trkpt lat="43.51521" lon="6.40288">
        <ele>236.9</ele>
        <time>2021-04-18T09:07:41Z</time>
      </trkpt>
      <trkpt lat="43.51518" lon="6.40282">
        <ele>236.9</ele>
        <time>2021-04-18T09:07:50Z</time>
      </trkpt>
      <trkpt lat="43.51518" lon="6.40274">
        <ele>236</ele>
        <time>2021-04-18T09:07:56Z</time>
      </trkpt>
      <trkpt lat="43.51526" lon="6.40251">
        <ele>236</ele>
        <time>2021-04-18T09:08:21Z</time>
      </trkpt>
      <trkpt lat="43.51551" lon="6.40111">
        <ele>236</ele>
        <time>2021-04-18T09:09:31Z</time>
      </trkpt>
      <trkpt lat="43.51557" lon="6.4011">
        <ele>236</ele>
        <time>2021-04-18T09:09:37Z</time>
      </trkpt>
      <trkpt lat="43.51561" lon="6.40104">
        <ele>236</ele>
        <time>2021-04-18T09:09:41Z</time>
      </trkpt>
      <trkpt lat="43.51564" lon="6.40097">
        <ele>236</ele>
        <time>2021-04-18T09:09:45Z</time>
      </trkpt>
      <trkpt lat="43.51563" lon="6.40089">
        <ele>236.5</ele>
        <time>2021-04-18T09:09:49Z</time>
      </trkpt>
      <trkpt lat="43.51564" lon="6.40081">
        <ele>236.5</ele>
        <time>2021-04-18T09:09:53Z</time>
      </trkpt>
      <trkpt lat="43.51571" lon="6.40071">
        <ele>236</ele>
        <time>2021-04-18T09:09:59Z</time>
      </trkpt>
      <trkpt lat="43.51577" lon="6.40066">
        <ele>236</ele>
        <time>2021-04-18T09:10:07Z</time>
      </trkpt>
      <trkpt lat="43.51586" lon="6.40064">
        <ele>236</ele>
        <time>2021-04-18T09:10:13Z</time>
      </trkpt>
      <trkpt lat="43.51592" lon="6.40061">
        <ele>236</ele>
        <time>2021-04-18T09:10:19Z</time>
      </trkpt>
      <trkpt lat="43.51592" lon="6.40054">
        <ele>236.4</ele>
        <time>2021-04-18T09:10:22Z</time>
      </trkpt>
      <trkpt lat="43.51592" lon="6.40045">
        <ele>236.4</ele>
        <time>2021-04-18T09:10:25Z</time>
      </trkpt>
      <trkpt lat="43.51593" lon="6.40037">
        <ele>236.4</ele>
        <time>2021-04-18T09:10:28Z</time>
      </trkpt>
      <trkpt lat="43.51595" lon="6.4003">
        <ele>236.4</ele>
        <time>2021-04-18T09:10:33Z</time>
      </trkpt>
      <trkpt lat="43.516" lon="6.40028">
        <ele>236.4</ele>
        <time>2021-04-18T09:10:36Z</time>
      </trkpt>
      <trkpt lat="43.51604" lon="6.40023">
        <ele>236.4</ele>
        <time>2021-04-18T09:10:40Z</time>
      </trkpt>
      <trkpt lat="43.51608" lon="6.40019">
        <ele>236.4</ele>
        <time>2021-04-18T09:10:48Z</time>
      </trkpt>
      <trkpt lat="43.51611" lon="6.40012">
        <ele>236.4</ele>
        <time>2021-04-18T09:10:52Z</time>
      </trkpt>
      <trkpt lat="43.51612" lon="6.40006">
        <ele>236.3</ele>
        <time>2021-04-18T09:10:56Z</time>
      </trkpt>
      <trkpt lat="43.51612" lon="6.39997">
        <ele>236.1</ele>
        <time>2021-04-18T09:11:03Z</time>
      </trkpt>
      <trkpt lat="43.51613" lon="6.39991">
        <ele>236</ele>
        <time>2021-04-18T09:11:07Z</time>
      </trkpt>
      <trkpt lat="43.51614" lon="6.39985">
        <ele>235.8</ele>
        <time>2021-04-18T09:11:14Z</time>
      </trkpt>
      <trkpt lat="43.51615" lon="6.39978">
        <ele>235.6</ele>
        <time>2021-04-18T09:11:18Z</time>
      </trkpt>
      <trkpt lat="43.51616" lon="6.39971">
        <ele>235.4</ele>
        <time>2021-04-18T09:11:21Z</time>
      </trkpt>
      <trkpt lat="43.51617" lon="6.39963">
        <ele>235.2</ele>
        <time>2021-04-18T09:11:25Z</time>
      </trkpt>
      <trkpt lat="43.51617" lon="6.39955">
        <ele>235.1</ele>
        <time>2021-04-18T09:11:29Z</time>
      </trkpt>
      <trkpt lat="43.51618" lon="6.39949">
        <ele>235</ele>
        <time>2021-04-18T09:11:33Z</time>
      </trkpt>
      <trkpt lat="43.51618" lon="6.39942">
        <ele>234.9</ele>
        <time>2021-04-18T09:11:36Z</time>
      </trkpt>
      <trkpt lat="43.51618" lon="6.39936">
        <ele>234.8</ele>
        <time>2021-04-18T09:11:40Z</time>
      </trkpt>
      <trkpt lat="43.51617" lon="6.39929">
        <ele>234.7</ele>
        <time>2021-04-18T09:11:44Z</time>
      </trkpt>
      <trkpt lat="43.51616" lon="6.39923">
        <ele>234.6</ele>
        <time>2021-04-18T09:11:48Z</time>
      </trkpt>
      <trkpt lat="43.51617" lon="6.39917">
        <ele>234.5</ele>
        <time>2021-04-18T09:11:53Z</time>
      </trkpt>
      <trkpt lat="43.51618" lon="6.39909">
        <ele>234.4</ele>
        <time>2021-04-18T09:11:59Z</time>
      </trkpt>
      <trkpt lat="43.51619" lon="6.39902">
        <ele>234.3</ele>
        <time>2021-04-18T09:12:03Z</time>
      </trkpt>
      <trkpt lat="43.51618" lon="6.39895">
        <ele>234.3</ele>
        <time>2021-04-18T09:12:06Z</time>
      </trkpt>
      <trkpt lat="43.51616" lon="6.39887">
        <ele>234.3</ele>
        <time>2021-04-18T09:12:09Z</time>
      </trkpt>
      <trkpt lat="43.51615" lon="6.39881">
        <ele>234.3</ele>
        <time>2021-04-18T09:12:13Z</time>
      </trkpt>
      <trkpt lat="43.51613" lon="6.39873">
        <ele>234.4</ele>
        <time>2021-04-18T09:12:18Z</time>
      </trkpt>
      <trkpt lat="43.51612" lon="6.39866">
        <ele>234.5</ele>
        <time>2021-04-18T09:12:22Z</time>
      </trkpt>
      <trkpt lat="43.51607" lon="6.39867">
        <ele>234.7</ele>
        <time>2021-04-18T09:12:40Z</time>
      </trkpt>
      <trkpt lat="43.51602" lon="6.39865">
        <ele>234.9</ele>
        <time>2021-04-18T09:13:19Z</time>
      </trkpt>
      <trkpt lat="43.51607" lon="6.39864">
        <ele>234.9</ele>
        <time>2021-04-18T09:13:26Z</time>
      </trkpt>
      <trkpt lat="43.51605" lon="6.39859">
        <ele>235</ele>
        <time>2021-04-18T09:13:36Z</time>
      </trkpt>
      <trkpt lat="43.51601" lon="6.39854">
        <ele>235</ele>
        <time>2021-04-18T09:13:40Z</time>
      </trkpt>
      <trkpt lat="43.51601" lon="6.39845">
        <ele>235.1</ele>
        <time>2021-04-18T09:13:44Z</time>
      </trkpt>
      <trkpt lat="43.51599" lon="6.39838">
        <ele>235.2</ele>
        <time>2021-04-18T09:13:48Z</time>
      </trkpt>
      <trkpt lat="43.51594" lon="6.39833">
        <ele>235.2</ele>
        <time>2021-04-18T09:13:51Z</time>
      </trkpt>
      <trkpt lat="43.51598" lon="6.39838">
        <ele>235</ele>
        <time>2021-04-18T09:14:02Z</time>
      </trkpt>
      <trkpt lat="43.51593" lon="6.39836">
        <ele>235.5</ele>
        <time>2021-04-18T09:14:10Z</time>
      </trkpt>
      <trkpt lat="43.51591" lon="6.3983">
        <ele>235.5</ele>
        <time>2021-04-18T09:14:15Z</time>
      </trkpt>
      <trkpt lat="43.51589" lon="6.39824">
        <ele>235.6</ele>
        <time>2021-04-18T09:14:20Z</time>
      </trkpt>
      <trkpt lat="43.51584" lon="6.39818">
        <ele>235.6</ele>
        <time>2021-04-18T09:14:24Z</time>
      </trkpt>
      <trkpt lat="43.51582" lon="6.39812">
        <ele>235.6</ele>
        <time>2021-04-18T09:14:31Z</time>
      </trkpt>
      <trkpt lat="43.51583" lon="6.39806">
        <ele>235.7</ele>
        <time>2021-04-18T09:14:35Z</time>
      </trkpt>
      <trkpt lat="43.51583" lon="6.39799">
        <ele>235.7</ele>
        <time>2021-04-18T09:14:40Z</time>
      </trkpt>
      <trkpt lat="43.5158" lon="6.39793">
        <ele>235.7</ele>
        <time>2021-04-18T09:14:44Z</time>
      </trkpt>
      <trkpt lat="43.51577" lon="6.39788">
        <ele>235</ele>
        <time>2021-04-18T09:14:47Z</time>
      </trkpt>
      <trkpt lat="43.51574" lon="6.39783">
        <ele>235</ele>
        <time>2021-04-18T09:14:51Z</time>
      </trkpt>
      <trkpt lat="43.51575" lon="6.39775">
        <ele>235.5</ele>
        <time>2021-04-18T09:14:57Z</time>
      </trkpt>
      <trkpt lat="43.51574" lon="6.39767">
        <ele>235.4</ele>
        <time>2021-04-18T09:15:03Z</time>
      </trkpt>
      <trkpt lat="43.51585" lon="6.39517">
        <ele>233</ele>
        <time>2021-04-18T09:16:49Z</time>
      </trkpt>
      <trkpt lat="43.5159" lon="6.39561">
        <ele>232</ele>
        <time>2021-04-18T09:16:57Z</time>
      </trkpt>
      <trkpt lat="43.51595" lon="6.39555">
        <ele>232</ele>
        <time>2021-04-18T09:17:05Z</time>
      </trkpt>
      <trkpt lat="43.51599" lon="6.39539">
        <ele>231</ele>
        <time>2021-04-18T09:17:11Z</time>
      </trkpt>
      <trkpt lat="43.51603" lon="6.39527">
        <ele>230</ele>
        <time>2021-04-18T09:17:24Z</time>
      </trkpt>
      <trkpt lat="43.51608" lon="6.39518">
        <ele>229</ele>
        <time>2021-04-18T09:17:30Z</time>
      </trkpt>
      <trkpt lat="43.5161" lon="6.3951">
        <ele>229</ele>
        <time>2021-04-18T09:17:34Z</time>
      </trkpt>
      <trkpt lat="43.51614" lon="6.39505">
        <ele>229</ele>
        <time>2021-04-18T09:17:38Z</time>
      </trkpt>
      <trkpt lat="43.51617" lon="6.39497">
        <ele>228.5</ele>
        <time>2021-04-18T09:17:53Z</time>
      </trkpt>
      <trkpt lat="43.51622" lon="6.39491">
        <ele>228</ele>
        <time>2021-04-18T09:17:59Z</time>
      </trkpt>
      <trkpt lat="43.51623" lon="6.39484">
        <ele>228.1</ele>
        <time>2021-04-18T09:18:04Z</time>
      </trkpt>
      <trkpt lat="43.51627" lon="6.39479">
        <ele>227.9</ele>
        <time>2021-04-18T09:18:09Z</time>
      </trkpt>
      <trkpt lat="43.5163" lon="6.39474">
        <ele>227.8</ele>
        <time>2021-04-18T09:18:13Z</time>
      </trkpt>
      <trkpt lat="43.51632" lon="6.39468">
        <ele>227.7</ele>
        <time>2021-04-18T09:18:18Z</time>
      </trkpt>
      <trkpt lat="43.51637" lon="6.39464">
        <ele>227.6</ele>
        <time>2021-04-18T09:18:23Z</time>
      </trkpt>
      <trkpt lat="43.5164" lon="6.39459">
        <ele>227.5</ele>
        <time>2021-04-18T09:18:26Z</time>
      </trkpt>
      <trkpt lat="43.51643" lon="6.39454">
        <ele>227.3</ele>
        <time>2021-04-18T09:18:33Z</time>
      </trkpt>
      <trkpt lat="43.51649" lon="6.39449">
        <ele>227</ele>
        <time>2021-04-18T09:18:39Z</time>
      </trkpt>
      <trkpt lat="43.51652" lon="6.39443">
        <ele>227.1</ele>
        <time>2021-04-18T09:18:43Z</time>
      </trkpt>
      <trkpt lat="43.51656" lon="6.39438">
        <ele>227</ele>
        <time>2021-04-18T09:18:48Z</time>
      </trkpt>
      <trkpt lat="43.5166" lon="6.39436">
        <ele>226.7</ele>
        <time>2021-04-18T09:18:52Z</time>
      </trkpt>
      <trkpt lat="43.51664" lon="6.39432">
        <ele>226.4</ele>
        <time>2021-04-18T09:18:56Z</time>
      </trkpt>
      <trkpt lat="43.51667" lon="6.39427">
        <ele>226.3</ele>
        <time>2021-04-18T09:18:59Z</time>
      </trkpt>
      <trkpt lat="43.51671" lon="6.39421">
        <ele>226.1</ele>
        <time>2021-04-18T09:19:02Z</time>
      </trkpt>
      <trkpt lat="43.51674" lon="6.39416">
        <ele>225.9</ele>
        <time>2021-04-18T09:19:08Z</time>
      </trkpt>
      <trkpt lat="43.51677" lon="6.3941">
        <ele>225.7</ele>
        <time>2021-04-18T09:19:12Z</time>
      </trkpt>
      <trkpt lat="43.51683" lon="6.39409">
        <ele>225.5</ele>
        <time>2021-04-18T09:19:16Z</time>
      </trkpt>
      <trkpt lat="43.51686" lon="6.39404">
        <ele>225.4</ele>
        <time>2021-04-18T09:19:19Z</time>
      </trkpt>
      <trkpt lat="43.5169" lon="6.394">
        <ele>225.2</ele>
        <time>2021-04-18T09:19:24Z</time>
      </trkpt>
      <trkpt lat="43.51695" lon="6.39397">
        <ele>225.1</ele>
        <time>2021-04-18T09:19:29Z</time>
      </trkpt>
      <trkpt lat="43.51701" lon="6.39393">
        <ele>225</ele>
        <time>2021-04-18T09:19:32Z</time>
      </trkpt>
      <trkpt lat="43.51707" lon="6.39387">
        <ele>224</ele>
        <time>2021-04-18T09:19:36Z</time>
      </trkpt>
      <trkpt lat="43.51711" lon="6.39381">
        <ele>224.8</ele>
        <time>2021-04-18T09:19:39Z</time>
      </trkpt>
      <trkpt lat="43.51712" lon="6.39375">
        <ele>224.7</ele>
        <time>2021-04-18T09:19:43Z</time>
      </trkpt>
      <trkpt lat="43.51716" lon="6.39371">
        <ele>224.5</ele>
        <time>2021-04-18T09:19:48Z</time>
      </trkpt>
      <trkpt lat="43.51717" lon="6.39364">
        <ele>224.4</ele>
        <time>2021-04-18T09:19:52Z</time>
      </trkpt>
      <trkpt lat="43.51721" lon="6.39358">
        <ele>224.3</ele>
        <time>2021-04-18T09:19:55Z</time>
      </trkpt>
      <trkpt lat="43.51724" lon="6.39352">
        <ele>224.2</ele>
        <time>2021-04-18T09:19:59Z</time>
      </trkpt>
      <trkpt lat="43.51727" lon="6.39345">
        <ele>224</ele>
        <time>2021-04-18T09:20:05Z</time>
      </trkpt>
      <trkpt lat="43.51728" lon="6.39337">
        <ele>223.7</ele>
        <time>2021-04-18T09:20:09Z</time>
      </trkpt>
      <trkpt lat="43.5173" lon="6.3933">
        <ele>223.5</ele>
        <time>2021-04-18T09:20:13Z</time>
      </trkpt>
      <trkpt lat="43.51732" lon="6.39323">
        <ele>223.3</ele>
        <time>2021-04-18T09:20:16Z</time>
      </trkpt>
      <trkpt lat="43.51734" lon="6.39316">
        <ele>223</ele>
        <time>2021-04-18T09:20:20Z</time>
      </trkpt>
      <trkpt lat="43.51735" lon="6.3931">
        <ele>222.8</ele>
        <time>2021-04-18T09:20:24Z</time>
      </trkpt>
      <trkpt lat="43.51737" lon="6.39304">
        <ele>222.6</ele>
        <time>2021-04-18T09:20:27Z</time>
      </trkpt>
      <trkpt lat="43.51736" lon="6.39298">
        <ele>222.4</ele>
        <time>2021-04-18T09:20:31Z</time>
      </trkpt>
      <trkpt lat="43.51736" lon="6.39291">
        <ele>222.1</ele>
        <time>2021-04-18T09:20:36Z</time>
      </trkpt>
      <trkpt lat="43.51738" lon="6.39284">
        <ele>221.9</ele>
        <time>2021-04-18T09:20:40Z</time>
      </trkpt>
      <trkpt lat="43.51738" lon="6.39278">
        <ele>221.8</ele>
        <time>2021-04-18T09:20:43Z</time>
      </trkpt>
      <trkpt lat="43.51737" lon="6.39271">
        <ele>221.7</ele>
        <time>2021-04-18T09:20:47Z</time>
      </trkpt>
      <trkpt lat="43.51737" lon="6.39259">
        <ele>221</ele>
        <time>2021-04-18T09:20:53Z</time>
      </trkpt>
      <trkpt lat="43.51737" lon="6.39251">
        <ele>221.5</ele>
        <time>2021-04-18T09:20:57Z</time>
      </trkpt>
      <trkpt lat="43.51737" lon="6.39244">
        <ele>221.4</ele>
        <time>2021-04-18T09:21:00Z</time>
      </trkpt>
      <trkpt lat="43.51736" lon="6.39238">
        <ele>221.4</ele>
        <time>2021-04-18T09:21:03Z</time>
      </trkpt>
      <trkpt lat="43.51735" lon="6.39231">
        <ele>221.3</ele>
        <time>2021-04-18T09:21:06Z</time>
      </trkpt>
      <trkpt lat="43.51733" lon="6.39224">
        <ele>221.3</ele>
        <time>2021-04-18T09:21:09Z</time>
      </trkpt>
      <trkpt lat="43.51732" lon="6.39218">
        <ele>221.1</ele>
        <time>2021-04-18T09:21:13Z</time>
      </trkpt>
      <trkpt lat="43.5173" lon="6.39209">
        <ele>220.9</ele>
        <time>2021-04-18T09:21:19Z</time>
      </trkpt>
      <trkpt lat="43.51728" lon="6.39201">
        <ele>220.8</ele>
        <time>2021-04-18T09:21:23Z</time>
      </trkpt>
      <trkpt lat="43.51726" lon="6.39195">
        <ele>220.8</ele>
        <time>2021-04-18T09:21:26Z</time>
      </trkpt>
      <trkpt lat="43.51724" lon="6.39188">
        <ele>220.7</ele>
        <time>2021-04-18T09:21:30Z</time>
      </trkpt>
      <trkpt lat="43.51721" lon="6.39181">
        <ele>220.7</ele>
        <time>2021-04-18T09:21:34Z</time>
      </trkpt>
      <trkpt lat="43.5172" lon="6.39175">
        <ele>220.5</ele>
        <time>2021-04-18T09:21:39Z</time>
      </trkpt>
      <trkpt lat="43.51717" lon="6.39168">
        <ele>220.2</ele>
        <time>2021-04-18T09:21:44Z</time>
      </trkpt>
      <trkpt lat="43.51714" lon="6.39163">
        <ele>220</ele>
        <time>2021-04-18T09:21:49Z</time>
      </trkpt>
      <trkpt lat="43.51712" lon="6.39156">
        <ele>219.9</ele>
        <time>2021-04-18T09:21:53Z</time>
      </trkpt>
      <trkpt lat="43.51709" lon="6.39151">
        <ele>219.8</ele>
        <time>2021-04-18T09:21:57Z</time>
      </trkpt>
      <trkpt lat="43.51705" lon="6.39147">
        <ele>219.7</ele>
        <time>2021-04-18T09:21:59Z</time>
      </trkpt>
      <trkpt lat="43.517" lon="6.39145">
        <ele>219.7</ele>
        <time>2021-04-18T09:22:04Z</time>
      </trkpt>
      <trkpt lat="43.51696" lon="6.39142">
        <ele>219.6</ele>
        <time>2021-04-18T09:22:07Z</time>
      </trkpt>
      <trkpt lat="43.51693" lon="6.39137">
        <ele>219.6</ele>
        <time>2021-04-18T09:22:11Z</time>
      </trkpt>
      <trkpt lat="43.51689" lon="6.39132">
        <ele>219.4</ele>
        <time>2021-04-18T09:22:14Z</time>
      </trkpt>
      <trkpt lat="43.51686" lon="6.39126">
        <ele>219.3</ele>
        <time>2021-04-18T09:22:18Z</time>
      </trkpt>
      <trkpt lat="43.51677" lon="6.39122">
        <ele>219</ele>
        <time>2021-04-18T09:22:26Z</time>
      </trkpt>
      <trkpt lat="43.51673" lon="6.39122">
        <ele>219</ele>
        <time>2021-04-18T09:22:31Z</time>
      </trkpt>
      <trkpt lat="43.51669" lon="6.39117">
        <ele>218.9</ele>
        <time>2021-04-18T09:22:34Z</time>
      </trkpt>
      <trkpt lat="43.51665" lon="6.39113">
        <ele>218.9</ele>
        <time>2021-04-18T09:22:39Z</time>
      </trkpt>
      <trkpt lat="43.51661" lon="6.39109">
        <ele>218.8</ele>
        <time>2021-04-18T09:22:44Z</time>
      </trkpt>
      <trkpt lat="43.51656" lon="6.39106">
        <ele>218.8</ele>
        <time>2021-04-18T09:22:47Z</time>
      </trkpt>
      <trkpt lat="43.51653" lon="6.39101">
        <ele>218.7</ele>
        <time>2021-04-18T09:22:52Z</time>
      </trkpt>
      <trkpt lat="43.51648" lon="6.39095">
        <ele>218.3</ele>
        <time>2021-04-18T09:22:57Z</time>
      </trkpt>
      <trkpt lat="43.51644" lon="6.39093">
        <ele>218.1</ele>
        <time>2021-04-18T09:23:01Z</time>
      </trkpt>
      <trkpt lat="43.51638" lon="6.3909">
        <ele>217.9</ele>
        <time>2021-04-18T09:23:05Z</time>
      </trkpt>
      <trkpt lat="43.51633" lon="6.39089">
        <ele>217.8</ele>
        <time>2021-04-18T09:23:09Z</time>
      </trkpt>
      <trkpt lat="43.51627" lon="6.39087">
        <ele>217.7</ele>
        <time>2021-04-18T09:23:13Z</time>
      </trkpt>
      <trkpt lat="43.51621" lon="6.39086">
        <ele>217</ele>
        <time>2021-04-18T09:23:20Z</time>
      </trkpt>
      <trkpt lat="43.51615" lon="6.39083">
        <ele>217.5</ele>
        <time>2021-04-18T09:23:26Z</time>
      </trkpt>
      <trkpt lat="43.5161" lon="6.3908">
        <ele>217.5</ele>
        <time>2021-04-18T09:23:30Z</time>
      </trkpt>
      <trkpt lat="43.51604" lon="6.39077">
        <ele>217.4</ele>
        <time>2021-04-18T09:23:34Z</time>
      </trkpt>
      <trkpt lat="43.51599" lon="6.39074">
        <ele>217.3</ele>
        <time>2021-04-18T09:23:37Z</time>
      </trkpt>
      <trkpt lat="43.51594" lon="6.39074">
        <ele>217.2</ele>
        <time>2021-04-18T09:23:40Z</time>
      </trkpt>
      <trkpt lat="43.51589" lon="6.39074">
        <ele>216.9</ele>
        <time>2021-04-18T09:23:45Z</time>
      </trkpt>
      <trkpt lat="43.51583" lon="6.39072">
        <ele>216.5</ele>
        <time>2021-04-18T09:23:49Z</time>
      </trkpt>
      <trkpt lat="43.51578" lon="6.39071">
        <ele>216.3</ele>
        <time>2021-04-18T09:23:53Z</time>
      </trkpt>
      <trkpt lat="43.51573" lon="6.39069">
        <ele>216</ele>
        <time>2021-04-18T09:23:57Z</time>
      </trkpt>
      <trkpt lat="43.51568" lon="6.39072">
        <ele>215.9</ele>
        <time>2021-04-18T09:24:01Z</time>
      </trkpt>
      <trkpt lat="43.51563" lon="6.39071">
        <ele>215.7</ele>
        <time>2021-04-18T09:24:06Z</time>
      </trkpt>
      <trkpt lat="43.51559" lon="6.39067">
        <ele>215.6</ele>
        <time>2021-04-18T09:24:10Z</time>
      </trkpt>
      <trkpt lat="43.51553" lon="6.39063">
        <ele>215.5</ele>
        <time>2021-04-18T09:24:14Z</time>
      </trkpt>
      <trkpt lat="43.51547" lon="6.3906">
        <ele>215</ele>
        <time>2021-04-18T09:24:18Z</time>
      </trkpt>
      <trkpt lat="43.51542" lon="6.39059">
        <ele>215.2</ele>
        <time>2021-04-18T09:24:21Z</time>
      </trkpt>
      <trkpt lat="43.51538" lon="6.39055">
        <ele>215.1</ele>
        <time>2021-04-18T09:24:24Z</time>
      </trkpt>
      <trkpt lat="43.51533" lon="6.39054">
        <ele>214.9</ele>
        <time>2021-04-18T09:24:29Z</time>
      </trkpt>
      <trkpt lat="43.51528" lon="6.39053">
        <ele>214.7</ele>
        <time>2021-04-18T09:24:34Z</time>
      </trkpt>
      <trkpt lat="43.51523" lon="6.39051">
        <ele>214.6</ele>
        <time>2021-04-18T09:24:38Z</time>
      </trkpt>
      <trkpt lat="43.51517" lon="6.39051">
        <ele>214.5</ele>
        <time>2021-04-18T09:24:42Z</time>
      </trkpt>
      <trkpt lat="43.51511" lon="6.39048">
        <ele>214.5</ele>
        <time>2021-04-18T09:24:46Z</time>
      </trkpt>
      <trkpt lat="43.51505" lon="6.39046">
        <ele>214.4</ele>
        <time>2021-04-18T09:24:49Z</time>
      </trkpt>
      <trkpt lat="43.515" lon="6.39044">
        <ele>214.3</ele>
        <time>2021-04-18T09:24:53Z</time>
      </trkpt>
      <trkpt lat="43.51495" lon="6.39042">
        <ele>214.1</ele>
        <time>2021-04-18T09:24:57Z</time>
      </trkpt>
      <trkpt lat="43.5149" lon="6.39039">
        <ele>213.7</ele>
        <time>2021-04-18T09:25:01Z</time>
      </trkpt>
      <trkpt lat="43.51485" lon="6.39035">
        <ele>213.4</ele>
        <time>2021-04-18T09:25:05Z</time>
      </trkpt>
      <trkpt lat="43.51481" lon="6.39031">
        <ele>213.2</ele>
        <time>2021-04-18T09:25:09Z</time>
      </trkpt>
      <trkpt lat="43.51478" lon="6.39025">
        <ele>212.9</ele>
        <time>2021-04-18T09:25:14Z</time>
      </trkpt>
      <trkpt lat="43.51473" lon="6.3902">
        <ele>212.5</ele>
        <time>2021-04-18T09:25:20Z</time>
      </trkpt>
      <trkpt lat="43.51469" lon="6.39017">
        <ele>212.1</ele>
        <time>2021-04-18T09:25:24Z</time>
      </trkpt>
      <trkpt lat="43.51465" lon="6.39013">
        <ele>211.9</ele>
        <time>2021-04-18T09:25:28Z</time>
      </trkpt>
      <trkpt lat="43.51462" lon="6.39007">
        <ele>211.7</ele>
        <time>2021-04-18T09:25:32Z</time>
      </trkpt>
      <trkpt lat="43.51458" lon="6.39003">
        <ele>211.6</ele>
        <time>2021-04-18T09:25:36Z</time>
      </trkpt>
      <trkpt lat="43.51454" lon="6.38998">
        <ele>211</ele>
        <time>2021-04-18T09:25:40Z</time>
      </trkpt>
      <trkpt lat="43.51449" lon="6.38991">
        <ele>211</ele>
        <time>2021-04-18T09:25:48Z</time>
      </trkpt>
      <trkpt lat="43.51444" lon="6.38986">
        <ele>211</ele>
        <time>2021-04-18T09:25:52Z</time>
      </trkpt>
      <trkpt lat="43.51439" lon="6.38977">
        <ele>211</ele>
        <time>2021-04-18T09:26:00Z</time>
      </trkpt>
      <trkpt lat="43.51432" lon="6.38973">
        <ele>211</ele>
        <time>2021-04-18T09:26:04Z</time>
      </trkpt>
      <trkpt lat="43.51428" lon="6.38968">
        <ele>211</ele>
        <time>2021-04-18T09:26:08Z</time>
      </trkpt>
      <trkpt lat="43.51422" lon="6.38963">
        <ele>211</ele>
        <time>2021-04-18T09:26:12Z</time>
      </trkpt>
      <trkpt lat="43.51418" lon="6.38957">
        <ele>211</ele>
        <time>2021-04-18T09:26:16Z</time>
      </trkpt>
      <trkpt lat="43.51416" lon="6.38947">
        <ele>211</ele>
        <time>2021-04-18T09:26:24Z</time>
      </trkpt>
      <trkpt lat="43.51418" lon="6.38935">
        <ele>211</ele>
        <time>2021-04-18T09:26:33Z</time>
      </trkpt>
      <trkpt lat="43.51418" lon="6.38926">
        <ele>212</ele>
        <time>2021-04-18T09:26:41Z</time>
      </trkpt>
      <trkpt lat="43.51413" lon="6.38917">
        <ele>212</ele>
        <time>2021-04-18T09:26:49Z</time>
      </trkpt>
      <trkpt lat="43.51408" lon="6.38915">
        <ele>213</ele>
        <time>2021-04-18T09:26:53Z</time>
      </trkpt>
      <trkpt lat="43.51402" lon="6.38914">
        <ele>213</ele>
        <time>2021-04-18T09:26:57Z</time>
      </trkpt>
      <trkpt lat="43.51397" lon="6.38913">
        <ele>214.5</ele>
        <time>2021-04-18T09:29:16Z</time>
      </trkpt>
      <trkpt lat="43.51393" lon="6.38915">
        <ele>214.4</ele>
        <time>2021-04-18T09:29:40Z</time>
      </trkpt>
      <trkpt lat="43.51389" lon="6.3892">
        <ele>214.3</ele>
        <time>2021-04-18T09:29:47Z</time>
      </trkpt>
      <trkpt lat="43.51385" lon="6.38922">
        <ele>214.1</ele>
        <time>2021-04-18T09:29:54Z</time>
      </trkpt>
      <trkpt lat="43.5138" lon="6.38925">
        <ele>213.6</ele>
        <time>2021-04-18T09:30:02Z</time>
      </trkpt>
      <trkpt lat="43.51375" lon="6.38925">
        <ele>213.3</ele>
        <time>2021-04-18T09:30:06Z</time>
      </trkpt>
      <trkpt lat="43.5137" lon="6.38927">
        <ele>213.1</ele>
        <time>2021-04-18T09:30:11Z</time>
      </trkpt>
      <trkpt lat="43.51365" lon="6.38929">
        <ele>212.8</ele>
        <time>2021-04-18T09:30:19Z</time>
      </trkpt>
      <trkpt lat="43.5136" lon="6.3893">
        <ele>212.6</ele>
        <time>2021-04-18T09:30:23Z</time>
      </trkpt>
      <trkpt lat="43.51354" lon="6.3893">
        <ele>212.3</ele>
        <time>2021-04-18T09:30:27Z</time>
      </trkpt>
      <trkpt lat="43.51349" lon="6.38933">
        <ele>211.8</ele>
        <time>2021-04-18T09:30:33Z</time>
      </trkpt>
      <trkpt lat="43.51343" lon="6.38934">
        <ele>211.5</ele>
        <time>2021-04-18T09:30:36Z</time>
      </trkpt>
      <trkpt lat="43.51338" lon="6.38934">
        <ele>211.1</ele>
        <time>2021-04-18T09:30:41Z</time>
      </trkpt>
      <trkpt lat="43.51333" lon="6.38935">
        <ele>210.8</ele>
        <time>2021-04-18T09:30:45Z</time>
      </trkpt>
      <trkpt lat="43.51327" lon="6.38936">
        <ele>210.6</ele>
        <time>2021-04-18T09:30:49Z</time>
      </trkpt>
      <trkpt lat="43.51323" lon="6.38939">
        <ele>210</ele>
        <time>2021-04-18T09:30:57Z</time>
      </trkpt>
      <trkpt lat="43.51319" lon="6.38944">
        <ele>209.2</ele>
        <time>2021-04-18T09:31:08Z</time>
      </trkpt>
      <trkpt lat="43.51315" lon="6.38945">
        <ele>209</ele>
        <time>2021-04-18T09:31:13Z</time>
      </trkpt>
      <trkpt lat="43.5131" lon="6.38948">
        <ele>208.7</ele>
        <time>2021-04-18T09:31:20Z</time>
      </trkpt>
      <trkpt lat="43.51305" lon="6.3895">
        <ele>208.5</ele>
        <time>2021-04-18T09:31:24Z</time>
      </trkpt>
      <trkpt lat="43.513" lon="6.38952">
        <ele>208.2</ele>
        <time>2021-04-18T09:31:28Z</time>
      </trkpt>
      <trkpt lat="43.51296" lon="6.38954">
        <ele>207.9</ele>
        <time>2021-04-18T09:31:32Z</time>
      </trkpt>
      <trkpt lat="43.51291" lon="6.38956">
        <ele>207.3</ele>
        <time>2021-04-18T09:31:41Z</time>
      </trkpt>
      <trkpt lat="43.51287" lon="6.38957">
        <ele>206.9</ele>
        <time>2021-04-18T09:31:46Z</time>
      </trkpt>
      <trkpt lat="43.51282" lon="6.38959">
        <ele>206.5</ele>
        <time>2021-04-18T09:31:50Z</time>
      </trkpt>
      <trkpt lat="43.51277" lon="6.38959">
        <ele>206.3</ele>
        <time>2021-04-18T09:31:53Z</time>
      </trkpt>
      <trkpt lat="43.51271" lon="6.38961">
        <ele>206</ele>
        <time>2021-04-18T09:31:56Z</time>
      </trkpt>
      <trkpt lat="43.51266" lon="6.38964">
        <ele>205.7</ele>
        <time>2021-04-18T09:32:00Z</time>
      </trkpt>
      <trkpt lat="43.51261" lon="6.38966">
        <ele>205.3</ele>
        <time>2021-04-18T09:32:05Z</time>
      </trkpt>
      <trkpt lat="43.51256" lon="6.38967">
        <ele>204.9</ele>
        <time>2021-04-18T09:32:08Z</time>
      </trkpt>
      <trkpt lat="43.51251" lon="6.38968">
        <ele>204.7</ele>
        <time>2021-04-18T09:32:11Z</time>
      </trkpt>
      <trkpt lat="43.51246" lon="6.3897">
        <ele>203.8</ele>
        <time>2021-04-18T09:32:18Z</time>
      </trkpt>
      <trkpt lat="43.51241" lon="6.38971">
        <ele>203.5</ele>
        <time>2021-04-18T09:32:21Z</time>
      </trkpt>
      <trkpt lat="43.51237" lon="6.38971">
        <ele>203.3</ele>
        <time>2021-04-18T09:32:23Z</time>
      </trkpt>
      <trkpt lat="43.51232" lon="6.38972">
        <ele>202.9</ele>
        <time>2021-04-18T09:32:27Z</time>
      </trkpt>
      <trkpt lat="43.51226" lon="6.38973">
        <ele>202.6</ele>
        <time>2021-04-18T09:32:31Z</time>
      </trkpt>
      <trkpt lat="43.51221" lon="6.38974">
        <ele>202.3</ele>
        <time>2021-04-18T09:32:34Z</time>
      </trkpt>
      <trkpt lat="43.51216" lon="6.38977">
        <ele>201.6</ele>
        <time>2021-04-18T09:32:39Z</time>
      </trkpt>
      <trkpt lat="43.51211" lon="6.38978">
        <ele>201.1</ele>
        <time>2021-04-18T09:32:44Z</time>
      </trkpt>
      <trkpt lat="43.51205" lon="6.3898">
        <ele>200.7</ele>
        <time>2021-04-18T09:32:48Z</time>
      </trkpt>
      <trkpt lat="43.51201" lon="6.38984">
        <ele>200.5</ele>
        <time>2021-04-18T09:32:51Z</time>
      </trkpt>
      <trkpt lat="43.51196" lon="6.38986">
        <ele>199.8</ele>
        <time>2021-04-18T09:32:57Z</time>
      </trkpt>
      <trkpt lat="43.51191" lon="6.38988">
        <ele>199.3</ele>
        <time>2021-04-18T09:33:01Z</time>
      </trkpt>
      <trkpt lat="43.51186" lon="6.3899">
        <ele>198.5</ele>
        <time>2021-04-18T09:33:08Z</time>
      </trkpt>
      <trkpt lat="43.51181" lon="6.38992">
        <ele>197.9</ele>
        <time>2021-04-18T09:33:13Z</time>
      </trkpt>
      <trkpt lat="43.51177" lon="6.38995">
        <ele>197.5</ele>
        <time>2021-04-18T09:33:18Z</time>
      </trkpt>
      <trkpt lat="43.51173" lon="6.38998">
        <ele>196.9</ele>
        <time>2021-04-18T09:33:24Z</time>
      </trkpt>
      <trkpt lat="43.51168" lon="6.39001">
        <ele>196.4</ele>
        <time>2021-04-18T09:33:29Z</time>
      </trkpt>
      <trkpt lat="43.51163" lon="6.39004">
        <ele>195.8</ele>
        <time>2021-04-18T09:33:34Z</time>
      </trkpt>
      <trkpt lat="43.51158" lon="6.39005">
        <ele>195.3</ele>
        <time>2021-04-18T09:33:38Z</time>
      </trkpt>
      <trkpt lat="43.51153" lon="6.39007">
        <ele>194.5</ele>
        <time>2021-04-18T09:33:43Z</time>
      </trkpt>
      <trkpt lat="43.51149" lon="6.39009">
        <ele>194</ele>
        <time>2021-04-18T09:33:46Z</time>
      </trkpt>
      <trkpt lat="43.51143" lon="6.39013">
        <ele>193.6</ele>
        <time>2021-04-18T09:33:49Z</time>
      </trkpt>
      <trkpt lat="43.51138" lon="6.39013">
        <ele>193</ele>
        <time>2021-04-18T09:33:53Z</time>
      </trkpt>
      <trkpt lat="43.51133" lon="6.39013">
        <ele>191.2</ele>
        <time>2021-04-18T09:34:24Z</time>
      </trkpt>
      <trkpt lat="43.51128" lon="6.39016">
        <ele>190.6</ele>
        <time>2021-04-18T09:34:31Z</time>
      </trkpt>
      <trkpt lat="43.51122" lon="6.39017">
        <ele>190.3</ele>
        <time>2021-04-18T09:34:35Z</time>
      </trkpt>
      <trkpt lat="43.51117" lon="6.39019">
        <ele>189.8</ele>
        <time>2021-04-18T09:34:40Z</time>
      </trkpt>
      <trkpt lat="43.51112" lon="6.3902">
        <ele>189.1</ele>
        <time>2021-04-18T09:34:45Z</time>
      </trkpt>
      <trkpt lat="43.51106" lon="6.39021">
        <ele>188.7</ele>
        <time>2021-04-18T09:34:48Z</time>
      </trkpt>
      <trkpt lat="43.51102" lon="6.39022">
        <ele>188.1</ele>
        <time>2021-04-18T09:34:54Z</time>
      </trkpt>
      <trkpt lat="43.51096" lon="6.39023">
        <ele>187.8</ele>
        <time>2021-04-18T09:34:57Z</time>
      </trkpt>
      <trkpt lat="43.51091" lon="6.39024">
        <ele>187.5</ele>
        <time>2021-04-18T09:35:01Z</time>
      </trkpt>
      <trkpt lat="43.51086" lon="6.39026">
        <ele>187</ele>
        <time>2021-04-18T09:35:05Z</time>
      </trkpt>
      <trkpt lat="43.51081" lon="6.39028">
        <ele>186.4</ele>
        <time>2021-04-18T09:35:09Z</time>
      </trkpt>
      <trkpt lat="43.51075" lon="6.39027">
        <ele>186</ele>
        <time>2021-04-18T09:35:13Z</time>
      </trkpt>
      <trkpt lat="43.5107" lon="6.39027">
        <ele>184.1</ele>
        <time>2021-04-18T09:35:33Z</time>
      </trkpt>
      <trkpt lat="43.51066" lon="6.39031">
        <ele>183.9</ele>
        <time>2021-04-18T09:35:41Z</time>
      </trkpt>
      <trkpt lat="43.51063" lon="6.39035">
        <ele>183.7</ele>
        <time>2021-04-18T09:35:53Z</time>
      </trkpt>
      <trkpt lat="43.51056" lon="6.39035">
        <ele>183.6</ele>
        <time>2021-04-18T09:35:56Z</time>
      </trkpt>
      <trkpt lat="43.51051" lon="6.39037">
        <ele>183.6</ele>
        <time>2021-04-18T09:35:59Z</time>
      </trkpt>
      <trkpt lat="43.51045" lon="6.39038">
        <ele>183.6</ele>
        <time>2021-04-18T09:36:02Z</time>
      </trkpt>
      <trkpt lat="43.51041" lon="6.39041">
        <ele>183.6</ele>
        <time>2021-04-18T09:36:07Z</time>
      </trkpt>
      <trkpt lat="43.51036" lon="6.39044">
        <ele>183.7</ele>
        <time>2021-04-18T09:36:12Z</time>
      </trkpt>
      <trkpt lat="43.51031" lon="6.39045">
        <ele>183.7</ele>
        <time>2021-04-18T09:36:15Z</time>
      </trkpt>
      <trkpt lat="43.51027" lon="6.39049">
        <ele>183.7</ele>
        <time>2021-04-18T09:36:20Z</time>
      </trkpt>
      <trkpt lat="43.51022" lon="6.3905">
        <ele>183.9</ele>
        <time>2021-04-18T09:36:27Z</time>
      </trkpt>
      <trkpt lat="43.51017" lon="6.39052">
        <ele>184</ele>
        <time>2021-04-18T09:36:35Z</time>
      </trkpt>
      <trkpt lat="43.51012" lon="6.39052">
        <ele>184</ele>
        <time>2021-04-18T09:36:42Z</time>
      </trkpt>
      <trkpt lat="43.51007" lon="6.3905">
        <ele>184.1</ele>
        <time>2021-04-18T09:36:50Z</time>
      </trkpt>
      <trkpt lat="43.51002" lon="6.3905">
        <ele>184.1</ele>
        <time>2021-04-18T09:36:53Z</time>
      </trkpt>
      <trkpt lat="43.50996" lon="6.3905">
        <ele>184.1</ele>
        <time>2021-04-18T09:36:59Z</time>
      </trkpt>
      <trkpt lat="43.5099" lon="6.39048">
        <ele>184.1</ele>
        <time>2021-04-18T09:37:04Z</time>
      </trkpt>
      <trkpt lat="43.50986" lon="6.39047">
        <ele>184.1</ele>
        <time>2021-04-18T09:37:08Z</time>
      </trkpt>
      <trkpt lat="43.50979" lon="6.39046">
        <ele>184.2</ele>
        <time>2021-04-18T09:37:14Z</time>
      </trkpt>
      <trkpt lat="43.50974" lon="6.39045">
        <ele>184.2</ele>
        <time>2021-04-18T09:37:18Z</time>
      </trkpt>
      <trkpt lat="43.5097" lon="6.39043">
        <ele>184.3</ele>
        <time>2021-04-18T09:37:23Z</time>
      </trkpt>
      <trkpt lat="43.50965" lon="6.39043">
        <ele>184.3</ele>
        <time>2021-04-18T09:37:27Z</time>
      </trkpt>
      <trkpt lat="43.50959" lon="6.39042">
        <ele>184.4</ele>
        <time>2021-04-18T09:37:32Z</time>
      </trkpt>
      <trkpt lat="43.50954" lon="6.39042">
        <ele>184.5</ele>
        <time>2021-04-18T09:37:36Z</time>
      </trkpt>
      <trkpt lat="43.50947" lon="6.39041">
        <ele>184.6</ele>
        <time>2021-04-18T09:37:40Z</time>
      </trkpt>
      <trkpt lat="43.50942" lon="6.39042">
        <ele>184.7</ele>
        <time>2021-04-18T09:37:42Z</time>
      </trkpt>
      <trkpt lat="43.50936" lon="6.39041">
        <ele>184.7</ele>
        <time>2021-04-18T09:37:45Z</time>
      </trkpt>
      <trkpt lat="43.5093" lon="6.3904">
        <ele>184.8</ele>
        <time>2021-04-18T09:37:49Z</time>
      </trkpt>
      <trkpt lat="43.50924" lon="6.3904">
        <ele>184.9</ele>
        <time>2021-04-18T09:37:53Z</time>
      </trkpt>
      <trkpt lat="43.50919" lon="6.3904">
        <ele>184.9</ele>
        <time>2021-04-18T09:37:57Z</time>
      </trkpt>
      <trkpt lat="43.50915" lon="6.39037">
        <ele>185</ele>
        <time>2021-04-18T09:38:02Z</time>
      </trkpt>
      <trkpt lat="43.50911" lon="6.39034">
        <ele>185.1</ele>
        <time>2021-04-18T09:38:09Z</time>
      </trkpt>
      <trkpt lat="43.50905" lon="6.39034">
        <ele>185.2</ele>
        <time>2021-04-18T09:38:14Z</time>
      </trkpt>
      <trkpt lat="43.50901" lon="6.39034">
        <ele>185.3</ele>
        <time>2021-04-18T09:38:17Z</time>
      </trkpt>
      <trkpt lat="43.50895" lon="6.39033">
        <ele>185.4</ele>
        <time>2021-04-18T09:38:22Z</time>
      </trkpt>
      <trkpt lat="43.50891" lon="6.39034">
        <ele>185.5</ele>
        <time>2021-04-18T09:38:26Z</time>
      </trkpt>
      <trkpt lat="43.50886" lon="6.39032">
        <ele>185.7</ele>
        <time>2021-04-18T09:38:31Z</time>
      </trkpt>
      <trkpt lat="43.50881" lon="6.39031">
        <ele>186</ele>
        <time>2021-04-18T09:38:36Z</time>
      </trkpt>
      <trkpt lat="43.50877" lon="6.39031">
        <ele>186.3</ele>
        <time>2021-04-18T09:38:40Z</time>
      </trkpt>
      <trkpt lat="43.50872" lon="6.39031">
        <ele>186.9</ele>
        <time>2021-04-18T09:38:50Z</time>
      </trkpt>
      <trkpt lat="43.50866" lon="6.39028">
        <ele>187.3</ele>
        <time>2021-04-18T09:38:55Z</time>
      </trkpt>
      <trkpt lat="43.50861" lon="6.39026">
        <ele>187.5</ele>
        <time>2021-04-18T09:39:00Z</time>
      </trkpt>
      <trkpt lat="43.50857" lon="6.39027">
        <ele>187.6</ele>
        <time>2021-04-18T09:39:04Z</time>
      </trkpt>
      <trkpt lat="43.50852" lon="6.39028">
        <ele>187.8</ele>
        <time>2021-04-18T09:39:10Z</time>
      </trkpt>
      <trkpt lat="43.50856" lon="6.39023">
        <ele>188.2</ele>
        <time>2021-04-18T09:39:45Z</time>
      </trkpt>
      <trkpt lat="43.50852" lon="6.39019">
        <ele>188.2</ele>
        <time>2021-04-18T09:39:57Z</time>
      </trkpt>
      <trkpt lat="43.50846" lon="6.39016">
        <ele>188.2</ele>
        <time>2021-04-18T09:40:02Z</time>
      </trkpt>
      <trkpt lat="43.50841" lon="6.39012">
        <ele>188.2</ele>
        <time>2021-04-18T09:40:07Z</time>
      </trkpt>
      <trkpt lat="43.50837" lon="6.39009">
        <ele>188.1</ele>
        <time>2021-04-18T09:40:11Z</time>
      </trkpt>
      <trkpt lat="43.50833" lon="6.39005">
        <ele>188</ele>
        <time>2021-04-18T09:40:16Z</time>
      </trkpt>
      <trkpt lat="43.50829" lon="6.39001">
        <ele>188</ele>
        <time>2021-04-18T09:40:21Z</time>
      </trkpt>
      <trkpt lat="43.50825" lon="6.38995">
        <ele>187.9</ele>
        <time>2021-04-18T09:40:26Z</time>
      </trkpt>
      <trkpt lat="43.50821" lon="6.38992">
        <ele>187.9</ele>
        <time>2021-04-18T09:40:30Z</time>
      </trkpt>
      <trkpt lat="43.50817" lon="6.38988">
        <ele>187.9</ele>
        <time>2021-04-18T09:40:34Z</time>
      </trkpt>
      <trkpt lat="43.50812" lon="6.38984">
        <ele>187.9</ele>
        <time>2021-04-18T09:40:38Z</time>
      </trkpt>
      <trkpt lat="43.50807" lon="6.38982">
        <ele>187.8</ele>
        <time>2021-04-18T09:40:41Z</time>
      </trkpt>
      <trkpt lat="43.50803" lon="6.38979">
        <ele>188</ele>
        <time>2021-04-18T09:40:45Z</time>
      </trkpt>
      <trkpt lat="43.50799" lon="6.38973">
        <ele>188.1</ele>
        <time>2021-04-18T09:40:52Z</time>
      </trkpt>
      <trkpt lat="43.50795" lon="6.38969">
        <ele>188.2</ele>
        <time>2021-04-18T09:40:57Z</time>
      </trkpt>
      <trkpt lat="43.5079" lon="6.38966">
        <ele>188.3</ele>
        <time>2021-04-18T09:41:01Z</time>
      </trkpt>
      <trkpt lat="43.50789" lon="6.38959">
        <ele>188.5</ele>
        <time>2021-04-18T09:41:08Z</time>
      </trkpt>
      <trkpt lat="43.50785" lon="6.38954">
        <ele>188.5</ele>
        <time>2021-04-18T09:41:12Z</time>
      </trkpt>
      <trkpt lat="43.50781" lon="6.3895">
        <ele>188.4</ele>
        <time>2021-04-18T09:41:16Z</time>
      </trkpt>
      <trkpt lat="43.50777" lon="6.38945">
        <ele>188.2</ele>
        <time>2021-04-18T09:41:19Z</time>
      </trkpt>
      <trkpt lat="43.50775" lon="6.3894">
        <ele>187.7</ele>
        <time>2021-04-18T09:41:24Z</time>
      </trkpt>
      <trkpt lat="43.50771" lon="6.38935">
        <ele>187.3</ele>
        <time>2021-04-18T09:41:28Z</time>
      </trkpt>
      <trkpt lat="43.50769" lon="6.38928">
        <ele>186.8</ele>
        <time>2021-04-18T09:41:33Z</time>
      </trkpt>
      <trkpt lat="43.50767" lon="6.38921">
        <ele>185.9</ele>
        <time>2021-04-18T09:41:39Z</time>
      </trkpt>
      <trkpt lat="43.50769" lon="6.38915">
        <ele>185.1</ele>
        <time>2021-04-18T09:41:44Z</time>
      </trkpt>
      <trkpt lat="43.50771" lon="6.38908">
        <ele>184.6</ele>
        <time>2021-04-18T09:41:48Z</time>
      </trkpt>
      <trkpt lat="43.50769" lon="6.389">
        <ele>183.9</ele>
        <time>2021-04-18T09:41:53Z</time>
      </trkpt>
      <trkpt lat="43.50767" lon="6.38894">
        <ele>183</ele>
        <time>2021-04-18T09:41:56Z</time>
      </trkpt>
      <trkpt lat="43.50764" lon="6.38889">
        <ele>183</ele>
        <time>2021-04-18T09:42:00Z</time>
      </trkpt>
      <trkpt lat="43.50766" lon="6.38882">
        <ele>182.4</ele>
        <time>2021-04-18T09:42:05Z</time>
      </trkpt>
      <trkpt lat="43.50766" lon="6.38875">
        <ele>181.9</ele>
        <time>2021-04-18T09:42:09Z</time>
      </trkpt>
      <trkpt lat="43.50763" lon="6.38868">
        <ele>181.1</ele>
        <time>2021-04-18T09:42:14Z</time>
      </trkpt>
      <trkpt lat="43.50761" lon="6.38861">
        <ele>180.5</ele>
        <time>2021-04-18T09:42:18Z</time>
      </trkpt>
      <trkpt lat="43.50756" lon="6.38859">
        <ele>179.8</ele>
        <time>2021-04-18T09:42:25Z</time>
      </trkpt>
      <trkpt lat="43.50751" lon="6.38859">
        <ele>179.6</ele>
        <time>2021-04-18T09:42:27Z</time>
      </trkpt>
      <trkpt lat="43.50746" lon="6.38859">
        <ele>178.6</ele>
        <time>2021-04-18T09:42:36Z</time>
      </trkpt>
      <trkpt lat="43.50741" lon="6.38862">
        <ele>178.4</ele>
        <time>2021-04-18T09:42:39Z</time>
      </trkpt>
      <trkpt lat="43.50737" lon="6.38865">
        <ele>178.2</ele>
        <time>2021-04-18T09:42:42Z</time>
      </trkpt>
      <trkpt lat="43.50731" lon="6.38868">
        <ele>177.9</ele>
        <time>2021-04-18T09:42:46Z</time>
      </trkpt>
      <trkpt lat="43.50727" lon="6.38874">
        <ele>177.7</ele>
        <time>2021-04-18T09:42:49Z</time>
      </trkpt>
      <trkpt lat="43.50723" lon="6.38878">
        <ele>177.5</ele>
        <time>2021-04-18T09:42:52Z</time>
      </trkpt>
      <trkpt lat="43.50722" lon="6.38884">
        <ele>177.3</ele>
        <time>2021-04-18T09:42:58Z</time>
      </trkpt>
      <trkpt lat="43.50721" lon="6.38891">
        <ele>177.2</ele>
        <time>2021-04-18T09:43:02Z</time>
      </trkpt>
      <trkpt lat="43.50717" lon="6.38895">
        <ele>177</ele>
        <time>2021-04-18T09:43:05Z</time>
      </trkpt>
      <trkpt lat="43.50713" lon="6.389">
        <ele>176.8</ele>
        <time>2021-04-18T09:43:08Z</time>
      </trkpt>
      <trkpt lat="43.50711" lon="6.38906">
        <ele>176.7</ele>
        <time>2021-04-18T09:43:11Z</time>
      </trkpt>
      <trkpt lat="43.50709" lon="6.38913">
        <ele>176.6</ele>
        <time>2021-04-18T09:43:15Z</time>
      </trkpt>
      <trkpt lat="43.50704" lon="6.38919">
        <ele>176.5</ele>
        <time>2021-04-18T09:43:19Z</time>
      </trkpt>
      <trkpt lat="43.50702" lon="6.38925">
        <ele>176.4</ele>
        <time>2021-04-18T09:43:23Z</time>
      </trkpt>
      <trkpt lat="43.50705" lon="6.38931">
        <ele>176.3</ele>
        <time>2021-04-18T09:43:30Z</time>
      </trkpt>
      <trkpt lat="43.50709" lon="6.38936">
        <ele>176.2</ele>
        <time>2021-04-18T09:43:33Z</time>
      </trkpt>
      <trkpt lat="43.50713" lon="6.3894">
        <ele>176.1</ele>
        <time>2021-04-18T09:43:39Z</time>
      </trkpt>
      <trkpt lat="43.50713" lon="6.38947">
        <ele>176</ele>
        <time>2021-04-18T09:43:47Z</time>
      </trkpt>
      <trkpt lat="43.50718" lon="6.3895">
        <ele>176</ele>
        <time>2021-04-18T09:43:50Z</time>
      </trkpt>
      <trkpt lat="43.50724" lon="6.3895">
        <ele>176</ele>
        <time>2021-04-18T09:43:53Z</time>
      </trkpt>
      <trkpt lat="43.50724" lon="6.38944">
        <ele>175.9</ele>
        <time>2021-04-18T09:44:01Z</time>
      </trkpt>
      <trkpt lat="43.50724" lon="6.38937">
        <ele>175.9</ele>
        <time>2021-04-18T09:44:10Z</time>
      </trkpt>
      <trkpt lat="43.50729" lon="6.38937">
        <ele>175.7</ele>
        <time>2021-04-18T09:44:29Z</time>
      </trkpt>
      <trkpt lat="43.50724" lon="6.38938">
        <ele>175.6</ele>
        <time>2021-04-18T09:45:06Z</time>
      </trkpt>
      <trkpt lat="43.50719" lon="6.38934">
        <ele>175.5</ele>
        <time>2021-04-18T09:45:20Z</time>
      </trkpt>
      <trkpt lat="43.50714" lon="6.38929">
        <ele>175</ele>
        <time>2021-04-18T09:45:27Z</time>
      </trkpt>
      <trkpt lat="43.50715" lon="6.38924">
        <ele>175</ele>
        <time>2021-04-18T09:45:39Z</time>
      </trkpt>
      <trkpt lat="43.50718" lon="6.38919">
        <ele>175.3</ele>
        <time>2021-04-18T09:45:43Z</time>
      </trkpt>
      <trkpt lat="43.50723" lon="6.38914">
        <ele>175.3</ele>
        <time>2021-04-18T09:45:48Z</time>
      </trkpt>
      <trkpt lat="43.50723" lon="6.38908">
        <ele>175.6</ele>
        <time>2021-04-18T09:45:54Z</time>
      </trkpt>
      <trkpt lat="43.50723" lon="6.38901">
        <ele>175.9</ele>
        <time>2021-04-18T09:46:01Z</time>
      </trkpt>
      <trkpt lat="43.50727" lon="6.38897">
        <ele>176.1</ele>
        <time>2021-04-18T09:46:05Z</time>
      </trkpt>
      <trkpt lat="43.50732" lon="6.38894">
        <ele>176.2</ele>
        <time>2021-04-18T09:46:09Z</time>
      </trkpt>
      <trkpt lat="43.50737" lon="6.38894">
        <ele>176.5</ele>
        <time>2021-04-18T09:46:15Z</time>
      </trkpt>
      <trkpt lat="43.5074" lon="6.38899">
        <ele>176.8</ele>
        <time>2021-04-18T09:46:28Z</time>
      </trkpt>
      <trkpt lat="43.50739" lon="6.38906">
        <ele>176.8</ele>
        <time>2021-04-18T09:46:33Z</time>
      </trkpt>
      <trkpt lat="43.50737" lon="6.38911">
        <ele>176.8</ele>
        <time>2021-04-18T09:46:38Z</time>
      </trkpt>
      <trkpt lat="43.50742" lon="6.38909">
        <ele>176.7</ele>
        <time>2021-04-18T09:46:45Z</time>
      </trkpt>
      <trkpt lat="43.50739" lon="6.38914">
        <ele>176.6</ele>
        <time>2021-04-18T09:46:51Z</time>
      </trkpt>
      <trkpt lat="43.50736" lon="6.38919">
        <ele>176.5</ele>
        <time>2021-04-18T09:46:55Z</time>
      </trkpt>
      <trkpt lat="43.50731" lon="6.38924">
        <ele>176.4</ele>
        <time>2021-04-18T09:46:58Z</time>
      </trkpt>
      <trkpt lat="43.50728" lon="6.38929">
        <ele>176.4</ele>
        <time>2021-04-18T09:47:03Z</time>
      </trkpt>
      <trkpt lat="43.50724" lon="6.38935">
        <ele>176.3</ele>
        <time>2021-04-18T09:47:07Z</time>
      </trkpt>
      <trkpt lat="43.50721" lon="6.3894">
        <ele>176.2</ele>
        <time>2021-04-18T09:47:12Z</time>
      </trkpt>
      <trkpt lat="43.50718" lon="6.38944">
        <ele>176.1</ele>
        <time>2021-04-18T09:47:25Z</time>
      </trkpt>
      <trkpt lat="43.50713" lon="6.38944">
        <ele>175.9</ele>
        <time>2021-04-18T09:47:29Z</time>
      </trkpt>
      <trkpt lat="43.50708" lon="6.38944">
        <ele>175.8</ele>
        <time>2021-04-18T09:47:32Z</time>
      </trkpt>
      <trkpt lat="43.50712" lon="6.38948">
        <ele>175.6</ele>
        <time>2021-04-18T09:47:44Z</time>
      </trkpt>
      <trkpt lat="43.50717" lon="6.3895">
        <ele>175.5</ele>
        <time>2021-04-18T09:47:47Z</time>
      </trkpt>
      <trkpt lat="43.50722" lon="6.38952">
        <ele>175.5</ele>
        <time>2021-04-18T09:47:53Z</time>
      </trkpt>
      <trkpt lat="43.50723" lon="6.38958">
        <ele>175.4</ele>
        <time>2021-04-18T09:48:10Z</time>
      </trkpt>
      <trkpt lat="43.5072" lon="6.38963">
        <ele>175.4</ele>
        <time>2021-04-18T09:48:17Z</time>
      </trkpt>
      <trkpt lat="43.50714" lon="6.38962">
        <ele>175.4</ele>
        <time>2021-04-18T09:48:20Z</time>
      </trkpt>
      <trkpt lat="43.50713" lon="6.38968">
        <ele>175.6</ele>
        <time>2021-04-18T09:48:36Z</time>
      </trkpt>
      <trkpt lat="43.50717" lon="6.38975">
        <ele>175.7</ele>
        <time>2021-04-18T09:48:40Z</time>
      </trkpt>
      <trkpt lat="43.50714" lon="6.38981">
        <ele>175.7</ele>
        <time>2021-04-18T09:48:49Z</time>
      </trkpt>
      <trkpt lat="43.50709" lon="6.3898">
        <ele>175.7</ele>
        <time>2021-04-18T09:48:51Z</time>
      </trkpt>
      <trkpt lat="43.50703" lon="6.38981">
        <ele>175.7</ele>
        <time>2021-04-18T09:48:54Z</time>
      </trkpt>
      <trkpt lat="43.50698" lon="6.38981">
        <ele>175.8</ele>
        <time>2021-04-18T09:48:59Z</time>
      </trkpt>
      <trkpt lat="43.50693" lon="6.38984">
        <ele>176.6</ele>
        <time>2021-04-18T09:49:19Z</time>
      </trkpt>
      <trkpt lat="43.50688" lon="6.38984">
        <ele>177.4</ele>
        <time>2021-04-18T09:49:30Z</time>
      </trkpt>
      <trkpt lat="43.50683" lon="6.38988">
        <ele>178.5</ele>
        <time>2021-04-18T09:49:46Z</time>
      </trkpt>
      <trkpt lat="43.50678" lon="6.38989">
        <ele>178.8</ele>
        <time>2021-04-18T09:49:49Z</time>
      </trkpt>
      <trkpt lat="43.50672" lon="6.3899">
        <ele>179.3</ele>
        <time>2021-04-18T09:49:55Z</time>
      </trkpt>
      <trkpt lat="43.50668" lon="6.38991">
        <ele>179.5</ele>
        <time>2021-04-18T09:49:58Z</time>
      </trkpt>
      <trkpt lat="43.50663" lon="6.38989">
        <ele>180.7</ele>
        <time>2021-04-18T09:50:06Z</time>
      </trkpt>
      <trkpt lat="43.50659" lon="6.38985">
        <ele>182.4</ele>
        <time>2021-04-18T09:50:20Z</time>
      </trkpt>
      <trkpt lat="43.50656" lon="6.38979">
        <ele>183.7</ele>
        <time>2021-04-18T09:50:36Z</time>
      </trkpt>
      <trkpt lat="43.50654" lon="6.38973">
        <ele>184.4</ele>
        <time>2021-04-18T09:50:45Z</time>
      </trkpt>
      <trkpt lat="43.50651" lon="6.38969">
        <ele>184.9</ele>
        <time>2021-04-18T09:50:51Z</time>
      </trkpt>
      <trkpt lat="43.50646" lon="6.38967">
        <ele>185.2</ele>
        <time>2021-04-18T09:50:56Z</time>
      </trkpt>
      <trkpt lat="43.50643" lon="6.38963">
        <ele>185.5</ele>
        <time>2021-04-18T09:51:02Z</time>
      </trkpt>
      <trkpt lat="43.50639" lon="6.38957">
        <ele>185.6</ele>
        <time>2021-04-18T09:51:06Z</time>
      </trkpt>
      <trkpt lat="43.50636" lon="6.38952">
        <ele>185.7</ele>
        <time>2021-04-18T09:51:09Z</time>
      </trkpt>
      <trkpt lat="43.50633" lon="6.38946">
        <ele>185.9</ele>
        <time>2021-04-18T09:51:14Z</time>
      </trkpt>
      <trkpt lat="43.50634" lon="6.38939">
        <ele>186.1</ele>
        <time>2021-04-18T09:51:19Z</time>
      </trkpt>
      <trkpt lat="43.5063" lon="6.38933">
        <ele>186.6</ele>
        <time>2021-04-18T09:51:27Z</time>
      </trkpt>
      <trkpt lat="43.50629" lon="6.38927">
        <ele>187.3</ele>
        <time>2021-04-18T09:51:35Z</time>
      </trkpt>
      <trkpt lat="43.50628" lon="6.3892">
        <ele>187.5</ele>
        <time>2021-04-18T09:51:39Z</time>
      </trkpt>
      <trkpt lat="43.50625" lon="6.38914">
        <ele>187.7</ele>
        <time>2021-04-18T09:51:44Z</time>
      </trkpt>
      <trkpt lat="43.50624" lon="6.38908">
        <ele>187.9</ele>
        <time>2021-04-18T09:51:48Z</time>
      </trkpt>
      <trkpt lat="43.50622" lon="6.38902">
        <ele>188.2</ele>
        <time>2021-04-18T09:51:54Z</time>
      </trkpt>
      <trkpt lat="43.50619" lon="6.38897">
        <ele>188.3</ele>
        <time>2021-04-18T09:51:58Z</time>
      </trkpt>
      <trkpt lat="43.50618" lon="6.3889">
        <ele>188.5</ele>
        <time>2021-04-18T09:52:03Z</time>
      </trkpt>
      <trkpt lat="43.50618" lon="6.38883">
        <ele>189.1</ele>
        <time>2021-04-18T09:52:07Z</time>
      </trkpt>
      <trkpt lat="43.50617" lon="6.38876">
        <ele>189.5</ele>
        <time>2021-04-18T09:52:11Z</time>
      </trkpt>
      <trkpt lat="43.50621" lon="6.38874">
        <ele>189.9</ele>
        <time>2021-04-18T09:52:18Z</time>
      </trkpt>
      <trkpt lat="43.5062" lon="6.38867">
        <ele>190.3</ele>
        <time>2021-04-18T09:52:30Z</time>
      </trkpt>
      <trkpt lat="43.50619" lon="6.3886">
        <ele>190.6</ele>
        <time>2021-04-18T09:52:36Z</time>
      </trkpt>
      <trkpt lat="43.5062" lon="6.38852">
        <ele>191</ele>
        <time>2021-04-18T09:52:42Z</time>
      </trkpt>
      <trkpt lat="43.50623" lon="6.38847">
        <ele>191.4</ele>
        <time>2021-04-18T09:52:46Z</time>
      </trkpt>
      <trkpt lat="43.50625" lon="6.38842">
        <ele>192</ele>
        <time>2021-04-18T09:52:52Z</time>
      </trkpt>
      <trkpt lat="43.50626" lon="6.38835">
        <ele>192.4</ele>
        <time>2021-04-18T09:52:58Z</time>
      </trkpt>
      <trkpt lat="43.50628" lon="6.38829">
        <ele>192.9</ele>
        <time>2021-04-18T09:53:04Z</time>
      </trkpt>
      <trkpt lat="43.5063" lon="6.38823">
        <ele>193.1</ele>
        <time>2021-04-18T09:53:08Z</time>
      </trkpt>
      <trkpt lat="43.50633" lon="6.38816">
        <ele>193.3</ele>
        <time>2021-04-18T09:53:13Z</time>
      </trkpt>
      <trkpt lat="43.50635" lon="6.38809">
        <ele>193.5</ele>
        <time>2021-04-18T09:53:17Z</time>
      </trkpt>
      <trkpt lat="43.50636" lon="6.38803">
        <ele>193.7</ele>
        <time>2021-04-18T09:53:21Z</time>
      </trkpt>
      <trkpt lat="43.50638" lon="6.38797">
        <ele>194</ele>
        <time>2021-04-18T09:53:26Z</time>
      </trkpt>
      <trkpt lat="43.5064" lon="6.38791">
        <ele>194.3</ele>
        <time>2021-04-18T09:53:31Z</time>
      </trkpt>
      <trkpt lat="43.50643" lon="6.38785">
        <ele>194.5</ele>
        <time>2021-04-18T09:53:36Z</time>
      </trkpt>
      <trkpt lat="43.50643" lon="6.38778">
        <ele>194.7</ele>
        <time>2021-04-18T09:53:40Z</time>
      </trkpt>
      <trkpt lat="43.50643" lon="6.38772">
        <ele>194.9</ele>
        <time>2021-04-18T09:53:45Z</time>
      </trkpt>
      <trkpt lat="43.50644" lon="6.38764">
        <ele>195.2</ele>
        <time>2021-04-18T09:53:52Z</time>
      </trkpt>
      <trkpt lat="43.50644" lon="6.38757">
        <ele>195.7</ele>
        <time>2021-04-18T09:53:57Z</time>
      </trkpt>
      <trkpt lat="43.50646" lon="6.38751">
        <ele>196.3</ele>
        <time>2021-04-18T09:54:03Z</time>
      </trkpt>
      <trkpt lat="43.50647" lon="6.38745">
        <ele>196.7</ele>
        <time>2021-04-18T09:54:07Z</time>
      </trkpt>
      <trkpt lat="43.50647" lon="6.38738">
        <ele>197</ele>
        <time>2021-04-18T09:54:12Z</time>
      </trkpt>
      <trkpt lat="43.50647" lon="6.38732">
        <ele>197.5</ele>
        <time>2021-04-18T09:54:17Z</time>
      </trkpt>
      <trkpt lat="43.50645" lon="6.38725">
        <ele>198.1</ele>
        <time>2021-04-18T09:54:23Z</time>
      </trkpt>
      <trkpt lat="43.50644" lon="6.38718">
        <ele>199.1</ele>
        <time>2021-04-18T09:54:30Z</time>
      </trkpt>
      <trkpt lat="43.50643" lon="6.38712">
        <ele>200.1</ele>
        <time>2021-04-18T09:54:37Z</time>
      </trkpt>
      <trkpt lat="43.50646" lon="6.38706">
        <ele>200.8</ele>
        <time>2021-04-18T09:54:43Z</time>
      </trkpt>
      <trkpt lat="43.5064" lon="6.38704">
        <ele>203.2</ele>
        <time>2021-04-18T09:55:03Z</time>
      </trkpt>
      <trkpt lat="43.50635" lon="6.38703">
        <ele>203.8</ele>
        <time>2021-04-18T09:55:08Z</time>
      </trkpt>
      <trkpt lat="43.50631" lon="6.38702">
        <ele>204.4</ele>
        <time>2021-04-18T09:55:14Z</time>
      </trkpt>
      <trkpt lat="43.50625" lon="6.38701">
        <ele>204</ele>
        <time>2021-04-18T09:55:18Z</time>
      </trkpt>
      <trkpt lat="43.50622" lon="6.38697">
        <ele>206</ele>
        <time>2021-04-18T09:55:29Z</time>
      </trkpt>
      <trkpt lat="43.50617" lon="6.38693">
        <ele>206.5</ele>
        <time>2021-04-18T09:55:36Z</time>
      </trkpt>
      <trkpt lat="43.50612" lon="6.38691">
        <ele>206.7</ele>
        <time>2021-04-18T09:55:40Z</time>
      </trkpt>
      <trkpt lat="43.50607" lon="6.38688">
        <ele>207</ele>
        <time>2021-04-18T09:55:47Z</time>
      </trkpt>
      <trkpt lat="43.50602" lon="6.38685">
        <ele>207.1</ele>
        <time>2021-04-18T09:55:52Z</time>
      </trkpt>
      <trkpt lat="43.50598" lon="6.3868">
        <ele>207.6</ele>
        <time>2021-04-18T09:55:59Z</time>
      </trkpt>
      <trkpt lat="43.50594" lon="6.38676">
        <ele>208.1</ele>
        <time>2021-04-18T09:56:05Z</time>
      </trkpt>
      <trkpt lat="43.50589" lon="6.38672">
        <ele>208.6</ele>
        <time>2021-04-18T09:56:11Z</time>
      </trkpt>
      <trkpt lat="43.50586" lon="6.38668">
        <ele>209</ele>
        <time>2021-04-18T09:56:16Z</time>
      </trkpt>
      <trkpt lat="43.50583" lon="6.38663">
        <ele>209.9</ele>
        <time>2021-04-18T09:56:22Z</time>
      </trkpt>
      <trkpt lat="43.50578" lon="6.38661">
        <ele>210.5</ele>
        <time>2021-04-18T09:56:26Z</time>
      </trkpt>
      <trkpt lat="43.50578" lon="6.38654">
        <ele>211.2</ele>
        <time>2021-04-18T09:56:32Z</time>
      </trkpt>
      <trkpt lat="43.50575" lon="6.38649">
        <ele>211.5</ele>
        <time>2021-04-18T09:56:36Z</time>
      </trkpt>
      <trkpt lat="43.50571" lon="6.38645">
        <ele>211</ele>
        <time>2021-04-18T09:56:40Z</time>
      </trkpt>
      <trkpt lat="43.50567" lon="6.3864">
        <ele>212.5</ele>
        <time>2021-04-18T09:56:47Z</time>
      </trkpt>
      <trkpt lat="43.50568" lon="6.38633">
        <ele>213.2</ele>
        <time>2021-04-18T09:56:52Z</time>
      </trkpt>
      <trkpt lat="43.50567" lon="6.38626">
        <ele>213.8</ele>
        <time>2021-04-18T09:56:58Z</time>
      </trkpt>
      <trkpt lat="43.50562" lon="6.38622">
        <ele>214</ele>
        <time>2021-04-18T09:57:04Z</time>
      </trkpt>
      <trkpt lat="43.50561" lon="6.38616">
        <ele>215.3</ele>
        <time>2021-04-18T09:57:09Z</time>
      </trkpt>
      <trkpt lat="43.50559" lon="6.38609">
        <ele>215.8</ele>
        <time>2021-04-18T09:57:14Z</time>
      </trkpt>
      <trkpt lat="43.50557" lon="6.38603">
        <ele>216.1</ele>
        <time>2021-04-18T09:57:18Z</time>
      </trkpt>
      <trkpt lat="43.50551" lon="6.38598">
        <ele>216.4</ele>
        <time>2021-04-18T09:57:23Z</time>
      </trkpt>
      <trkpt lat="43.50552" lon="6.38591">
        <ele>216.7</ele>
        <time>2021-04-18T09:57:28Z</time>
      </trkpt>
      <trkpt lat="43.50556" lon="6.38585">
        <ele>217.4</ele>
        <time>2021-04-18T09:57:33Z</time>
      </trkpt>
      <trkpt lat="43.50558" lon="6.38579">
        <ele>217.8</ele>
        <time>2021-04-18T09:57:37Z</time>
      </trkpt>
      <trkpt lat="43.50554" lon="6.38576">
        <ele>219.1</ele>
        <time>2021-04-18T09:58:03Z</time>
      </trkpt>
      <trkpt lat="43.5055" lon="6.38571">
        <ele>219.6</ele>
        <time>2021-04-18T09:58:08Z</time>
      </trkpt>
      <trkpt lat="43.50551" lon="6.38563">
        <ele>219.9</ele>
        <time>2021-04-18T09:58:13Z</time>
      </trkpt>
      <trkpt lat="43.50549" lon="6.38557">
        <ele>220.2</ele>
        <time>2021-04-18T09:58:17Z</time>
      </trkpt>
      <trkpt lat="43.50552" lon="6.38552">
        <ele>220.7</ele>
        <time>2021-04-18T09:58:21Z</time>
      </trkpt>
      <trkpt lat="43.50551" lon="6.38545">
        <ele>221.3</ele>
        <time>2021-04-18T09:58:27Z</time>
      </trkpt>
      <trkpt lat="43.50554" lon="6.38539">
        <ele>221.6</ele>
        <time>2021-04-18T09:58:31Z</time>
      </trkpt>
      <trkpt lat="43.50551" lon="6.38534">
        <ele>222</ele>
        <time>2021-04-18T09:58:36Z</time>
      </trkpt>
      <trkpt lat="43.5055" lon="6.38527">
        <ele>222.5</ele>
        <time>2021-04-18T09:58:41Z</time>
      </trkpt>
      <trkpt lat="43.50553" lon="6.38522">
        <ele>222.9</ele>
        <time>2021-04-18T09:58:45Z</time>
      </trkpt>
      <trkpt lat="43.5055" lon="6.38516">
        <ele>223.8</ele>
        <time>2021-04-18T09:58:53Z</time>
      </trkpt>
      <trkpt lat="43.50551" lon="6.38509">
        <ele>224.5</ele>
        <time>2021-04-18T09:58:59Z</time>
      </trkpt>
      <trkpt lat="43.50551" lon="6.38502">
        <ele>225.1</ele>
        <time>2021-04-18T09:59:05Z</time>
      </trkpt>
      <trkpt lat="43.50545" lon="6.38497">
        <ele>225.4</ele>
        <time>2021-04-18T09:59:10Z</time>
      </trkpt>
      <trkpt lat="43.50541" lon="6.38493">
        <ele>225.8</ele>
        <time>2021-04-18T09:59:14Z</time>
      </trkpt>
      <trkpt lat="43.50537" lon="6.38487">
        <ele>226.2</ele>
        <time>2021-04-18T09:59:17Z</time>
      </trkpt>
      <trkpt lat="43.50533" lon="6.38483">
        <ele>226.6</ele>
        <time>2021-04-18T09:59:21Z</time>
      </trkpt>
      <trkpt lat="43.5053" lon="6.38478">
        <ele>227.1</ele>
        <time>2021-04-18T09:59:26Z</time>
      </trkpt>
      <trkpt lat="43.5053" lon="6.38471">
        <ele>227.8</ele>
        <time>2021-04-18T09:59:32Z</time>
      </trkpt>
      <trkpt lat="43.5053" lon="6.38464">
        <ele>228.5</ele>
        <time>2021-04-18T09:59:38Z</time>
      </trkpt>
      <trkpt lat="43.50535" lon="6.38462">
        <ele>228.7</ele>
        <time>2021-04-18T09:59:40Z</time>
      </trkpt>
      <trkpt lat="43.50535" lon="6.38455">
        <ele>229.3</ele>
        <time>2021-04-18T09:59:47Z</time>
      </trkpt>
      <trkpt lat="43.50534" lon="6.38448">
        <ele>230</ele>
        <time>2021-04-18T09:59:54Z</time>
      </trkpt>
      <trkpt lat="43.50531" lon="6.38443">
        <ele>230.4</ele>
        <time>2021-04-18T09:59:59Z</time>
      </trkpt>
      <trkpt lat="43.50527" lon="6.38437">
        <ele>231</ele>
        <time>2021-04-18T10:00:06Z</time>
      </trkpt>
      <trkpt lat="43.50527" lon="6.3843">
        <ele>231.9</ele>
        <time>2021-04-18T10:00:15Z</time>
      </trkpt>
      <trkpt lat="43.50524" lon="6.38425">
        <ele>232.7</ele>
        <time>2021-04-18T10:00:21Z</time>
      </trkpt>
      <trkpt lat="43.50523" lon="6.38419">
        <ele>233.5</ele>
        <time>2021-04-18T10:00:31Z</time>
      </trkpt>
      <trkpt lat="43.50518" lon="6.38415">
        <ele>233.8</ele>
        <time>2021-04-18T10:00:36Z</time>
      </trkpt>
      <trkpt lat="43.50514" lon="6.38411">
        <ele>234</ele>
        <time>2021-04-18T10:00:40Z</time>
      </trkpt>
      <trkpt lat="43.5051" lon="6.38406">
        <ele>234.2</ele>
        <time>2021-04-18T10:00:45Z</time>
      </trkpt>
      <trkpt lat="43.50506" lon="6.38402">
        <ele>234.4</ele>
        <time>2021-04-18T10:00:49Z</time>
      </trkpt>
      <trkpt lat="43.50507" lon="6.38395">
        <ele>234.9</ele>
        <time>2021-04-18T10:00:56Z</time>
      </trkpt>
      <trkpt lat="43.50509" lon="6.38388">
        <ele>235.4</ele>
        <time>2021-04-18T10:01:02Z</time>
      </trkpt>
      <trkpt lat="43.50509" lon="6.38381">
        <ele>236</ele>
        <time>2021-04-18T10:01:09Z</time>
      </trkpt>
      <trkpt lat="43.50513" lon="6.38377">
        <ele>236.2</ele>
        <time>2021-04-18T10:01:12Z</time>
      </trkpt>
      <trkpt lat="43.50508" lon="6.38376">
        <ele>236.3</ele>
        <time>2021-04-18T10:01:13Z</time>
      </trkpt>
      <trkpt lat="43.50504" lon="6.38371">
        <ele>236.6</ele>
        <time>2021-04-18T10:01:18Z</time>
      </trkpt>
      <trkpt lat="43.50498" lon="6.38369">
        <ele>236.8</ele>
        <time>2021-04-18T10:01:20Z</time>
      </trkpt>
      <trkpt lat="43.50492" lon="6.38368">
        <ele>236.9</ele>
        <time>2021-04-18T10:01:22Z</time>
      </trkpt>
      <trkpt lat="43.5049" lon="6.38362">
        <ele>237.3</ele>
        <time>2021-04-18T10:01:29Z</time>
      </trkpt>
      <trkpt lat="43.50487" lon="6.38355">
        <ele>237.6</ele>
        <time>2021-04-18T10:01:35Z</time>
      </trkpt>
      <trkpt lat="43.50483" lon="6.38351">
        <ele>237.8</ele>
        <time>2021-04-18T10:01:39Z</time>
      </trkpt>
      <trkpt lat="43.50484" lon="6.38343">
        <ele>238</ele>
        <time>2021-04-18T10:01:45Z</time>
      </trkpt>
      <trkpt lat="43.50483" lon="6.38336">
        <ele>238.6</ele>
        <time>2021-04-18T10:01:53Z</time>
      </trkpt>
      <trkpt lat="43.50482" lon="6.3833">
        <ele>239.2</ele>
        <time>2021-04-18T10:02:00Z</time>
      </trkpt>
      <trkpt lat="43.50479" lon="6.38324">
        <ele>239.6</ele>
        <time>2021-04-18T10:02:06Z</time>
      </trkpt>
      <trkpt lat="43.50475" lon="6.3832">
        <ele>239.7</ele>
        <time>2021-04-18T10:02:10Z</time>
      </trkpt>
      <trkpt lat="43.50471" lon="6.38317">
        <ele>239.8</ele>
        <time>2021-04-18T10:02:13Z</time>
      </trkpt>
      <trkpt lat="43.50466" lon="6.38313">
        <ele>239.9</ele>
        <time>2021-04-18T10:02:17Z</time>
      </trkpt>
      <trkpt lat="43.5046" lon="6.38312">
        <ele>240.1</ele>
        <time>2021-04-18T10:02:19Z</time>
      </trkpt>
      <trkpt lat="43.50459" lon="6.38305">
        <ele>240.6</ele>
        <time>2021-04-18T10:02:24Z</time>
      </trkpt>
      <trkpt lat="43.5046" lon="6.38297">
        <ele>240.7</ele>
        <time>2021-04-18T10:02:29Z</time>
      </trkpt>
      <trkpt lat="43.50457" lon="6.38291">
        <ele>240.8</ele>
        <time>2021-04-18T10:02:35Z</time>
      </trkpt>
      <trkpt lat="43.50453" lon="6.38286">
        <ele>240.9</ele>
        <time>2021-04-18T10:02:39Z</time>
      </trkpt>
      <trkpt lat="43.50447" lon="6.38283">
        <ele>241</ele>
        <time>2021-04-18T10:02:42Z</time>
      </trkpt>
      <trkpt lat="43.50439" lon="6.38277">
        <ele>241</ele>
        <time>2021-04-18T10:02:47Z</time>
      </trkpt>
      <trkpt lat="43.50432" lon="6.38274">
        <ele>241.1</ele>
        <time>2021-04-18T10:02:50Z</time>
      </trkpt>
      <trkpt lat="43.50427" lon="6.38271">
        <ele>241.2</ele>
        <time>2021-04-18T10:02:53Z</time>
      </trkpt>
      <trkpt lat="43.50424" lon="6.38267">
        <ele>242</ele>
        <time>2021-04-18T10:03:14Z</time>
      </trkpt>
      <trkpt lat="43.50419" lon="6.38266">
        <ele>242.3</ele>
        <time>2021-04-18T10:03:24Z</time>
      </trkpt>
      <trkpt lat="43.50414" lon="6.38265">
        <ele>242.6</ele>
        <time>2021-04-18T10:03:32Z</time>
      </trkpt>
      <trkpt lat="43.50409" lon="6.38267">
        <ele>243</ele>
        <time>2021-04-18T10:03:37Z</time>
      </trkpt>
      <trkpt lat="43.50412" lon="6.38262">
        <ele>243.4</ele>
        <time>2021-04-18T10:03:45Z</time>
      </trkpt>
      <trkpt lat="43.50406" lon="6.38259">
        <ele>243.6</ele>
        <time>2021-04-18T10:03:50Z</time>
      </trkpt>
      <trkpt lat="43.50401" lon="6.3826">
        <ele>243.7</ele>
        <time>2021-04-18T10:03:52Z</time>
      </trkpt>
      <trkpt lat="43.50397" lon="6.38259">
        <ele>243.9</ele>
        <time>2021-04-18T10:03:57Z</time>
      </trkpt>
      <trkpt lat="43.5039" lon="6.38258">
        <ele>244.7</ele>
        <time>2021-04-18T10:04:04Z</time>
      </trkpt>
      <trkpt lat="43.50375" lon="6.3826">
        <ele>244</ele>
        <time>2021-04-18T10:04:08Z</time>
      </trkpt>
      <trkpt lat="43.50366" lon="6.38263">
        <ele>244</ele>
        <time>2021-04-18T10:04:14Z</time>
      </trkpt>
      <trkpt lat="43.50371" lon="6.38262">
        <ele>245</ele>
        <time>2021-04-18T10:04:23Z</time>
      </trkpt>
      <trkpt lat="43.50376" lon="6.38261">
        <ele>244.9</ele>
        <time>2021-04-18T10:04:28Z</time>
      </trkpt>
      <trkpt lat="43.50372" lon="6.38258">
        <ele>245.7</ele>
        <time>2021-04-18T10:05:00Z</time>
      </trkpt>
      <trkpt lat="43.50367" lon="6.38256">
        <ele>245.6</ele>
        <time>2021-04-18T10:05:06Z</time>
      </trkpt>
      <trkpt lat="43.50361" lon="6.38252">
        <ele>245</ele>
        <time>2021-04-18T10:05:12Z</time>
      </trkpt>
      <trkpt lat="43.50365" lon="6.38248">
        <ele>246.1</ele>
        <time>2021-04-18T10:05:18Z</time>
      </trkpt>
      <trkpt lat="43.50371" lon="6.38246">
        <ele>246.2</ele>
        <time>2021-04-18T10:05:19Z</time>
      </trkpt>
      <trkpt lat="43.50367" lon="6.38243">
        <ele>246.4</ele>
        <time>2021-04-18T10:05:25Z</time>
      </trkpt>
      <trkpt lat="43.50371" lon="6.38238">
        <ele>246.5</ele>
        <time>2021-04-18T10:05:33Z</time>
      </trkpt>
      <trkpt lat="43.50368" lon="6.38232">
        <ele>246.6</ele>
        <time>2021-04-18T10:05:43Z</time>
      </trkpt>
      <trkpt lat="43.50364" lon="6.38227">
        <ele>246.6</ele>
        <time>2021-04-18T10:05:49Z</time>
      </trkpt>
      <trkpt lat="43.50359" lon="6.38224">
        <ele>246.6</ele>
        <time>2021-04-18T10:05:52Z</time>
      </trkpt>
      <trkpt lat="43.50355" lon="6.38221">
        <ele>246.5</ele>
        <time>2021-04-18T10:05:57Z</time>
      </trkpt>
      <trkpt lat="43.50359" lon="6.38216">
        <ele>246.4</ele>
        <time>2021-04-18T10:06:01Z</time>
      </trkpt>
      <trkpt lat="43.50359" lon="6.3821">
        <ele>246.4</ele>
        <time>2021-04-18T10:06:08Z</time>
      </trkpt>
      <trkpt lat="43.50355" lon="6.38206">
        <ele>246.5</ele>
        <time>2021-04-18T10:06:12Z</time>
      </trkpt>
      <trkpt lat="43.5035" lon="6.38202">
        <ele>246.8</ele>
        <time>2021-04-18T10:06:15Z</time>
      </trkpt>
      <trkpt lat="43.50346" lon="6.38197">
        <ele>247.2</ele>
        <time>2021-04-18T10:06:20Z</time>
      </trkpt>
      <trkpt lat="43.50339" lon="6.38193">
        <ele>247</ele>
        <time>2021-04-18T10:06:26Z</time>
      </trkpt>
      <trkpt lat="43.50334" lon="6.38194">
        <ele>247.9</ele>
        <time>2021-04-18T10:06:30Z</time>
      </trkpt>
      <trkpt lat="43.5033" lon="6.38194">
        <ele>248.2</ele>
        <time>2021-04-18T10:06:36Z</time>
      </trkpt>
      <trkpt lat="43.50325" lon="6.38193">
        <ele>248.3</ele>
        <time>2021-04-18T10:06:41Z</time>
      </trkpt>
      <trkpt lat="43.5032" lon="6.3819">
        <ele>248.2</ele>
        <time>2021-04-18T10:06:45Z</time>
      </trkpt>
      <trkpt lat="43.50315" lon="6.38188">
        <ele>248.2</ele>
        <time>2021-04-18T10:06:48Z</time>
      </trkpt>
      <trkpt lat="43.5031" lon="6.38183">
        <ele>248.2</ele>
        <time>2021-04-18T10:06:51Z</time>
      </trkpt>
      <trkpt lat="43.50306" lon="6.3818">
        <ele>248.3</ele>
        <time>2021-04-18T10:06:54Z</time>
      </trkpt>
      <trkpt lat="43.50305" lon="6.38174">
        <ele>248.2</ele>
        <time>2021-04-18T10:07:00Z</time>
      </trkpt>
      <trkpt lat="43.50301" lon="6.38169">
        <ele>248.1</ele>
        <time>2021-04-18T10:07:04Z</time>
      </trkpt>
      <trkpt lat="43.50303" lon="6.38162">
        <ele>248</ele>
        <time>2021-04-18T10:07:08Z</time>
      </trkpt>
      <trkpt lat="43.503" lon="6.38156">
        <ele>247.8</ele>
        <time>2021-04-18T10:07:13Z</time>
      </trkpt>
      <trkpt lat="43.50298" lon="6.38151">
        <ele>247.8</ele>
        <time>2021-04-18T10:07:16Z</time>
      </trkpt>
      <trkpt lat="43.50302" lon="6.38145">
        <ele>248.2</ele>
        <time>2021-04-18T10:07:21Z</time>
      </trkpt>
      <trkpt lat="43.50307" lon="6.38142">
        <ele>248.3</ele>
        <time>2021-04-18T10:07:23Z</time>
      </trkpt>
      <trkpt lat="43.5031" lon="6.38136">
        <ele>248.5</ele>
        <time>2021-04-18T10:07:28Z</time>
      </trkpt>
      <trkpt lat="43.5031" lon="6.38129">
        <ele>248</ele>
        <time>2021-04-18T10:07:33Z</time>
      </trkpt>
      <trkpt lat="43.50306" lon="6.38123">
        <ele>248.7</ele>
        <time>2021-04-18T10:07:38Z</time>
      </trkpt>
      <trkpt lat="43.50306" lon="6.38116">
        <ele>248.8</ele>
        <time>2021-04-18T10:07:42Z</time>
      </trkpt>
      <trkpt lat="43.50305" lon="6.3811">
        <ele>249</ele>
        <time>2021-04-18T10:07:45Z</time>
      </trkpt>
      <trkpt lat="43.50298" lon="6.38108">
        <ele>249.1</ele>
        <time>2021-04-18T10:07:47Z</time>
      </trkpt>
      <trkpt lat="43.50293" lon="6.38108">
        <ele>249.2</ele>
        <time>2021-04-18T10:07:48Z</time>
      </trkpt>
      <trkpt lat="43.50288" lon="6.38105">
        <ele>249.3</ele>
        <time>2021-04-18T10:07:50Z</time>
      </trkpt>
      <trkpt lat="43.50284" lon="6.38102">
        <ele>249.4</ele>
        <time>2021-04-18T10:07:53Z</time>
      </trkpt>
      <trkpt lat="43.50282" lon="6.38095">
        <ele>249.6</ele>
        <time>2021-04-18T10:07:57Z</time>
      </trkpt>
      <trkpt lat="43.5028" lon="6.38089">
        <ele>249.9</ele>
        <time>2021-04-18T10:08:01Z</time>
      </trkpt>
      <trkpt lat="43.5028" lon="6.38083">
        <ele>249.9</ele>
        <time>2021-04-18T10:08:05Z</time>
      </trkpt>
      <trkpt lat="43.50282" lon="6.38076">
        <ele>249.8</ele>
        <time>2021-04-18T10:08:09Z</time>
      </trkpt>
      <trkpt lat="43.50285" lon="6.38072">
        <ele>249.9</ele>
        <time>2021-04-18T10:08:12Z</time>
      </trkpt>
      <trkpt lat="43.50289" lon="6.38065">
        <ele>250</ele>
        <time>2021-04-18T10:08:15Z</time>
      </trkpt>
      <trkpt lat="43.50291" lon="6.38059">
        <ele>250.2</ele>
        <time>2021-04-18T10:08:20Z</time>
      </trkpt>
      <trkpt lat="43.50287" lon="6.38053">
        <ele>250.3</ele>
        <time>2021-04-18T10:08:24Z</time>
      </trkpt>
      <trkpt lat="43.50283" lon="6.38049">
        <ele>250.6</ele>
        <time>2021-04-18T10:08:28Z</time>
      </trkpt>
      <trkpt lat="43.50277" lon="6.38048">
        <ele>250.8</ele>
        <time>2021-04-18T10:08:30Z</time>
      </trkpt>
      <trkpt lat="43.50276" lon="6.3804">
        <ele>251.1</ele>
        <time>2021-04-18T10:08:35Z</time>
      </trkpt>
      <trkpt lat="43.50275" lon="6.38034">
        <ele>251.2</ele>
        <time>2021-04-18T10:08:39Z</time>
      </trkpt>
      <trkpt lat="43.50278" lon="6.38025">
        <ele>251</ele>
        <time>2021-04-18T10:08:44Z</time>
      </trkpt>
      <trkpt lat="43.50275" lon="6.38019">
        <ele>251.3</ele>
        <time>2021-04-18T10:08:48Z</time>
      </trkpt>
      <trkpt lat="43.50272" lon="6.38014">
        <ele>251.3</ele>
        <time>2021-04-18T10:08:52Z</time>
      </trkpt>
      <trkpt lat="43.5027" lon="6.38006">
        <ele>251.2</ele>
        <time>2021-04-18T10:08:56Z</time>
      </trkpt>
      <trkpt lat="43.50269" lon="6.37999">
        <ele>251</ele>
        <time>2021-04-18T10:09:00Z</time>
      </trkpt>
      <trkpt lat="43.5027" lon="6.37992">
        <ele>250.8</ele>
        <time>2021-04-18T10:09:05Z</time>
      </trkpt>
      <trkpt lat="43.50271" lon="6.37984">
        <ele>250</ele>
        <time>2021-04-18T10:09:08Z</time>
      </trkpt>
      <trkpt lat="43.50272" lon="6.37977">
        <ele>250.4</ele>
        <time>2021-04-18T10:09:13Z</time>
      </trkpt>
      <trkpt lat="43.5027" lon="6.37971">
        <ele>250.3</ele>
        <time>2021-04-18T10:09:17Z</time>
      </trkpt>
      <trkpt lat="43.50265" lon="6.37969">
        <ele>250.3</ele>
        <time>2021-04-18T10:09:19Z</time>
      </trkpt>
      <trkpt lat="43.50262" lon="6.37962">
        <ele>250</ele>
        <time>2021-04-18T10:09:22Z</time>
      </trkpt>
      <trkpt lat="43.50256" lon="6.37957">
        <ele>249.9</ele>
        <time>2021-04-18T10:09:29Z</time>
      </trkpt>
      <trkpt lat="43.50252" lon="6.37953">
        <ele>250.1</ele>
        <time>2021-04-18T10:09:33Z</time>
      </trkpt>
      <trkpt lat="43.50249" lon="6.37949">
        <ele>250.3</ele>
        <time>2021-04-18T10:09:38Z</time>
      </trkpt>
      <trkpt lat="43.50247" lon="6.37943">
        <ele>250.5</ele>
        <time>2021-04-18T10:09:44Z</time>
      </trkpt>
      <trkpt lat="43.50244" lon="6.37939">
        <ele>250.9</ele>
        <time>2021-04-18T10:09:52Z</time>
      </trkpt>
      <trkpt lat="43.5024" lon="6.37934">
        <ele>251.7</ele>
        <time>2021-04-18T10:10:02Z</time>
      </trkpt>
      <trkpt lat="43.50237" lon="6.37929">
        <ele>253.5</ele>
        <time>2021-04-18T10:10:21Z</time>
      </trkpt>
      <trkpt lat="43.50236" lon="6.37923">
        <ele>254</ele>
        <time>2021-04-18T10:10:29Z</time>
      </trkpt>
      <trkpt lat="43.50232" lon="6.37918">
        <ele>254.8</ele>
        <time>2021-04-18T10:10:36Z</time>
      </trkpt>
      <trkpt lat="43.5023" lon="6.37913">
        <ele>255.5</ele>
        <time>2021-04-18T10:10:42Z</time>
      </trkpt>
      <trkpt lat="43.50228" lon="6.37907">
        <ele>256.1</ele>
        <time>2021-04-18T10:10:49Z</time>
      </trkpt>
      <trkpt lat="43.50223" lon="6.37903">
        <ele>256.4</ele>
        <time>2021-04-18T10:10:53Z</time>
      </trkpt>
      <trkpt lat="43.50217" lon="6.37903">
        <ele>256.5</ele>
        <time>2021-04-18T10:10:55Z</time>
      </trkpt>
      <trkpt lat="43.50221" lon="6.37897">
        <ele>257</ele>
        <time>2021-04-18T10:11:00Z</time>
      </trkpt>
      <trkpt lat="43.50221" lon="6.37891">
        <ele>257.3</ele>
        <time>2021-04-18T10:11:04Z</time>
      </trkpt>
      <trkpt lat="43.50221" lon="6.37884">
        <ele>257.6</ele>
        <time>2021-04-18T10:11:09Z</time>
      </trkpt>
      <trkpt lat="43.50223" lon="6.37878">
        <ele>257.9</ele>
        <time>2021-04-18T10:11:14Z</time>
      </trkpt>
      <trkpt lat="43.50223" lon="6.37871">
        <ele>258.3</ele>
        <time>2021-04-18T10:11:19Z</time>
      </trkpt>
      <trkpt lat="43.5022" lon="6.37866">
        <ele>258.5</ele>
        <time>2021-04-18T10:11:23Z</time>
      </trkpt>
      <trkpt lat="43.50218" lon="6.37861">
        <ele>259</ele>
        <time>2021-04-18T10:11:28Z</time>
      </trkpt>
      <trkpt lat="43.50219" lon="6.37854">
        <ele>259.4</ele>
        <time>2021-04-18T10:11:34Z</time>
      </trkpt>
      <trkpt lat="43.50224" lon="6.37848">
        <ele>259.6</ele>
        <time>2021-04-18T10:11:37Z</time>
      </trkpt>
      <trkpt lat="43.50229" lon="6.37844">
        <ele>259.7</ele>
        <time>2021-04-18T10:11:40Z</time>
      </trkpt>
      <trkpt lat="43.50227" lon="6.37837">
        <ele>259.8</ele>
        <time>2021-04-18T10:11:44Z</time>
      </trkpt>
      <trkpt lat="43.50223" lon="6.37832">
        <ele>260</ele>
        <time>2021-04-18T10:11:48Z</time>
      </trkpt>
      <trkpt lat="43.50223" lon="6.37825">
        <ele>260.1</ele>
        <time>2021-04-18T10:11:52Z</time>
      </trkpt>
      <trkpt lat="43.50217" lon="6.37821">
        <ele>260.2</ele>
        <time>2021-04-18T10:11:55Z</time>
      </trkpt>
      <trkpt lat="43.50216" lon="6.37815">
        <ele>260.2</ele>
        <time>2021-04-18T10:11:59Z</time>
      </trkpt>
      <trkpt lat="43.50212" lon="6.3781">
        <ele>260.3</ele>
        <time>2021-04-18T10:12:03Z</time>
      </trkpt>
      <trkpt lat="43.50208" lon="6.37803">
        <ele>260.3</ele>
        <time>2021-04-18T10:12:07Z</time>
      </trkpt>
      <trkpt lat="43.50212" lon="6.37797">
        <ele>260.5</ele>
        <time>2021-04-18T10:12:11Z</time>
      </trkpt>
      <trkpt lat="43.50212" lon="6.37789">
        <ele>260.7</ele>
        <time>2021-04-18T10:12:18Z</time>
      </trkpt>
      <trkpt lat="43.50211" lon="6.37782">
        <ele>260.8</ele>
        <time>2021-04-18T10:12:23Z</time>
      </trkpt>
      <trkpt lat="43.5021" lon="6.37775">
        <ele>260.9</ele>
        <time>2021-04-18T10:12:28Z</time>
      </trkpt>
      <trkpt lat="43.50215" lon="6.3777">
        <ele>260.9</ele>
        <time>2021-04-18T10:12:31Z</time>
      </trkpt>
      <trkpt lat="43.50216" lon="6.37762">
        <ele>260.9</ele>
        <time>2021-04-18T10:12:36Z</time>
      </trkpt>
      <trkpt lat="43.50215" lon="6.37756">
        <ele>261</ele>
        <time>2021-04-18T10:12:41Z</time>
      </trkpt>
      <trkpt lat="43.50216" lon="6.37749">
        <ele>261</ele>
        <time>2021-04-18T10:12:45Z</time>
      </trkpt>
      <trkpt lat="43.50212" lon="6.37744">
        <ele>261.1</ele>
        <time>2021-04-18T10:12:49Z</time>
      </trkpt>
      <trkpt lat="43.50208" lon="6.37738">
        <ele>261.2</ele>
        <time>2021-04-18T10:12:54Z</time>
      </trkpt>
      <trkpt lat="43.50205" lon="6.37733">
        <ele>261.3</ele>
        <time>2021-04-18T10:12:58Z</time>
      </trkpt>
      <trkpt lat="43.502" lon="6.37728">
        <ele>261.5</ele>
        <time>2021-04-18T10:13:02Z</time>
      </trkpt>
      <trkpt lat="43.50195" lon="6.37727">
        <ele>261.6</ele>
        <time>2021-04-18T10:13:04Z</time>
      </trkpt>
      <trkpt lat="43.50193" lon="6.3772">
        <ele>261.8</ele>
        <time>2021-04-18T10:13:08Z</time>
      </trkpt>
      <trkpt lat="43.5019" lon="6.37713">
        <ele>261.9</ele>
        <time>2021-04-18T10:13:13Z</time>
      </trkpt>
      <trkpt lat="43.50189" lon="6.37706">
        <ele>262</ele>
        <time>2021-04-18T10:13:18Z</time>
      </trkpt>
      <trkpt lat="43.50188" lon="6.37699">
        <ele>262.2</ele>
        <time>2021-04-18T10:13:24Z</time>
      </trkpt>
      <trkpt lat="43.50191" lon="6.37694">
        <ele>262.4</ele>
        <time>2021-04-18T10:13:29Z</time>
      </trkpt>
      <trkpt lat="43.50193" lon="6.37688">
        <ele>262.5</ele>
        <time>2021-04-18T10:13:32Z</time>
      </trkpt>
      <trkpt lat="43.5019" lon="6.37682">
        <ele>262.8</ele>
        <time>2021-04-18T10:13:36Z</time>
      </trkpt>
      <trkpt lat="43.50186" lon="6.37678">
        <ele>262.9</ele>
        <time>2021-04-18T10:13:39Z</time>
      </trkpt>
      <trkpt lat="43.50182" lon="6.37675">
        <ele>263.1</ele>
        <time>2021-04-18T10:13:42Z</time>
      </trkpt>
      <trkpt lat="43.50182" lon="6.37668">
        <ele>263.4</ele>
        <time>2021-04-18T10:13:47Z</time>
      </trkpt>
      <trkpt lat="43.50178" lon="6.37663">
        <ele>264.1</ele>
        <time>2021-04-18T10:13:56Z</time>
      </trkpt>
      <trkpt lat="43.50181" lon="6.37657">
        <ele>264.7</ele>
        <time>2021-04-18T10:14:01Z</time>
      </trkpt>
      <trkpt lat="43.50177" lon="6.37653">
        <ele>265</ele>
        <time>2021-04-18T10:14:04Z</time>
      </trkpt>
      <trkpt lat="43.50176" lon="6.37646">
        <ele>265.7</ele>
        <time>2021-04-18T10:14:09Z</time>
      </trkpt>
      <trkpt lat="43.50176" lon="6.3764">
        <ele>265.9</ele>
        <time>2021-04-18T10:14:13Z</time>
      </trkpt>
      <trkpt lat="43.50173" lon="6.37634">
        <ele>266.1</ele>
        <time>2021-04-18T10:14:19Z</time>
      </trkpt>
      <trkpt lat="43.50169" lon="6.37628">
        <ele>266.3</ele>
        <time>2021-04-18T10:14:24Z</time>
      </trkpt>
      <trkpt lat="43.50164" lon="6.37627">
        <ele>266.6</ele>
        <time>2021-04-18T10:14:27Z</time>
      </trkpt>
      <trkpt lat="43.50163" lon="6.3762">
        <ele>267</ele>
        <time>2021-04-18T10:14:34Z</time>
      </trkpt>
      <trkpt lat="43.50159" lon="6.37615">
        <ele>267.3</ele>
        <time>2021-04-18T10:14:38Z</time>
      </trkpt>
      <trkpt lat="43.50155" lon="6.37611">
        <ele>267.6</ele>
        <time>2021-04-18T10:14:42Z</time>
      </trkpt>
      <trkpt lat="43.50152" lon="6.37606">
        <ele>267.9</ele>
        <time>2021-04-18T10:14:46Z</time>
      </trkpt>
      <trkpt lat="43.50152" lon="6.37599">
        <ele>268.2</ele>
        <time>2021-04-18T10:14:51Z</time>
      </trkpt>
      <trkpt lat="43.50147" lon="6.37594">
        <ele>268.5</ele>
        <time>2021-04-18T10:14:56Z</time>
      </trkpt>
      <trkpt lat="43.50142" lon="6.3759">
        <ele>268.5</ele>
        <time>2021-04-18T10:15:00Z</time>
      </trkpt>
      <trkpt lat="43.5014" lon="6.37584">
        <ele>268.5</ele>
        <time>2021-04-18T10:15:05Z</time>
      </trkpt>
      <trkpt lat="43.50138" lon="6.37577">
        <ele>268.8</ele>
        <time>2021-04-18T10:15:11Z</time>
      </trkpt>
      <trkpt lat="43.50135" lon="6.37572">
        <ele>269.1</ele>
        <time>2021-04-18T10:15:16Z</time>
      </trkpt>
      <trkpt lat="43.50131" lon="6.37567">
        <ele>269.4</ele>
        <time>2021-04-18T10:15:21Z</time>
      </trkpt>
      <trkpt lat="43.50126" lon="6.37563">
        <ele>270.1</ele>
        <time>2021-04-18T10:15:26Z</time>
      </trkpt>
      <trkpt lat="43.50122" lon="6.37559">
        <ele>270.6</ele>
        <time>2021-04-18T10:15:31Z</time>
      </trkpt>
      <trkpt lat="43.50123" lon="6.37552">
        <ele>270.8</ele>
        <time>2021-04-18T10:15:35Z</time>
      </trkpt>
      <trkpt lat="43.50124" lon="6.37546">
        <ele>271.1</ele>
        <time>2021-04-18T10:15:39Z</time>
      </trkpt>
      <trkpt lat="43.50124" lon="6.37539">
        <ele>271.5</ele>
        <time>2021-04-18T10:15:44Z</time>
      </trkpt>
      <trkpt lat="43.50123" lon="6.37533">
        <ele>272.3</ele>
        <time>2021-04-18T10:15:51Z</time>
      </trkpt>
      <trkpt lat="43.50116" lon="6.37531">
        <ele>272.6</ele>
        <time>2021-04-18T10:15:54Z</time>
      </trkpt>
      <trkpt lat="43.5012" lon="6.37526">
        <ele>273.1</ele>
        <time>2021-04-18T10:15:58Z</time>
      </trkpt>
      <trkpt lat="43.50116" lon="6.37522">
        <ele>273.6</ele>
        <time>2021-04-18T10:16:05Z</time>
      </trkpt>
      <trkpt lat="43.50112" lon="6.37519">
        <ele>273.9</ele>
        <time>2021-04-18T10:16:08Z</time>
      </trkpt>
      <trkpt lat="43.50115" lon="6.37514">
        <ele>274.1</ele>
        <time>2021-04-18T10:16:12Z</time>
      </trkpt>
      <trkpt lat="43.50119" lon="6.37509">
        <ele>274.6</ele>
        <time>2021-04-18T10:16:15Z</time>
      </trkpt>
      <trkpt lat="43.50114" lon="6.37508">
        <ele>275</ele>
        <time>2021-04-18T10:16:18Z</time>
      </trkpt>
      <trkpt lat="43.50114" lon="6.37502">
        <ele>275.4</ele>
        <time>2021-04-18T10:16:23Z</time>
      </trkpt>
      <trkpt lat="43.50112" lon="6.37496">
        <ele>275.9</ele>
        <time>2021-04-18T10:16:28Z</time>
      </trkpt>
      <trkpt lat="43.50113" lon="6.37489">
        <ele>276.2</ele>
        <time>2021-04-18T10:16:33Z</time>
      </trkpt>
      <trkpt lat="43.5011" lon="6.37486">
        <ele>276.8</ele>
        <time>2021-04-18T10:16:38Z</time>
      </trkpt>
      <trkpt lat="43.50105" lon="6.37483">
        <ele>277.4</ele>
        <time>2021-04-18T10:16:42Z</time>
      </trkpt>
      <trkpt lat="43.50101" lon="6.37481">
        <ele>278</ele>
        <time>2021-04-18T10:16:49Z</time>
      </trkpt>
      <trkpt lat="43.50104" lon="6.37475">
        <ele>278.8</ele>
        <time>2021-04-18T10:16:58Z</time>
      </trkpt>
      <trkpt lat="43.50103" lon="6.37468">
        <ele>279.5</ele>
        <time>2021-04-18T10:17:04Z</time>
      </trkpt>
      <trkpt lat="43.50099" lon="6.37463">
        <ele>280</ele>
        <time>2021-04-18T10:17:10Z</time>
      </trkpt>
      <trkpt lat="43.50098" lon="6.37457">
        <ele>280.9</ele>
        <time>2021-04-18T10:17:18Z</time>
      </trkpt>
      <trkpt lat="43.50098" lon="6.3745">
        <ele>281.2</ele>
        <time>2021-04-18T10:17:24Z</time>
      </trkpt>
      <trkpt lat="43.50096" lon="6.37445">
        <ele>281.7</ele>
        <time>2021-04-18T10:17:29Z</time>
      </trkpt>
      <trkpt lat="43.50093" lon="6.37439">
        <ele>282.3</ele>
        <time>2021-04-18T10:17:34Z</time>
      </trkpt>
      <trkpt lat="43.50092" lon="6.37433">
        <ele>282.9</ele>
        <time>2021-04-18T10:17:41Z</time>
      </trkpt>
      <trkpt lat="43.50094" lon="6.37426">
        <ele>283.6</ele>
        <time>2021-04-18T10:17:47Z</time>
      </trkpt>
      <trkpt lat="43.50094" lon="6.3742">
        <ele>284.7</ele>
        <time>2021-04-18T10:17:55Z</time>
      </trkpt>
      <trkpt lat="43.50093" lon="6.37413">
        <ele>285.3</ele>
        <time>2021-04-18T10:18:01Z</time>
      </trkpt>
      <trkpt lat="43.50096" lon="6.37407">
        <ele>285.5</ele>
        <time>2021-04-18T10:18:05Z</time>
      </trkpt>
      <trkpt lat="43.50098" lon="6.37401">
        <ele>286</ele>
        <time>2021-04-18T10:18:09Z</time>
      </trkpt>
      <trkpt lat="43.50099" lon="6.37394">
        <ele>286.4</ele>
        <time>2021-04-18T10:18:13Z</time>
      </trkpt>
      <trkpt lat="43.50098" lon="6.37387">
        <ele>286.7</ele>
        <time>2021-04-18T10:18:17Z</time>
      </trkpt>
      <trkpt lat="43.50091" lon="6.37385">
        <ele>287.1</ele>
        <time>2021-04-18T10:18:23Z</time>
      </trkpt>
      <trkpt lat="43.50084" lon="6.37383">
        <ele>287.4</ele>
        <time>2021-04-18T10:18:26Z</time>
      </trkpt>
      <trkpt lat="43.50079" lon="6.37383">
        <ele>287.7</ele>
        <time>2021-04-18T10:18:28Z</time>
      </trkpt>
      <trkpt lat="43.50074" lon="6.37382">
        <ele>288.1</ele>
        <time>2021-04-18T10:18:33Z</time>
      </trkpt>
      <trkpt lat="43.50068" lon="6.37382">
        <ele>288.4</ele>
        <time>2021-04-18T10:18:37Z</time>
      </trkpt>
      <trkpt lat="43.50063" lon="6.37383">
        <ele>288.5</ele>
        <time>2021-04-18T10:18:39Z</time>
      </trkpt>
      <trkpt lat="43.50065" lon="6.37378">
        <ele>289.1</ele>
        <time>2021-04-18T10:18:48Z</time>
      </trkpt>
      <trkpt lat="43.50063" lon="6.37373">
        <ele>290.4</ele>
        <time>2021-04-18T10:19:02Z</time>
      </trkpt>
      <trkpt lat="43.50067" lon="6.37371">
        <ele>290.5</ele>
        <time>2021-04-18T10:19:04Z</time>
      </trkpt>
      <trkpt lat="43.50074" lon="6.37368">
        <ele>290.8</ele>
        <time>2021-04-18T10:19:07Z</time>
      </trkpt>
      <trkpt lat="43.5007" lon="6.37371">
        <ele>290.9</ele>
        <time>2021-04-18T10:19:10Z</time>
      </trkpt>
      <trkpt lat="43.50064" lon="6.37373">
        <ele>291</ele>
        <time>2021-04-18T10:19:12Z</time>
      </trkpt>
      <trkpt lat="43.50059" lon="6.37375">
        <ele>291.2</ele>
        <time>2021-04-18T10:19:16Z</time>
      </trkpt>
      <trkpt lat="43.50054" lon="6.37378">
        <ele>291.5</ele>
        <time>2021-04-18T10:19:20Z</time>
      </trkpt>
      <trkpt lat="43.50048" lon="6.37381">
        <ele>291.9</ele>
        <time>2021-04-18T10:19:25Z</time>
      </trkpt>
      <trkpt lat="43.5004" lon="6.37381">
        <ele>292.9</ele>
        <time>2021-04-18T10:19:39Z</time>
      </trkpt>
      <trkpt lat="43.50035" lon="6.37383">
        <ele>293</ele>
        <time>2021-04-18T10:19:41Z</time>
      </trkpt>
      <trkpt lat="43.50031" lon="6.37387">
        <ele>293.2</ele>
        <time>2021-04-18T10:19:44Z</time>
      </trkpt>
      <trkpt lat="43.50026" lon="6.3739">
        <ele>293.4</ele>
        <time>2021-04-18T10:19:47Z</time>
      </trkpt>
      <trkpt lat="43.50022" lon="6.37395">
        <ele>293.7</ele>
        <time>2021-04-18T10:19:50Z</time>
      </trkpt>
      <trkpt lat="43.50017" lon="6.374">
        <ele>293.9</ele>
        <time>2021-04-18T10:19:52Z</time>
      </trkpt>
      <trkpt lat="43.50015" lon="6.37405">
        <ele>294.2</ele>
        <time>2021-04-18T10:19:56Z</time>
      </trkpt>
      <trkpt lat="43.50011" lon="6.3741">
        <ele>294.4</ele>
        <time>2021-04-18T10:19:59Z</time>
      </trkpt>
      <trkpt lat="43.50011" lon="6.37416">
        <ele>294.6</ele>
        <time>2021-04-18T10:20:03Z</time>
      </trkpt>
      <trkpt lat="43.50008" lon="6.37424">
        <ele>294.9</ele>
        <time>2021-04-18T10:20:07Z</time>
      </trkpt>
      <trkpt lat="43.50003" lon="6.37431">
        <ele>295</ele>
        <time>2021-04-18T10:20:10Z</time>
      </trkpt>
      <trkpt lat="43.50003" lon="6.37438">
        <ele>295.2</ele>
        <time>2021-04-18T10:20:14Z</time>
      </trkpt>
      <trkpt lat="43.50008" lon="6.37444">
        <ele>295.3</ele>
        <time>2021-04-18T10:20:18Z</time>
      </trkpt>
      <trkpt lat="43.50007" lon="6.37453">
        <ele>295.3</ele>
        <time>2021-04-18T10:20:23Z</time>
      </trkpt>
      <trkpt lat="43.50006" lon="6.37466">
        <ele>294</ele>
        <time>2021-04-18T10:20:32Z</time>
      </trkpt>
      <trkpt lat="43.49996" lon="6.37474">
        <ele>294.5</ele>
        <time>2021-04-18T10:20:37Z</time>
      </trkpt>
      <trkpt lat="43.49993" lon="6.37479">
        <ele>294.3</ele>
        <time>2021-04-18T10:20:40Z</time>
      </trkpt>
      <trkpt lat="43.49995" lon="6.37485">
        <ele>293.9</ele>
        <time>2021-04-18T10:20:45Z</time>
      </trkpt>
      <trkpt lat="43.49997" lon="6.37492">
        <ele>293.7</ele>
        <time>2021-04-18T10:20:48Z</time>
      </trkpt>
      <trkpt lat="43.49993" lon="6.37498">
        <ele>293.5</ele>
        <time>2021-04-18T10:20:52Z</time>
      </trkpt>
      <trkpt lat="43.49993" lon="6.37504">
        <ele>293.2</ele>
        <time>2021-04-18T10:20:58Z</time>
      </trkpt>
      <trkpt lat="43.49992" lon="6.37511">
        <ele>293</ele>
        <time>2021-04-18T10:21:01Z</time>
      </trkpt>
      <trkpt lat="43.49991" lon="6.37517">
        <ele>292.7</ele>
        <time>2021-04-18T10:21:04Z</time>
      </trkpt>
      <trkpt lat="43.49992" lon="6.37524">
        <ele>292.2</ele>
        <time>2021-04-18T10:21:08Z</time>
      </trkpt>
      <trkpt lat="43.49991" lon="6.37531">
        <ele>291.9</ele>
        <time>2021-04-18T10:21:12Z</time>
      </trkpt>
      <trkpt lat="43.49988" lon="6.37536">
        <ele>291.6</ele>
        <time>2021-04-18T10:21:15Z</time>
      </trkpt>
      <trkpt lat="43.49982" lon="6.37544">
        <ele>291.4</ele>
        <time>2021-04-18T10:21:18Z</time>
      </trkpt>
      <trkpt lat="43.49982" lon="6.37551">
        <ele>291</ele>
        <time>2021-04-18T10:21:23Z</time>
      </trkpt>
      <trkpt lat="43.49982" lon="6.37557">
        <ele>290.8</ele>
        <time>2021-04-18T10:21:27Z</time>
      </trkpt>
      <trkpt lat="43.49985" lon="6.37562">
        <ele>290.6</ele>
        <time>2021-04-18T10:21:30Z</time>
      </trkpt>
      <trkpt lat="43.49985" lon="6.37569">
        <ele>290</ele>
        <time>2021-04-18T10:21:34Z</time>
      </trkpt>
      <trkpt lat="43.49982" lon="6.37575">
        <ele>290.1</ele>
        <time>2021-04-18T10:21:38Z</time>
      </trkpt>
      <trkpt lat="43.49981" lon="6.37582">
        <ele>289.9</ele>
        <time>2021-04-18T10:21:42Z</time>
      </trkpt>
      <trkpt lat="43.4998" lon="6.37589">
        <ele>289.5</ele>
        <time>2021-04-18T10:21:48Z</time>
      </trkpt>
      <trkpt lat="43.49981" lon="6.37597">
        <ele>289.2</ele>
        <time>2021-04-18T10:21:53Z</time>
      </trkpt>
      <trkpt lat="43.49979" lon="6.37603">
        <ele>289</ele>
        <time>2021-04-18T10:21:58Z</time>
      </trkpt>
      <trkpt lat="43.49977" lon="6.37611">
        <ele>288.7</ele>
        <time>2021-04-18T10:22:03Z</time>
      </trkpt>
      <trkpt lat="43.49975" lon="6.37617">
        <ele>288.5</ele>
        <time>2021-04-18T10:22:06Z</time>
      </trkpt>
      <trkpt lat="43.49972" lon="6.37622">
        <ele>288.4</ele>
        <time>2021-04-18T10:22:08Z</time>
      </trkpt>
      <trkpt lat="43.4997" lon="6.37629">
        <ele>288.2</ele>
        <time>2021-04-18T10:22:11Z</time>
      </trkpt>
      <trkpt lat="43.49967" lon="6.37634">
        <ele>288</ele>
        <time>2021-04-18T10:22:15Z</time>
      </trkpt>
      <trkpt lat="43.49969" lon="6.37642">
        <ele>287.7</ele>
        <time>2021-04-18T10:22:19Z</time>
      </trkpt>
      <trkpt lat="43.49972" lon="6.37649">
        <ele>287.5</ele>
        <time>2021-04-18T10:22:24Z</time>
      </trkpt>
      <trkpt lat="43.49975" lon="6.37654">
        <ele>287.3</ele>
        <time>2021-04-18T10:22:27Z</time>
      </trkpt>
      <trkpt lat="43.49979" lon="6.37658">
        <ele>287.3</ele>
        <time>2021-04-18T10:22:29Z</time>
      </trkpt>
      <trkpt lat="43.49985" lon="6.37663">
        <ele>287.2</ele>
        <time>2021-04-18T10:22:32Z</time>
      </trkpt>
      <trkpt lat="43.49988" lon="6.37669">
        <ele>287.1</ele>
        <time>2021-04-18T10:22:35Z</time>
      </trkpt>
      <trkpt lat="43.49989" lon="6.37676">
        <ele>287</ele>
        <time>2021-04-18T10:22:40Z</time>
      </trkpt>
      <trkpt lat="43.49988" lon="6.37683">
        <ele>287</ele>
        <time>2021-04-18T10:22:44Z</time>
      </trkpt>
      <trkpt lat="43.49989" lon="6.3769">
        <ele>287.2</ele>
        <time>2021-04-18T10:22:48Z</time>
      </trkpt>
      <trkpt lat="43.49993" lon="6.37693">
        <ele>287.3</ele>
        <time>2021-04-18T10:22:51Z</time>
      </trkpt>
      <trkpt lat="43.49999" lon="6.37698">
        <ele>287.4</ele>
        <time>2021-04-18T10:22:54Z</time>
      </trkpt>
      <trkpt lat="43.50003" lon="6.37701">
        <ele>287.4</ele>
        <time>2021-04-18T10:22:56Z</time>
      </trkpt>
      <trkpt lat="43.50008" lon="6.37706">
        <ele>287.5</ele>
        <time>2021-04-18T10:22:59Z</time>
      </trkpt>
      <trkpt lat="43.5001" lon="6.37712">
        <ele>287.6</ele>
        <time>2021-04-18T10:23:03Z</time>
      </trkpt>
      <trkpt lat="43.50009" lon="6.37718">
        <ele>287.5</ele>
        <time>2021-04-18T10:23:07Z</time>
      </trkpt>
      <trkpt lat="43.50007" lon="6.37726">
        <ele>287.2</ele>
        <time>2021-04-18T10:23:12Z</time>
      </trkpt>
      <trkpt lat="43.50006" lon="6.37733">
        <ele>287</ele>
        <time>2021-04-18T10:23:15Z</time>
      </trkpt>
      <trkpt lat="43.50005" lon="6.37741">
        <ele>286.8</ele>
        <time>2021-04-18T10:23:20Z</time>
      </trkpt>
      <trkpt lat="43.50002" lon="6.37748">
        <ele>286.7</ele>
        <time>2021-04-18T10:23:24Z</time>
      </trkpt>
      <trkpt lat="43.50004" lon="6.37754">
        <ele>286.6</ele>
        <time>2021-04-18T10:23:29Z</time>
      </trkpt>
      <trkpt lat="43.50004" lon="6.37761">
        <ele>286.5</ele>
        <time>2021-04-18T10:23:33Z</time>
      </trkpt>
      <trkpt lat="43.50006" lon="6.37768">
        <ele>286.5</ele>
        <time>2021-04-18T10:23:37Z</time>
      </trkpt>
      <trkpt lat="43.50003" lon="6.37776">
        <ele>286.5</ele>
        <time>2021-04-18T10:23:40Z</time>
      </trkpt>
      <trkpt lat="43.50004" lon="6.37782">
        <ele>286.6</ele>
        <time>2021-04-18T10:23:46Z</time>
      </trkpt>
      <trkpt lat="43.50003" lon="6.37789">
        <ele>286.6</ele>
        <time>2021-04-18T10:23:49Z</time>
      </trkpt>
      <trkpt lat="43.50001" lon="6.37796">
        <ele>286.6</ele>
        <time>2021-04-18T10:23:52Z</time>
      </trkpt>
      <trkpt lat="43.50001" lon="6.37804">
        <ele>286.6</ele>
        <time>2021-04-18T10:23:55Z</time>
      </trkpt>
      <trkpt lat="43.49998" lon="6.3781">
        <ele>286.7</ele>
        <time>2021-04-18T10:23:59Z</time>
      </trkpt>
      <trkpt lat="43.49997" lon="6.37816">
        <ele>286.7</ele>
        <time>2021-04-18T10:24:03Z</time>
      </trkpt>
      <trkpt lat="43.49999" lon="6.37823">
        <ele>286.7</ele>
        <time>2021-04-18T10:24:08Z</time>
      </trkpt>
      <trkpt lat="43.50003" lon="6.37829">
        <ele>286.6</ele>
        <time>2021-04-18T10:24:11Z</time>
      </trkpt>
      <trkpt lat="43.50001" lon="6.37835">
        <ele>286.5</ele>
        <time>2021-04-18T10:24:15Z</time>
      </trkpt>
      <trkpt lat="43.50002" lon="6.37842">
        <ele>286.5</ele>
        <time>2021-04-18T10:24:19Z</time>
      </trkpt>
      <trkpt lat="43.50003" lon="6.37848">
        <ele>286.5</ele>
        <time>2021-04-18T10:24:24Z</time>
      </trkpt>
      <trkpt lat="43.50002" lon="6.37855">
        <ele>286.4</ele>
        <time>2021-04-18T10:24:27Z</time>
      </trkpt>
      <trkpt lat="43.50006" lon="6.37859">
        <ele>286.3</ele>
        <time>2021-04-18T10:24:32Z</time>
      </trkpt>
      <trkpt lat="43.50003" lon="6.37867">
        <ele>286.2</ele>
        <time>2021-04-18T10:24:36Z</time>
      </trkpt>
      <trkpt lat="43.5" lon="6.37874">
        <ele>286.1</ele>
        <time>2021-04-18T10:24:39Z</time>
      </trkpt>
      <trkpt lat="43.5" lon="6.37882">
        <ele>285.7</ele>
        <time>2021-04-18T10:24:43Z</time>
      </trkpt>
      <trkpt lat="43.50004" lon="6.37888">
        <ele>285.3</ele>
        <time>2021-04-18T10:24:47Z</time>
      </trkpt>
      <trkpt lat="43.50009" lon="6.37893">
        <ele>285</ele>
        <time>2021-04-18T10:24:51Z</time>
      </trkpt>
      <trkpt lat="43.50011" lon="6.37899">
        <ele>284.9</ele>
        <time>2021-04-18T10:24:54Z</time>
      </trkpt>
      <trkpt lat="43.50011" lon="6.37905">
        <ele>284</ele>
        <time>2021-04-18T10:24:58Z</time>
      </trkpt>
      <trkpt lat="43.50009" lon="6.37911">
        <ele>284.2</ele>
        <time>2021-04-18T10:25:02Z</time>
      </trkpt>
      <trkpt lat="43.50005" lon="6.37917">
        <ele>283.9</ele>
        <time>2021-04-18T10:25:06Z</time>
      </trkpt>
      <trkpt lat="43.50006" lon="6.37924">
        <ele>283.4</ele>
        <time>2021-04-18T10:25:12Z</time>
      </trkpt>
      <trkpt lat="43.50004" lon="6.37931">
        <ele>283.1</ele>
        <time>2021-04-18T10:25:16Z</time>
      </trkpt>
      <trkpt lat="43.50001" lon="6.37937">
        <ele>282.9</ele>
        <time>2021-04-18T10:25:19Z</time>
      </trkpt>
      <trkpt lat="43.50005" lon="6.37944">
        <ele>282.6</ele>
        <time>2021-04-18T10:25:22Z</time>
      </trkpt>
      <trkpt lat="43.50007" lon="6.37951">
        <ele>282.4</ele>
        <time>2021-04-18T10:25:25Z</time>
      </trkpt>
      <trkpt lat="43.50008" lon="6.37958">
        <ele>282</ele>
        <time>2021-04-18T10:25:30Z</time>
      </trkpt>
      <trkpt lat="43.50006" lon="6.37964">
        <ele>281.7</ele>
        <time>2021-04-18T10:25:34Z</time>
      </trkpt>
      <trkpt lat="43.50005" lon="6.37971">
        <ele>281.4</ele>
        <time>2021-04-18T10:25:39Z</time>
      </trkpt>
      <trkpt lat="43.50008" lon="6.37978">
        <ele>281</ele>
        <time>2021-04-18T10:25:44Z</time>
      </trkpt>
      <trkpt lat="43.50005" lon="6.37984">
        <ele>280.6</ele>
        <time>2021-04-18T10:25:48Z</time>
      </trkpt>
      <trkpt lat="43.50002" lon="6.37989">
        <ele>280.1</ele>
        <time>2021-04-18T10:25:53Z</time>
      </trkpt>
      <trkpt lat="43.49999" lon="6.37992">
        <ele>279.4</ele>
        <time>2021-04-18T10:25:58Z</time>
      </trkpt>
      <trkpt lat="43.49997" lon="6.37999">
        <ele>278.9</ele>
        <time>2021-04-18T10:26:02Z</time>
      </trkpt>
      <trkpt lat="43.49993" lon="6.38003">
        <ele>278.5</ele>
        <time>2021-04-18T10:26:05Z</time>
      </trkpt>
      <trkpt lat="43.49988" lon="6.38009">
        <ele>278.1</ele>
        <time>2021-04-18T10:26:09Z</time>
      </trkpt>
      <trkpt lat="43.49986" lon="6.38015">
        <ele>277.7</ele>
        <time>2021-04-18T10:26:12Z</time>
      </trkpt>
      <trkpt lat="43.4999" lon="6.3802">
        <ele>277.3</ele>
        <time>2021-04-18T10:26:15Z</time>
      </trkpt>
      <trkpt lat="43.49994" lon="6.38024">
        <ele>276.9</ele>
        <time>2021-04-18T10:26:18Z</time>
      </trkpt>
      <trkpt lat="43.49996" lon="6.3803">
        <ele>276.4</ele>
        <time>2021-04-18T10:26:22Z</time>
      </trkpt>
      <trkpt lat="43.50001" lon="6.38034">
        <ele>275.7</ele>
        <time>2021-04-18T10:26:30Z</time>
      </trkpt>
      <trkpt lat="43.49996" lon="6.3803">
        <ele>275</ele>
        <time>2021-04-18T10:26:49Z</time>
      </trkpt>
      <trkpt lat="43.49992" lon="6.38025">
        <ele>274</ele>
        <time>2021-04-18T10:26:53Z</time>
      </trkpt>
      <trkpt lat="43.49991" lon="6.38018">
        <ele>275.1</ele>
        <time>2021-04-18T10:26:59Z</time>
      </trkpt>
      <trkpt lat="43.49994" lon="6.38013">
        <ele>275.2</ele>
        <time>2021-04-18T10:27:03Z</time>
      </trkpt>
      <trkpt lat="43.49997" lon="6.38008">
        <ele>275.4</ele>
        <time>2021-04-18T10:27:07Z</time>
      </trkpt>
      <trkpt lat="43.50002" lon="6.38002">
        <ele>275.6</ele>
        <time>2021-04-18T10:27:11Z</time>
      </trkpt>
      <trkpt lat="43.50002" lon="6.37995">
        <ele>276</ele>
        <time>2021-04-18T10:27:17Z</time>
      </trkpt>
      <trkpt lat="43.50004" lon="6.37988">
        <ele>276.5</ele>
        <time>2021-04-18T10:27:23Z</time>
      </trkpt>
      <trkpt lat="43.50009" lon="6.37981">
        <ele>277.1</ele>
        <time>2021-04-18T10:27:29Z</time>
      </trkpt>
      <trkpt lat="43.50013" lon="6.37977">
        <ele>277.5</ele>
        <time>2021-04-18T10:27:33Z</time>
      </trkpt>
      <trkpt lat="43.50015" lon="6.3797">
        <ele>277.8</ele>
        <time>2021-04-18T10:27:39Z</time>
      </trkpt>
      <trkpt lat="43.50019" lon="6.37965">
        <ele>278</ele>
        <time>2021-04-18T10:27:42Z</time>
      </trkpt>
      <trkpt lat="43.50022" lon="6.37959">
        <ele>278.5</ele>
        <time>2021-04-18T10:27:47Z</time>
      </trkpt>
      <trkpt lat="43.50022" lon="6.37952">
        <ele>279</ele>
        <time>2021-04-18T10:27:52Z</time>
      </trkpt>
      <trkpt lat="43.50023" lon="6.37946">
        <ele>279.6</ele>
        <time>2021-04-18T10:27:57Z</time>
      </trkpt>
      <trkpt lat="43.50021" lon="6.3794">
        <ele>280.1</ele>
        <time>2021-04-18T10:28:02Z</time>
      </trkpt>
      <trkpt lat="43.5002" lon="6.37934">
        <ele>280.8</ele>
        <time>2021-04-18T10:28:07Z</time>
      </trkpt>
      <trkpt lat="43.50021" lon="6.37927">
        <ele>281.3</ele>
        <time>2021-04-18T10:28:12Z</time>
      </trkpt>
      <trkpt lat="43.50022" lon="6.3792">
        <ele>281.6</ele>
        <time>2021-04-18T10:28:16Z</time>
      </trkpt>
      <trkpt lat="43.50019" lon="6.37917">
        <ele>282.2</ele>
        <time>2021-04-18T10:28:21Z</time>
      </trkpt>
      <trkpt lat="43.50016" lon="6.37922">
        <ele>282.9</ele>
        <time>2021-04-18T10:28:26Z</time>
      </trkpt>
      <trkpt lat="43.50016" lon="6.3793">
        <ele>283</ele>
        <time>2021-04-18T10:28:32Z</time>
      </trkpt>
      <trkpt lat="43.50014" lon="6.37936">
        <ele>283.8</ele>
        <time>2021-04-18T10:28:37Z</time>
      </trkpt>
      <trkpt lat="43.5001" lon="6.37942">
        <ele>284</ele>
        <time>2021-04-18T10:28:41Z</time>
      </trkpt>
      <trkpt lat="43.50007" lon="6.37947">
        <ele>284.1</ele>
        <time>2021-04-18T10:28:44Z</time>
      </trkpt>
      <trkpt lat="43.50006" lon="6.37955">
        <ele>284</ele>
        <time>2021-04-18T10:28:50Z</time>
      </trkpt>
      <trkpt lat="43.50005" lon="6.37962">
        <ele>283.9</ele>
        <time>2021-04-18T10:28:54Z</time>
      </trkpt>
      <trkpt lat="43.5" lon="6.37968">
        <ele>283.7</ele>
        <time>2021-04-18T10:28:57Z</time>
      </trkpt>
      <trkpt lat="43.49997" lon="6.37973">
        <ele>283.6</ele>
        <time>2021-04-18T10:29:00Z</time>
      </trkpt>
      <trkpt lat="43.49993" lon="6.37979">
        <ele>283.4</ele>
        <time>2021-04-18T10:29:03Z</time>
      </trkpt>
      <trkpt lat="43.49989" lon="6.37984">
        <ele>283.3</ele>
        <time>2021-04-18T10:29:08Z</time>
      </trkpt>
      <trkpt lat="43.49986" lon="6.37989">
        <ele>283.2</ele>
        <time>2021-04-18T10:29:11Z</time>
      </trkpt>
      <trkpt lat="43.49982" lon="6.37993">
        <ele>283.1</ele>
        <time>2021-04-18T10:29:14Z</time>
      </trkpt>
      <trkpt lat="43.49978" lon="6.37997">
        <ele>283</ele>
        <time>2021-04-18T10:29:17Z</time>
      </trkpt>
      <trkpt lat="43.49973" lon="6.38003">
        <ele>282</ele>
        <time>2021-04-18T10:29:30Z</time>
      </trkpt>
      <trkpt lat="43.49969" lon="6.38006">
        <ele>282.9</ele>
        <time>2021-04-18T10:29:33Z</time>
      </trkpt>
      <trkpt lat="43.49964" lon="6.38007">
        <ele>283.3</ele>
        <time>2021-04-18T10:29:43Z</time>
      </trkpt>
      <trkpt lat="43.49959" lon="6.38008">
        <ele>283.8</ele>
        <time>2021-04-18T10:29:49Z</time>
      </trkpt>
      <trkpt lat="43.49954" lon="6.3801">
        <ele>283.9</ele>
        <time>2021-04-18T10:29:53Z</time>
      </trkpt>
      <trkpt lat="43.4995" lon="6.38013">
        <ele>284.2</ele>
        <time>2021-04-18T10:30:00Z</time>
      </trkpt>
      <trkpt lat="43.49945" lon="6.38018">
        <ele>284.2</ele>
        <time>2021-04-18T10:30:03Z</time>
      </trkpt>
      <trkpt lat="43.49941" lon="6.38025">
        <ele>284</ele>
        <time>2021-04-18T10:30:18Z</time>
      </trkpt>
      <trkpt lat="43.49937" lon="6.38028">
        <ele>284</ele>
        <time>2021-04-18T10:30:21Z</time>
      </trkpt>
      <trkpt lat="43.49933" lon="6.38034">
        <ele>284</ele>
        <time>2021-04-18T10:30:34Z</time>
      </trkpt>
      <trkpt lat="43.4993" lon="6.38039">
        <ele>284.1</ele>
        <time>2021-04-18T10:30:41Z</time>
      </trkpt>
      <trkpt lat="43.49929" lon="6.38033">
        <ele>283.4</ele>
        <time>2021-04-18T10:31:06Z</time>
      </trkpt>
      <trkpt lat="43.49928" lon="6.3804">
        <ele>282.9</ele>
        <time>2021-04-18T10:31:20Z</time>
      </trkpt>
      <trkpt lat="43.49926" lon="6.38046">
        <ele>282.1</ele>
        <time>2021-04-18T10:31:27Z</time>
      </trkpt>
      <trkpt lat="43.49924" lon="6.38052">
        <ele>281.4</ele>
        <time>2021-04-18T10:31:33Z</time>
      </trkpt>
      <trkpt lat="43.49925" lon="6.38059">
        <ele>279.8</ele>
        <time>2021-04-18T10:31:44Z</time>
      </trkpt>
      <trkpt lat="43.49923" lon="6.38064">
        <ele>279</ele>
        <time>2021-04-18T10:31:53Z</time>
      </trkpt>
      <trkpt lat="43.49922" lon="6.38071">
        <ele>278</ele>
        <time>2021-04-18T10:32:00Z</time>
      </trkpt>
      <trkpt lat="43.49921" lon="6.38078">
        <ele>276.9</ele>
        <time>2021-04-18T10:32:07Z</time>
      </trkpt>
      <trkpt lat="43.4992" lon="6.38085">
        <ele>275.9</ele>
        <time>2021-04-18T10:32:13Z</time>
      </trkpt>
      <trkpt lat="43.4992" lon="6.38091">
        <ele>275.1</ele>
        <time>2021-04-18T10:32:18Z</time>
      </trkpt>
      <trkpt lat="43.49918" lon="6.38098">
        <ele>274.2</ele>
        <time>2021-04-18T10:32:23Z</time>
      </trkpt>
      <trkpt lat="43.49916" lon="6.38105">
        <ele>273.3</ele>
        <time>2021-04-18T10:32:28Z</time>
      </trkpt>
      <trkpt lat="43.49914" lon="6.38111">
        <ele>272.2</ele>
        <time>2021-04-18T10:32:33Z</time>
      </trkpt>
      <trkpt lat="43.49914" lon="6.38117">
        <ele>271.1</ele>
        <time>2021-04-18T10:32:39Z</time>
      </trkpt>
      <trkpt lat="43.49912" lon="6.38123">
        <ele>270.2</ele>
        <time>2021-04-18T10:32:44Z</time>
      </trkpt>
      <trkpt lat="43.4991" lon="6.3813">
        <ele>269.7</ele>
        <time>2021-04-18T10:32:47Z</time>
      </trkpt>
      <trkpt lat="43.4991" lon="6.38137">
        <ele>268.8</ele>
        <time>2021-04-18T10:32:53Z</time>
      </trkpt>
      <trkpt lat="43.49912" lon="6.38144">
        <ele>267.8</ele>
        <time>2021-04-18T10:32:59Z</time>
      </trkpt>
      <trkpt lat="43.49914" lon="6.38149">
        <ele>267.1</ele>
        <time>2021-04-18T10:33:04Z</time>
      </trkpt>
      <trkpt lat="43.49917" lon="6.38154">
        <ele>266</ele>
        <time>2021-04-18T10:33:11Z</time>
      </trkpt>
      <trkpt lat="43.49913" lon="6.38159">
        <ele>264.8</ele>
        <time>2021-04-18T10:33:20Z</time>
      </trkpt>
      <trkpt lat="43.49908" lon="6.38159">
        <ele>264.2</ele>
        <time>2021-04-18T10:33:25Z</time>
      </trkpt>
      <trkpt lat="43.49902" lon="6.38161">
        <ele>263.6</ele>
        <time>2021-04-18T10:33:31Z</time>
      </trkpt>
      <trkpt lat="43.49897" lon="6.38162">
        <ele>262.8</ele>
        <time>2021-04-18T10:33:37Z</time>
      </trkpt>
      <trkpt lat="43.49892" lon="6.38163">
        <ele>262.1</ele>
        <time>2021-04-18T10:33:44Z</time>
      </trkpt>
      <trkpt lat="43.49888" lon="6.38165">
        <ele>261.7</ele>
        <time>2021-04-18T10:33:48Z</time>
      </trkpt>
      <trkpt lat="43.49883" lon="6.38161">
        <ele>261.1</ele>
        <time>2021-04-18T10:33:55Z</time>
      </trkpt>
      <trkpt lat="43.49879" lon="6.38158">
        <ele>260.8</ele>
        <time>2021-04-18T10:34:00Z</time>
      </trkpt>
      <trkpt lat="43.49875" lon="6.38155">
        <ele>260.5</ele>
        <time>2021-04-18T10:34:04Z</time>
      </trkpt>
      <trkpt lat="43.49873" lon="6.38148">
        <ele>260.2</ele>
        <time>2021-04-18T10:34:10Z</time>
      </trkpt>
      <trkpt lat="43.4987" lon="6.38143">
        <ele>260.1</ele>
        <time>2021-04-18T10:34:15Z</time>
      </trkpt>
      <trkpt lat="43.49867" lon="6.38138">
        <ele>259.9</ele>
        <time>2021-04-18T10:34:21Z</time>
      </trkpt>
      <trkpt lat="43.49865" lon="6.38132">
        <ele>259.7</ele>
        <time>2021-04-18T10:34:26Z</time>
      </trkpt>
      <trkpt lat="43.4986" lon="6.38129">
        <ele>259.4</ele>
        <time>2021-04-18T10:34:31Z</time>
      </trkpt>
      <trkpt lat="43.49856" lon="6.38127">
        <ele>259.3</ele>
        <time>2021-04-18T10:34:34Z</time>
      </trkpt>
      <trkpt lat="43.49849" lon="6.38127">
        <ele>259.2</ele>
        <time>2021-04-18T10:34:38Z</time>
      </trkpt>
      <trkpt lat="43.49844" lon="6.38128">
        <ele>259.2</ele>
        <time>2021-04-18T10:34:40Z</time>
      </trkpt>
      <trkpt lat="43.49839" lon="6.38127">
        <ele>259.1</ele>
        <time>2021-04-18T10:34:43Z</time>
      </trkpt>
      <trkpt lat="43.49835" lon="6.38124">
        <ele>258.9</ele>
        <time>2021-04-18T10:34:47Z</time>
      </trkpt>
      <trkpt lat="43.49831" lon="6.38119">
        <ele>258.8</ele>
        <time>2021-04-18T10:34:53Z</time>
      </trkpt>
      <trkpt lat="43.49828" lon="6.38114">
        <ele>258.5</ele>
        <time>2021-04-18T10:34:59Z</time>
      </trkpt>
      <trkpt lat="43.49823" lon="6.38111">
        <ele>258.1</ele>
        <time>2021-04-18T10:35:03Z</time>
      </trkpt>
      <trkpt lat="43.49817" lon="6.3811">
        <ele>257.6</ele>
        <time>2021-04-18T10:35:08Z</time>
      </trkpt>
      <trkpt lat="43.49812" lon="6.38109">
        <ele>257.2</ele>
        <time>2021-04-18T10:35:11Z</time>
      </trkpt>
      <trkpt lat="43.49808" lon="6.38106">
        <ele>257.1</ele>
        <time>2021-04-18T10:35:15Z</time>
      </trkpt>
      <trkpt lat="43.49803" lon="6.38102">
        <ele>256.9</ele>
        <time>2021-04-18T10:35:21Z</time>
      </trkpt>
      <trkpt lat="43.49799" lon="6.38101">
        <ele>256.7</ele>
        <time>2021-04-18T10:35:24Z</time>
      </trkpt>
      <trkpt lat="43.49793" lon="6.38101">
        <ele>256.5</ele>
        <time>2021-04-18T10:35:28Z</time>
      </trkpt>
      <trkpt lat="43.49788" lon="6.38098">
        <ele>256.2</ele>
        <time>2021-04-18T10:35:33Z</time>
      </trkpt>
      <trkpt lat="43.49783" lon="6.38096">
        <ele>256.1</ele>
        <time>2021-04-18T10:35:37Z</time>
      </trkpt>
      <trkpt lat="43.49778" lon="6.38093">
        <ele>255.8</ele>
        <time>2021-04-18T10:35:42Z</time>
      </trkpt>
      <trkpt lat="43.49774" lon="6.3809">
        <ele>255.7</ele>
        <time>2021-04-18T10:35:46Z</time>
      </trkpt>
      <trkpt lat="43.4977" lon="6.38086">
        <ele>255.5</ele>
        <time>2021-04-18T10:35:51Z</time>
      </trkpt>
      <trkpt lat="43.49767" lon="6.38081">
        <ele>255.4</ele>
        <time>2021-04-18T10:35:56Z</time>
      </trkpt>
      <trkpt lat="43.49766" lon="6.38074">
        <ele>255.2</ele>
        <time>2021-04-18T10:36:00Z</time>
      </trkpt>
      <trkpt lat="43.49763" lon="6.38069">
        <ele>255</ele>
        <time>2021-04-18T10:36:04Z</time>
      </trkpt>
      <trkpt lat="43.49761" lon="6.38063">
        <ele>254.8</ele>
        <time>2021-04-18T10:36:09Z</time>
      </trkpt>
      <trkpt lat="43.49759" lon="6.38056">
        <ele>254.5</ele>
        <time>2021-04-18T10:36:15Z</time>
      </trkpt>
      <trkpt lat="43.49756" lon="6.3805">
        <ele>254.3</ele>
        <time>2021-04-18T10:36:18Z</time>
      </trkpt>
      <trkpt lat="43.49754" lon="6.38044">
        <ele>254.1</ele>
        <time>2021-04-18T10:36:24Z</time>
      </trkpt>
      <trkpt lat="43.49753" lon="6.38038">
        <ele>253.8</ele>
        <time>2021-04-18T10:36:28Z</time>
      </trkpt>
      <trkpt lat="43.49749" lon="6.38033">
        <ele>253.3</ele>
        <time>2021-04-18T10:36:33Z</time>
      </trkpt>
      <trkpt lat="43.49745" lon="6.38027">
        <ele>253.1</ele>
        <time>2021-04-18T10:36:37Z</time>
      </trkpt>
      <trkpt lat="43.49742" lon="6.38021">
        <ele>252.8</ele>
        <time>2021-04-18T10:36:42Z</time>
      </trkpt>
      <trkpt lat="43.49738" lon="6.38017">
        <ele>252.5</ele>
        <time>2021-04-18T10:36:48Z</time>
      </trkpt>
      <trkpt lat="43.49732" lon="6.38014">
        <ele>252.3</ele>
        <time>2021-04-18T10:36:51Z</time>
      </trkpt>
      <trkpt lat="43.49729" lon="6.3801">
        <ele>252</ele>
        <time>2021-04-18T10:36:56Z</time>
      </trkpt>
      <trkpt lat="43.49724" lon="6.3801">
        <ele>251.5</ele>
        <time>2021-04-18T10:37:01Z</time>
      </trkpt>
      <trkpt lat="43.49719" lon="6.38011">
        <ele>251.1</ele>
        <time>2021-04-18T10:37:06Z</time>
      </trkpt>
      <trkpt lat="43.49714" lon="6.38013">
        <ele>250.7</ele>
        <time>2021-04-18T10:37:10Z</time>
      </trkpt>
      <trkpt lat="43.4971" lon="6.38011">
        <ele>250.3</ele>
        <time>2021-04-18T10:37:14Z</time>
      </trkpt>
      <trkpt lat="43.49705" lon="6.3801">
        <ele>249.8</ele>
        <time>2021-04-18T10:37:19Z</time>
      </trkpt>
      <trkpt lat="43.497" lon="6.38009">
        <ele>249.4</ele>
        <time>2021-04-18T10:37:23Z</time>
      </trkpt>
      <trkpt lat="43.49696" lon="6.38007">
        <ele>249</ele>
        <time>2021-04-18T10:37:28Z</time>
      </trkpt>
      <trkpt lat="43.49691" lon="6.38005">
        <ele>248.6</ele>
        <time>2021-04-18T10:37:33Z</time>
      </trkpt>
      <trkpt lat="43.49686" lon="6.38004">
        <ele>248.4</ele>
        <time>2021-04-18T10:37:37Z</time>
      </trkpt>
      <trkpt lat="43.4968" lon="6.38003">
        <ele>248.1</ele>
        <time>2021-04-18T10:37:44Z</time>
      </trkpt>
      <trkpt lat="43.49676" lon="6.38001">
        <ele>248</ele>
        <time>2021-04-18T10:37:49Z</time>
      </trkpt>
      <trkpt lat="43.49671" lon="6.37999">
        <ele>247.8</ele>
        <time>2021-04-18T10:37:54Z</time>
      </trkpt>
      <trkpt lat="43.49666" lon="6.38001">
        <ele>247.4</ele>
        <time>2021-04-18T10:37:59Z</time>
      </trkpt>
      <trkpt lat="43.49661" lon="6.38003">
        <ele>247</ele>
        <time>2021-04-18T10:38:05Z</time>
      </trkpt>
      <trkpt lat="43.49659" lon="6.38004">
        <ele>246.3</ele>
        <time>2021-04-18T10:38:16Z</time>
      </trkpt>
    </trkseg>
  </trk>
</gpx>